<?xml version='1.0' encoding='UTF-8'?><gpx version="1.1" creator="JPX - https://github.com/jenetics/jpx" xmlns="http://www.topografix.com/GPX/1/1"><trk><trkseg><trkpt lat="41.1607653" lon="-7.8878467"><ele>366.0</ele><time>2026-04-25T14:39:22.801Z</time></trkpt><trkpt lat="41.1648456" lon="-7.8976592"><ele>366.0</ele><time>2026-04-25T14:39:42.775Z</time></trkpt><trkpt lat="41.1647802" lon="-7.8976681"><ele>366.0</ele><time>2026-04-25T14:39:45.704Z</time></trkpt><trkpt lat="41.1647405" lon="-7.8976025"><ele>366.0</ele><time>2026-04-25T14:39:48.702Z</time></trkpt><trkpt lat="41.1648076" lon="-7.8976231"><ele>366.0</ele><time>2026-04-25T14:40:07.705Z</time></trkpt><trkpt lat="41.1648568" lon="-7.8976835"><ele>366.0</ele><time>2026-04-25T14:40:21.699Z</time></trkpt><trkpt lat="41.1647916" lon="-7.8977023"><ele>366.0</ele><time>2026-04-25T14:40:43.697Z</time></trkpt><trkpt lat="41.1647308" lon="-7.8976789"><ele>366.0</ele><time>2026-04-25T14:40:59.697Z</time></trkpt><trkpt lat="41.1646844" lon="-7.897606"><ele>366.0</ele><time>2026-04-25T14:42:48.698Z</time></trkpt><trkpt lat="41.1647402" lon="-7.8977382"><ele>366.0</ele><time>2026-04-25T14:44:06.709Z</time></trkpt><trkpt lat="41.1646871" lon="-7.8976721"><ele>366.0</ele><time>2026-04-25T14:44:17.705Z</time></trkpt><trkpt lat="41.1647514" lon="-7.8976828"><ele>366.0</ele><time>2026-04-25T14:44:35.712Z</time></trkpt><trkpt lat="41.1646909" lon="-7.8976064"><ele>366.0</ele><time>2026-04-25T14:45:00.699Z</time></trkpt><trkpt lat="41.1647128" lon="-7.8976864"><ele>366.0</ele><time>2026-04-25T14:45:07.704Z</time></trkpt><trkpt lat="41.1647638" lon="-7.8977398"><ele>366.0</ele><time>2026-04-25T14:45:17.7Z</time></trkpt><trkpt lat="41.1647244" lon="-7.8976623"><ele>366.0</ele><time>2026-04-25T14:45:30.699Z</time></trkpt><trkpt lat="41.1646708" lon="-7.8976034"><ele>366.0</ele><time>2026-04-25T14:45:41.703Z</time></trkpt><trkpt lat="41.1646089" lon="-7.8976521"><ele>366.0</ele><time>2026-04-25T14:46:15.706Z</time></trkpt><trkpt lat="41.1645452" lon="-7.8976695"><ele>366.0</ele><time>2026-04-25T14:46:17.702Z</time></trkpt><trkpt lat="41.1644255" lon="-7.8976547"><ele>366.0</ele><time>2026-04-25T14:46:19.704Z</time></trkpt><trkpt lat="41.1643629" lon="-7.8976357"><ele>366.0</ele><time>2026-04-25T14:46:20.698Z</time></trkpt><trkpt lat="41.1642967" lon="-7.8975424"><ele>366.0</ele><time>2026-04-25T14:46:22.695Z</time></trkpt><trkpt lat="41.1643015" lon="-7.8974331"><ele>366.0</ele><time>2026-04-25T14:46:24.699Z</time></trkpt><trkpt lat="41.1642544" lon="-7.8975058"><ele>366.0</ele><time>2026-04-25T14:46:28.695Z</time></trkpt><trkpt lat="41.1642636" lon="-7.8976139"><ele>366.0</ele><time>2026-04-25T14:46:30.707Z</time></trkpt><trkpt lat="41.1643146" lon="-7.8977303"><ele>366.0</ele><time>2026-04-25T14:46:32.703Z</time></trkpt><trkpt lat="41.1644147" lon="-7.8977764"><ele>366.0</ele><time>2026-04-25T14:46:34.708Z</time></trkpt><trkpt lat="41.1644788" lon="-7.8977803"><ele>366.0</ele><time>2026-04-25T14:46:35.7Z</time></trkpt><trkpt lat="41.1645508" lon="-7.8977765"><ele>366.0</ele><time>2026-04-25T14:46:36.697Z</time></trkpt><trkpt lat="41.1646169" lon="-7.8977659"><ele>366.0</ele><time>2026-04-25T14:46:37.698Z</time></trkpt><trkpt lat="41.1646899" lon="-7.8977626"><ele>366.0</ele><time>2026-04-25T14:46:38.698Z</time></trkpt><trkpt lat="41.164821" lon="-7.8977742"><ele>366.0</ele><time>2026-04-25T14:46:40.699Z</time></trkpt><trkpt lat="41.1648923" lon="-7.8977923"><ele>363.5</ele><time>2026-04-25T14:46:41.697Z</time></trkpt><trkpt lat="41.1649593" lon="-7.8978144"><ele>361.0</ele><time>2026-04-25T14:46:42.697Z</time></trkpt><trkpt lat="41.1650482" lon="-7.8978602"><ele>358.5</ele><time>2026-04-25T14:46:44.707Z</time></trkpt><trkpt lat="41.165109" lon="-7.897908"><ele>356.0</ele><time>2026-04-25T14:46:46.699Z</time></trkpt><trkpt lat="41.1651619" lon="-7.8979683"><ele>353.5</ele><time>2026-04-25T14:46:48.711Z</time></trkpt><trkpt lat="41.1652294" lon="-7.8980462"><ele>351.0</ele><time>2026-04-25T14:46:50.696Z</time></trkpt><trkpt lat="41.1653134" lon="-7.8981716"><ele>351.0</ele><time>2026-04-25T14:46:52.698Z</time></trkpt><trkpt lat="41.1653226" lon="-7.8982624"><ele>351.0</ele><time>2026-04-25T14:46:53.698Z</time></trkpt><trkpt lat="41.1653203" lon="-7.8983592"><ele>351.0</ele><time>2026-04-25T14:46:54.704Z</time></trkpt><trkpt lat="41.1653165" lon="-7.8984607"><ele>351.0</ele><time>2026-04-25T14:46:55.701Z</time></trkpt><trkpt lat="41.1653125" lon="-7.8985692"><ele>351.0</ele><time>2026-04-25T14:46:56.698Z</time></trkpt><trkpt lat="41.1653172" lon="-7.8986869"><ele>351.0</ele><time>2026-04-25T14:46:57.714Z</time></trkpt><trkpt lat="41.1653262" lon="-7.8988184"><ele>350.8</ele><time>2026-04-25T14:46:58.705Z</time></trkpt><trkpt lat="41.1653368" lon="-7.898957"><ele>350.6</ele><time>2026-04-25T14:46:59.701Z</time></trkpt><trkpt lat="41.1653504" lon="-7.8991"><ele>350.4</ele><time>2026-04-25T14:47:00.699Z</time></trkpt><trkpt lat="41.1653667" lon="-7.8992371"><ele>350.2</ele><time>2026-04-25T14:47:01.698Z</time></trkpt><trkpt lat="41.1653825" lon="-7.8993607"><ele>350.0</ele><time>2026-04-25T14:47:02.696Z</time></trkpt><trkpt lat="41.1653996" lon="-7.8994644"><ele>351.7142857142857</ele><time>2026-04-25T14:47:03.704Z</time></trkpt><trkpt lat="41.1654206" lon="-7.8995534"><ele>353.42857142857144</ele><time>2026-04-25T14:47:04.696Z</time></trkpt><trkpt lat="41.1654405" lon="-7.8996362"><ele>355.1428571428571</ele><time>2026-04-25T14:47:05.699Z</time></trkpt><trkpt lat="41.1654674" lon="-7.8997123"><ele>356.8571428571429</ele><time>2026-04-25T14:47:06.703Z</time></trkpt><trkpt lat="41.1655045" lon="-7.8997833"><ele>358.57142857142856</ele><time>2026-04-25T14:47:07.702Z</time></trkpt><trkpt lat="41.1655628" lon="-7.8998669"><ele>360.2857142857143</ele><time>2026-04-25T14:47:09.703Z</time></trkpt><trkpt lat="41.1656113" lon="-7.8997777"><ele>362.0</ele><time>2026-04-25T14:47:11.697Z</time></trkpt><trkpt lat="41.1656234" lon="-7.8996811"><ele>362.0</ele><time>2026-04-25T14:47:12.699Z</time></trkpt><trkpt lat="41.1656271" lon="-7.8995703"><ele>362.0</ele><time>2026-04-25T14:47:13.698Z</time></trkpt><trkpt lat="41.1656286" lon="-7.8994569"><ele>362.0</ele><time>2026-04-25T14:47:14.697Z</time></trkpt><trkpt lat="41.1656293" lon="-7.8993605"><ele>362.0</ele><time>2026-04-25T14:47:15.704Z</time></trkpt><trkpt lat="41.1656309" lon="-7.8992694"><ele>362.0</ele><time>2026-04-25T14:47:16.7Z</time></trkpt><trkpt lat="41.1656222" lon="-7.8991163"><ele>362.0</ele><time>2026-04-25T14:47:18.697Z</time></trkpt><trkpt lat="41.1656257" lon="-7.8990128"><ele>360.0</ele><time>2026-04-25T14:47:20.701Z</time></trkpt><trkpt lat="41.1656646" lon="-7.8991337"><ele>358.0</ele><time>2026-04-25T14:47:24.704Z</time></trkpt><trkpt lat="41.1656863" lon="-7.8992365"><ele>356.0</ele><time>2026-04-25T14:47:25.699Z</time></trkpt><trkpt lat="41.1657298" lon="-7.899334"><ele>354.0</ele><time>2026-04-25T14:47:26.699Z</time></trkpt><trkpt lat="41.1657797" lon="-7.8994123"><ele>352.0</ele><time>2026-04-25T14:47:27.698Z</time></trkpt><trkpt lat="41.1658432" lon="-7.8994428"><ele>350.0</ele><time>2026-04-25T14:47:28.692Z</time></trkpt><trkpt lat="41.1659179" lon="-7.899436"><ele>348.6666666666667</ele><time>2026-04-25T14:47:29.696Z</time></trkpt><trkpt lat="41.165994" lon="-7.8994125"><ele>347.33333333333337</ele><time>2026-04-25T14:47:30.699Z</time></trkpt><trkpt lat="41.1660728" lon="-7.8993851"><ele>346.0</ele><time>2026-04-25T14:47:31.7Z</time></trkpt><trkpt lat="41.1661524" lon="-7.8993728"><ele>344.6666666666667</ele><time>2026-04-25T14:47:32.695Z</time></trkpt><trkpt lat="41.1662369" lon="-7.8993732"><ele>343.3333333333333</ele><time>2026-04-25T14:47:33.697Z</time></trkpt><trkpt lat="41.1663163" lon="-7.8993959"><ele>342.0</ele><time>2026-04-25T14:47:34.696Z</time></trkpt><trkpt lat="41.1663982" lon="-7.899422"><ele>342.0</ele><time>2026-04-25T14:47:35.709Z</time></trkpt><trkpt lat="41.1664794" lon="-7.8994497"><ele>342.0</ele><time>2026-04-25T14:47:36.697Z</time></trkpt><trkpt lat="41.1665432" lon="-7.8994839"><ele>342.0</ele><time>2026-04-25T14:47:37.701Z</time></trkpt><trkpt lat="41.1666054" lon="-7.8995064"><ele>342.0</ele><time>2026-04-25T14:47:38.697Z</time></trkpt><trkpt lat="41.1667338" lon="-7.8995404"><ele>342.0</ele><time>2026-04-25T14:47:40.701Z</time></trkpt><trkpt lat="41.1667999" lon="-7.8995506"><ele>342.0</ele><time>2026-04-25T14:47:41.702Z</time></trkpt><trkpt lat="41.1668665" lon="-7.8995541"><ele>342.3333333333333</ele><time>2026-04-25T14:47:42.695Z</time></trkpt><trkpt lat="41.1669321" lon="-7.8995436"><ele>342.6666666666667</ele><time>2026-04-25T14:47:43.693Z</time></trkpt><trkpt lat="41.16704" lon="-7.8995014"><ele>343.0</ele><time>2026-04-25T14:47:45.698Z</time></trkpt><trkpt lat="41.167117" lon="-7.8994266"><ele>343.33333333333337</ele><time>2026-04-25T14:47:47.704Z</time></trkpt><trkpt lat="41.1671811" lon="-7.8993651"><ele>343.6666666666667</ele><time>2026-04-25T14:47:49.701Z</time></trkpt><trkpt lat="41.1672175" lon="-7.8992674"><ele>344.0</ele><time>2026-04-25T14:47:51.708Z</time></trkpt><trkpt lat="41.1672537" lon="-7.899179"><ele>340.6666666666667</ele><time>2026-04-25T14:47:53.699Z</time></trkpt><trkpt lat="41.1673334" lon="-7.8991143"><ele>337.33333333333337</ele><time>2026-04-25T14:47:55.698Z</time></trkpt><trkpt lat="41.167438" lon="-7.8990645"><ele>334.0</ele><time>2026-04-25T14:47:57.707Z</time></trkpt><trkpt lat="41.1674984" lon="-7.8990363"><ele>330.6666666666667</ele><time>2026-04-25T14:47:58.693Z</time></trkpt><trkpt lat="41.1675666" lon="-7.8989986"><ele>327.3333333333333</ele><time>2026-04-25T14:47:59.695Z</time></trkpt><trkpt lat="41.1676272" lon="-7.8989677"><ele>324.0</ele><time>2026-04-25T14:48:00.697Z</time></trkpt><trkpt lat="41.1677012" lon="-7.8989296"><ele>324.0</ele><time>2026-04-25T14:48:01.698Z</time></trkpt><trkpt lat="41.1677816" lon="-7.8988801"><ele>324.0</ele><time>2026-04-25T14:48:02.7Z</time></trkpt><trkpt lat="41.167865" lon="-7.8988413"><ele>324.0</ele><time>2026-04-25T14:48:03.695Z</time></trkpt><trkpt lat="41.1679427" lon="-7.8987949"><ele>324.0</ele><time>2026-04-25T14:48:04.701Z</time></trkpt><trkpt lat="41.16801" lon="-7.8987351"><ele>324.0</ele><time>2026-04-25T14:48:05.698Z</time></trkpt><trkpt lat="41.1680859" lon="-7.8986813"><ele>324.0</ele><time>2026-04-25T14:48:06.706Z</time></trkpt><trkpt lat="41.1681608" lon="-7.8986067"><ele>326.6</ele><time>2026-04-25T14:48:07.708Z</time></trkpt><trkpt lat="41.1682457" lon="-7.898532"><ele>329.2</ele><time>2026-04-25T14:48:08.697Z</time></trkpt><trkpt lat="41.1683218" lon="-7.8984556"><ele>331.8</ele><time>2026-04-25T14:48:09.698Z</time></trkpt><trkpt lat="41.1683902" lon="-7.8983673"><ele>334.40000000000003</ele><time>2026-04-25T14:48:10.699Z</time></trkpt><trkpt lat="41.1684571" lon="-7.8982826"><ele>337.0</ele><time>2026-04-25T14:48:11.697Z</time></trkpt><trkpt lat="41.1685236" lon="-7.8981995"><ele>332.66666666666663</ele><time>2026-04-25T14:48:12.697Z</time></trkpt><trkpt lat="41.1685878" lon="-7.8981327"><ele>328.3333333333333</ele><time>2026-04-25T14:48:13.704Z</time></trkpt><trkpt lat="41.1686423" lon="-7.8980625"><ele>324.0</ele><time>2026-04-25T14:48:14.697Z</time></trkpt><trkpt lat="41.1686895" lon="-7.8979878"><ele>319.6666666666667</ele><time>2026-04-25T14:48:15.702Z</time></trkpt><trkpt lat="41.1687271" lon="-7.8979052"><ele>315.33333333333337</ele><time>2026-04-25T14:48:16.697Z</time></trkpt><trkpt lat="41.1687519" lon="-7.8978218"><ele>311.0</ele><time>2026-04-25T14:48:17.702Z</time></trkpt><trkpt lat="41.1687479" lon="-7.8976879"><ele>311.0</ele><time>2026-04-25T14:48:19.701Z</time></trkpt><trkpt lat="41.1687374" lon="-7.897591"><ele>311.0</ele><time>2026-04-25T14:48:21.695Z</time></trkpt><trkpt lat="41.1686909" lon="-7.897525"><ele>311.0</ele><time>2026-04-25T14:48:24.712Z</time></trkpt><trkpt lat="41.1687002" lon="-7.8974363"><ele>311.0</ele><time>2026-04-25T14:48:27.691Z</time></trkpt><trkpt lat="41.1687131" lon="-7.8973209"><ele>311.0</ele><time>2026-04-25T14:48:30.703Z</time></trkpt><trkpt lat="41.1687325" lon="-7.8971967"><ele>311.0</ele><time>2026-04-25T14:48:32.696Z</time></trkpt><trkpt lat="41.1687156" lon="-7.8970703"><ele>309.2</ele><time>2026-04-25T14:48:34.703Z</time></trkpt><trkpt lat="41.1687023" lon="-7.8968954"><ele>307.40000000000003</ele><time>2026-04-25T14:48:36.699Z</time></trkpt><trkpt lat="41.1687013" lon="-7.8968025"><ele>305.6</ele><time>2026-04-25T14:48:37.701Z</time></trkpt><trkpt lat="41.1687036" lon="-7.8967108"><ele>303.8</ele><time>2026-04-25T14:48:38.707Z</time></trkpt><trkpt lat="41.1687437" lon="-7.8965592"><ele>302.0</ele><time>2026-04-25T14:48:40.693Z</time></trkpt><trkpt lat="41.1687934" lon="-7.8964995"><ele>302.0</ele><time>2026-04-25T14:48:41.691Z</time></trkpt><trkpt lat="41.1688447" lon="-7.8964496"><ele>302.0</ele><time>2026-04-25T14:48:42.703Z</time></trkpt><trkpt lat="41.1689761" lon="-7.8964623"><ele>302.0</ele><time>2026-04-25T14:48:44.698Z</time></trkpt><trkpt lat="41.1690571" lon="-7.8964972"><ele>302.0</ele><time>2026-04-25T14:48:45.698Z</time></trkpt><trkpt lat="41.1691442" lon="-7.8965414"><ele>302.0</ele><time>2026-04-25T14:48:46.702Z</time></trkpt><trkpt lat="41.1692386" lon="-7.8965972"><ele>305.2</ele><time>2026-04-25T14:48:47.699Z</time></trkpt><trkpt lat="41.1693411" lon="-7.8966601"><ele>308.4</ele><time>2026-04-25T14:48:48.695Z</time></trkpt><trkpt lat="41.1694379" lon="-7.8967133"><ele>311.6</ele><time>2026-04-25T14:48:49.703Z</time></trkpt><trkpt lat="41.1695343" lon="-7.8967811"><ele>314.8</ele><time>2026-04-25T14:48:50.703Z</time></trkpt><trkpt lat="41.1696338" lon="-7.8968484"><ele>318.0</ele><time>2026-04-25T14:48:51.701Z</time></trkpt><trkpt lat="41.1697264" lon="-7.8969001"><ele>321.0</ele><time>2026-04-25T14:48:52.701Z</time></trkpt><trkpt lat="41.1698138" lon="-7.8969428"><ele>324.0</ele><time>2026-04-25T14:48:53.7Z</time></trkpt><trkpt lat="41.169898" lon="-7.8969813"><ele>327.0</ele><time>2026-04-25T14:48:54.698Z</time></trkpt><trkpt lat="41.1699827" lon="-7.8970199"><ele>330.0</ele><time>2026-04-25T14:48:55.702Z</time></trkpt><trkpt lat="41.1700702" lon="-7.8970581"><ele>333.0</ele><time>2026-04-25T14:48:56.697Z</time></trkpt><trkpt lat="41.1701634" lon="-7.8971032"><ele>335.2</ele><time>2026-04-25T14:48:57.694Z</time></trkpt><trkpt lat="41.1702564" lon="-7.8971582"><ele>337.4</ele><time>2026-04-25T14:48:58.702Z</time></trkpt><trkpt lat="41.17034" lon="-7.8972131"><ele>339.59999999999997</ele><time>2026-04-25T14:48:59.698Z</time></trkpt><trkpt lat="41.1704268" lon="-7.8972678"><ele>341.79999999999995</ele><time>2026-04-25T14:49:00.697Z</time></trkpt><trkpt lat="41.1705142" lon="-7.8973394"><ele>344.0</ele><time>2026-04-25T14:49:01.692Z</time></trkpt><trkpt lat="41.1705846" lon="-7.8974426"><ele>344.0</ele><time>2026-04-25T14:49:02.702Z</time></trkpt><trkpt lat="41.1706371" lon="-7.8975709"><ele>344.0</ele><time>2026-04-25T14:49:03.699Z</time></trkpt><trkpt lat="41.1706733" lon="-7.8977158"><ele>344.0</ele><time>2026-04-25T14:49:04.696Z</time></trkpt><trkpt lat="41.1707008" lon="-7.8978661"><ele>344.0</ele><time>2026-04-25T14:49:05.699Z</time></trkpt><trkpt lat="41.1707114" lon="-7.8980229"><ele>342.0</ele><time>2026-04-25T14:49:06.696Z</time></trkpt><trkpt lat="41.1707102" lon="-7.8981762"><ele>340.0</ele><time>2026-04-25T14:49:07.695Z</time></trkpt><trkpt lat="41.1706979" lon="-7.8983343"><ele>338.0</ele><time>2026-04-25T14:49:08.699Z</time></trkpt><trkpt lat="41.1707006" lon="-7.8984971"><ele>336.0</ele><time>2026-04-25T14:49:09.694Z</time></trkpt><trkpt lat="41.1707159" lon="-7.8986519"><ele>340.75</ele><time>2026-04-25T14:49:10.698Z</time></trkpt><trkpt lat="41.1707528" lon="-7.8988076"><ele>345.5</ele><time>2026-04-25T14:49:11.701Z</time></trkpt><trkpt lat="41.1708039" lon="-7.8989627"><ele>350.25</ele><time>2026-04-25T14:49:12.695Z</time></trkpt><trkpt lat="41.1708654" lon="-7.899121"><ele>355.0</ele><time>2026-04-25T14:49:13.697Z</time></trkpt><trkpt lat="41.1709363" lon="-7.8992704"><ele>359.5</ele><time>2026-04-25T14:49:14.701Z</time></trkpt><trkpt lat="41.1709831" lon="-7.8994195"><ele>364.0</ele><time>2026-04-25T14:49:15.706Z</time></trkpt><trkpt lat="41.1710384" lon="-7.8995569"><ele>368.5</ele><time>2026-04-25T14:49:16.699Z</time></trkpt><trkpt lat="41.1711028" lon="-7.899689"><ele>373.0</ele><time>2026-04-25T14:49:17.696Z</time></trkpt><trkpt lat="41.1711708" lon="-7.8998127"><ele>373.0</ele><time>2026-04-25T14:49:18.709Z</time></trkpt><trkpt lat="41.1712403" lon="-7.8999472"><ele>373.0</ele><time>2026-04-25T14:49:19.703Z</time></trkpt><trkpt lat="41.1713145" lon="-7.9000771"><ele>373.0</ele><time>2026-04-25T14:49:20.698Z</time></trkpt><trkpt lat="41.1713877" lon="-7.9002006"><ele>373.0</ele><time>2026-04-25T14:49:21.701Z</time></trkpt><trkpt lat="41.1714716" lon="-7.9003118"><ele>374.25</ele><time>2026-04-25T14:49:22.697Z</time></trkpt><trkpt lat="41.1715735" lon="-7.9004037"><ele>375.5</ele><time>2026-04-25T14:49:23.709Z</time></trkpt><trkpt lat="41.171696" lon="-7.9004786"><ele>376.75</ele><time>2026-04-25T14:49:24.7Z</time></trkpt><trkpt lat="41.1718256" lon="-7.9005298"><ele>378.0</ele><time>2026-04-25T14:49:25.697Z</time></trkpt><trkpt lat="41.171941" lon="-7.9005743"><ele>378.0</ele><time>2026-04-25T14:49:26.696Z</time></trkpt><trkpt lat="41.1720568" lon="-7.9006136"><ele>378.0</ele><time>2026-04-25T14:49:27.704Z</time></trkpt><trkpt lat="41.1721615" lon="-7.9006667"><ele>378.0</ele><time>2026-04-25T14:49:28.7Z</time></trkpt><trkpt lat="41.1722564" lon="-7.9007403"><ele>378.0</ele><time>2026-04-25T14:49:29.704Z</time></trkpt><trkpt lat="41.1723391" lon="-7.9008408"><ele>374.25</ele><time>2026-04-25T14:49:30.694Z</time></trkpt><trkpt lat="41.1723961" lon="-7.9009788"><ele>370.5</ele><time>2026-04-25T14:49:31.706Z</time></trkpt><trkpt lat="41.1724278" lon="-7.9011371"><ele>366.75</ele><time>2026-04-25T14:49:32.693Z</time></trkpt><trkpt lat="41.1724382" lon="-7.9013054"><ele>363.0</ele><time>2026-04-25T14:49:33.696Z</time></trkpt><trkpt lat="41.1724424" lon="-7.9014683"><ele>363.0</ele><time>2026-04-25T14:49:34.692Z</time></trkpt><trkpt lat="41.172444" lon="-7.9016252"><ele>363.0</ele><time>2026-04-25T14:49:35.703Z</time></trkpt><trkpt lat="41.1724403" lon="-7.9017789"><ele>363.0</ele><time>2026-04-25T14:49:36.699Z</time></trkpt><trkpt lat="41.1724203" lon="-7.9019299"><ele>363.0</ele><time>2026-04-25T14:49:37.699Z</time></trkpt><trkpt lat="41.1723735" lon="-7.9020828"><ele>370.5</ele><time>2026-04-25T14:49:38.699Z</time></trkpt><trkpt lat="41.1722993" lon="-7.9022299"><ele>378.0</ele><time>2026-04-25T14:49:39.702Z</time></trkpt><trkpt lat="41.1722125" lon="-7.9023644"><ele>385.5</ele><time>2026-04-25T14:49:40.7Z</time></trkpt><trkpt lat="41.1721274" lon="-7.9024996"><ele>393.0</ele><time>2026-04-25T14:49:41.699Z</time></trkpt><trkpt lat="41.1720411" lon="-7.9026326"><ele>393.79999999999995</ele><time>2026-04-25T14:49:42.696Z</time></trkpt><trkpt lat="41.171945" lon="-7.9027571"><ele>394.6</ele><time>2026-04-25T14:49:43.705Z</time></trkpt><trkpt lat="41.1718813" lon="-7.9028612"><ele>395.4</ele><time>2026-04-25T14:49:44.697Z</time></trkpt><trkpt lat="41.1718318" lon="-7.9029767"><ele>396.20000000000005</ele><time>2026-04-25T14:49:45.699Z</time></trkpt><trkpt lat="41.171799" lon="-7.9030918"><ele>397.0</ele><time>2026-04-25T14:49:46.693Z</time></trkpt><trkpt lat="41.1717899" lon="-7.903209"><ele>397.0</ele><time>2026-04-25T14:49:47.701Z</time></trkpt><trkpt lat="41.1718313" lon="-7.903306"><ele>397.0</ele><time>2026-04-25T14:49:48.703Z</time></trkpt><trkpt lat="41.1718998" lon="-7.9033877"><ele>397.0</ele><time>2026-04-25T14:49:49.698Z</time></trkpt><trkpt lat="41.1719713" lon="-7.9034454"><ele>397.0</ele><time>2026-04-25T14:49:50.699Z</time></trkpt><trkpt lat="41.1720637" lon="-7.9034893"><ele>397.0</ele><time>2026-04-25T14:49:51.701Z</time></trkpt><trkpt lat="41.1721904" lon="-7.903525"><ele>402.0</ele><time>2026-04-25T14:49:52.704Z</time></trkpt><trkpt lat="41.1723297" lon="-7.9035593"><ele>407.0</ele><time>2026-04-25T14:49:53.695Z</time></trkpt><trkpt lat="41.1724955" lon="-7.9036087"><ele>412.0</ele><time>2026-04-25T14:49:54.702Z</time></trkpt><trkpt lat="41.1726832" lon="-7.9036854"><ele>412.33333333333337</ele><time>2026-04-25T14:49:55.708Z</time></trkpt><trkpt lat="41.172875" lon="-7.9037441"><ele>412.66666666666663</ele><time>2026-04-25T14:49:56.698Z</time></trkpt><trkpt lat="41.1730762" lon="-7.903796"><ele>413.0</ele><time>2026-04-25T14:49:57.693Z</time></trkpt><trkpt lat="41.1732756" lon="-7.9038338"><ele>411.0</ele><time>2026-04-25T14:49:58.704Z</time></trkpt><trkpt lat="41.1734297" lon="-7.9038876"><ele>409.0</ele><time>2026-04-25T14:49:59.701Z</time></trkpt><trkpt lat="41.1735316" lon="-7.903961"><ele>407.0</ele><time>2026-04-25T14:50:00.697Z</time></trkpt><trkpt lat="41.1736263" lon="-7.904037"><ele>405.0</ele><time>2026-04-25T14:50:01.696Z</time></trkpt><trkpt lat="41.1737071" lon="-7.9041226"><ele>405.0</ele><time>2026-04-25T14:50:02.696Z</time></trkpt><trkpt lat="41.1737754" lon="-7.9042053"><ele>405.0</ele><time>2026-04-25T14:50:03.7Z</time></trkpt><trkpt lat="41.1738394" lon="-7.9042939"><ele>405.0</ele><time>2026-04-25T14:50:04.696Z</time></trkpt><trkpt lat="41.1738924" lon="-7.9043749"><ele>405.0</ele><time>2026-04-25T14:50:05.702Z</time></trkpt><trkpt lat="41.1739423" lon="-7.9044522"><ele>405.0</ele><time>2026-04-25T14:50:06.697Z</time></trkpt><trkpt lat="41.1739796" lon="-7.9045307"><ele>405.0</ele><time>2026-04-25T14:50:07.696Z</time></trkpt><trkpt lat="41.1740064" lon="-7.9046097"><ele>404.2</ele><time>2026-04-25T14:50:08.7Z</time></trkpt><trkpt lat="41.1740356" lon="-7.9047719"><ele>403.4</ele><time>2026-04-25T14:50:10.705Z</time></trkpt><trkpt lat="41.1740549" lon="-7.9048592"><ele>402.6</ele><time>2026-04-25T14:50:11.702Z</time></trkpt><trkpt lat="41.1740827" lon="-7.9049547"><ele>401.8</ele><time>2026-04-25T14:50:12.7Z</time></trkpt><trkpt lat="41.1741241" lon="-7.9050664"><ele>401.0</ele><time>2026-04-25T14:50:13.701Z</time></trkpt><trkpt lat="41.174158" lon="-7.9051834"><ele>400.99999999999994</ele><time>2026-04-25T14:50:14.694Z</time></trkpt><trkpt lat="41.1741953" lon="-7.905307"><ele>401.0</ele><time>2026-04-25T14:50:15.696Z</time></trkpt><trkpt lat="41.174224" lon="-7.9054242"><ele>401.0</ele><time>2026-04-25T14:50:16.697Z</time></trkpt><trkpt lat="41.1742486" lon="-7.9055337"><ele>401.0</ele><time>2026-04-25T14:50:17.697Z</time></trkpt><trkpt lat="41.1742627" lon="-7.9056441"><ele>400.99999999999994</ele><time>2026-04-25T14:50:18.698Z</time></trkpt><trkpt lat="41.1742746" lon="-7.905749"><ele>401.0</ele><time>2026-04-25T14:50:19.7Z</time></trkpt><trkpt lat="41.1742907" lon="-7.9058469"><ele>401.14285714285717</ele><time>2026-04-25T14:50:20.692Z</time></trkpt><trkpt lat="41.1743079" lon="-7.9059431"><ele>401.28571428571433</ele><time>2026-04-25T14:50:21.69Z</time></trkpt><trkpt lat="41.1743343" lon="-7.9060355"><ele>401.42857142857144</ele><time>2026-04-25T14:50:22.695Z</time></trkpt><trkpt lat="41.1743611" lon="-7.9061185"><ele>401.57142857142856</ele><time>2026-04-25T14:50:23.701Z</time></trkpt><trkpt lat="41.1743863" lon="-7.9061963"><ele>401.7142857142857</ele><time>2026-04-25T14:50:24.693Z</time></trkpt><trkpt lat="41.1744028" lon="-7.9062885"><ele>401.85714285714283</ele><time>2026-04-25T14:50:25.702Z</time></trkpt><trkpt lat="41.1744026" lon="-7.9063806"><ele>402.0</ele><time>2026-04-25T14:50:26.696Z</time></trkpt><trkpt lat="41.1744087" lon="-7.9064734"><ele>402.0</ele><time>2026-04-25T14:50:27.696Z</time></trkpt><trkpt lat="41.1744164" lon="-7.9065711"><ele>402.0</ele><time>2026-04-25T14:50:28.702Z</time></trkpt><trkpt lat="41.1744055" lon="-7.9066772"><ele>402.0</ele><time>2026-04-25T14:50:29.701Z</time></trkpt><trkpt lat="41.1744021" lon="-7.9067788"><ele>402.0</ele><time>2026-04-25T14:50:30.696Z</time></trkpt><trkpt lat="41.1743977" lon="-7.9068726"><ele>402.0</ele><time>2026-04-25T14:50:31.696Z</time></trkpt><trkpt lat="41.1743877" lon="-7.9069643"><ele>402.0</ele><time>2026-04-25T14:50:32.703Z</time></trkpt><trkpt lat="41.1743729" lon="-7.9070595"><ele>402.0</ele><time>2026-04-25T14:50:33.695Z</time></trkpt><trkpt lat="41.174357" lon="-7.9071523"><ele>401.20000000000005</ele><time>2026-04-25T14:50:34.696Z</time></trkpt><trkpt lat="41.1743398" lon="-7.9072544"><ele>400.4</ele><time>2026-04-25T14:50:35.691Z</time></trkpt><trkpt lat="41.1743244" lon="-7.9073497"><ele>399.6</ele><time>2026-04-25T14:50:36.699Z</time></trkpt><trkpt lat="41.1743024" lon="-7.9074364"><ele>398.79999999999995</ele><time>2026-04-25T14:50:37.697Z</time></trkpt><trkpt lat="41.1742574" lon="-7.9075874"><ele>398.0</ele><time>2026-04-25T14:50:39.701Z</time></trkpt><trkpt lat="41.1742312" lon="-7.9077259"><ele>400.3333333333333</ele><time>2026-04-25T14:50:41.697Z</time></trkpt><trkpt lat="41.1742936" lon="-7.9078308"><ele>402.66666666666663</ele><time>2026-04-25T14:50:43.698Z</time></trkpt><trkpt lat="41.174355" lon="-7.9078692"><ele>405.0</ele><time>2026-04-25T14:50:44.697Z</time></trkpt><trkpt lat="41.174437" lon="-7.9078816"><ele>407.33333333333337</ele><time>2026-04-25T14:50:45.7Z</time></trkpt><trkpt lat="41.1745195" lon="-7.9078837"><ele>409.6666666666667</ele><time>2026-04-25T14:50:46.697Z</time></trkpt><trkpt lat="41.1746054" lon="-7.9078791"><ele>412.0</ele><time>2026-04-25T14:50:47.695Z</time></trkpt><trkpt lat="41.1746932" lon="-7.9078874"><ele>412.0</ele><time>2026-04-25T14:50:48.705Z</time></trkpt><trkpt lat="41.17478" lon="-7.9079031"><ele>412.0</ele><time>2026-04-25T14:50:49.703Z</time></trkpt><trkpt lat="41.174865" lon="-7.9079205"><ele>412.0</ele><time>2026-04-25T14:50:50.7Z</time></trkpt><trkpt lat="41.1749517" lon="-7.9079347"><ele>412.0</ele><time>2026-04-25T14:50:51.705Z</time></trkpt><trkpt lat="41.1750432" lon="-7.9079615"><ele>412.0</ele><time>2026-04-25T14:50:52.696Z</time></trkpt><trkpt lat="41.1751404" lon="-7.9079841"><ele>410.6666666666667</ele><time>2026-04-25T14:50:53.703Z</time></trkpt><trkpt lat="41.1752291" lon="-7.9079822"><ele>409.33333333333337</ele><time>2026-04-25T14:50:54.694Z</time></trkpt><trkpt lat="41.1753203" lon="-7.9079674"><ele>408.0</ele><time>2026-04-25T14:50:55.706Z</time></trkpt><trkpt lat="41.1754091" lon="-7.9079643"><ele>406.66666666666663</ele><time>2026-04-25T14:50:56.696Z</time></trkpt><trkpt lat="41.1754923" lon="-7.9079657"><ele>405.3333333333333</ele><time>2026-04-25T14:50:57.702Z</time></trkpt><trkpt lat="41.1755683" lon="-7.9079739"><ele>404.0</ele><time>2026-04-25T14:50:58.692Z</time></trkpt><trkpt lat="41.175634" lon="-7.908011"><ele>403.6</ele><time>2026-04-25T14:50:59.695Z</time></trkpt><trkpt lat="41.1757064" lon="-7.9080836"><ele>403.2</ele><time>2026-04-25T14:51:00.697Z</time></trkpt><trkpt lat="41.1757952" lon="-7.9081666"><ele>402.8</ele><time>2026-04-25T14:51:01.7Z</time></trkpt><trkpt lat="41.1758695" lon="-7.9082632"><ele>402.40000000000003</ele><time>2026-04-25T14:51:02.696Z</time></trkpt><trkpt lat="41.1759419" lon="-7.9083656"><ele>402.0</ele><time>2026-04-25T14:51:03.697Z</time></trkpt><trkpt lat="41.1760137" lon="-7.9084661"><ele>402.0</ele><time>2026-04-25T14:51:04.703Z</time></trkpt><trkpt lat="41.176072" lon="-7.9085705"><ele>402.0</ele><time>2026-04-25T14:51:05.703Z</time></trkpt><trkpt lat="41.1761359" lon="-7.9086709"><ele>402.0</ele><time>2026-04-25T14:51:06.698Z</time></trkpt><trkpt lat="41.17621" lon="-7.9087611"><ele>402.0</ele><time>2026-04-25T14:51:07.696Z</time></trkpt><trkpt lat="41.176289" lon="-7.9088485"><ele>402.0</ele><time>2026-04-25T14:51:08.705Z</time></trkpt><trkpt lat="41.1763626" lon="-7.9089392"><ele>402.0</ele><time>2026-04-25T14:51:09.697Z</time></trkpt><trkpt lat="41.1764318" lon="-7.9090348"><ele>402.0</ele><time>2026-04-25T14:51:10.697Z</time></trkpt><trkpt lat="41.1764979" lon="-7.9091266"><ele>402.0</ele><time>2026-04-25T14:51:11.705Z</time></trkpt><trkpt lat="41.1765691" lon="-7.9092208"><ele>402.0</ele><time>2026-04-25T14:51:12.694Z</time></trkpt><trkpt lat="41.176627" lon="-7.9093253"><ele>402.0</ele><time>2026-04-25T14:51:13.693Z</time></trkpt><trkpt lat="41.1766607" lon="-7.9094538"><ele>395.0</ele><time>2026-04-25T14:51:14.695Z</time></trkpt><trkpt lat="41.1766895" lon="-7.9095797"><ele>388.0</ele><time>2026-04-25T14:51:15.706Z</time></trkpt><trkpt lat="41.1766962" lon="-7.9097006"><ele>381.0</ele><time>2026-04-25T14:51:16.7Z</time></trkpt><trkpt lat="41.1766911" lon="-7.9098295"><ele>374.0</ele><time>2026-04-25T14:51:17.697Z</time></trkpt><trkpt lat="41.1766807" lon="-7.9099603"><ele>367.0</ele><time>2026-04-25T14:51:18.697Z</time></trkpt><trkpt lat="41.1766619" lon="-7.9100868"><ele>366.3333333333333</ele><time>2026-04-25T14:51:19.7Z</time></trkpt><trkpt lat="41.1766389" lon="-7.9102045"><ele>365.66666666666663</ele><time>2026-04-25T14:51:20.702Z</time></trkpt><trkpt lat="41.1766151" lon="-7.9103199"><ele>365.0</ele><time>2026-04-25T14:51:21.695Z</time></trkpt><trkpt lat="41.1765907" lon="-7.9104341"><ele>364.3333333333333</ele><time>2026-04-25T14:51:22.695Z</time></trkpt><trkpt lat="41.1765757" lon="-7.9105487"><ele>363.6666666666667</ele><time>2026-04-25T14:51:23.699Z</time></trkpt><trkpt lat="41.1765723" lon="-7.9106557"><ele>363.0</ele><time>2026-04-25T14:51:24.702Z</time></trkpt><trkpt lat="41.1765738" lon="-7.9107538"><ele>362.99999999999994</ele><time>2026-04-25T14:51:25.698Z</time></trkpt><trkpt lat="41.1765781" lon="-7.9108502"><ele>363.0</ele><time>2026-04-25T14:51:26.698Z</time></trkpt><trkpt lat="41.1766018" lon="-7.9109365"><ele>363.0</ele><time>2026-04-25T14:51:27.7Z</time></trkpt><trkpt lat="41.1766238" lon="-7.9110258"><ele>363.0</ele><time>2026-04-25T14:51:28.695Z</time></trkpt><trkpt lat="41.1766352" lon="-7.9111231"><ele>363.0</ele><time>2026-04-25T14:51:29.7Z</time></trkpt><trkpt lat="41.1766471" lon="-7.9112204"><ele>362.99999999999994</ele><time>2026-04-25T14:51:30.699Z</time></trkpt><trkpt lat="41.1766537" lon="-7.9113148"><ele>363.0</ele><time>2026-04-25T14:51:31.706Z</time></trkpt><trkpt lat="41.1766333" lon="-7.9114051"><ele>361.3333333333333</ele><time>2026-04-25T14:51:32.697Z</time></trkpt><trkpt lat="41.1766038" lon="-7.9114806"><ele>359.6666666666667</ele><time>2026-04-25T14:51:33.702Z</time></trkpt><trkpt lat="41.1765381" lon="-7.9116154"><ele>358.0</ele><time>2026-04-25T14:51:35.698Z</time></trkpt><trkpt lat="41.176472" lon="-7.9117209"><ele>356.33333333333337</ele><time>2026-04-25T14:51:37.699Z</time></trkpt><trkpt lat="41.1764292" lon="-7.9118032"><ele>354.6666666666667</ele><time>2026-04-25T14:51:39.694Z</time></trkpt><trkpt lat="41.1763945" lon="-7.9118872"><ele>353.0</ele><time>2026-04-25T14:51:41.695Z</time></trkpt><trkpt lat="41.17636" lon="-7.9119714"><ele>358.33333333333337</ele><time>2026-04-25T14:51:43.695Z</time></trkpt><trkpt lat="41.1763159" lon="-7.9120629"><ele>363.6666666666667</ele><time>2026-04-25T14:51:45.697Z</time></trkpt><trkpt lat="41.1762903" lon="-7.9121631"><ele>369.0</ele><time>2026-04-25T14:51:47.694Z</time></trkpt><trkpt lat="41.1762393" lon="-7.9122498"><ele>374.33333333333337</ele><time>2026-04-25T14:51:49.701Z</time></trkpt><trkpt lat="41.1761671" lon="-7.9122948"><ele>379.6666666666667</ele><time>2026-04-25T14:51:51.696Z</time></trkpt><trkpt lat="41.1760923" lon="-7.9123642"><ele>385.0</ele><time>2026-04-25T14:51:53.694Z</time></trkpt><trkpt lat="41.1759839" lon="-7.9124452"><ele>385.00000000000006</ele><time>2026-04-25T14:51:55.696Z</time></trkpt><trkpt lat="41.175923" lon="-7.9124859"><ele>385.0</ele><time>2026-04-25T14:51:56.693Z</time></trkpt><trkpt lat="41.175863" lon="-7.9125303"><ele>385.0</ele><time>2026-04-25T14:51:57.694Z</time></trkpt><trkpt lat="41.1758107" lon="-7.9125779"><ele>385.0</ele><time>2026-04-25T14:51:58.701Z</time></trkpt><trkpt lat="41.1757611" lon="-7.9126344"><ele>385.00000000000006</ele><time>2026-04-25T14:51:59.693Z</time></trkpt><trkpt lat="41.1757074" lon="-7.912751"><ele>385.0</ele><time>2026-04-25T14:52:01.693Z</time></trkpt><trkpt lat="41.175667" lon="-7.912876"><ele>385.2</ele><time>2026-04-25T14:52:03.697Z</time></trkpt><trkpt lat="41.1756276" lon="-7.9130125"><ele>385.4</ele><time>2026-04-25T14:52:05.704Z</time></trkpt><trkpt lat="41.1756231" lon="-7.9131743"><ele>385.6</ele><time>2026-04-25T14:52:07.693Z</time></trkpt><trkpt lat="41.1756585" lon="-7.9133298"><ele>385.8</ele><time>2026-04-25T14:52:09.696Z</time></trkpt><trkpt lat="41.1756923" lon="-7.9134018"><ele>386.0</ele><time>2026-04-25T14:52:10.708Z</time></trkpt><trkpt lat="41.1757343" lon="-7.91354"><ele>387.6</ele><time>2026-04-25T14:52:12.696Z</time></trkpt><trkpt lat="41.1757699" lon="-7.91368"><ele>389.20000000000005</ele><time>2026-04-25T14:52:14.693Z</time></trkpt><trkpt lat="41.1757868" lon="-7.9138127"><ele>390.79999999999995</ele><time>2026-04-25T14:52:16.695Z</time></trkpt><trkpt lat="41.1758096" lon="-7.9139317"><ele>392.4</ele><time>2026-04-25T14:52:18.698Z</time></trkpt><trkpt lat="41.1758067" lon="-7.9140595"><ele>394.0</ele><time>2026-04-25T14:52:20.694Z</time></trkpt><trkpt lat="41.1757766" lon="-7.9141672"><ele>398.50000000000006</ele><time>2026-04-25T14:52:22.701Z</time></trkpt><trkpt lat="41.1757353" lon="-7.9142633"><ele>403.0</ele><time>2026-04-25T14:52:24.694Z</time></trkpt><trkpt lat="41.1757428" lon="-7.914377"><ele>407.5</ele><time>2026-04-25T14:52:27.694Z</time></trkpt><trkpt lat="41.1758159" lon="-7.9144464"><ele>412.0</ele><time>2026-04-25T14:52:29.7Z</time></trkpt><trkpt lat="41.1758837" lon="-7.9145197"><ele>416.50000000000006</ele><time>2026-04-25T14:52:31.703Z</time></trkpt><trkpt lat="41.1759257" lon="-7.9146166"><ele>421.0</ele><time>2026-04-25T14:52:33.698Z</time></trkpt><trkpt lat="41.1759645" lon="-7.9147543"><ele>421.0</ele><time>2026-04-25T14:52:35.696Z</time></trkpt><trkpt lat="41.1760108" lon="-7.914917"><ele>421.0</ele><time>2026-04-25T14:52:37.697Z</time></trkpt><trkpt lat="41.1760402" lon="-7.9150025"><ele>421.0</ele><time>2026-04-25T14:52:38.695Z</time></trkpt><trkpt lat="41.1760604" lon="-7.915091"><ele>421.0</ele><time>2026-04-25T14:52:39.7Z</time></trkpt><trkpt lat="41.1760931" lon="-7.9152361"><ele>421.0</ele><time>2026-04-25T14:52:41.693Z</time></trkpt><trkpt lat="41.1761359" lon="-7.9153439"><ele>425.20000000000005</ele><time>2026-04-25T14:52:43.697Z</time></trkpt><trkpt lat="41.1761839" lon="-7.9154449"><ele>429.40000000000003</ele><time>2026-04-25T14:52:45.691Z</time></trkpt><trkpt lat="41.1762163" lon="-7.9155624"><ele>433.6</ele><time>2026-04-25T14:52:47.697Z</time></trkpt><trkpt lat="41.1762241" lon="-7.9156966"><ele>437.8</ele><time>2026-04-25T14:52:49.697Z</time></trkpt><trkpt lat="41.1762369" lon="-7.9158158"><ele>442.0</ele><time>2026-04-25T14:52:51.697Z</time></trkpt><trkpt lat="41.1762417" lon="-7.9159305"><ele>446.1666666666667</ele><time>2026-04-25T14:52:53.693Z</time></trkpt><trkpt lat="41.1762562" lon="-7.9160347"><ele>450.33333333333337</ele><time>2026-04-25T14:52:55.697Z</time></trkpt><trkpt lat="41.1762589" lon="-7.9161365"><ele>454.5</ele><time>2026-04-25T14:52:57.697Z</time></trkpt><trkpt lat="41.1762869" lon="-7.9162134"><ele>458.66666666666663</ele><time>2026-04-25T14:52:59.698Z</time></trkpt><trkpt lat="41.1763298" lon="-7.9162773"><ele>462.8333333333333</ele><time>2026-04-25T14:53:01.695Z</time></trkpt><trkpt lat="41.1763696" lon="-7.9163815"><ele>467.0</ele><time>2026-04-25T14:53:04.695Z</time></trkpt><trkpt lat="41.1764081" lon="-7.9164985"><ele>466.99999999999994</ele><time>2026-04-25T14:53:06.698Z</time></trkpt><trkpt lat="41.1764465" lon="-7.9165993"><ele>467.0</ele><time>2026-04-25T14:53:08.697Z</time></trkpt><trkpt lat="41.1764791" lon="-7.9166812"><ele>467.0</ele><time>2026-04-25T14:53:10.697Z</time></trkpt><trkpt lat="41.1765083" lon="-7.916771"><ele>467.0</ele><time>2026-04-25T14:53:17.693Z</time></trkpt><trkpt lat="41.1765314" lon="-7.9168587"><ele>466.99999999999994</ele><time>2026-04-25T14:53:21.699Z</time></trkpt><trkpt lat="41.1765509" lon="-7.9169617"><ele>467.0</ele><time>2026-04-25T14:53:24.695Z</time></trkpt><trkpt lat="41.1765651" lon="-7.9170883"><ele>466.20000000000005</ele><time>2026-04-25T14:53:27.696Z</time></trkpt><trkpt lat="41.1765748" lon="-7.9172085"><ele>465.40000000000003</ele><time>2026-04-25T14:53:29.697Z</time></trkpt><trkpt lat="41.1766046" lon="-7.9173023"><ele>464.59999999999997</ele><time>2026-04-25T14:53:30.699Z</time></trkpt><trkpt lat="41.1766277" lon="-7.9174371"><ele>463.79999999999995</ele><time>2026-04-25T14:53:31.701Z</time></trkpt><trkpt lat="41.1766333" lon="-7.9175639"><ele>463.0</ele><time>2026-04-25T14:53:32.694Z</time></trkpt><trkpt lat="41.1766481" lon="-7.9176718"><ele>463.00000000000006</ele><time>2026-04-25T14:53:33.694Z</time></trkpt><trkpt lat="41.17666" lon="-7.9177743"><ele>463.0</ele><time>2026-04-25T14:53:34.693Z</time></trkpt><trkpt lat="41.1766746" lon="-7.917876"><ele>463.0</ele><time>2026-04-25T14:53:35.702Z</time></trkpt><trkpt lat="41.1766982" lon="-7.9179621"><ele>463.0</ele><time>2026-04-25T14:53:36.7Z</time></trkpt><trkpt lat="41.1767684" lon="-7.9180892"><ele>463.00000000000006</ele><time>2026-04-25T14:53:38.698Z</time></trkpt><trkpt lat="41.1768194" lon="-7.9181946"><ele>463.0</ele><time>2026-04-25T14:53:40.698Z</time></trkpt><trkpt lat="41.1768611" lon="-7.9183018"><ele>463.33333333333337</ele><time>2026-04-25T14:53:42.694Z</time></trkpt><trkpt lat="41.1768687" lon="-7.9184196"><ele>463.6666666666667</ele><time>2026-04-25T14:53:44.694Z</time></trkpt><trkpt lat="41.1768657" lon="-7.9185288"><ele>464.0</ele><time>2026-04-25T14:53:46.702Z</time></trkpt><trkpt lat="41.1768552" lon="-7.9186395"><ele>464.33333333333337</ele><time>2026-04-25T14:53:48.691Z</time></trkpt><trkpt lat="41.1768235" lon="-7.9187385"><ele>464.6666666666667</ele><time>2026-04-25T14:53:50.694Z</time></trkpt><trkpt lat="41.1767816" lon="-7.9188541"><ele>465.0</ele><time>2026-04-25T14:53:52.697Z</time></trkpt><trkpt lat="41.1767232" lon="-7.9189806"><ele>465.0</ele><time>2026-04-25T14:53:54.7Z</time></trkpt><trkpt lat="41.1766689" lon="-7.9190866"><ele>465.0</ele><time>2026-04-25T14:53:56.695Z</time></trkpt><trkpt lat="41.1766259" lon="-7.9191906"><ele>465.0</ele><time>2026-04-25T14:53:58.693Z</time></trkpt><trkpt lat="41.1765742" lon="-7.9192939"><ele>465.0</ele><time>2026-04-25T14:54:00.69Z</time></trkpt><trkpt lat="41.1765204" lon="-7.9193892"><ele>465.0</ele><time>2026-04-25T14:54:02.699Z</time></trkpt><trkpt lat="41.1764809" lon="-7.9194678"><ele>465.0</ele><time>2026-04-25T14:54:04.697Z</time></trkpt><trkpt lat="41.1764318" lon="-7.919589"><ele>468.3333333333333</ele><time>2026-04-25T14:54:06.701Z</time></trkpt><trkpt lat="41.1764078" lon="-7.9197012"><ele>471.66666666666663</ele><time>2026-04-25T14:54:08.697Z</time></trkpt><trkpt lat="41.1763515" lon="-7.9198252"><ele>475.0</ele><time>2026-04-25T14:54:10.693Z</time></trkpt><trkpt lat="41.1763133" lon="-7.919893"><ele>478.3333333333333</ele><time>2026-04-25T14:54:11.7Z</time></trkpt><trkpt lat="41.1762657" lon="-7.919961"><ele>481.66666666666663</ele><time>2026-04-25T14:54:12.694Z</time></trkpt><trkpt lat="41.1762176" lon="-7.9200301"><ele>485.0</ele><time>2026-04-25T14:54:13.693Z</time></trkpt><trkpt lat="41.1761785" lon="-7.9200964"><ele>485.0</ele><time>2026-04-25T14:54:14.698Z</time></trkpt><trkpt lat="41.1761264" lon="-7.9201906"><ele>485.0</ele><time>2026-04-25T14:54:16.698Z</time></trkpt><trkpt lat="41.1760548" lon="-7.9202789"><ele>485.0</ele><time>2026-04-25T14:54:18.695Z</time></trkpt><trkpt lat="41.1759769" lon="-7.9203665"><ele>485.0</ele><time>2026-04-25T14:54:20.694Z</time></trkpt><trkpt lat="41.175899" lon="-7.9204312"><ele>485.0</ele><time>2026-04-25T14:54:22.694Z</time></trkpt><trkpt lat="41.1758192" lon="-7.9204772"><ele>485.00000000000006</ele><time>2026-04-25T14:54:24.696Z</time></trkpt><trkpt lat="41.175752" lon="-7.9205158"><ele>485.0</ele><time>2026-04-25T14:54:26.702Z</time></trkpt><trkpt lat="41.1756803" lon="-7.9205551"><ele>485.00000000000006</ele><time>2026-04-25T14:54:29.7Z</time></trkpt><trkpt lat="41.1756231" lon="-7.920592"><ele>485.00000000000006</ele><time>2026-04-25T14:54:33.699Z</time></trkpt><trkpt lat="41.1755714" lon="-7.9206474"><ele>485.0</ele><time>2026-04-25T14:54:38.696Z</time></trkpt><trkpt lat="41.1754991" lon="-7.9206814"><ele>485.00000000000006</ele><time>2026-04-25T14:54:54.699Z</time></trkpt><trkpt lat="41.1754397" lon="-7.9207381"><ele>485.00000000000006</ele><time>2026-04-25T14:54:58.695Z</time></trkpt><trkpt lat="41.1754624" lon="-7.9208325"><ele>485.00000000000006</ele><time>2026-04-25T14:55:04.695Z</time></trkpt><trkpt lat="41.1755376" lon="-7.9208141"><ele>485.0</ele><time>2026-04-25T14:55:09.696Z</time></trkpt><trkpt lat="41.1756134" lon="-7.9208609"><ele>485.00000000000006</ele><time>2026-04-25T14:55:13.698Z</time></trkpt><trkpt lat="41.175688" lon="-7.9208679"><ele>485.00000000000006</ele><time>2026-04-25T14:55:15.699Z</time></trkpt><trkpt lat="41.1757459" lon="-7.9209014"><ele>485.0</ele><time>2026-04-25T14:56:22.694Z</time></trkpt><trkpt lat="41.1756964" lon="-7.9209569"><ele>485.00000000000006</ele><time>2026-04-25T14:58:01.705Z</time></trkpt><trkpt lat="41.1756624" lon="-7.9210376"><ele>485.00000000000006</ele><time>2026-04-25T14:58:23.693Z</time></trkpt><trkpt lat="41.1757219" lon="-7.9209959"><ele>488.28571428571433</ele><time>2026-04-25T14:59:26.693Z</time></trkpt><trkpt lat="41.1756855" lon="-7.9210677"><ele>491.57142857142856</ele><time>2026-04-25T15:01:40.696Z</time></trkpt><trkpt lat="41.1757086" lon="-7.9209876"><ele>494.8571428571429</ele><time>2026-04-25T15:02:34.691Z</time></trkpt><trkpt lat="41.1757765" lon="-7.9209788"><ele>498.14285714285717</ele><time>2026-04-25T15:05:46.688Z</time></trkpt><trkpt lat="41.1758156" lon="-7.9210451"><ele>501.42857142857144</ele><time>2026-04-25T15:05:51.692Z</time></trkpt><trkpt lat="41.1758505" lon="-7.9211164"><ele>504.7142857142857</ele><time>2026-04-25T15:05:56.687Z</time></trkpt><trkpt lat="41.1759067" lon="-7.9210752"><ele>508.0</ele><time>2026-04-25T15:06:08.69Z</time></trkpt><trkpt lat="41.1759714" lon="-7.9210905"><ele>508.00000000000006</ele><time>2026-04-25T15:06:12.682Z</time></trkpt><trkpt lat="41.1760593" lon="-7.9210751"><ele>508.0</ele><time>2026-04-25T15:06:15.687Z</time></trkpt><trkpt lat="41.1761253" lon="-7.9210805"><ele>508.0</ele><time>2026-04-25T15:06:17.69Z</time></trkpt><trkpt lat="41.1762239" lon="-7.9211058"><ele>508.0</ele><time>2026-04-25T15:06:20.695Z</time></trkpt><trkpt lat="41.1763097" lon="-7.9211251"><ele>508.00000000000006</ele><time>2026-04-25T15:06:23.687Z</time></trkpt><trkpt lat="41.1763839" lon="-7.9211476"><ele>508.0</ele><time>2026-04-25T15:06:26.691Z</time></trkpt><trkpt lat="41.1764331" lon="-7.9212184"><ele>508.00000000000006</ele><time>2026-04-25T15:06:29.691Z</time></trkpt><trkpt lat="41.1764609" lon="-7.9213082"><ele>508.0</ele><time>2026-04-25T15:06:32.693Z</time></trkpt><trkpt lat="41.1764385" lon="-7.9214336"><ele>508.0</ele><time>2026-04-25T15:06:35.706Z</time></trkpt><trkpt lat="41.1764352" lon="-7.9215368"><ele>508.0</ele><time>2026-04-25T15:06:37.687Z</time></trkpt><trkpt lat="41.1764535" lon="-7.9216315"><ele>508.00000000000006</ele><time>2026-04-25T15:06:39.686Z</time></trkpt><trkpt lat="41.1765093" lon="-7.9217331"><ele>508.0</ele><time>2026-04-25T15:06:42.69Z</time></trkpt><trkpt lat="41.176562" lon="-7.9217967"><ele>507.1666666666667</ele><time>2026-04-25T15:06:44.693Z</time></trkpt><trkpt lat="41.1766159" lon="-7.9218606"><ele>506.33333333333337</ele><time>2026-04-25T15:06:48.691Z</time></trkpt><trkpt lat="41.1766672" lon="-7.9219288"><ele>505.5</ele><time>2026-04-25T15:06:53.689Z</time></trkpt><trkpt lat="41.1766479" lon="-7.9220147"><ele>504.66666666666663</ele><time>2026-04-25T15:06:57.695Z</time></trkpt><trkpt lat="41.1766105" lon="-7.9221294"><ele>503.8333333333333</ele><time>2026-04-25T15:07:00.696Z</time></trkpt><trkpt lat="41.1765731" lon="-7.9222243"><ele>503.0</ele><time>2026-04-25T15:07:02.693Z</time></trkpt><trkpt lat="41.1765377" lon="-7.9223059"><ele>508.59999999999997</ele><time>2026-04-25T15:07:04.689Z</time></trkpt><trkpt lat="41.1765059" lon="-7.9223893"><ele>514.1999999999999</ele><time>2026-04-25T15:07:06.691Z</time></trkpt><trkpt lat="41.1764735" lon="-7.9224913"><ele>519.8</ele><time>2026-04-25T15:07:08.698Z</time></trkpt><trkpt lat="41.1764181" lon="-7.9226057"><ele>525.4</ele><time>2026-04-25T15:07:10.694Z</time></trkpt><trkpt lat="41.176365" lon="-7.9227128"><ele>531.0</ele><time>2026-04-25T15:07:12.691Z</time></trkpt><trkpt lat="41.1763109" lon="-7.9228221"><ele>534.6</ele><time>2026-04-25T15:07:14.683Z</time></trkpt><trkpt lat="41.1762743" lon="-7.9229444"><ele>538.2</ele><time>2026-04-25T15:07:16.693Z</time></trkpt><trkpt lat="41.1762429" lon="-7.923082"><ele>541.8</ele><time>2026-04-25T15:07:18.69Z</time></trkpt><trkpt lat="41.176222" lon="-7.9232246"><ele>545.4</ele><time>2026-04-25T15:07:20.693Z</time></trkpt><trkpt lat="41.1761993" lon="-7.9233713"><ele>549.0</ele><time>2026-04-25T15:07:22.686Z</time></trkpt><trkpt lat="41.1761969" lon="-7.923512"><ele>550.8333333333334</ele><time>2026-04-25T15:07:24.695Z</time></trkpt><trkpt lat="41.1762073" lon="-7.9236673"><ele>552.6666666666666</ele><time>2026-04-25T15:07:26.694Z</time></trkpt><trkpt lat="41.1762044" lon="-7.9237796"><ele>554.5</ele><time>2026-04-25T15:07:28.69Z</time></trkpt><trkpt lat="41.1761327" lon="-7.9237114"><ele>556.3333333333333</ele><time>2026-04-25T15:07:32.691Z</time></trkpt><trkpt lat="41.1761014" lon="-7.9236231"><ele>558.1666666666666</ele><time>2026-04-25T15:07:33.692Z</time></trkpt><trkpt lat="41.1760686" lon="-7.9235413"><ele>560.0</ele><time>2026-04-25T15:07:34.685Z</time></trkpt><trkpt lat="41.1760306" lon="-7.9234631"><ele>558.1666666666666</ele><time>2026-04-25T15:07:35.687Z</time></trkpt><trkpt lat="41.1759903" lon="-7.9233825"><ele>556.3333333333333</ele><time>2026-04-25T15:07:36.692Z</time></trkpt><trkpt lat="41.175939" lon="-7.9233012"><ele>554.5</ele><time>2026-04-25T15:07:37.687Z</time></trkpt><trkpt lat="41.1758848" lon="-7.9232245"><ele>552.6666666666666</ele><time>2026-04-25T15:07:38.688Z</time></trkpt><trkpt lat="41.1758237" lon="-7.9231525"><ele>550.8333333333334</ele><time>2026-04-25T15:07:39.687Z</time></trkpt><trkpt lat="41.1757646" lon="-7.9230731"><ele>549.0</ele><time>2026-04-25T15:07:40.692Z</time></trkpt><trkpt lat="41.1757128" lon="-7.9229931"><ele>555.4</ele><time>2026-04-25T15:07:41.694Z</time></trkpt><trkpt lat="41.175665" lon="-7.9229237"><ele>561.8</ele><time>2026-04-25T15:07:42.688Z</time></trkpt><trkpt lat="41.1756151" lon="-7.9228687"><ele>568.2</ele><time>2026-04-25T15:07:43.687Z</time></trkpt><trkpt lat="41.1755076" lon="-7.9227943"><ele>574.6</ele><time>2026-04-25T15:07:45.696Z</time></trkpt><trkpt lat="41.1754024" lon="-7.9227469"><ele>581.0</ele><time>2026-04-25T15:07:47.684Z</time></trkpt><trkpt lat="41.1753198" lon="-7.9227274"><ele>581.0</ele><time>2026-04-25T15:07:49.69Z</time></trkpt><trkpt lat="41.1752217" lon="-7.9226998"><ele>581.0</ele><time>2026-04-25T15:07:51.696Z</time></trkpt><trkpt lat="41.175163" lon="-7.9226619"><ele>581.0</ele><time>2026-04-25T15:07:52.692Z</time></trkpt><trkpt lat="41.1750964" lon="-7.9226087"><ele>581.0</ele><time>2026-04-25T15:07:53.687Z</time></trkpt><trkpt lat="41.1750243" lon="-7.9225452"><ele>581.0</ele><time>2026-04-25T15:07:54.69Z</time></trkpt><trkpt lat="41.174951" lon="-7.9224776"><ele>581.0</ele><time>2026-04-25T15:07:55.685Z</time></trkpt><trkpt lat="41.1748749" lon="-7.9224079"><ele>581.8333333333333</ele><time>2026-04-25T15:07:56.689Z</time></trkpt><trkpt lat="41.1748024" lon="-7.9223354"><ele>582.6666666666666</ele><time>2026-04-25T15:07:57.698Z</time></trkpt><trkpt lat="41.1747367" lon="-7.9222601"><ele>583.5</ele><time>2026-04-25T15:07:58.689Z</time></trkpt><trkpt lat="41.1746736" lon="-7.9221864"><ele>584.3333333333334</ele><time>2026-04-25T15:07:59.692Z</time></trkpt><trkpt lat="41.1746085" lon="-7.9221124"><ele>585.1666666666667</ele><time>2026-04-25T15:08:00.695Z</time></trkpt><trkpt lat="41.174552" lon="-7.9220314"><ele>586.0</ele><time>2026-04-25T15:08:01.689Z</time></trkpt><trkpt lat="41.1745" lon="-7.9219436"><ele>586.0</ele><time>2026-04-25T15:08:02.686Z</time></trkpt><trkpt lat="41.1744464" lon="-7.9218556"><ele>586.0</ele><time>2026-04-25T15:08:03.691Z</time></trkpt><trkpt lat="41.1743976" lon="-7.9217637"><ele>586.0</ele><time>2026-04-25T15:08:04.689Z</time></trkpt><trkpt lat="41.1743512" lon="-7.9216637"><ele>586.0</ele><time>2026-04-25T15:08:05.687Z</time></trkpt><trkpt lat="41.1743092" lon="-7.9215634"><ele>586.0</ele><time>2026-04-25T15:08:06.686Z</time></trkpt><trkpt lat="41.1742657" lon="-7.9214631"><ele>586.0</ele><time>2026-04-25T15:08:07.69Z</time></trkpt><trkpt lat="41.1742217" lon="-7.9213596"><ele>583.6</ele><time>2026-04-25T15:08:08.687Z</time></trkpt><trkpt lat="41.1741805" lon="-7.9212555"><ele>581.2</ele><time>2026-04-25T15:08:09.703Z</time></trkpt><trkpt lat="41.1741387" lon="-7.9211505"><ele>578.8</ele><time>2026-04-25T15:08:10.692Z</time></trkpt><trkpt lat="41.1740889" lon="-7.9210451"><ele>576.4</ele><time>2026-04-25T15:08:11.697Z</time></trkpt><trkpt lat="41.1740391" lon="-7.920936"><ele>574.0</ele><time>2026-04-25T15:08:12.693Z</time></trkpt><trkpt lat="41.1739879" lon="-7.920824"><ele>574.0</ele><time>2026-04-25T15:08:13.684Z</time></trkpt><trkpt lat="41.1739336" lon="-7.9207085"><ele>574.0</ele><time>2026-04-25T15:08:14.692Z</time></trkpt><trkpt lat="41.1738816" lon="-7.9205933"><ele>574.0</ele><time>2026-04-25T15:08:15.701Z</time></trkpt><trkpt lat="41.1738217" lon="-7.9204871"><ele>574.0</ele><time>2026-04-25T15:08:16.692Z</time></trkpt><trkpt lat="41.1737662" lon="-7.9203786"><ele>574.0</ele><time>2026-04-25T15:08:17.691Z</time></trkpt><trkpt lat="41.1737137" lon="-7.9202657"><ele>574.0</ele><time>2026-04-25T15:08:18.696Z</time></trkpt><trkpt lat="41.1736647" lon="-7.9201525"><ele>574.0</ele><time>2026-04-25T15:08:19.687Z</time></trkpt><trkpt lat="41.1736131" lon="-7.9200396"><ele>574.0</ele><time>2026-04-25T15:08:20.69Z</time></trkpt><trkpt lat="41.1735581" lon="-7.9199301"><ele>574.0</ele><time>2026-04-25T15:08:21.693Z</time></trkpt><trkpt lat="41.1735114" lon="-7.9198221"><ele>574.0</ele><time>2026-04-25T15:08:22.698Z</time></trkpt><trkpt lat="41.1734579" lon="-7.9197178"><ele>569.8333333333334</ele><time>2026-04-25T15:08:23.687Z</time></trkpt><trkpt lat="41.1734112" lon="-7.9196017"><ele>565.6666666666667</ele><time>2026-04-25T15:08:24.691Z</time></trkpt><trkpt lat="41.1733707" lon="-7.919487"><ele>561.5</ele><time>2026-04-25T15:08:25.687Z</time></trkpt><trkpt lat="41.1733523" lon="-7.9193889"><ele>557.3333333333334</ele><time>2026-04-25T15:08:26.689Z</time></trkpt><trkpt lat="41.1733579" lon="-7.9192858"><ele>553.1666666666666</ele><time>2026-04-25T15:08:27.692Z</time></trkpt><trkpt lat="41.1733927" lon="-7.9192007"><ele>549.0</ele><time>2026-04-25T15:08:28.697Z</time></trkpt><trkpt lat="41.1734374" lon="-7.9191324"><ele>547.4</ele><time>2026-04-25T15:08:29.695Z</time></trkpt><trkpt lat="41.1735096" lon="-7.9190819"><ele>545.8</ele><time>2026-04-25T15:08:30.69Z</time></trkpt><trkpt lat="41.1735933" lon="-7.9190479"><ele>544.2</ele><time>2026-04-25T15:08:31.688Z</time></trkpt><trkpt lat="41.1736776" lon="-7.9190511"><ele>542.6</ele><time>2026-04-25T15:08:32.694Z</time></trkpt><trkpt lat="41.1737839" lon="-7.9191142"><ele>541.0</ele><time>2026-04-25T15:08:33.683Z</time></trkpt><trkpt lat="41.1739211" lon="-7.9191882"><ele>535.5</ele><time>2026-04-25T15:08:34.693Z</time></trkpt><trkpt lat="41.1740382" lon="-7.9192568"><ele>530.0</ele><time>2026-04-25T15:08:35.697Z</time></trkpt><trkpt lat="41.1741727" lon="-7.9193235"><ele>524.5</ele><time>2026-04-25T15:08:36.689Z</time></trkpt><trkpt lat="41.1743069" lon="-7.9194097"><ele>519.0</ele><time>2026-04-25T15:08:37.688Z</time></trkpt><trkpt lat="41.1744439" lon="-7.9195007"><ele>519.0</ele><time>2026-04-25T15:08:38.69Z</time></trkpt><trkpt lat="41.1745746" lon="-7.9195705"><ele>519.0</ele><time>2026-04-25T15:08:39.687Z</time></trkpt><trkpt lat="41.174701" lon="-7.9196378"><ele>519.0</ele><time>2026-04-25T15:08:40.693Z</time></trkpt><trkpt lat="41.17482" lon="-7.9196837"><ele>519.0</ele><time>2026-04-25T15:08:41.689Z</time></trkpt><trkpt lat="41.174933" lon="-7.9197305"><ele>516.8</ele><time>2026-04-25T15:08:42.685Z</time></trkpt><trkpt lat="41.1750182" lon="-7.9197702"><ele>514.5999999999999</ele><time>2026-04-25T15:08:43.69Z</time></trkpt><trkpt lat="41.1751134" lon="-7.919782"><ele>512.4</ele><time>2026-04-25T15:08:45.683Z</time></trkpt><trkpt lat="41.1752002" lon="-7.919726"><ele>510.2</ele><time>2026-04-25T15:08:47.698Z</time></trkpt><trkpt lat="41.1752909" lon="-7.9196739"><ele>508.0</ele><time>2026-04-25T15:08:49.687Z</time></trkpt><trkpt lat="41.1753793" lon="-7.9196417"><ele>508.00000000000006</ele><time>2026-04-25T15:08:51.691Z</time></trkpt><trkpt lat="41.175454" lon="-7.9195554"><ele>508.0</ele><time>2026-04-25T15:08:53.689Z</time></trkpt><trkpt lat="41.1755005" lon="-7.9194505"><ele>508.0</ele><time>2026-04-25T15:08:55.696Z</time></trkpt><trkpt lat="41.1755384" lon="-7.9193203"><ele>508.0</ele><time>2026-04-25T15:08:57.689Z</time></trkpt><trkpt lat="41.1755569" lon="-7.9192369"><ele>508.00000000000006</ele><time>2026-04-25T15:08:58.692Z</time></trkpt><trkpt lat="41.1755742" lon="-7.9191393"><ele>508.0</ele><time>2026-04-25T15:08:59.692Z</time></trkpt><trkpt lat="41.1755796" lon="-7.9190504"><ele>512.1666666666667</ele><time>2026-04-25T15:09:00.689Z</time></trkpt><trkpt lat="41.1755821" lon="-7.9189639"><ele>516.3333333333334</ele><time>2026-04-25T15:09:01.685Z</time></trkpt><trkpt lat="41.1755771" lon="-7.9188713"><ele>520.5</ele><time>2026-04-25T15:09:02.693Z</time></trkpt><trkpt lat="41.1755663" lon="-7.9187784"><ele>524.6666666666666</ele><time>2026-04-25T15:09:03.69Z</time></trkpt><trkpt lat="41.1755459" lon="-7.9186723"><ele>528.8333333333333</ele><time>2026-04-25T15:09:04.688Z</time></trkpt><trkpt lat="41.1755099" lon="-7.9185518"><ele>533.0</ele><time>2026-04-25T15:09:05.693Z</time></trkpt><trkpt lat="41.1754663" lon="-7.9184306"><ele>535.1666666666666</ele><time>2026-04-25T15:09:06.69Z</time></trkpt><trkpt lat="41.1754185" lon="-7.9183274"><ele>537.3333333333333</ele><time>2026-04-25T15:09:07.691Z</time></trkpt><trkpt lat="41.1753656" lon="-7.9182381"><ele>539.5</ele><time>2026-04-25T15:09:08.682Z</time></trkpt><trkpt lat="41.1753193" lon="-7.9181631"><ele>541.6666666666666</ele><time>2026-04-25T15:09:09.69Z</time></trkpt><trkpt lat="41.1752333" lon="-7.918103"><ele>543.8333333333334</ele><time>2026-04-25T15:09:11.684Z</time></trkpt><trkpt lat="41.1751492" lon="-7.9181634"><ele>546.0</ele><time>2026-04-25T15:09:13.697Z</time></trkpt><trkpt lat="41.1751236" lon="-7.9182946"><ele>543.4</ele><time>2026-04-25T15:09:15.687Z</time></trkpt><trkpt lat="41.1751009" lon="-7.9184588"><ele>540.8</ele><time>2026-04-25T15:09:17.701Z</time></trkpt><trkpt lat="41.17506" lon="-7.9186092"><ele>538.1999999999999</ele><time>2026-04-25T15:09:19.689Z</time></trkpt><trkpt lat="41.1749757" lon="-7.9187099"><ele>535.6</ele><time>2026-04-25T15:09:21.689Z</time></trkpt><trkpt lat="41.1748913" lon="-7.9187452"><ele>533.0</ele><time>2026-04-25T15:09:23.686Z</time></trkpt><trkpt lat="41.1748273" lon="-7.918723"><ele>533.0</ele><time>2026-04-25T15:09:25.687Z</time></trkpt><trkpt lat="41.1747321" lon="-7.9185877"><ele>533.0</ele><time>2026-04-25T15:09:27.69Z</time></trkpt><trkpt lat="41.1746714" lon="-7.9185047"><ele>533.0</ele><time>2026-04-25T15:09:28.695Z</time></trkpt><trkpt lat="41.1745997" lon="-7.918423"><ele>533.0</ele><time>2026-04-25T15:09:29.69Z</time></trkpt><trkpt lat="41.1745295" lon="-7.918345"><ele>533.0</ele><time>2026-04-25T15:09:30.689Z</time></trkpt><trkpt lat="41.1744596" lon="-7.9182714"><ele>537.5714285714286</ele><time>2026-04-25T15:09:31.696Z</time></trkpt><trkpt lat="41.174389" lon="-7.9181989"><ele>542.1428571428571</ele><time>2026-04-25T15:09:32.686Z</time></trkpt><trkpt lat="41.1743191" lon="-7.9181417"><ele>546.7142857142857</ele><time>2026-04-25T15:09:33.688Z</time></trkpt><trkpt lat="41.174263" lon="-7.9180881"><ele>551.2857142857142</ele><time>2026-04-25T15:09:34.691Z</time></trkpt><trkpt lat="41.1742062" lon="-7.9180325"><ele>555.8571428571429</ele><time>2026-04-25T15:09:35.695Z</time></trkpt><trkpt lat="41.1741477" lon="-7.9179793"><ele>560.4285714285713</ele><time>2026-04-25T15:09:36.698Z</time></trkpt><trkpt lat="41.1740916" lon="-7.9179327"><ele>565.0</ele><time>2026-04-25T15:09:37.688Z</time></trkpt><trkpt lat="41.1740396" lon="-7.9178838"><ele>564.0</ele><time>2026-04-25T15:09:38.69Z</time></trkpt><trkpt lat="41.1739892" lon="-7.9178312"><ele>563.0</ele><time>2026-04-25T15:09:39.703Z</time></trkpt><trkpt lat="41.173928" lon="-7.9177776"><ele>562.0</ele><time>2026-04-25T15:09:40.692Z</time></trkpt><trkpt lat="41.1738711" lon="-7.9177366"><ele>561.0</ele><time>2026-04-25T15:09:41.688Z</time></trkpt><trkpt lat="41.1737733" lon="-7.9176427"><ele>560.0</ele><time>2026-04-25T15:09:43.69Z</time></trkpt><trkpt lat="41.173714" lon="-7.9175842"><ele>559.0</ele><time>2026-04-25T15:09:44.69Z</time></trkpt><trkpt lat="41.1736462" lon="-7.9175192"><ele>564.0</ele><time>2026-04-25T15:09:45.688Z</time></trkpt><trkpt lat="41.1735665" lon="-7.9174394"><ele>569.0</ele><time>2026-04-25T15:09:46.696Z</time></trkpt><trkpt lat="41.173482" lon="-7.9173448"><ele>574.0</ele><time>2026-04-25T15:09:47.686Z</time></trkpt><trkpt lat="41.1734031" lon="-7.917253"><ele>579.0</ele><time>2026-04-25T15:09:48.687Z</time></trkpt><trkpt lat="41.1733175" lon="-7.9171647"><ele>584.0</ele><time>2026-04-25T15:09:49.685Z</time></trkpt><trkpt lat="41.1732248" lon="-7.9170895"><ele>586.2</ele><time>2026-04-25T15:09:50.689Z</time></trkpt><trkpt lat="41.1731297" lon="-7.9170235"><ele>588.4</ele><time>2026-04-25T15:09:51.687Z</time></trkpt><trkpt lat="41.1730375" lon="-7.916956"><ele>590.6</ele><time>2026-04-25T15:09:52.697Z</time></trkpt><trkpt lat="41.172951" lon="-7.9168885"><ele>592.8</ele><time>2026-04-25T15:09:53.691Z</time></trkpt><trkpt lat="41.1728656" lon="-7.9168275"><ele>595.0</ele><time>2026-04-25T15:09:54.687Z</time></trkpt><trkpt lat="41.172786" lon="-7.9167635"><ele>597.6666666666667</ele><time>2026-04-25T15:09:55.688Z</time></trkpt><trkpt lat="41.1727168" lon="-7.9166997"><ele>600.3333333333334</ele><time>2026-04-25T15:09:56.688Z</time></trkpt><trkpt lat="41.1726509" lon="-7.9166385"><ele>603.0</ele><time>2026-04-25T15:09:57.694Z</time></trkpt><trkpt lat="41.1725805" lon="-7.9165844"><ele>605.6666666666666</ele><time>2026-04-25T15:09:58.688Z</time></trkpt><trkpt lat="41.172513" lon="-7.9165333"><ele>608.3333333333333</ele><time>2026-04-25T15:09:59.689Z</time></trkpt><trkpt lat="41.1724583" lon="-7.9164834"><ele>611.0</ele><time>2026-04-25T15:10:00.692Z</time></trkpt><trkpt lat="41.1724049" lon="-7.9164353"><ele>616.6</ele><time>2026-04-25T15:10:01.689Z</time></trkpt><trkpt lat="41.1723026" lon="-7.9163481"><ele>622.2</ele><time>2026-04-25T15:10:03.694Z</time></trkpt><trkpt lat="41.1722123" lon="-7.9162768"><ele>627.8</ele><time>2026-04-25T15:10:05.686Z</time></trkpt><trkpt lat="41.1721354" lon="-7.916287"><ele>633.4</ele><time>2026-04-25T15:10:07.687Z</time></trkpt><trkpt lat="41.172074" lon="-7.9163841"><ele>639.0</ele><time>2026-04-25T15:10:09.694Z</time></trkpt><trkpt lat="41.1720012" lon="-7.9164873"><ele>639.0</ele><time>2026-04-25T15:10:11.69Z</time></trkpt><trkpt lat="41.1719185" lon="-7.9165848"><ele>639.0</ele><time>2026-04-25T15:10:13.689Z</time></trkpt><trkpt lat="41.1718365" lon="-7.9166945"><ele>639.0</ele><time>2026-04-25T15:10:15.688Z</time></trkpt><trkpt lat="41.1717629" lon="-7.9167822"><ele>639.0</ele><time>2026-04-25T15:10:17.687Z</time></trkpt><trkpt lat="41.1717002" lon="-7.9167961"><ele>639.0</ele><time>2026-04-25T15:10:22.684Z</time></trkpt><trkpt lat="41.1717591" lon="-7.9166806"><ele>639.0</ele><time>2026-04-25T15:10:51.684Z</time></trkpt><trkpt lat="41.1717354" lon="-7.9165788"><ele>639.0</ele><time>2026-04-25T15:10:53.686Z</time></trkpt><trkpt lat="41.1717155" lon="-7.9164577"><ele>639.0</ele><time>2026-04-25T15:10:55.687Z</time></trkpt><trkpt lat="41.171692" lon="-7.9162998"><ele>639.0</ele><time>2026-04-25T15:10:57.688Z</time></trkpt><trkpt lat="41.1716658" lon="-7.9161512"><ele>639.0</ele><time>2026-04-25T15:10:59.685Z</time></trkpt><trkpt lat="41.1716114" lon="-7.9159928"><ele>639.0</ele><time>2026-04-25T15:11:01.688Z</time></trkpt><trkpt lat="41.1715711" lon="-7.9159189"><ele>639.0</ele><time>2026-04-25T15:11:02.69Z</time></trkpt><trkpt lat="41.1715322" lon="-7.9158402"><ele>639.0</ele><time>2026-04-25T15:11:03.693Z</time></trkpt><trkpt lat="41.1714848" lon="-7.9156859"><ele>639.0</ele><time>2026-04-25T15:11:05.685Z</time></trkpt><trkpt lat="41.1714669" lon="-7.9156049"><ele>639.0</ele><time>2026-04-25T15:11:06.687Z</time></trkpt><trkpt lat="41.1714483" lon="-7.9155133"><ele>639.0</ele><time>2026-04-25T15:11:07.682Z</time></trkpt><trkpt lat="41.1714334" lon="-7.9154166"><ele>644.7142857142858</ele><time>2026-04-25T15:11:08.696Z</time></trkpt><trkpt lat="41.1714121" lon="-7.9153196"><ele>650.4285714285714</ele><time>2026-04-25T15:11:09.683Z</time></trkpt><trkpt lat="41.171386" lon="-7.9152281"><ele>656.1428571428571</ele><time>2026-04-25T15:11:10.689Z</time></trkpt><trkpt lat="41.171357" lon="-7.9151446"><ele>661.8571428571429</ele><time>2026-04-25T15:11:11.687Z</time></trkpt><trkpt lat="41.171334" lon="-7.9150498"><ele>667.5714285714286</ele><time>2026-04-25T15:11:12.686Z</time></trkpt><trkpt lat="41.1713122" lon="-7.9149635"><ele>673.2857142857143</ele><time>2026-04-25T15:11:13.69Z</time></trkpt><trkpt lat="41.1712774" lon="-7.9148878"><ele>679.0</ele><time>2026-04-25T15:11:14.681Z</time></trkpt><trkpt lat="41.1712366" lon="-7.9148188"><ele>679.0</ele><time>2026-04-25T15:11:15.684Z</time></trkpt><trkpt lat="41.1711956" lon="-7.9147441"><ele>679.0</ele><time>2026-04-25T15:11:16.69Z</time></trkpt><trkpt lat="41.1711561" lon="-7.9146661"><ele>679.0</ele><time>2026-04-25T15:11:17.689Z</time></trkpt><trkpt lat="41.1711088" lon="-7.9145965"><ele>679.0</ele><time>2026-04-25T15:11:18.693Z</time></trkpt><trkpt lat="41.1710482" lon="-7.9144927"><ele>679.0</ele><time>2026-04-25T15:11:20.685Z</time></trkpt><trkpt lat="41.1709791" lon="-7.9145489"><ele>679.0</ele><time>2026-04-25T15:11:23.686Z</time></trkpt><trkpt lat="41.1710169" lon="-7.9146772"><ele>679.0</ele><time>2026-04-25T15:11:25.698Z</time></trkpt><trkpt lat="41.1710637" lon="-7.914834"><ele>679.0</ele><time>2026-04-25T15:11:27.685Z</time></trkpt><trkpt lat="41.1710759" lon="-7.9149264"><ele>679.0</ele><time>2026-04-25T15:11:28.691Z</time></trkpt><trkpt lat="41.1710762" lon="-7.9150326"><ele>679.0</ele><time>2026-04-25T15:11:29.684Z</time></trkpt><trkpt lat="41.1710682" lon="-7.9151262"><ele>679.0</ele><time>2026-04-25T15:11:30.694Z</time></trkpt><trkpt lat="41.1710753" lon="-7.9153022"><ele>679.1666666666667</ele><time>2026-04-25T15:11:32.688Z</time></trkpt><trkpt lat="41.1710859" lon="-7.9153902"><ele>679.3333333333334</ele><time>2026-04-25T15:11:33.697Z</time></trkpt><trkpt lat="41.1710756" lon="-7.9155346"><ele>679.5</ele><time>2026-04-25T15:11:35.686Z</time></trkpt><trkpt lat="41.1710793" lon="-7.91566"><ele>679.6666666666666</ele><time>2026-04-25T15:11:37.686Z</time></trkpt><trkpt lat="41.1710979" lon="-7.915769"><ele>679.8333333333333</ele><time>2026-04-25T15:11:39.699Z</time></trkpt><trkpt lat="41.1710986" lon="-7.9158861"><ele>680.0</ele><time>2026-04-25T15:11:41.693Z</time></trkpt><trkpt lat="41.171085" lon="-7.9159948"><ele>678.5</ele><time>2026-04-25T15:11:43.688Z</time></trkpt><trkpt lat="41.1710681" lon="-7.9160772"><ele>677.0</ele><time>2026-04-25T15:11:45.693Z</time></trkpt><trkpt lat="41.1710629" lon="-7.9161754"><ele>675.5</ele><time>2026-04-25T15:11:49.688Z</time></trkpt><trkpt lat="41.1710631" lon="-7.9162781"><ele>674.0</ele><time>2026-04-25T15:11:53.689Z</time></trkpt><trkpt lat="41.1711022" lon="-7.916346"><ele>672.5</ele><time>2026-04-25T15:11:59.685Z</time></trkpt><trkpt lat="41.1710093" lon="-7.9163338"><ele>671.0</ele><time>2026-04-25T15:12:43.688Z</time></trkpt><trkpt lat="41.1708978" lon="-7.9163079"><ele>671.0</ele><time>2026-04-25T15:12:45.687Z</time></trkpt><trkpt lat="41.1708051" lon="-7.9162873"><ele>671.0</ele><time>2026-04-25T15:12:47.694Z</time></trkpt><trkpt lat="41.1707395" lon="-7.9162427"><ele>671.0</ele><time>2026-04-25T15:12:55.685Z</time></trkpt><trkpt lat="41.170667" lon="-7.9162372"><ele>671.0</ele><time>2026-04-25T15:13:01.689Z</time></trkpt><trkpt lat="41.1705875" lon="-7.9162277"><ele>671.0</ele><time>2026-04-25T15:13:04.692Z</time></trkpt><trkpt lat="41.1705153" lon="-7.9162175"><ele>671.0</ele><time>2026-04-25T15:13:10.693Z</time></trkpt><trkpt lat="41.1704519" lon="-7.9162067"><ele>678.5999999999999</ele><time>2026-04-25T15:13:13.684Z</time></trkpt><trkpt lat="41.1703641" lon="-7.9162065"><ele>686.2</ele><time>2026-04-25T15:13:16.685Z</time></trkpt><trkpt lat="41.1702761" lon="-7.9161678"><ele>693.8</ele><time>2026-04-25T15:13:18.696Z</time></trkpt><trkpt lat="41.170188" lon="-7.9161329"><ele>701.4000000000001</ele><time>2026-04-25T15:13:21.689Z</time></trkpt><trkpt lat="41.1701036" lon="-7.9161127"><ele>709.0</ele><time>2026-04-25T15:13:23.693Z</time></trkpt><trkpt lat="41.1700111" lon="-7.9160703"><ele>709.0</ele><time>2026-04-25T15:13:25.683Z</time></trkpt><trkpt lat="41.1698901" lon="-7.9160378"><ele>709.0</ele><time>2026-04-25T15:13:27.691Z</time></trkpt><trkpt lat="41.1698128" lon="-7.91603"><ele>709.0</ele><time>2026-04-25T15:13:28.684Z</time></trkpt><trkpt lat="41.1697257" lon="-7.9160186"><ele>709.0</ele><time>2026-04-25T15:13:29.684Z</time></trkpt><trkpt lat="41.1696231" lon="-7.9160088"><ele>709.0</ele><time>2026-04-25T15:13:30.688Z</time></trkpt><trkpt lat="41.1695312" lon="-7.915996"><ele>712.1666666666667</ele><time>2026-04-25T15:13:31.691Z</time></trkpt><trkpt lat="41.1694331" lon="-7.9159832"><ele>715.3333333333334</ele><time>2026-04-25T15:13:33.693Z</time></trkpt><trkpt lat="41.1693597" lon="-7.9159605"><ele>718.5</ele><time>2026-04-25T15:13:36.695Z</time></trkpt><trkpt lat="41.1694376" lon="-7.9159637"><ele>721.6666666666666</ele><time>2026-04-25T15:13:41.69Z</time></trkpt><trkpt lat="41.1695201" lon="-7.9159549"><ele>724.8333333333333</ele><time>2026-04-25T15:13:44.689Z</time></trkpt><trkpt lat="41.1695969" lon="-7.9159679"><ele>728.0</ele><time>2026-04-25T15:13:48.686Z</time></trkpt><trkpt lat="41.1696708" lon="-7.9159417"><ele>728.0</ele><time>2026-04-25T15:14:24.687Z</time></trkpt><trkpt lat="41.1696641" lon="-7.9160288"><ele>728.0</ele><time>2026-04-25T15:19:06.683Z</time></trkpt><trkpt lat="41.1695877" lon="-7.9159919"><ele>728.0</ele><time>2026-04-25T15:19:25.681Z</time></trkpt><trkpt lat="41.1695106" lon="-7.9159784"><ele>728.0</ele><time>2026-04-25T15:19:29.68Z</time></trkpt><trkpt lat="41.1694432" lon="-7.9159527"><ele>728.0</ele><time>2026-04-25T15:19:33.68Z</time></trkpt><trkpt lat="41.1693692" lon="-7.9160111"><ele>728.0</ele><time>2026-04-25T15:19:56.688Z</time></trkpt><trkpt lat="41.1693299" lon="-7.9160783"><ele>728.0</ele><time>2026-04-25T15:19:58.688Z</time></trkpt><trkpt lat="41.1692686" lon="-7.9161949"><ele>728.0</ele><time>2026-04-25T15:20:00.68Z</time></trkpt><trkpt lat="41.1692349" lon="-7.9162745"><ele>728.0</ele><time>2026-04-25T15:20:01.686Z</time></trkpt><trkpt lat="41.169207" lon="-7.9163596"><ele>728.0</ele><time>2026-04-25T15:20:02.683Z</time></trkpt><trkpt lat="41.1691719" lon="-7.9164393"><ele>728.0</ele><time>2026-04-25T15:20:03.684Z</time></trkpt><trkpt lat="41.1691413" lon="-7.9165261"><ele>728.0</ele><time>2026-04-25T15:20:04.681Z</time></trkpt><trkpt lat="41.1691017" lon="-7.9166162"><ele>728.0</ele><time>2026-04-25T15:20:05.683Z</time></trkpt><trkpt lat="41.1690347" lon="-7.916746"><ele>730.5</ele><time>2026-04-25T15:20:07.682Z</time></trkpt><trkpt lat="41.1689674" lon="-7.9168847"><ele>733.0</ele><time>2026-04-25T15:20:09.687Z</time></trkpt><trkpt lat="41.1689027" lon="-7.9170238"><ele>735.5</ele><time>2026-04-25T15:20:11.68Z</time></trkpt><trkpt lat="41.1688404" lon="-7.9171469"><ele>738.0</ele><time>2026-04-25T15:20:13.687Z</time></trkpt><trkpt lat="41.1687756" lon="-7.917261"><ele>738.0</ele><time>2026-04-25T15:20:15.687Z</time></trkpt><trkpt lat="41.1687212" lon="-7.9173679"><ele>738.0</ele><time>2026-04-25T15:20:17.687Z</time></trkpt><trkpt lat="41.1686709" lon="-7.9174928"><ele>738.0</ele><time>2026-04-25T15:20:19.682Z</time></trkpt><trkpt lat="41.1686033" lon="-7.917631"><ele>738.0</ele><time>2026-04-25T15:20:21.693Z</time></trkpt><trkpt lat="41.1685529" lon="-7.917728"><ele>738.0</ele><time>2026-04-25T15:20:22.684Z</time></trkpt><trkpt lat="41.1685062" lon="-7.9178212"><ele>738.8</ele><time>2026-04-25T15:20:23.686Z</time></trkpt><trkpt lat="41.1684588" lon="-7.9179004"><ele>739.5999999999999</ele><time>2026-04-25T15:20:24.687Z</time></trkpt><trkpt lat="41.168384" lon="-7.9180288"><ele>740.4000000000001</ele><time>2026-04-25T15:20:26.686Z</time></trkpt><trkpt lat="41.1684009" lon="-7.9181508"><ele>741.2</ele><time>2026-04-25T15:20:28.681Z</time></trkpt><trkpt lat="41.1684633" lon="-7.9182091"><ele>742.0</ele><time>2026-04-25T15:20:30.684Z</time></trkpt><trkpt lat="41.1684924" lon="-7.918326"><ele>741.6</ele><time>2026-04-25T15:20:32.682Z</time></trkpt><trkpt lat="41.1685017" lon="-7.9184842"><ele>741.2</ele><time>2026-04-25T15:20:34.686Z</time></trkpt><trkpt lat="41.1685055" lon="-7.9185713"><ele>740.8</ele><time>2026-04-25T15:20:35.688Z</time></trkpt><trkpt lat="41.1685121" lon="-7.9187353"><ele>740.4</ele><time>2026-04-25T15:20:37.686Z</time></trkpt><trkpt lat="41.1685502" lon="-7.918886"><ele>740.0</ele><time>2026-04-25T15:20:39.683Z</time></trkpt><trkpt lat="41.1685705" lon="-7.9189731"><ele>739.9999999999999</ele><time>2026-04-25T15:20:40.679Z</time></trkpt><trkpt lat="41.1685884" lon="-7.9190554"><ele>740.0</ele><time>2026-04-25T15:20:41.682Z</time></trkpt><trkpt lat="41.1686038" lon="-7.9191423"><ele>740.0</ele><time>2026-04-25T15:20:42.681Z</time></trkpt><trkpt lat="41.1686195" lon="-7.9192317"><ele>740.0</ele><time>2026-04-25T15:20:43.683Z</time></trkpt><trkpt lat="41.1686408" lon="-7.9193192"><ele>740.0</ele><time>2026-04-25T15:20:44.684Z</time></trkpt><trkpt lat="41.1686591" lon="-7.9194035"><ele>739.9999999999999</ele><time>2026-04-25T15:20:45.686Z</time></trkpt><trkpt lat="41.1686775" lon="-7.919489"><ele>740.0</ele><time>2026-04-25T15:20:46.684Z</time></trkpt><trkpt lat="41.168696" lon="-7.9195803"><ele>740.6666666666666</ele><time>2026-04-25T15:20:47.682Z</time></trkpt><trkpt lat="41.1687101" lon="-7.9196736"><ele>741.3333333333333</ele><time>2026-04-25T15:20:48.699Z</time></trkpt><trkpt lat="41.1687324" lon="-7.9197649"><ele>742.0</ele><time>2026-04-25T15:20:49.684Z</time></trkpt><trkpt lat="41.1687558" lon="-7.9198467"><ele>742.6666666666666</ele><time>2026-04-25T15:20:50.682Z</time></trkpt><trkpt lat="41.168794" lon="-7.9199913"><ele>743.3333333333334</ele><time>2026-04-25T15:20:52.684Z</time></trkpt><trkpt lat="41.1687763" lon="-7.9200735"><ele>744.0</ele><time>2026-04-25T15:21:01.684Z</time></trkpt><trkpt lat="41.1687585" lon="-7.9201657"><ele>744.0</ele><time>2026-04-25T15:21:41.684Z</time></trkpt><trkpt lat="41.1688072" lon="-7.9203074"><ele>744.0</ele><time>2026-04-25T15:21:43.682Z</time></trkpt><trkpt lat="41.1688357" lon="-7.9204132"><ele>744.0</ele><time>2026-04-25T15:21:44.687Z</time></trkpt><trkpt lat="41.168859" lon="-7.9205137"><ele>744.0</ele><time>2026-04-25T15:21:45.682Z</time></trkpt><trkpt lat="41.1688811" lon="-7.9206355"><ele>744.0</ele><time>2026-04-25T15:21:46.686Z</time></trkpt><trkpt lat="41.1689179" lon="-7.9207609"><ele>744.0</ele><time>2026-04-25T15:21:47.685Z</time></trkpt><trkpt lat="41.1689619" lon="-7.9208897"><ele>744.0</ele><time>2026-04-25T15:21:48.679Z</time></trkpt><trkpt lat="41.1689955" lon="-7.9210203"><ele>744.0</ele><time>2026-04-25T15:21:49.68Z</time></trkpt><trkpt lat="41.1690317" lon="-7.9211775"><ele>744.0</ele><time>2026-04-25T15:21:50.689Z</time></trkpt><trkpt lat="41.1690735" lon="-7.9213374"><ele>744.4000000000001</ele><time>2026-04-25T15:21:51.684Z</time></trkpt><trkpt lat="41.1691123" lon="-7.9214966"><ele>744.8</ele><time>2026-04-25T15:21:52.68Z</time></trkpt><trkpt lat="41.169143" lon="-7.9216353"><ele>745.2</ele><time>2026-04-25T15:21:53.683Z</time></trkpt><trkpt lat="41.1691707" lon="-7.9217571"><ele>745.5999999999999</ele><time>2026-04-25T15:21:54.68Z</time></trkpt><trkpt lat="41.169187" lon="-7.92187"><ele>746.0</ele><time>2026-04-25T15:21:55.684Z</time></trkpt><trkpt lat="41.1692073" lon="-7.9219831"><ele>746.0</ele><time>2026-04-25T15:21:56.687Z</time></trkpt><trkpt lat="41.1692253" lon="-7.9220936"><ele>746.0</ele><time>2026-04-25T15:21:57.679Z</time></trkpt><trkpt lat="41.1692403" lon="-7.9221949"><ele>746.0</ele><time>2026-04-25T15:21:58.689Z</time></trkpt><trkpt lat="41.1692551" lon="-7.9222979"><ele>746.0</ele><time>2026-04-25T15:21:59.688Z</time></trkpt><trkpt lat="41.1692795" lon="-7.9224077"><ele>746.0</ele><time>2026-04-25T15:22:00.685Z</time></trkpt><trkpt lat="41.1693048" lon="-7.9225093"><ele>746.0</ele><time>2026-04-25T15:22:01.681Z</time></trkpt><trkpt lat="41.1693314" lon="-7.9226098"><ele>742.6666666666666</ele><time>2026-04-25T15:22:02.68Z</time></trkpt><trkpt lat="41.1693593" lon="-7.9226912"><ele>739.3333333333333</ele><time>2026-04-25T15:22:03.681Z</time></trkpt><trkpt lat="41.1694081" lon="-7.9227714"><ele>736.0</ele><time>2026-04-25T15:22:04.679Z</time></trkpt><trkpt lat="41.169475" lon="-7.9228276"><ele>732.6666666666666</ele><time>2026-04-25T15:22:05.685Z</time></trkpt><trkpt lat="41.1695502" lon="-7.9228696"><ele>729.3333333333334</ele><time>2026-04-25T15:22:06.68Z</time></trkpt><trkpt lat="41.1696195" lon="-7.922918"><ele>726.0</ele><time>2026-04-25T15:22:07.68Z</time></trkpt><trkpt lat="41.1696923" lon="-7.9229618"><ele>726.0</ele><time>2026-04-25T15:22:08.674Z</time></trkpt><trkpt lat="41.1697649" lon="-7.9229895"><ele>726.0</ele><time>2026-04-25T15:22:09.685Z</time></trkpt><trkpt lat="41.1698294" lon="-7.9230072"><ele>726.0</ele><time>2026-04-25T15:22:10.687Z</time></trkpt><trkpt lat="41.1698995" lon="-7.9230229"><ele>726.0</ele><time>2026-04-25T15:22:11.68Z</time></trkpt><trkpt lat="41.1699727" lon="-7.9230228"><ele>726.0</ele><time>2026-04-25T15:22:12.681Z</time></trkpt><trkpt lat="41.1700563" lon="-7.9230055"><ele>726.0</ele><time>2026-04-25T15:22:13.681Z</time></trkpt><trkpt lat="41.1701405" lon="-7.9229843"><ele>727.8333333333334</ele><time>2026-04-25T15:22:14.683Z</time></trkpt><trkpt lat="41.1702241" lon="-7.9229733"><ele>729.6666666666666</ele><time>2026-04-25T15:22:15.687Z</time></trkpt><trkpt lat="41.1703063" lon="-7.9229791"><ele>731.5</ele><time>2026-04-25T15:22:16.683Z</time></trkpt><trkpt lat="41.1703896" lon="-7.9230082"><ele>733.3333333333333</ele><time>2026-04-25T15:22:17.679Z</time></trkpt><trkpt lat="41.1704735" lon="-7.9230524"><ele>735.1666666666666</ele><time>2026-04-25T15:22:18.684Z</time></trkpt><trkpt lat="41.1705517" lon="-7.9231014"><ele>737.0</ele><time>2026-04-25T15:22:19.681Z</time></trkpt><trkpt lat="41.170638" lon="-7.9231339"><ele>736.0</ele><time>2026-04-25T15:22:20.682Z</time></trkpt><trkpt lat="41.1707251" lon="-7.9231702"><ele>735.0</ele><time>2026-04-25T15:22:21.688Z</time></trkpt><trkpt lat="41.1708116" lon="-7.9232176"><ele>734.0</ele><time>2026-04-25T15:22:22.681Z</time></trkpt><trkpt lat="41.170894" lon="-7.9232743"><ele>733.0</ele><time>2026-04-25T15:22:23.682Z</time></trkpt><trkpt lat="41.1709716" lon="-7.9233252"><ele>732.0</ele><time>2026-04-25T15:22:24.681Z</time></trkpt><trkpt lat="41.1710468" lon="-7.9234001"><ele>730.5</ele><time>2026-04-25T15:22:25.696Z</time></trkpt><trkpt lat="41.1711165" lon="-7.9234791"><ele>729.0</ele><time>2026-04-25T15:22:26.683Z</time></trkpt><trkpt lat="41.1711854" lon="-7.9235512"><ele>727.5</ele><time>2026-04-25T15:22:27.677Z</time></trkpt><trkpt lat="41.1712539" lon="-7.923626"><ele>726.0</ele><time>2026-04-25T15:22:28.683Z</time></trkpt><trkpt lat="41.1713109" lon="-7.923697"><ele>724.5</ele><time>2026-04-25T15:22:29.679Z</time></trkpt><trkpt lat="41.1713624" lon="-7.9237577"><ele>723.0</ele><time>2026-04-25T15:22:30.693Z</time></trkpt><trkpt lat="41.171452" lon="-7.9238178"><ele>722.5999999999999</ele><time>2026-04-25T15:22:32.68Z</time></trkpt><trkpt lat="41.1715398" lon="-7.9238491"><ele>722.1999999999999</ele><time>2026-04-25T15:22:34.688Z</time></trkpt><trkpt lat="41.171628" lon="-7.9238812"><ele>721.8</ele><time>2026-04-25T15:22:36.679Z</time></trkpt><trkpt lat="41.1717241" lon="-7.9239515"><ele>721.4</ele><time>2026-04-25T15:22:38.686Z</time></trkpt><trkpt lat="41.1717812" lon="-7.9240173"><ele>721.0</ele><time>2026-04-25T15:22:39.695Z</time></trkpt><trkpt lat="41.1718495" lon="-7.9240987"><ele>721.0</ele><time>2026-04-25T15:22:40.681Z</time></trkpt><trkpt lat="41.1719174" lon="-7.9241851"><ele>721.0</ele><time>2026-04-25T15:22:41.69Z</time></trkpt><trkpt lat="41.1719868" lon="-7.92428"><ele>721.0</ele><time>2026-04-25T15:22:42.685Z</time></trkpt><trkpt lat="41.1720563" lon="-7.9243738"><ele>721.0</ele><time>2026-04-25T15:22:43.682Z</time></trkpt><trkpt lat="41.1721232" lon="-7.9244693"><ele>721.0</ele><time>2026-04-25T15:22:44.682Z</time></trkpt><trkpt lat="41.1721879" lon="-7.9245708"><ele>719.5999999999999</ele><time>2026-04-25T15:22:45.679Z</time></trkpt><trkpt lat="41.1722481" lon="-7.9246693"><ele>718.2</ele><time>2026-04-25T15:22:46.681Z</time></trkpt><trkpt lat="41.1723087" lon="-7.9247618"><ele>716.8</ele><time>2026-04-25T15:22:47.683Z</time></trkpt><trkpt lat="41.1723715" lon="-7.9248564"><ele>715.4000000000001</ele><time>2026-04-25T15:22:48.685Z</time></trkpt><trkpt lat="41.172435" lon="-7.9249514"><ele>714.0</ele><time>2026-04-25T15:22:49.68Z</time></trkpt><trkpt lat="41.1725019" lon="-7.9250472"><ele>713.6</ele><time>2026-04-25T15:22:50.683Z</time></trkpt><trkpt lat="41.1725665" lon="-7.9251423"><ele>713.2</ele><time>2026-04-25T15:22:51.68Z</time></trkpt><trkpt lat="41.1726288" lon="-7.9252367"><ele>712.8000000000001</ele><time>2026-04-25T15:22:52.681Z</time></trkpt><trkpt lat="41.17269" lon="-7.9253253"><ele>712.4000000000001</ele><time>2026-04-25T15:22:53.686Z</time></trkpt><trkpt lat="41.1727517" lon="-7.9254104"><ele>712.0</ele><time>2026-04-25T15:22:54.688Z</time></trkpt><trkpt lat="41.1728091" lon="-7.9254919"><ele>712.0</ele><time>2026-04-25T15:22:55.679Z</time></trkpt><trkpt lat="41.1728685" lon="-7.9255742"><ele>712.0</ele><time>2026-04-25T15:22:56.678Z</time></trkpt><trkpt lat="41.1729258" lon="-7.9256502"><ele>712.0</ele><time>2026-04-25T15:22:57.69Z</time></trkpt><trkpt lat="41.1729794" lon="-7.9257209"><ele>712.0</ele><time>2026-04-25T15:22:58.685Z</time></trkpt><trkpt lat="41.1730339" lon="-7.925793"><ele>712.0</ele><time>2026-04-25T15:22:59.682Z</time></trkpt><trkpt lat="41.1730877" lon="-7.9258644"><ele>712.0</ele><time>2026-04-25T15:23:00.683Z</time></trkpt><trkpt lat="41.1731409" lon="-7.9259407"><ele>711.2857142857142</ele><time>2026-04-25T15:23:01.683Z</time></trkpt><trkpt lat="41.1731952" lon="-7.9260084"><ele>710.5714285714286</ele><time>2026-04-25T15:23:02.693Z</time></trkpt><trkpt lat="41.1732448" lon="-7.9260775"><ele>709.8571428571429</ele><time>2026-04-25T15:23:03.68Z</time></trkpt><trkpt lat="41.173293" lon="-7.9261481"><ele>709.1428571428571</ele><time>2026-04-25T15:23:04.697Z</time></trkpt><trkpt lat="41.1733327" lon="-7.9262174"><ele>708.4285714285714</ele><time>2026-04-25T15:23:05.686Z</time></trkpt><trkpt lat="41.1733598" lon="-7.9262991"><ele>707.7142857142857</ele><time>2026-04-25T15:23:06.677Z</time></trkpt><trkpt lat="41.1733898" lon="-7.9263905"><ele>707.0</ele><time>2026-04-25T15:23:07.679Z</time></trkpt><trkpt lat="41.1734267" lon="-7.9264844"><ele>707.0</ele><time>2026-04-25T15:23:08.681Z</time></trkpt><trkpt lat="41.1734607" lon="-7.9265796"><ele>707.0</ele><time>2026-04-25T15:23:09.683Z</time></trkpt><trkpt lat="41.1734883" lon="-7.9266768"><ele>707.0</ele><time>2026-04-25T15:23:10.683Z</time></trkpt><trkpt lat="41.1735267" lon="-7.9267763"><ele>707.0</ele><time>2026-04-25T15:23:11.682Z</time></trkpt><trkpt lat="41.1735653" lon="-7.926876"><ele>707.0</ele><time>2026-04-25T15:23:12.678Z</time></trkpt><trkpt lat="41.1736146" lon="-7.9269687"><ele>707.0</ele><time>2026-04-25T15:23:13.685Z</time></trkpt><trkpt lat="41.1736708" lon="-7.9270594"><ele>705.8</ele><time>2026-04-25T15:23:14.678Z</time></trkpt><trkpt lat="41.1737268" lon="-7.9271468"><ele>704.6</ele><time>2026-04-25T15:23:15.682Z</time></trkpt><trkpt lat="41.1737866" lon="-7.9272432"><ele>703.4</ele><time>2026-04-25T15:23:16.683Z</time></trkpt><trkpt lat="41.1738499" lon="-7.9273353"><ele>702.1999999999999</ele><time>2026-04-25T15:23:17.681Z</time></trkpt><trkpt lat="41.173909" lon="-7.9274262"><ele>701.0</ele><time>2026-04-25T15:23:18.689Z</time></trkpt><trkpt lat="41.1739684" lon="-7.9275194"><ele>701.0</ele><time>2026-04-25T15:23:19.69Z</time></trkpt><trkpt lat="41.1740264" lon="-7.9276071"><ele>701.0</ele><time>2026-04-25T15:23:20.682Z</time></trkpt><trkpt lat="41.1740827" lon="-7.9277035"><ele>701.0</ele><time>2026-04-25T15:23:21.684Z</time></trkpt><trkpt lat="41.1741369" lon="-7.927796"><ele>701.0</ele><time>2026-04-25T15:23:22.676Z</time></trkpt><trkpt lat="41.1741907" lon="-7.9278923"><ele>701.0</ele><time>2026-04-25T15:23:23.686Z</time></trkpt><trkpt lat="41.1742445" lon="-7.9279899"><ele>701.0</ele><time>2026-04-25T15:23:24.686Z</time></trkpt><trkpt lat="41.1742979" lon="-7.9280849"><ele>701.0</ele><time>2026-04-25T15:23:25.684Z</time></trkpt><trkpt lat="41.1743498" lon="-7.9281819"><ele>701.0</ele><time>2026-04-25T15:23:26.681Z</time></trkpt><trkpt lat="41.1743927" lon="-7.9282987"><ele>701.0</ele><time>2026-04-25T15:23:27.685Z</time></trkpt><trkpt lat="41.1744351" lon="-7.9284079"><ele>701.0</ele><time>2026-04-25T15:23:28.68Z</time></trkpt><trkpt lat="41.1744761" lon="-7.9285126"><ele>701.0</ele><time>2026-04-25T15:23:29.683Z</time></trkpt><trkpt lat="41.174518" lon="-7.9286105"><ele>698.5</ele><time>2026-04-25T15:23:30.682Z</time></trkpt><trkpt lat="41.1745672" lon="-7.928703"><ele>696.0</ele><time>2026-04-25T15:23:31.683Z</time></trkpt><trkpt lat="41.1746076" lon="-7.9287822"><ele>693.5</ele><time>2026-04-25T15:23:32.68Z</time></trkpt><trkpt lat="41.1746501" lon="-7.9288706"><ele>691.0</ele><time>2026-04-25T15:23:33.675Z</time></trkpt><trkpt lat="41.174695" lon="-7.9289587"><ele>688.5</ele><time>2026-04-25T15:23:34.678Z</time></trkpt><trkpt lat="41.1747348" lon="-7.9290387"><ele>686.0</ele><time>2026-04-25T15:23:35.674Z</time></trkpt><trkpt lat="41.174767" lon="-7.9291171"><ele>686.0</ele><time>2026-04-25T15:23:36.677Z</time></trkpt><trkpt lat="41.1747921" lon="-7.9292073"><ele>686.0</ele><time>2026-04-25T15:23:37.683Z</time></trkpt><trkpt lat="41.1748219" lon="-7.9293009"><ele>686.0</ele><time>2026-04-25T15:23:38.677Z</time></trkpt><trkpt lat="41.1748611" lon="-7.9293736"><ele>686.0</ele><time>2026-04-25T15:23:39.673Z</time></trkpt><trkpt lat="41.174961" lon="-7.92948"><ele>686.0</ele><time>2026-04-25T15:23:41.676Z</time></trkpt><trkpt lat="41.1750237" lon="-7.9295189"><ele>686.0</ele><time>2026-04-25T15:23:42.676Z</time></trkpt><trkpt lat="41.1750839" lon="-7.9295605"><ele>687.0</ele><time>2026-04-25T15:23:43.675Z</time></trkpt><trkpt lat="41.1751466" lon="-7.9296114"><ele>688.0</ele><time>2026-04-25T15:23:44.677Z</time></trkpt><trkpt lat="41.1752064" lon="-7.9296673"><ele>689.0</ele><time>2026-04-25T15:23:45.673Z</time></trkpt><trkpt lat="41.1752565" lon="-7.9297215"><ele>690.0</ele><time>2026-04-25T15:23:46.678Z</time></trkpt><trkpt lat="41.1753127" lon="-7.9297695"><ele>691.0</ele><time>2026-04-25T15:23:47.676Z</time></trkpt><trkpt lat="41.1753717" lon="-7.9298101"><ele>692.0</ele><time>2026-04-25T15:23:48.675Z</time></trkpt><trkpt lat="41.1754277" lon="-7.929851"><ele>693.0</ele><time>2026-04-25T15:23:49.68Z</time></trkpt><trkpt lat="41.1755305" lon="-7.929947"><ele>693.0</ele><time>2026-04-25T15:23:51.678Z</time></trkpt><trkpt lat="41.1755868" lon="-7.9300077"><ele>693.0</ele><time>2026-04-25T15:23:52.676Z</time></trkpt><trkpt lat="41.1756398" lon="-7.9300591"><ele>693.0</ele><time>2026-04-25T15:23:53.677Z</time></trkpt><trkpt lat="41.1756909" lon="-7.9301182"><ele>693.0</ele><time>2026-04-25T15:23:54.675Z</time></trkpt><trkpt lat="41.1757426" lon="-7.930174"><ele>693.0</ele><time>2026-04-25T15:23:55.674Z</time></trkpt><trkpt lat="41.1757948" lon="-7.9302259"><ele>693.0</ele><time>2026-04-25T15:23:56.674Z</time></trkpt><trkpt lat="41.1758533" lon="-7.9302871"><ele>693.0</ele><time>2026-04-25T15:23:57.677Z</time></trkpt><trkpt lat="41.1759096" lon="-7.93035"><ele>694.0</ele><time>2026-04-25T15:23:58.68Z</time></trkpt><trkpt lat="41.1759721" lon="-7.9304112"><ele>695.0</ele><time>2026-04-25T15:23:59.68Z</time></trkpt><trkpt lat="41.1760343" lon="-7.9304766"><ele>696.0</ele><time>2026-04-25T15:24:00.693Z</time></trkpt><trkpt lat="41.1760952" lon="-7.9305389"><ele>697.0</ele><time>2026-04-25T15:24:01.687Z</time></trkpt><trkpt lat="41.1761542" lon="-7.9306148"><ele>698.0</ele><time>2026-04-25T15:24:02.679Z</time></trkpt><trkpt lat="41.1762144" lon="-7.9306867"><ele>699.0</ele><time>2026-04-25T15:24:03.688Z</time></trkpt><trkpt lat="41.1762763" lon="-7.9307522"><ele>699.0</ele><time>2026-04-25T15:24:04.679Z</time></trkpt><trkpt lat="41.1763366" lon="-7.9308093"><ele>699.0</ele><time>2026-04-25T15:24:05.681Z</time></trkpt><trkpt lat="41.1763994" lon="-7.9308528"><ele>699.0</ele><time>2026-04-25T15:24:06.683Z</time></trkpt><trkpt lat="41.1764672" lon="-7.9308976"><ele>699.0</ele><time>2026-04-25T15:24:07.682Z</time></trkpt><trkpt lat="41.1765332" lon="-7.9309405"><ele>699.0</ele><time>2026-04-25T15:24:08.68Z</time></trkpt><trkpt lat="41.1765987" lon="-7.9309796"><ele>699.0</ele><time>2026-04-25T15:24:09.681Z</time></trkpt><trkpt lat="41.1766677" lon="-7.9310258"><ele>699.0</ele><time>2026-04-25T15:24:10.68Z</time></trkpt><trkpt lat="41.1767373" lon="-7.931077"><ele>700.3333333333334</ele><time>2026-04-25T15:24:11.679Z</time></trkpt><trkpt lat="41.1768138" lon="-7.931134"><ele>701.6666666666666</ele><time>2026-04-25T15:24:12.689Z</time></trkpt><trkpt lat="41.1768784" lon="-7.9311916"><ele>703.0</ele><time>2026-04-25T15:24:13.681Z</time></trkpt><trkpt lat="41.1769314" lon="-7.9312605"><ele>704.3333333333333</ele><time>2026-04-25T15:24:14.684Z</time></trkpt><trkpt lat="41.1769865" lon="-7.9313439"><ele>705.6666666666666</ele><time>2026-04-25T15:24:15.679Z</time></trkpt><trkpt lat="41.1770507" lon="-7.9314261"><ele>707.0</ele><time>2026-04-25T15:24:16.682Z</time></trkpt><trkpt lat="41.1771159" lon="-7.9315102"><ele>707.0</ele><time>2026-04-25T15:24:17.678Z</time></trkpt><trkpt lat="41.1771767" lon="-7.9315951"><ele>707.0</ele><time>2026-04-25T15:24:18.679Z</time></trkpt><trkpt lat="41.1772279" lon="-7.9316787"><ele>707.0</ele><time>2026-04-25T15:24:19.685Z</time></trkpt><trkpt lat="41.1772694" lon="-7.9317571"><ele>707.0</ele><time>2026-04-25T15:24:20.679Z</time></trkpt><trkpt lat="41.1773026" lon="-7.9318292"><ele>707.0</ele><time>2026-04-25T15:24:21.68Z</time></trkpt><trkpt lat="41.1773079" lon="-7.9319982"><ele>707.0</ele><time>2026-04-25T15:24:23.691Z</time></trkpt><trkpt lat="41.1772939" lon="-7.9320906"><ele>706.8333333333333</ele><time>2026-04-25T15:24:24.69Z</time></trkpt><trkpt lat="41.177276" lon="-7.9321841"><ele>706.6666666666666</ele><time>2026-04-25T15:24:25.681Z</time></trkpt><trkpt lat="41.1772553" lon="-7.9322798"><ele>706.5</ele><time>2026-04-25T15:24:26.675Z</time></trkpt><trkpt lat="41.1772501" lon="-7.9323797"><ele>706.3333333333334</ele><time>2026-04-25T15:24:27.68Z</time></trkpt><trkpt lat="41.1772697" lon="-7.9325384"><ele>706.1666666666667</ele><time>2026-04-25T15:24:29.685Z</time></trkpt><trkpt lat="41.1772909" lon="-7.9326198"><ele>706.0</ele><time>2026-04-25T15:24:30.678Z</time></trkpt><trkpt lat="41.1773204" lon="-7.932702"><ele>707.5</ele><time>2026-04-25T15:24:31.678Z</time></trkpt><trkpt lat="41.1773563" lon="-7.9327931"><ele>709.0</ele><time>2026-04-25T15:24:32.691Z</time></trkpt><trkpt lat="41.1773916" lon="-7.932881"><ele>710.5</ele><time>2026-04-25T15:24:33.686Z</time></trkpt><trkpt lat="41.1774244" lon="-7.9329622"><ele>712.0</ele><time>2026-04-25T15:24:34.683Z</time></trkpt><trkpt lat="41.1774562" lon="-7.9330364"><ele>713.5</ele><time>2026-04-25T15:24:35.688Z</time></trkpt><trkpt lat="41.1775111" lon="-7.9331789"><ele>715.0</ele><time>2026-04-25T15:24:37.678Z</time></trkpt><trkpt lat="41.1775698" lon="-7.9333119"><ele>712.5</ele><time>2026-04-25T15:24:39.688Z</time></trkpt><trkpt lat="41.1776293" lon="-7.9334341"><ele>710.0</ele><time>2026-04-25T15:24:41.68Z</time></trkpt><trkpt lat="41.1776861" lon="-7.9335629"><ele>707.5</ele><time>2026-04-25T15:24:43.681Z</time></trkpt><trkpt lat="41.1777402" lon="-7.9337027"><ele>705.0</ele><time>2026-04-25T15:24:45.682Z</time></trkpt><trkpt lat="41.1778027" lon="-7.9338433"><ele>704.9999999999999</ele><time>2026-04-25T15:24:47.675Z</time></trkpt><trkpt lat="41.1778345" lon="-7.9339183"><ele>705.0</ele><time>2026-04-25T15:24:48.685Z</time></trkpt><trkpt lat="41.1778731" lon="-7.9339962"><ele>705.0</ele><time>2026-04-25T15:24:49.684Z</time></trkpt><trkpt lat="41.1779261" lon="-7.9340729"><ele>705.0</ele><time>2026-04-25T15:24:50.682Z</time></trkpt><trkpt lat="41.1779858" lon="-7.9341446"><ele>705.0</ele><time>2026-04-25T15:24:51.674Z</time></trkpt><trkpt lat="41.1780408" lon="-7.9342195"><ele>704.9999999999999</ele><time>2026-04-25T15:24:52.682Z</time></trkpt><trkpt lat="41.1780832" lon="-7.9342869"><ele>705.0</ele><time>2026-04-25T15:24:53.691Z</time></trkpt><trkpt lat="41.1781498" lon="-7.9344013"><ele>704.4</ele><time>2026-04-25T15:24:55.683Z</time></trkpt><trkpt lat="41.178249" lon="-7.9344982"><ele>703.8</ele><time>2026-04-25T15:24:57.685Z</time></trkpt><trkpt lat="41.1783411" lon="-7.934589"><ele>703.2</ele><time>2026-04-25T15:24:59.684Z</time></trkpt><trkpt lat="41.1784017" lon="-7.9346948"><ele>702.6</ele><time>2026-04-25T15:25:01.681Z</time></trkpt><trkpt lat="41.1784505" lon="-7.9347619"><ele>702.0</ele><time>2026-04-25T15:25:03.684Z</time></trkpt><trkpt lat="41.1785089" lon="-7.9348422"><ele>702.0000000000001</ele><time>2026-04-25T15:25:05.688Z</time></trkpt><trkpt lat="41.1785444" lon="-7.9349393"><ele>702.0</ele><time>2026-04-25T15:25:07.679Z</time></trkpt><trkpt lat="41.1785046" lon="-7.935027"><ele>702.0</ele><time>2026-04-25T15:25:11.681Z</time></trkpt><trkpt lat="41.1784749" lon="-7.9351093"><ele>702.0</ele><time>2026-04-25T15:25:14.68Z</time></trkpt><trkpt lat="41.1785294" lon="-7.9351705"><ele>702.0</ele><time>2026-04-25T15:25:30.681Z</time></trkpt><trkpt lat="41.1785935" lon="-7.9352026"><ele>702.0000000000001</ele><time>2026-04-25T15:25:40.68Z</time></trkpt><trkpt lat="41.1786478" lon="-7.9352515"><ele>702.0</ele><time>2026-04-25T15:25:44.682Z</time></trkpt><trkpt lat="41.1785854" lon="-7.9352222"><ele>703.5</ele><time>2026-04-25T15:25:52.684Z</time></trkpt><trkpt lat="41.1784758" lon="-7.9352061"><ele>705.0</ele><time>2026-04-25T15:25:54.678Z</time></trkpt><trkpt lat="41.178375" lon="-7.9351624"><ele>706.5</ele><time>2026-04-25T15:25:56.68Z</time></trkpt><trkpt lat="41.178293" lon="-7.9351357"><ele>708.0</ele><time>2026-04-25T15:25:58.679Z</time></trkpt><trkpt lat="41.1782258" lon="-7.9351495"><ele>709.5</ele><time>2026-04-25T15:26:00.68Z</time></trkpt><trkpt lat="41.1781878" lon="-7.9352241"><ele>711.0</ele><time>2026-04-25T15:26:02.681Z</time></trkpt><trkpt lat="41.1781853" lon="-7.9353262"><ele>711.0</ele><time>2026-04-25T15:26:04.68Z</time></trkpt><trkpt lat="41.1781934" lon="-7.9354219"><ele>711.0</ele><time>2026-04-25T15:26:06.682Z</time></trkpt><trkpt lat="41.1781812" lon="-7.9355164"><ele>711.0</ele><time>2026-04-25T15:26:09.681Z</time></trkpt><trkpt lat="41.178246" lon="-7.9356508"><ele>711.0</ele><time>2026-04-25T15:26:11.681Z</time></trkpt><trkpt lat="41.1782726" lon="-7.9357475"><ele>711.0</ele><time>2026-04-25T15:26:13.677Z</time></trkpt><trkpt lat="41.1782958" lon="-7.9358405"><ele>711.0</ele><time>2026-04-25T15:26:16.681Z</time></trkpt><trkpt lat="41.1782899" lon="-7.9359311"><ele>712.0</ele><time>2026-04-25T15:26:30.678Z</time></trkpt><trkpt lat="41.1782906" lon="-7.9360229"><ele>713.0</ele><time>2026-04-25T15:26:45.68Z</time></trkpt><trkpt lat="41.1782591" lon="-7.9361012"><ele>714.0</ele><time>2026-04-25T15:26:48.676Z</time></trkpt><trkpt lat="41.1782317" lon="-7.9361843"><ele>715.0</ele><time>2026-04-25T15:26:51.676Z</time></trkpt><trkpt lat="41.1782113" lon="-7.9362707"><ele>716.0</ele><time>2026-04-25T15:26:53.677Z</time></trkpt><trkpt lat="41.1782192" lon="-7.9363859"><ele>717.0</ele><time>2026-04-25T15:26:55.683Z</time></trkpt><trkpt lat="41.178247" lon="-7.9365178"><ele>717.0</ele><time>2026-04-25T15:26:57.684Z</time></trkpt><trkpt lat="41.1782572" lon="-7.936668"><ele>717.0</ele><time>2026-04-25T15:26:59.687Z</time></trkpt><trkpt lat="41.1782867" lon="-7.9367438"><ele>717.0</ele><time>2026-04-25T15:27:00.679Z</time></trkpt><trkpt lat="41.1783048" lon="-7.936825"><ele>717.0</ele><time>2026-04-25T15:27:01.684Z</time></trkpt><trkpt lat="41.1783645" lon="-7.9369537"><ele>717.0</ele><time>2026-04-25T15:27:03.679Z</time></trkpt><trkpt lat="41.1784154" lon="-7.9370573"><ele>717.0</ele><time>2026-04-25T15:27:05.681Z</time></trkpt><trkpt lat="41.1784823" lon="-7.9371071"><ele>716.6666666666666</ele><time>2026-04-25T15:27:09.676Z</time></trkpt><trkpt lat="41.1785758" lon="-7.9370677"><ele>716.3333333333334</ele><time>2026-04-25T15:27:11.677Z</time></trkpt><trkpt lat="41.1786717" lon="-7.9370127"><ele>716.0</ele><time>2026-04-25T15:27:13.681Z</time></trkpt><trkpt lat="41.1787332" lon="-7.936978"><ele>715.6666666666667</ele><time>2026-04-25T15:27:14.677Z</time></trkpt><trkpt lat="41.1788048" lon="-7.9369386"><ele>715.3333333333334</ele><time>2026-04-25T15:27:15.676Z</time></trkpt><trkpt lat="41.1788736" lon="-7.9369028"><ele>715.0</ele><time>2026-04-25T15:27:16.676Z</time></trkpt><trkpt lat="41.1789398" lon="-7.9368704"><ele>715.0</ele><time>2026-04-25T15:27:17.675Z</time></trkpt><trkpt lat="41.1790052" lon="-7.936845"><ele>715.0</ele><time>2026-04-25T15:27:18.677Z</time></trkpt><trkpt lat="41.1790708" lon="-7.9368258"><ele>715.0</ele><time>2026-04-25T15:27:19.679Z</time></trkpt><trkpt lat="41.1791351" lon="-7.9368038"><ele>715.0</ele><time>2026-04-25T15:27:20.681Z</time></trkpt><trkpt lat="41.1791997" lon="-7.9367775"><ele>715.0</ele><time>2026-04-25T15:27:21.679Z</time></trkpt><trkpt lat="41.1792615" lon="-7.9367599"><ele>715.0</ele><time>2026-04-25T15:27:22.692Z</time></trkpt><trkpt lat="41.1793738" lon="-7.936794"><ele>715.0</ele><time>2026-04-25T15:27:24.676Z</time></trkpt><trkpt lat="41.1794689" lon="-7.9368965"><ele>719.5</ele><time>2026-04-25T15:27:26.689Z</time></trkpt><trkpt lat="41.1795245" lon="-7.9369526"><ele>724.0</ele><time>2026-04-25T15:27:27.68Z</time></trkpt><trkpt lat="41.1795785" lon="-7.9370005"><ele>728.5</ele><time>2026-04-25T15:27:28.676Z</time></trkpt><trkpt lat="41.1796714" lon="-7.9370722"><ele>733.0</ele><time>2026-04-25T15:27:30.678Z</time></trkpt><trkpt lat="41.1797538" lon="-7.9371272"><ele>737.5</ele><time>2026-04-25T15:27:32.685Z</time></trkpt><trkpt lat="41.1798141" lon="-7.9371926"><ele>742.0</ele><time>2026-04-25T15:27:34.675Z</time></trkpt><trkpt lat="41.1798645" lon="-7.9372542"><ele>745.0</ele><time>2026-04-25T15:27:36.684Z</time></trkpt><trkpt lat="41.1799222" lon="-7.9373266"><ele>748.0</ele><time>2026-04-25T15:27:38.682Z</time></trkpt><trkpt lat="41.1799735" lon="-7.9374168"><ele>751.0</ele><time>2026-04-25T15:27:40.673Z</time></trkpt><trkpt lat="41.1800159" lon="-7.9374919"><ele>754.0</ele><time>2026-04-25T15:27:42.676Z</time></trkpt><trkpt lat="41.1800673" lon="-7.9375622"><ele>757.0</ele><time>2026-04-25T15:27:44.68Z</time></trkpt><trkpt lat="41.1801343" lon="-7.9376411"><ele>760.0</ele><time>2026-04-25T15:27:46.675Z</time></trkpt><trkpt lat="41.1801987" lon="-7.9377117"><ele>760.1666666666667</ele><time>2026-04-25T15:27:48.675Z</time></trkpt><trkpt lat="41.1802583" lon="-7.9377865"><ele>760.3333333333334</ele><time>2026-04-25T15:27:50.677Z</time></trkpt><trkpt lat="41.1803108" lon="-7.9378627"><ele>760.5</ele><time>2026-04-25T15:27:52.684Z</time></trkpt><trkpt lat="41.1803675" lon="-7.9379383"><ele>760.6666666666666</ele><time>2026-04-25T15:27:54.679Z</time></trkpt><trkpt lat="41.1804341" lon="-7.938023"><ele>760.8333333333333</ele><time>2026-04-25T15:27:56.675Z</time></trkpt><trkpt lat="41.1805094" lon="-7.9381203"><ele>761.0</ele><time>2026-04-25T15:27:58.68Z</time></trkpt><trkpt lat="41.1805825" lon="-7.9382046"><ele>761.0</ele><time>2026-04-25T15:28:00.679Z</time></trkpt><trkpt lat="41.1806463" lon="-7.9382903"><ele>761.0</ele><time>2026-04-25T15:28:02.684Z</time></trkpt><trkpt lat="41.18071" lon="-7.9383558"><ele>761.0</ele><time>2026-04-25T15:28:04.68Z</time></trkpt><trkpt lat="41.1807984" lon="-7.9384219"><ele>761.0</ele><time>2026-04-25T15:28:06.677Z</time></trkpt><trkpt lat="41.1808799" lon="-7.9384882"><ele>761.0</ele><time>2026-04-25T15:28:08.683Z</time></trkpt><trkpt lat="41.1809396" lon="-7.9385594"><ele>761.0</ele><time>2026-04-25T15:28:10.681Z</time></trkpt><trkpt lat="41.1810012" lon="-7.938633"><ele>764.0</ele><time>2026-04-25T15:28:12.68Z</time></trkpt><trkpt lat="41.1810748" lon="-7.9387182"><ele>767.0</ele><time>2026-04-25T15:28:14.675Z</time></trkpt><trkpt lat="41.1811652" lon="-7.9388152"><ele>770.0</ele><time>2026-04-25T15:28:16.684Z</time></trkpt><trkpt lat="41.1812612" lon="-7.9389069"><ele>773.0</ele><time>2026-04-25T15:28:18.682Z</time></trkpt><trkpt lat="41.1813417" lon="-7.9389839"><ele>776.0</ele><time>2026-04-25T15:28:20.676Z</time></trkpt><trkpt lat="41.1814127" lon="-7.9390594"><ele>776.0000000000001</ele><time>2026-04-25T15:28:22.678Z</time></trkpt><trkpt lat="41.1814784" lon="-7.939126"><ele>776.0</ele><time>2026-04-25T15:28:24.675Z</time></trkpt><trkpt lat="41.1815442" lon="-7.9391913"><ele>776.0</ele><time>2026-04-25T15:28:26.679Z</time></trkpt><trkpt lat="41.1816099" lon="-7.9392484"><ele>776.0</ele><time>2026-04-25T15:28:28.682Z</time></trkpt><trkpt lat="41.1816658" lon="-7.9393114"><ele>776.0000000000001</ele><time>2026-04-25T15:28:30.679Z</time></trkpt><trkpt lat="41.1817149" lon="-7.9393725"><ele>776.0</ele><time>2026-04-25T15:28:32.684Z</time></trkpt><trkpt lat="41.1817712" lon="-7.9394213"><ele>777.0000000000001</ele><time>2026-04-25T15:28:34.677Z</time></trkpt><trkpt lat="41.18183" lon="-7.9394825"><ele>778.0</ele><time>2026-04-25T15:28:36.681Z</time></trkpt><trkpt lat="41.1818856" lon="-7.9395387"><ele>779.0</ele><time>2026-04-25T15:28:38.685Z</time></trkpt><trkpt lat="41.1819467" lon="-7.9395844"><ele>780.0</ele><time>2026-04-25T15:28:40.681Z</time></trkpt><trkpt lat="41.1819998" lon="-7.9396302"><ele>781.0000000000001</ele><time>2026-04-25T15:28:42.682Z</time></trkpt><trkpt lat="41.1820712" lon="-7.9396962"><ele>782.0</ele><time>2026-04-25T15:28:44.679Z</time></trkpt><trkpt lat="41.1821587" lon="-7.9397566"><ele>782.0</ele><time>2026-04-25T15:28:46.676Z</time></trkpt><trkpt lat="41.1822661" lon="-7.9398089"><ele>782.0</ele><time>2026-04-25T15:28:48.678Z</time></trkpt><trkpt lat="41.1823714" lon="-7.9398801"><ele>782.0</ele><time>2026-04-25T15:28:50.672Z</time></trkpt><trkpt lat="41.1824795" lon="-7.9399472"><ele>782.0</ele><time>2026-04-25T15:28:52.676Z</time></trkpt><trkpt lat="41.182581" lon="-7.9400148"><ele>785.6</ele><time>2026-04-25T15:28:54.674Z</time></trkpt><trkpt lat="41.1826638" lon="-7.9401028"><ele>789.2</ele><time>2026-04-25T15:28:56.676Z</time></trkpt><trkpt lat="41.1827537" lon="-7.9402033"><ele>792.8</ele><time>2026-04-25T15:28:58.682Z</time></trkpt><trkpt lat="41.1827994" lon="-7.9402612"><ele>796.4</ele><time>2026-04-25T15:28:59.682Z</time></trkpt><trkpt lat="41.1828527" lon="-7.9403583"><ele>800.0</ele><time>2026-04-25T15:29:01.683Z</time></trkpt><trkpt lat="41.1828485" lon="-7.9404795"><ele>800.0000000000001</ele><time>2026-04-25T15:29:15.687Z</time></trkpt><trkpt lat="41.1828813" lon="-7.9405756"><ele>800.0</ele><time>2026-04-25T15:29:17.676Z</time></trkpt><trkpt lat="41.1829282" lon="-7.9406683"><ele>800.0</ele><time>2026-04-25T15:29:19.68Z</time></trkpt><trkpt lat="41.1829714" lon="-7.9407576"><ele>800.0</ele><time>2026-04-25T15:29:21.679Z</time></trkpt><trkpt lat="41.1830114" lon="-7.9408381"><ele>800.0000000000001</ele><time>2026-04-25T15:29:23.675Z</time></trkpt><trkpt lat="41.1830465" lon="-7.9409502"><ele>800.0</ele><time>2026-04-25T15:29:26.68Z</time></trkpt><trkpt lat="41.1831054" lon="-7.9410376"><ele>799.8571428571429</ele><time>2026-04-25T15:29:29.677Z</time></trkpt><trkpt lat="41.1831329" lon="-7.9411154"><ele>799.7142857142858</ele><time>2026-04-25T15:29:33.686Z</time></trkpt><trkpt lat="41.1831758" lon="-7.9411923"><ele>799.5714285714287</ele><time>2026-04-25T15:29:36.68Z</time></trkpt><trkpt lat="41.1832147" lon="-7.9412786"><ele>799.4285714285714</ele><time>2026-04-25T15:29:39.672Z</time></trkpt><trkpt lat="41.1831886" lon="-7.9413603"><ele>799.2857142857142</ele><time>2026-04-25T15:29:41.678Z</time></trkpt><trkpt lat="41.183171" lon="-7.9414502"><ele>799.1428571428572</ele><time>2026-04-25T15:29:43.68Z</time></trkpt><trkpt lat="41.183175" lon="-7.9415657"><ele>799.0</ele><time>2026-04-25T15:29:46.678Z</time></trkpt><trkpt lat="41.1831754" lon="-7.9416654"><ele>797.4999999999999</ele><time>2026-04-25T15:29:50.681Z</time></trkpt><trkpt lat="41.1832015" lon="-7.9417627"><ele>796.0</ele><time>2026-04-25T15:29:53.675Z</time></trkpt><trkpt lat="41.18327" lon="-7.9418158"><ele>794.5</ele><time>2026-04-25T15:29:56.679Z</time></trkpt><trkpt lat="41.1833436" lon="-7.9418744"><ele>793.0</ele><time>2026-04-25T15:29:58.68Z</time></trkpt><trkpt lat="41.1834141" lon="-7.9419466"><ele>791.4999999999999</ele><time>2026-04-25T15:30:00.684Z</time></trkpt><trkpt lat="41.1834787" lon="-7.941991"><ele>790.0</ele><time>2026-04-25T15:30:02.675Z</time></trkpt><trkpt lat="41.18354" lon="-7.9420507"><ele>789.9999999999999</ele><time>2026-04-25T15:30:04.676Z</time></trkpt><trkpt lat="41.1835946" lon="-7.9421202"><ele>790.0</ele><time>2026-04-25T15:30:06.687Z</time></trkpt><trkpt lat="41.1836898" lon="-7.9421673"><ele>790.0</ele><time>2026-04-25T15:30:08.674Z</time></trkpt><trkpt lat="41.1838071" lon="-7.942245"><ele>790.0</ele><time>2026-04-25T15:30:10.677Z</time></trkpt><trkpt lat="41.1838631" lon="-7.9422933"><ele>789.9999999999999</ele><time>2026-04-25T15:30:11.679Z</time></trkpt><trkpt lat="41.1839231" lon="-7.9423475"><ele>790.0</ele><time>2026-04-25T15:30:12.679Z</time></trkpt><trkpt lat="41.1839789" lon="-7.9424057"><ele>791.4999999999999</ele><time>2026-04-25T15:30:13.688Z</time></trkpt><trkpt lat="41.1840282" lon="-7.9424598"><ele>793.0</ele><time>2026-04-25T15:30:14.679Z</time></trkpt><trkpt lat="41.1841226" lon="-7.9425647"><ele>794.5</ele><time>2026-04-25T15:30:16.683Z</time></trkpt><trkpt lat="41.1842051" lon="-7.9426913"><ele>796.0</ele><time>2026-04-25T15:30:18.678Z</time></trkpt><trkpt lat="41.1842432" lon="-7.9427584"><ele>797.4999999999999</ele><time>2026-04-25T15:30:19.672Z</time></trkpt><trkpt lat="41.1842713" lon="-7.9428467"><ele>799.0</ele><time>2026-04-25T15:30:20.677Z</time></trkpt><trkpt lat="41.1842916" lon="-7.9429464"><ele>798.9999999999999</ele><time>2026-04-25T15:30:21.675Z</time></trkpt><trkpt lat="41.1843091" lon="-7.9430539"><ele>799.0</ele><time>2026-04-25T15:30:22.684Z</time></trkpt><trkpt lat="41.1843304" lon="-7.9431666"><ele>799.0</ele><time>2026-04-25T15:30:23.679Z</time></trkpt><trkpt lat="41.1843591" lon="-7.9432729"><ele>799.0</ele><time>2026-04-25T15:30:24.686Z</time></trkpt><trkpt lat="41.1843948" lon="-7.9433734"><ele>798.9999999999999</ele><time>2026-04-25T15:30:25.671Z</time></trkpt><trkpt lat="41.1844324" lon="-7.9434712"><ele>799.0</ele><time>2026-04-25T15:30:26.677Z</time></trkpt><trkpt lat="41.1844691" lon="-7.9435603"><ele>799.0</ele><time>2026-04-25T15:30:27.678Z</time></trkpt><trkpt lat="41.1845" lon="-7.9436524"><ele>799.0</ele><time>2026-04-25T15:30:28.681Z</time></trkpt><trkpt lat="41.1845265" lon="-7.9437518"><ele>799.0</ele><time>2026-04-25T15:30:29.678Z</time></trkpt><trkpt lat="41.1845504" lon="-7.9438437"><ele>799.0</ele><time>2026-04-25T15:30:30.679Z</time></trkpt><trkpt lat="41.1845694" lon="-7.9439319"><ele>799.0</ele><time>2026-04-25T15:30:31.682Z</time></trkpt><trkpt lat="41.184588" lon="-7.9440168"><ele>799.0</ele><time>2026-04-25T15:30:32.675Z</time></trkpt><trkpt lat="41.184606" lon="-7.9441006"><ele>799.0</ele><time>2026-04-25T15:30:33.685Z</time></trkpt><trkpt lat="41.184625" lon="-7.9441833"><ele>800.4000000000001</ele><time>2026-04-25T15:30:34.678Z</time></trkpt><trkpt lat="41.1846451" lon="-7.9442639"><ele>801.8</ele><time>2026-04-25T15:30:35.675Z</time></trkpt><trkpt lat="41.1846921" lon="-7.944416"><ele>803.2</ele><time>2026-04-25T15:30:37.688Z</time></trkpt><trkpt lat="41.1847453" lon="-7.944543"><ele>804.5999999999999</ele><time>2026-04-25T15:30:39.687Z</time></trkpt><trkpt lat="41.1848242" lon="-7.9445934"><ele>806.0</ele><time>2026-04-25T15:30:41.678Z</time></trkpt><trkpt lat="41.1849469" lon="-7.9446154"><ele>806.8571428571429</ele><time>2026-04-25T15:30:43.682Z</time></trkpt><trkpt lat="41.1850166" lon="-7.9446307"><ele>807.7142857142857</ele><time>2026-04-25T15:30:44.675Z</time></trkpt><trkpt lat="41.1850853" lon="-7.9446526"><ele>808.5714285714286</ele><time>2026-04-25T15:30:45.681Z</time></trkpt><trkpt lat="41.1851534" lon="-7.9446841"><ele>809.4285714285714</ele><time>2026-04-25T15:30:46.679Z</time></trkpt><trkpt lat="41.1852177" lon="-7.944723"><ele>810.2857142857142</ele><time>2026-04-25T15:30:47.696Z</time></trkpt><trkpt lat="41.1852774" lon="-7.9447786"><ele>811.1428571428571</ele><time>2026-04-25T15:30:48.68Z</time></trkpt><trkpt lat="41.1853352" lon="-7.9448497"><ele>812.0</ele><time>2026-04-25T15:30:49.673Z</time></trkpt><trkpt lat="41.1853981" lon="-7.9449138"><ele>812.0</ele><time>2026-04-25T15:30:50.672Z</time></trkpt><trkpt lat="41.1854615" lon="-7.944967"><ele>812.0</ele><time>2026-04-25T15:30:51.674Z</time></trkpt><trkpt lat="41.1855302" lon="-7.9450146"><ele>812.0</ele><time>2026-04-25T15:30:52.678Z</time></trkpt><trkpt lat="41.1855951" lon="-7.9450549"><ele>812.0</ele><time>2026-04-25T15:30:53.676Z</time></trkpt><trkpt lat="41.1856595" lon="-7.9450847"><ele>812.0</ele><time>2026-04-25T15:30:54.675Z</time></trkpt><trkpt lat="41.1857308" lon="-7.9450753"><ele>812.0</ele><time>2026-04-25T15:30:55.686Z</time></trkpt><trkpt lat="41.1858007" lon="-7.9450389"><ele>812.0</ele><time>2026-04-25T15:30:56.68Z</time></trkpt><trkpt lat="41.1858758" lon="-7.9449897"><ele>812.5714285714286</ele><time>2026-04-25T15:30:57.68Z</time></trkpt><trkpt lat="41.1859354" lon="-7.944939"><ele>813.1428571428571</ele><time>2026-04-25T15:30:58.676Z</time></trkpt><trkpt lat="41.1859966" lon="-7.9449037"><ele>813.7142857142858</ele><time>2026-04-25T15:30:59.68Z</time></trkpt><trkpt lat="41.1860559" lon="-7.9448743"><ele>814.2857142857142</ele><time>2026-04-25T15:31:00.684Z</time></trkpt><trkpt lat="41.1861189" lon="-7.9448449"><ele>814.8571428571429</ele><time>2026-04-25T15:31:01.681Z</time></trkpt><trkpt lat="41.1861871" lon="-7.9448218"><ele>815.4285714285714</ele><time>2026-04-25T15:31:02.676Z</time></trkpt><trkpt lat="41.186261" lon="-7.9448114"><ele>816.0</ele><time>2026-04-25T15:31:03.676Z</time></trkpt><trkpt lat="41.1863355" lon="-7.9448045"><ele>816.0</ele><time>2026-04-25T15:31:04.678Z</time></trkpt><trkpt lat="41.1864055" lon="-7.9448211"><ele>816.0</ele><time>2026-04-25T15:31:05.675Z</time></trkpt><trkpt lat="41.1864761" lon="-7.9448433"><ele>816.0</ele><time>2026-04-25T15:31:06.676Z</time></trkpt><trkpt lat="41.1865456" lon="-7.9448769"><ele>816.0</ele><time>2026-04-25T15:31:07.69Z</time></trkpt><trkpt lat="41.1866228" lon="-7.9449131"><ele>816.0</ele><time>2026-04-25T15:31:08.678Z</time></trkpt><trkpt lat="41.1866991" lon="-7.9449482"><ele>816.0</ele><time>2026-04-25T15:31:09.678Z</time></trkpt><trkpt lat="41.1867722" lon="-7.9449693"><ele>817.8</ele><time>2026-04-25T15:31:10.675Z</time></trkpt><trkpt lat="41.1868406" lon="-7.9449891"><ele>819.5999999999999</ele><time>2026-04-25T15:31:11.679Z</time></trkpt><trkpt lat="41.1869045" lon="-7.9450038"><ele>821.4</ele><time>2026-04-25T15:31:12.682Z</time></trkpt><trkpt lat="41.187036" lon="-7.9450058"><ele>823.2</ele><time>2026-04-25T15:31:14.677Z</time></trkpt><trkpt lat="41.1871538" lon="-7.945036"><ele>825.0</ele><time>2026-04-25T15:31:16.675Z</time></trkpt><trkpt lat="41.1872547" lon="-7.9450831"><ele>824.6666666666666</ele><time>2026-04-25T15:31:18.677Z</time></trkpt><trkpt lat="41.1873578" lon="-7.9451375"><ele>824.3333333333333</ele><time>2026-04-25T15:31:20.678Z</time></trkpt><trkpt lat="41.1874227" lon="-7.945195"><ele>824.0</ele><time>2026-04-25T15:31:22.678Z</time></trkpt><trkpt lat="41.1874545" lon="-7.9452728"><ele>823.6666666666666</ele><time>2026-04-25T15:31:25.676Z</time></trkpt><trkpt lat="41.1873859" lon="-7.945252"><ele>823.3333333333333</ele><time>2026-04-25T15:31:37.675Z</time></trkpt><trkpt lat="41.18733" lon="-7.9451866"><ele>823.0</ele><time>2026-04-25T15:31:39.687Z</time></trkpt><trkpt lat="41.1872509" lon="-7.9451068"><ele>823.5</ele><time>2026-04-25T15:31:41.678Z</time></trkpt><trkpt lat="41.187139" lon="-7.9450416"><ele>824.0</ele><time>2026-04-25T15:31:43.682Z</time></trkpt><trkpt lat="41.1870358" lon="-7.9449915"><ele>824.5</ele><time>2026-04-25T15:31:45.682Z</time></trkpt><trkpt lat="41.186933" lon="-7.9449828"><ele>825.0</ele><time>2026-04-25T15:31:47.68Z</time></trkpt><trkpt lat="41.1868135" lon="-7.944979"><ele>825.0</ele><time>2026-04-25T15:31:49.676Z</time></trkpt><trkpt lat="41.1866882" lon="-7.9449794"><ele>825.0</ele><time>2026-04-25T15:31:51.679Z</time></trkpt><trkpt lat="41.1866231" lon="-7.944971"><ele>825.0</ele><time>2026-04-25T15:31:52.676Z</time></trkpt><trkpt lat="41.1865574" lon="-7.9449546"><ele>825.0</ele><time>2026-04-25T15:31:53.683Z</time></trkpt><trkpt lat="41.186492" lon="-7.9449342"><ele>825.0</ele><time>2026-04-25T15:31:54.679Z</time></trkpt><trkpt lat="41.1864309" lon="-7.9449071"><ele>825.0</ele><time>2026-04-25T15:31:55.678Z</time></trkpt><trkpt lat="41.1863123" lon="-7.9448496"><ele>823.2</ele><time>2026-04-25T15:31:57.676Z</time></trkpt><trkpt lat="41.1862032" lon="-7.9448063"><ele>821.4</ele><time>2026-04-25T15:31:59.672Z</time></trkpt><trkpt lat="41.186093" lon="-7.9448082"><ele>819.5999999999999</ele><time>2026-04-25T15:32:01.682Z</time></trkpt><trkpt lat="41.1859705" lon="-7.9448342"><ele>817.8</ele><time>2026-04-25T15:32:03.68Z</time></trkpt><trkpt lat="41.1859042" lon="-7.9448451"><ele>816.0</ele><time>2026-04-25T15:32:04.677Z</time></trkpt><trkpt lat="41.1858427" lon="-7.9448658"><ele>816.0</ele><time>2026-04-25T15:32:05.679Z</time></trkpt><trkpt lat="41.1857823" lon="-7.9448945"><ele>816.0</ele><time>2026-04-25T15:32:06.676Z</time></trkpt><trkpt lat="41.1857247" lon="-7.9449374"><ele>816.0</ele><time>2026-04-25T15:32:07.672Z</time></trkpt><trkpt lat="41.1856109" lon="-7.9449806"><ele>816.0</ele><time>2026-04-25T15:32:09.674Z</time></trkpt><trkpt lat="41.1855384" lon="-7.9449868"><ele>816.0</ele><time>2026-04-25T15:32:10.679Z</time></trkpt><trkpt lat="41.1854631" lon="-7.9449867"><ele>816.0</ele><time>2026-04-25T15:32:11.685Z</time></trkpt><trkpt lat="41.1853959" lon="-7.9449751"><ele>815.3333333333334</ele><time>2026-04-25T15:32:12.679Z</time></trkpt><trkpt lat="41.1853253" lon="-7.9449403"><ele>814.6666666666667</ele><time>2026-04-25T15:32:13.672Z</time></trkpt><trkpt lat="41.1852566" lon="-7.9448863"><ele>814.0</ele><time>2026-04-25T15:32:14.681Z</time></trkpt><trkpt lat="41.185189" lon="-7.9448164"><ele>813.3333333333334</ele><time>2026-04-25T15:32:15.679Z</time></trkpt><trkpt lat="41.1851186" lon="-7.9447391"><ele>812.6666666666667</ele><time>2026-04-25T15:32:16.68Z</time></trkpt><trkpt lat="41.1850466" lon="-7.9446632"><ele>812.0</ele><time>2026-04-25T15:32:17.68Z</time></trkpt><trkpt lat="41.184969" lon="-7.9445959"><ele>812.0</ele><time>2026-04-25T15:32:18.678Z</time></trkpt><trkpt lat="41.1848929" lon="-7.9445451"><ele>812.0</ele><time>2026-04-25T15:32:19.674Z</time></trkpt><trkpt lat="41.1848182" lon="-7.9445007"><ele>812.0</ele><time>2026-04-25T15:32:20.674Z</time></trkpt><trkpt lat="41.1847168" lon="-7.944488"><ele>812.0</ele><time>2026-04-25T15:32:22.672Z</time></trkpt><trkpt lat="41.1846674" lon="-7.944591"><ele>812.0</ele><time>2026-04-25T15:32:24.674Z</time></trkpt><trkpt lat="41.1846286" lon="-7.9447417"><ele>810.8</ele><time>2026-04-25T15:32:26.679Z</time></trkpt><trkpt lat="41.1846016" lon="-7.9448276"><ele>809.6</ele><time>2026-04-25T15:32:27.683Z</time></trkpt><trkpt lat="41.1845538" lon="-7.9449197"><ele>808.4</ele><time>2026-04-25T15:32:28.685Z</time></trkpt><trkpt lat="41.1844934" lon="-7.945015"><ele>807.1999999999999</ele><time>2026-04-25T15:32:29.679Z</time></trkpt><trkpt lat="41.184427" lon="-7.9451193"><ele>806.0</ele><time>2026-04-25T15:32:30.672Z</time></trkpt><trkpt lat="41.184356" lon="-7.9452362"><ele>809.0</ele><time>2026-04-25T15:32:31.679Z</time></trkpt><trkpt lat="41.1842899" lon="-7.9453403"><ele>812.0</ele><time>2026-04-25T15:32:32.682Z</time></trkpt><trkpt lat="41.1842258" lon="-7.9454432"><ele>815.0</ele><time>2026-04-25T15:32:33.674Z</time></trkpt><trkpt lat="41.184156" lon="-7.9455561"><ele>818.0</ele><time>2026-04-25T15:32:34.674Z</time></trkpt><trkpt lat="41.1840725" lon="-7.9457015"><ele>817.0</ele><time>2026-04-25T15:32:35.674Z</time></trkpt><trkpt lat="41.1839901" lon="-7.9458757"><ele>816.0</ele><time>2026-04-25T15:32:36.685Z</time></trkpt><trkpt lat="41.1839028" lon="-7.946071"><ele>815.0</ele><time>2026-04-25T15:32:37.677Z</time></trkpt><trkpt lat="41.1838105" lon="-7.9462913"><ele>815.0</ele><time>2026-04-25T15:32:38.675Z</time></trkpt><trkpt lat="41.183714" lon="-7.9465148"><ele>815.0</ele><time>2026-04-25T15:32:39.678Z</time></trkpt><trkpt lat="41.1836356" lon="-7.9467298"><ele>815.0</ele><time>2026-04-25T15:32:40.679Z</time></trkpt><trkpt lat="41.183591" lon="-7.9469154"><ele>818.0</ele><time>2026-04-25T15:32:41.683Z</time></trkpt><trkpt lat="41.1835569" lon="-7.9470899"><ele>821.0</ele><time>2026-04-25T15:32:42.669Z</time></trkpt><trkpt lat="41.1835247" lon="-7.9472412"><ele>824.0</ele><time>2026-04-25T15:32:43.677Z</time></trkpt><trkpt lat="41.1834955" lon="-7.9474002"><ele>827.0</ele><time>2026-04-25T15:32:44.673Z</time></trkpt><trkpt lat="41.1834566" lon="-7.9475372"><ele>829.8</ele><time>2026-04-25T15:32:45.674Z</time></trkpt><trkpt lat="41.1834032" lon="-7.9476749"><ele>832.6</ele><time>2026-04-25T15:32:46.675Z</time></trkpt><trkpt lat="41.1833432" lon="-7.9478016"><ele>835.4</ele><time>2026-04-25T15:32:47.681Z</time></trkpt><trkpt lat="41.183297" lon="-7.9479256"><ele>838.1999999999999</ele><time>2026-04-25T15:32:48.677Z</time></trkpt><trkpt lat="41.1832583" lon="-7.9480407"><ele>841.0</ele><time>2026-04-25T15:32:49.683Z</time></trkpt><trkpt lat="41.1832195" lon="-7.9481606"><ele>841.0</ele><time>2026-04-25T15:32:50.674Z</time></trkpt><trkpt lat="41.1831818" lon="-7.9482815"><ele>841.0</ele><time>2026-04-25T15:32:51.678Z</time></trkpt><trkpt lat="41.1831377" lon="-7.9484004"><ele>841.0</ele><time>2026-04-25T15:32:52.682Z</time></trkpt><trkpt lat="41.1830976" lon="-7.9485258"><ele>841.0</ele><time>2026-04-25T15:32:53.678Z</time></trkpt><trkpt lat="41.1830653" lon="-7.9486515"><ele>841.0</ele><time>2026-04-25T15:32:54.675Z</time></trkpt><trkpt lat="41.1830364" lon="-7.9487796"><ele>837.5999999999999</ele><time>2026-04-25T15:32:55.676Z</time></trkpt><trkpt lat="41.1830249" lon="-7.9489121"><ele>834.2</ele><time>2026-04-25T15:32:56.68Z</time></trkpt><trkpt lat="41.1830281" lon="-7.949052"><ele>830.8</ele><time>2026-04-25T15:32:57.675Z</time></trkpt><trkpt lat="41.1830497" lon="-7.9491939"><ele>827.4000000000001</ele><time>2026-04-25T15:32:58.676Z</time></trkpt><trkpt lat="41.1830793" lon="-7.9493396"><ele>824.0</ele><time>2026-04-25T15:32:59.677Z</time></trkpt><trkpt lat="41.1831111" lon="-7.9494848"><ele>823.0</ele><time>2026-04-25T15:33:00.685Z</time></trkpt><trkpt lat="41.1831396" lon="-7.9496288"><ele>822.0</ele><time>2026-04-25T15:33:01.682Z</time></trkpt><trkpt lat="41.1831712" lon="-7.9497637"><ele>821.0</ele><time>2026-04-25T15:33:02.679Z</time></trkpt><trkpt lat="41.1832056" lon="-7.9498846"><ele>820.0</ele><time>2026-04-25T15:33:03.68Z</time></trkpt><trkpt lat="41.1832468" lon="-7.9499805"><ele>819.0</ele><time>2026-04-25T15:33:04.672Z</time></trkpt><trkpt lat="41.1833093" lon="-7.9500339"><ele>823.0</ele><time>2026-04-25T15:33:05.672Z</time></trkpt><trkpt lat="41.1834064" lon="-7.950049"><ele>827.0</ele><time>2026-04-25T15:33:06.675Z</time></trkpt><trkpt lat="41.1834961" lon="-7.9500556"><ele>831.0</ele><time>2026-04-25T15:33:07.688Z</time></trkpt><trkpt lat="41.1836051" lon="-7.9500323"><ele>835.0</ele><time>2026-04-25T15:33:08.682Z</time></trkpt><trkpt lat="41.183708" lon="-7.9499927"><ele>839.0</ele><time>2026-04-25T15:33:09.68Z</time></trkpt><trkpt lat="41.1838122" lon="-7.9499265"><ele>840.5</ele><time>2026-04-25T15:33:10.678Z</time></trkpt><trkpt lat="41.1839081" lon="-7.9498416"><ele>842.0</ele><time>2026-04-25T15:33:11.674Z</time></trkpt><trkpt lat="41.1839943" lon="-7.9497477"><ele>843.5</ele><time>2026-04-25T15:33:12.68Z</time></trkpt><trkpt lat="41.1840817" lon="-7.9496442"><ele>845.0</ele><time>2026-04-25T15:33:13.677Z</time></trkpt><trkpt lat="41.1841818" lon="-7.9495139"><ele>851.3333333333334</ele><time>2026-04-25T15:33:14.674Z</time></trkpt><trkpt lat="41.1842777" lon="-7.9493527"><ele>857.6666666666667</ele><time>2026-04-25T15:33:15.68Z</time></trkpt><trkpt lat="41.184373" lon="-7.9491821"><ele>864.0</ele><time>2026-04-25T15:33:16.678Z</time></trkpt><trkpt lat="41.1844576" lon="-7.9490325"><ele>864.2</ele><time>2026-04-25T15:33:17.677Z</time></trkpt><trkpt lat="41.1845233" lon="-7.948905"><ele>864.4000000000001</ele><time>2026-04-25T15:33:18.676Z</time></trkpt><trkpt lat="41.1845808" lon="-7.9488216"><ele>864.6</ele><time>2026-04-25T15:33:19.674Z</time></trkpt><trkpt lat="41.1846413" lon="-7.9487696"><ele>864.8</ele><time>2026-04-25T15:33:20.677Z</time></trkpt><trkpt lat="41.1847032" lon="-7.9487486"><ele>865.0</ele><time>2026-04-25T15:33:21.677Z</time></trkpt><trkpt lat="41.1848316" lon="-7.9488445"><ele>867.5</ele><time>2026-04-25T15:33:23.674Z</time></trkpt><trkpt lat="41.1849211" lon="-7.9489316"><ele>870.0</ele><time>2026-04-25T15:33:24.675Z</time></trkpt><trkpt lat="41.1850231" lon="-7.9490232"><ele>872.5</ele><time>2026-04-25T15:33:25.681Z</time></trkpt><trkpt lat="41.1851363" lon="-7.949119"><ele>875.0</ele><time>2026-04-25T15:33:26.687Z</time></trkpt><trkpt lat="41.1852639" lon="-7.9492363"><ele>876.0</ele><time>2026-04-25T15:33:27.679Z</time></trkpt><trkpt lat="41.1854195" lon="-7.9493834"><ele>877.0</ele><time>2026-04-25T15:33:28.67Z</time></trkpt><trkpt lat="41.1855707" lon="-7.949528"><ele>878.0</ele><time>2026-04-25T15:33:29.676Z</time></trkpt><trkpt lat="41.1856995" lon="-7.949661"><ele>881.0</ele><time>2026-04-25T15:33:30.679Z</time></trkpt><trkpt lat="41.1858135" lon="-7.9497751"><ele>884.0</ele><time>2026-04-25T15:33:31.674Z</time></trkpt><trkpt lat="41.1859267" lon="-7.9498841"><ele>887.0</ele><time>2026-04-25T15:33:32.678Z</time></trkpt><trkpt lat="41.1860487" lon="-7.949992"><ele>890.0</ele><time>2026-04-25T15:33:33.675Z</time></trkpt><trkpt lat="41.1861699" lon="-7.9500666"><ele>891.0</ele><time>2026-04-25T15:33:34.678Z</time></trkpt><trkpt lat="41.1862638" lon="-7.9501599"><ele>892.0</ele><time>2026-04-25T15:33:35.676Z</time></trkpt><trkpt lat="41.1863707" lon="-7.950233"><ele>893.0</ele><time>2026-04-25T15:33:36.678Z</time></trkpt><trkpt lat="41.1864805" lon="-7.9503079"><ele>894.0</ele><time>2026-04-25T15:33:37.673Z</time></trkpt><trkpt lat="41.1865832" lon="-7.9503807"><ele>894.8000000000001</ele><time>2026-04-25T15:33:38.676Z</time></trkpt><trkpt lat="41.186681" lon="-7.9504508"><ele>895.6000000000001</ele><time>2026-04-25T15:33:39.673Z</time></trkpt><trkpt lat="41.1867788" lon="-7.9505243"><ele>896.4</ele><time>2026-04-25T15:33:40.674Z</time></trkpt><trkpt lat="41.1868753" lon="-7.9506016"><ele>897.2</ele><time>2026-04-25T15:33:41.681Z</time></trkpt><trkpt lat="41.186973" lon="-7.9506764"><ele>898.0</ele><time>2026-04-25T15:33:42.683Z</time></trkpt><trkpt lat="41.1870566" lon="-7.9507503"><ele>898.0</ele><time>2026-04-25T15:33:43.675Z</time></trkpt><trkpt lat="41.1871275" lon="-7.9508325"><ele>898.0</ele><time>2026-04-25T15:33:44.674Z</time></trkpt><trkpt lat="41.187187" lon="-7.9509271"><ele>898.0</ele><time>2026-04-25T15:33:45.676Z</time></trkpt><trkpt lat="41.1872308" lon="-7.9510368"><ele>898.0</ele><time>2026-04-25T15:33:46.678Z</time></trkpt><trkpt lat="41.1872685" lon="-7.9511615"><ele>898.0</ele><time>2026-04-25T15:33:47.674Z</time></trkpt><trkpt lat="41.1872958" lon="-7.9513097"><ele>898.5</ele><time>2026-04-25T15:33:48.676Z</time></trkpt><trkpt lat="41.1873212" lon="-7.9514942"><ele>899.0</ele><time>2026-04-25T15:33:49.673Z</time></trkpt><trkpt lat="41.1873534" lon="-7.9516898"><ele>899.5</ele><time>2026-04-25T15:33:50.678Z</time></trkpt><trkpt lat="41.187388" lon="-7.9518865"><ele>900.0</ele><time>2026-04-25T15:33:51.681Z</time></trkpt><trkpt lat="41.1874274" lon="-7.9520919"><ele>901.5</ele><time>2026-04-25T15:33:52.678Z</time></trkpt><trkpt lat="41.1874788" lon="-7.9522619"><ele>903.0</ele><time>2026-04-25T15:33:53.679Z</time></trkpt><trkpt lat="41.1875202" lon="-7.952425"><ele>904.5</ele><time>2026-04-25T15:33:54.676Z</time></trkpt><trkpt lat="41.1875584" lon="-7.9525667"><ele>906.0</ele><time>2026-04-25T15:33:55.679Z</time></trkpt><trkpt lat="41.1875769" lon="-7.9527267"><ele>907.25</ele><time>2026-04-25T15:33:56.681Z</time></trkpt><trkpt lat="41.1875751" lon="-7.9528926"><ele>908.5</ele><time>2026-04-25T15:33:57.674Z</time></trkpt><trkpt lat="41.1875677" lon="-7.9530467"><ele>909.75</ele><time>2026-04-25T15:33:58.673Z</time></trkpt><trkpt lat="41.1875586" lon="-7.9532004"><ele>911.0</ele><time>2026-04-25T15:33:59.678Z</time></trkpt><trkpt lat="41.1875445" lon="-7.9533559"><ele>912.0</ele><time>2026-04-25T15:34:00.675Z</time></trkpt><trkpt lat="41.1875354" lon="-7.9535169"><ele>912.9999999999999</ele><time>2026-04-25T15:34:01.672Z</time></trkpt><trkpt lat="41.1875306" lon="-7.9536726"><ele>913.9999999999999</ele><time>2026-04-25T15:34:02.679Z</time></trkpt><trkpt lat="41.1875385" lon="-7.9538147"><ele>915.0</ele><time>2026-04-25T15:34:03.679Z</time></trkpt><trkpt lat="41.1875577" lon="-7.9539484"><ele>916.0</ele><time>2026-04-25T15:34:04.672Z</time></trkpt><trkpt lat="41.1875936" lon="-7.954072"><ele>916.0</ele><time>2026-04-25T15:34:05.672Z</time></trkpt><trkpt lat="41.1876465" lon="-7.9541921"><ele>915.9999999999999</ele><time>2026-04-25T15:34:06.678Z</time></trkpt><trkpt lat="41.1877021" lon="-7.954312"><ele>915.9999999999999</ele><time>2026-04-25T15:34:07.678Z</time></trkpt><trkpt lat="41.1877667" lon="-7.9544283"><ele>916.0</ele><time>2026-04-25T15:34:08.674Z</time></trkpt><trkpt lat="41.1878407" lon="-7.9545441"><ele>916.0</ele><time>2026-04-25T15:34:09.677Z</time></trkpt><trkpt lat="41.1879277" lon="-7.9546576"><ele>917.0</ele><time>2026-04-25T15:34:10.672Z</time></trkpt><trkpt lat="41.1880132" lon="-7.9547691"><ele>918.0</ele><time>2026-04-25T15:34:11.677Z</time></trkpt><trkpt lat="41.1881021" lon="-7.954883"><ele>919.0</ele><time>2026-04-25T15:34:12.681Z</time></trkpt><trkpt lat="41.1882067" lon="-7.9550066"><ele>920.0</ele><time>2026-04-25T15:34:13.674Z</time></trkpt><trkpt lat="41.188316" lon="-7.9551273"><ele>920.25</ele><time>2026-04-25T15:34:14.673Z</time></trkpt><trkpt lat="41.1884154" lon="-7.9552444"><ele>920.5</ele><time>2026-04-25T15:34:15.674Z</time></trkpt><trkpt lat="41.1885184" lon="-7.9553536"><ele>920.75</ele><time>2026-04-25T15:34:16.679Z</time></trkpt><trkpt lat="41.1886247" lon="-7.9554588"><ele>921.0</ele><time>2026-04-25T15:34:17.673Z</time></trkpt><trkpt lat="41.1887394" lon="-7.9555453"><ele>921.0</ele><time>2026-04-25T15:34:18.673Z</time></trkpt><trkpt lat="41.1888606" lon="-7.9556124"><ele>921.0</ele><time>2026-04-25T15:34:19.676Z</time></trkpt><trkpt lat="41.1889914" lon="-7.9556657"><ele>921.0</ele><time>2026-04-25T15:34:20.672Z</time></trkpt><trkpt lat="41.1891297" lon="-7.9557048"><ele>921.0</ele><time>2026-04-25T15:34:21.677Z</time></trkpt><trkpt lat="41.1892708" lon="-7.9557371"><ele>921.0</ele><time>2026-04-25T15:34:22.683Z</time></trkpt><trkpt lat="41.1894123" lon="-7.9557663"><ele>921.0</ele><time>2026-04-25T15:34:23.673Z</time></trkpt><trkpt lat="41.1895517" lon="-7.9557978"><ele>921.0</ele><time>2026-04-25T15:34:24.674Z</time></trkpt><trkpt lat="41.1896857" lon="-7.9558242"><ele>921.0</ele><time>2026-04-25T15:34:25.674Z</time></trkpt><trkpt lat="41.1898178" lon="-7.9558583"><ele>919.75</ele><time>2026-04-25T15:34:26.673Z</time></trkpt><trkpt lat="41.1899466" lon="-7.9558863"><ele>918.5</ele><time>2026-04-25T15:34:27.678Z</time></trkpt><trkpt lat="41.19007" lon="-7.9559059"><ele>917.25</ele><time>2026-04-25T15:34:28.673Z</time></trkpt><trkpt lat="41.1901918" lon="-7.9559156"><ele>916.0</ele><time>2026-04-25T15:34:29.675Z</time></trkpt><trkpt lat="41.1903081" lon="-7.9559055"><ele>916.0</ele><time>2026-04-25T15:34:30.675Z</time></trkpt><trkpt lat="41.1904329" lon="-7.9558834"><ele>916.0</ele><time>2026-04-25T15:34:31.677Z</time></trkpt><trkpt lat="41.1905535" lon="-7.9558501"><ele>916.0</ele><time>2026-04-25T15:34:32.686Z</time></trkpt><trkpt lat="41.1906681" lon="-7.9558216"><ele>916.0</ele><time>2026-04-25T15:34:33.677Z</time></trkpt><trkpt lat="41.1907826" lon="-7.9557935"><ele>916.25</ele><time>2026-04-25T15:34:34.677Z</time></trkpt><trkpt lat="41.190903" lon="-7.9557587"><ele>916.5</ele><time>2026-04-25T15:34:35.675Z</time></trkpt><trkpt lat="41.1910289" lon="-7.9557252"><ele>916.75</ele><time>2026-04-25T15:34:36.677Z</time></trkpt><trkpt lat="41.1911525" lon="-7.9556878"><ele>917.0</ele><time>2026-04-25T15:34:37.678Z</time></trkpt><trkpt lat="41.1912668" lon="-7.9556377"><ele>917.0</ele><time>2026-04-25T15:34:38.672Z</time></trkpt><trkpt lat="41.1913716" lon="-7.9555893"><ele>917.0</ele><time>2026-04-25T15:34:39.675Z</time></trkpt><trkpt lat="41.1914731" lon="-7.9555466"><ele>917.0</ele><time>2026-04-25T15:34:40.68Z</time></trkpt><trkpt lat="41.191566" lon="-7.9555165"><ele>917.0</ele><time>2026-04-25T15:34:41.674Z</time></trkpt><trkpt lat="41.1916508" lon="-7.9554893"><ele>917.0</ele><time>2026-04-25T15:34:42.674Z</time></trkpt><trkpt lat="41.1917305" lon="-7.9554607"><ele>917.2</ele><time>2026-04-25T15:34:43.678Z</time></trkpt><trkpt lat="41.19181" lon="-7.9554212"><ele>917.4000000000001</ele><time>2026-04-25T15:34:44.674Z</time></trkpt><trkpt lat="41.1918896" lon="-7.9553722"><ele>917.5999999999999</ele><time>2026-04-25T15:34:45.678Z</time></trkpt><trkpt lat="41.1919682" lon="-7.95531"><ele>917.8</ele><time>2026-04-25T15:34:46.683Z</time></trkpt><trkpt lat="41.192056" lon="-7.9552536"><ele>918.0</ele><time>2026-04-25T15:34:47.673Z</time></trkpt><trkpt lat="41.1921417" lon="-7.9551909"><ele>918.0</ele><time>2026-04-25T15:34:48.678Z</time></trkpt><trkpt lat="41.1922281" lon="-7.9551134"><ele>918.0</ele><time>2026-04-25T15:34:49.674Z</time></trkpt><trkpt lat="41.1923054" lon="-7.9550231"><ele>918.0</ele><time>2026-04-25T15:34:50.677Z</time></trkpt><trkpt lat="41.1923743" lon="-7.9549296"><ele>918.0</ele><time>2026-04-25T15:34:51.677Z</time></trkpt><trkpt lat="41.1924418" lon="-7.9548413"><ele>918.0</ele><time>2026-04-25T15:34:52.676Z</time></trkpt><trkpt lat="41.1925111" lon="-7.9547552"><ele>918.4</ele><time>2026-04-25T15:34:53.67Z</time></trkpt><trkpt lat="41.1925849" lon="-7.9546655"><ele>918.8</ele><time>2026-04-25T15:34:54.68Z</time></trkpt><trkpt lat="41.1926626" lon="-7.954576"><ele>919.2</ele><time>2026-04-25T15:34:55.679Z</time></trkpt><trkpt lat="41.1927478" lon="-7.9545018"><ele>919.6</ele><time>2026-04-25T15:34:56.675Z</time></trkpt><trkpt lat="41.1928412" lon="-7.9544348"><ele>920.0</ele><time>2026-04-25T15:34:57.684Z</time></trkpt><trkpt lat="41.1929426" lon="-7.9543643"><ele>920.0</ele><time>2026-04-25T15:34:58.674Z</time></trkpt><trkpt lat="41.1930586" lon="-7.9542828"><ele>920.0</ele><time>2026-04-25T15:34:59.674Z</time></trkpt><trkpt lat="41.1931754" lon="-7.9542078"><ele>920.0</ele><time>2026-04-25T15:35:00.684Z</time></trkpt><trkpt lat="41.1932856" lon="-7.9541319"><ele>920.0</ele><time>2026-04-25T15:35:01.677Z</time></trkpt><trkpt lat="41.1933983" lon="-7.9540535"><ele>919.5</ele><time>2026-04-25T15:35:02.674Z</time></trkpt><trkpt lat="41.1935048" lon="-7.9539768"><ele>919.0</ele><time>2026-04-25T15:35:03.682Z</time></trkpt><trkpt lat="41.1936008" lon="-7.9538933"><ele>918.5</ele><time>2026-04-25T15:35:04.679Z</time></trkpt><trkpt lat="41.1936936" lon="-7.9538048"><ele>918.0</ele><time>2026-04-25T15:35:05.68Z</time></trkpt><trkpt lat="41.1937593" lon="-7.9536976"><ele>918.0</ele><time>2026-04-25T15:35:06.674Z</time></trkpt><trkpt lat="41.1938176" lon="-7.9535957"><ele>918.0</ele><time>2026-04-25T15:35:07.679Z</time></trkpt><trkpt lat="41.1938652" lon="-7.9535101"><ele>918.0</ele><time>2026-04-25T15:35:08.67Z</time></trkpt><trkpt lat="41.1939053" lon="-7.9534281"><ele>918.0</ele><time>2026-04-25T15:35:09.673Z</time></trkpt><trkpt lat="41.1939467" lon="-7.9533492"><ele>918.0</ele><time>2026-04-25T15:35:10.673Z</time></trkpt><trkpt lat="41.1939825" lon="-7.9532678"><ele>918.0</ele><time>2026-04-25T15:35:11.674Z</time></trkpt><trkpt lat="41.1940138" lon="-7.9531803"><ele>917.0</ele><time>2026-04-25T15:35:12.681Z</time></trkpt><trkpt lat="41.1940625" lon="-7.953104"><ele>916.0</ele><time>2026-04-25T15:35:13.669Z</time></trkpt><trkpt lat="41.1941072" lon="-7.9530329"><ele>915.0</ele><time>2026-04-25T15:35:14.677Z</time></trkpt><trkpt lat="41.1941492" lon="-7.9529689"><ele>914.0</ele><time>2026-04-25T15:35:15.675Z</time></trkpt><trkpt lat="41.1942258" lon="-7.9528475"><ele>913.0</ele><time>2026-04-25T15:35:17.675Z</time></trkpt><trkpt lat="41.1942917" lon="-7.9527497"><ele>912.0</ele><time>2026-04-25T15:35:19.674Z</time></trkpt><trkpt lat="41.1943522" lon="-7.9526885"><ele>912.0</ele><time>2026-04-25T15:35:21.671Z</time></trkpt><trkpt lat="41.1944251" lon="-7.9526185"><ele>912.0</ele><time>2026-04-25T15:35:23.677Z</time></trkpt><trkpt lat="41.194515" lon="-7.9525398"><ele>912.0</ele><time>2026-04-25T15:35:25.673Z</time></trkpt><trkpt lat="41.1946183" lon="-7.9524665"><ele>912.0</ele><time>2026-04-25T15:35:27.677Z</time></trkpt><trkpt lat="41.1947236" lon="-7.9524056"><ele>912.0</ele><time>2026-04-25T15:35:29.675Z</time></trkpt><trkpt lat="41.1948341" lon="-7.9523723"><ele>908.5</ele><time>2026-04-25T15:35:31.675Z</time></trkpt><trkpt lat="41.1949174" lon="-7.9523552"><ele>905.0</ele><time>2026-04-25T15:35:33.676Z</time></trkpt><trkpt lat="41.1949961" lon="-7.9523458"><ele>901.5</ele><time>2026-04-25T15:35:35.676Z</time></trkpt><trkpt lat="41.1950727" lon="-7.9522938"><ele>898.0</ele><time>2026-04-25T15:35:37.674Z</time></trkpt><trkpt lat="41.1951431" lon="-7.9522334"><ele>894.5</ele><time>2026-04-25T15:35:39.673Z</time></trkpt><trkpt lat="41.1952195" lon="-7.9521418"><ele>891.0</ele><time>2026-04-25T15:35:41.675Z</time></trkpt><trkpt lat="41.1952888" lon="-7.9520488"><ele>891.0</ele><time>2026-04-25T15:35:43.673Z</time></trkpt><trkpt lat="41.1953375" lon="-7.9519405"><ele>891.0</ele><time>2026-04-25T15:35:45.673Z</time></trkpt><trkpt lat="41.1953899" lon="-7.9518752"><ele>891.0</ele><time>2026-04-25T15:35:47.685Z</time></trkpt><trkpt lat="41.1954522" lon="-7.9518172"><ele>891.0</ele><time>2026-04-25T15:35:50.684Z</time></trkpt><trkpt lat="41.1955005" lon="-7.9517627"><ele>891.0</ele><time>2026-04-25T15:35:53.681Z</time></trkpt><trkpt lat="41.1955815" lon="-7.9517207"><ele>891.0</ele><time>2026-04-25T15:35:56.683Z</time></trkpt><trkpt lat="41.1956596" lon="-7.9516475"><ele>886.5</ele><time>2026-04-25T15:35:58.673Z</time></trkpt><trkpt lat="41.1957125" lon="-7.9515844"><ele>882.0</ele><time>2026-04-25T15:35:59.682Z</time></trkpt><trkpt lat="41.1957632" lon="-7.9515289"><ele>877.5</ele><time>2026-04-25T15:36:00.672Z</time></trkpt><trkpt lat="41.1958109" lon="-7.9514726"><ele>873.0</ele><time>2026-04-25T15:36:01.672Z</time></trkpt><trkpt lat="41.1958655" lon="-7.9513579"><ele>868.5</ele><time>2026-04-25T15:36:03.679Z</time></trkpt><trkpt lat="41.1959018" lon="-7.9512651"><ele>864.0</ele><time>2026-04-25T15:36:05.677Z</time></trkpt><trkpt lat="41.1959424" lon="-7.9511767"><ele>864.0</ele><time>2026-04-25T15:36:08.672Z</time></trkpt><trkpt lat="41.1959708" lon="-7.9511012"><ele>864.0</ele><time>2026-04-25T15:36:10.675Z</time></trkpt><trkpt lat="41.1959946" lon="-7.950998"><ele>864.0</ele><time>2026-04-25T15:36:12.672Z</time></trkpt><trkpt lat="41.1960462" lon="-7.9509046"><ele>864.0</ele><time>2026-04-25T15:36:14.676Z</time></trkpt><trkpt lat="41.1960992" lon="-7.9508133"><ele>864.0</ele><time>2026-04-25T15:36:16.672Z</time></trkpt><trkpt lat="41.1961507" lon="-7.9507331"><ele>864.0</ele><time>2026-04-25T15:36:18.673Z</time></trkpt><trkpt lat="41.1961666" lon="-7.9506341"><ele>862.5</ele><time>2026-04-25T15:36:20.676Z</time></trkpt><trkpt lat="41.1961676" lon="-7.9505376"><ele>861.0</ele><time>2026-04-25T15:36:22.672Z</time></trkpt><trkpt lat="41.1961234" lon="-7.9504482"><ele>859.5</ele><time>2026-04-25T15:36:24.675Z</time></trkpt><trkpt lat="41.1960936" lon="-7.9503734"><ele>858.0</ele><time>2026-04-25T15:36:26.676Z</time></trkpt><trkpt lat="41.1961088" lon="-7.9502489"><ele>856.5</ele><time>2026-04-25T15:36:28.681Z</time></trkpt><trkpt lat="41.1961268" lon="-7.9501192"><ele>855.0</ele><time>2026-04-25T15:36:30.678Z</time></trkpt><trkpt lat="41.1961451" lon="-7.9499944"><ele>853.5</ele><time>2026-04-25T15:36:32.685Z</time></trkpt><trkpt lat="41.1961596" lon="-7.9498832"><ele>852.0</ele><time>2026-04-25T15:36:34.67Z</time></trkpt><trkpt lat="41.196166" lon="-7.9497876"><ele>850.5</ele><time>2026-04-25T15:36:36.673Z</time></trkpt><trkpt lat="41.1961617" lon="-7.9496727"><ele>849.0</ele><time>2026-04-25T15:36:39.674Z</time></trkpt><trkpt lat="41.1961599" lon="-7.9495836"><ele>847.5</ele><time>2026-04-25T15:36:41.679Z</time></trkpt><trkpt lat="41.1961553" lon="-7.94949"><ele>846.0</ele><time>2026-04-25T15:36:43.674Z</time></trkpt><trkpt lat="41.1961427" lon="-7.9493829"><ele>846.0</ele><time>2026-04-25T15:36:45.672Z</time></trkpt><trkpt lat="41.1961498" lon="-7.9492717"><ele>846.0</ele><time>2026-04-25T15:36:47.68Z</time></trkpt><trkpt lat="41.196212" lon="-7.9491879"><ele>846.0</ele><time>2026-04-25T15:36:49.672Z</time></trkpt><trkpt lat="41.1962912" lon="-7.9491238"><ele>846.0</ele><time>2026-04-25T15:36:51.676Z</time></trkpt><trkpt lat="41.1963656" lon="-7.9490927"><ele>846.0</ele><time>2026-04-25T15:36:53.676Z</time></trkpt><trkpt lat="41.196436" lon="-7.9491124"><ele>846.0</ele><time>2026-04-25T15:36:56.678Z</time></trkpt><trkpt lat="41.1965053" lon="-7.9491015"><ele>840.6666666666666</ele><time>2026-04-25T15:36:58.677Z</time></trkpt><trkpt lat="41.1965622" lon="-7.9490421"><ele>835.3333333333333</ele><time>2026-04-25T15:37:00.674Z</time></trkpt><trkpt lat="41.1965984" lon="-7.9489371"><ele>830.0</ele><time>2026-04-25T15:37:03.675Z</time></trkpt><trkpt lat="41.1966493" lon="-7.9488632"><ele>824.6666666666666</ele><time>2026-04-25T15:37:06.678Z</time></trkpt><trkpt lat="41.1966778" lon="-7.9487609"><ele>819.3333333333333</ele><time>2026-04-25T15:37:10.676Z</time></trkpt><trkpt lat="41.1966937" lon="-7.9486579"><ele>814.0</ele><time>2026-04-25T15:37:13.671Z</time></trkpt><trkpt lat="41.1967025" lon="-7.9485547"><ele>813.9999999999999</ele><time>2026-04-25T15:37:16.678Z</time></trkpt><trkpt lat="41.1967179" lon="-7.9484711"><ele>814.0</ele><time>2026-04-25T15:37:18.676Z</time></trkpt><trkpt lat="41.1967422" lon="-7.9483827"><ele>814.0</ele><time>2026-04-25T15:37:20.684Z</time></trkpt><trkpt lat="41.1967774" lon="-7.9482798"><ele>814.0</ele><time>2026-04-25T15:37:23.676Z</time></trkpt><trkpt lat="41.1967932" lon="-7.948167"><ele>813.9999999999999</ele><time>2026-04-25T15:37:26.677Z</time></trkpt><trkpt lat="41.1967973" lon="-7.9480492"><ele>814.0</ele><time>2026-04-25T15:37:28.674Z</time></trkpt><trkpt lat="41.1968083" lon="-7.9479617"><ele>812.8333333333333</ele><time>2026-04-25T15:37:30.68Z</time></trkpt><trkpt lat="41.1968406" lon="-7.9478706"><ele>811.6666666666666</ele><time>2026-04-25T15:37:32.672Z</time></trkpt><trkpt lat="41.1968595" lon="-7.9477759"><ele>810.5</ele><time>2026-04-25T15:37:34.675Z</time></trkpt><trkpt lat="41.1968766" lon="-7.947675"><ele>809.3333333333333</ele><time>2026-04-25T15:37:36.675Z</time></trkpt><trkpt lat="41.1968689" lon="-7.9475803"><ele>808.1666666666666</ele><time>2026-04-25T15:37:43.673Z</time></trkpt><trkpt lat="41.1968469" lon="-7.9474865"><ele>807.0</ele><time>2026-04-25T15:37:46.671Z</time></trkpt><trkpt lat="41.196934" lon="-7.9475274"><ele>807.0</ele><time>2026-04-25T15:38:06.673Z</time></trkpt><trkpt lat="41.1969986" lon="-7.947576"><ele>807.0</ele><time>2026-04-25T15:38:07.681Z</time></trkpt><trkpt lat="41.1970899" lon="-7.9476517"><ele>807.0</ele><time>2026-04-25T15:38:08.673Z</time></trkpt><trkpt lat="41.1971771" lon="-7.9477452"><ele>807.0</ele><time>2026-04-25T15:38:09.675Z</time></trkpt><trkpt lat="41.1972592" lon="-7.9478585"><ele>807.0</ele><time>2026-04-25T15:38:10.675Z</time></trkpt><trkpt lat="41.1973394" lon="-7.9479921"><ele>801.75</ele><time>2026-04-25T15:38:11.674Z</time></trkpt><trkpt lat="41.197405" lon="-7.9481548"><ele>796.5</ele><time>2026-04-25T15:38:12.678Z</time></trkpt><trkpt lat="41.1974466" lon="-7.9483299"><ele>791.25</ele><time>2026-04-25T15:38:13.669Z</time></trkpt><trkpt lat="41.1974564" lon="-7.948512"><ele>786.0</ele><time>2026-04-25T15:38:14.672Z</time></trkpt><trkpt lat="41.1974597" lon="-7.9487025"><ele>786.0</ele><time>2026-04-25T15:38:15.675Z</time></trkpt><trkpt lat="41.1974576" lon="-7.9488985"><ele>786.0</ele><time>2026-04-25T15:38:16.675Z</time></trkpt><trkpt lat="41.197466" lon="-7.949104"><ele>786.0</ele><time>2026-04-25T15:38:17.679Z</time></trkpt><trkpt lat="41.1974876" lon="-7.9493198"><ele>786.6666666666667</ele><time>2026-04-25T15:38:18.68Z</time></trkpt><trkpt lat="41.1975017" lon="-7.949542"><ele>787.3333333333334</ele><time>2026-04-25T15:38:19.675Z</time></trkpt><trkpt lat="41.1975318" lon="-7.9497713"><ele>788.0</ele><time>2026-04-25T15:38:20.674Z</time></trkpt><trkpt lat="41.1975461" lon="-7.9500104"><ele>788.6666666666667</ele><time>2026-04-25T15:38:21.672Z</time></trkpt><trkpt lat="41.1976084" lon="-7.9502385"><ele>789.3333333333333</ele><time>2026-04-25T15:38:22.687Z</time></trkpt><trkpt lat="41.1976606" lon="-7.9504421"><ele>790.0</ele><time>2026-04-25T15:38:23.678Z</time></trkpt><trkpt lat="41.1976978" lon="-7.9506409"><ele>790.0</ele><time>2026-04-25T15:38:24.676Z</time></trkpt><trkpt lat="41.1977312" lon="-7.9508271"><ele>790.0</ele><time>2026-04-25T15:38:25.67Z</time></trkpt><trkpt lat="41.1977698" lon="-7.951003"><ele>790.0</ele><time>2026-04-25T15:38:26.676Z</time></trkpt><trkpt lat="41.1978069" lon="-7.9511713"><ele>790.0</ele><time>2026-04-25T15:38:27.679Z</time></trkpt><trkpt lat="41.1978436" lon="-7.9513417"><ele>791.75</ele><time>2026-04-25T15:38:28.673Z</time></trkpt><trkpt lat="41.1978833" lon="-7.9515213"><ele>793.5</ele><time>2026-04-25T15:38:29.677Z</time></trkpt><trkpt lat="41.1979189" lon="-7.9516971"><ele>795.25</ele><time>2026-04-25T15:38:30.668Z</time></trkpt><trkpt lat="41.1979825" lon="-7.951871"><ele>797.0</ele><time>2026-04-25T15:38:31.688Z</time></trkpt><trkpt lat="41.1980557" lon="-7.9520676"><ele>798.6666666666667</ele><time>2026-04-25T15:38:32.676Z</time></trkpt><trkpt lat="41.1981224" lon="-7.9522654"><ele>800.3333333333333</ele><time>2026-04-25T15:38:33.676Z</time></trkpt><trkpt lat="41.198206" lon="-7.9524353"><ele>802.0</ele><time>2026-04-25T15:38:34.67Z</time></trkpt><trkpt lat="41.1982785" lon="-7.9526121"><ele>794.25</ele><time>2026-04-25T15:38:35.676Z</time></trkpt><trkpt lat="41.1983362" lon="-7.9527715"><ele>786.5</ele><time>2026-04-25T15:38:36.675Z</time></trkpt><trkpt lat="41.1984024" lon="-7.9529521"><ele>778.75</ele><time>2026-04-25T15:38:37.674Z</time></trkpt><trkpt lat="41.1984559" lon="-7.9531177"><ele>771.0</ele><time>2026-04-25T15:38:38.673Z</time></trkpt><trkpt lat="41.1985134" lon="-7.9532789"><ele>775.25</ele><time>2026-04-25T15:38:39.677Z</time></trkpt><trkpt lat="41.1985848" lon="-7.9534298"><ele>779.5</ele><time>2026-04-25T15:38:40.675Z</time></trkpt><trkpt lat="41.198666" lon="-7.9535732"><ele>783.75</ele><time>2026-04-25T15:38:41.669Z</time></trkpt><trkpt lat="41.1987543" lon="-7.9536817"><ele>788.0</ele><time>2026-04-25T15:38:42.681Z</time></trkpt><trkpt lat="41.1988501" lon="-7.9537611"><ele>788.0</ele><time>2026-04-25T15:38:43.672Z</time></trkpt><trkpt lat="41.1989502" lon="-7.9538319"><ele>788.0</ele><time>2026-04-25T15:38:44.67Z</time></trkpt><trkpt lat="41.1990537" lon="-7.9539104"><ele>788.0</ele><time>2026-04-25T15:38:45.675Z</time></trkpt><trkpt lat="41.1991565" lon="-7.9540045"><ele>788.0</ele><time>2026-04-25T15:38:46.682Z</time></trkpt><trkpt lat="41.1992493" lon="-7.9541129"><ele>782.25</ele><time>2026-04-25T15:38:47.674Z</time></trkpt><trkpt lat="41.1993261" lon="-7.9542439"><ele>776.5</ele><time>2026-04-25T15:38:48.674Z</time></trkpt><trkpt lat="41.1993881" lon="-7.9543892"><ele>770.75</ele><time>2026-04-25T15:38:49.684Z</time></trkpt><trkpt lat="41.1994335" lon="-7.9545441"><ele>765.0</ele><time>2026-04-25T15:38:50.68Z</time></trkpt><trkpt lat="41.1994746" lon="-7.9546948"><ele>765.0</ele><time>2026-04-25T15:38:51.671Z</time></trkpt><trkpt lat="41.1995106" lon="-7.9548346"><ele>765.0</ele><time>2026-04-25T15:38:52.678Z</time></trkpt><trkpt lat="41.1995392" lon="-7.9549537"><ele>765.0</ele><time>2026-04-25T15:38:53.677Z</time></trkpt><trkpt lat="41.1995602" lon="-7.9550645"><ele>765.0</ele><time>2026-04-25T15:38:55.678Z</time></trkpt><trkpt lat="41.1995797" lon="-7.954979"><ele>765.0</ele><time>2026-04-25T15:39:00.675Z</time></trkpt><trkpt lat="41.1995643" lon="-7.9548436"><ele>765.0</ele><time>2026-04-25T15:39:03.675Z</time></trkpt><trkpt lat="41.1995575" lon="-7.9547537"><ele>765.0</ele><time>2026-04-25T15:39:04.672Z</time></trkpt><trkpt lat="41.1995488" lon="-7.9546532"><ele>765.0</ele><time>2026-04-25T15:39:05.676Z</time></trkpt><trkpt lat="41.1995394" lon="-7.9545463"><ele>765.0</ele><time>2026-04-25T15:39:06.679Z</time></trkpt><trkpt lat="41.1995344" lon="-7.9544499"><ele>765.0</ele><time>2026-04-25T15:39:07.675Z</time></trkpt><trkpt lat="41.1995173" lon="-7.954339"><ele>765.0</ele><time>2026-04-25T15:39:08.676Z</time></trkpt><trkpt lat="41.1995267" lon="-7.9542286"><ele>763.1666666666666</ele><time>2026-04-25T15:39:09.683Z</time></trkpt><trkpt lat="41.1995263" lon="-7.9541217"><ele>761.3333333333334</ele><time>2026-04-25T15:39:10.673Z</time></trkpt><trkpt lat="41.1995291" lon="-7.9540184"><ele>759.5</ele><time>2026-04-25T15:39:11.675Z</time></trkpt><trkpt lat="41.1995255" lon="-7.9539093"><ele>757.6666666666667</ele><time>2026-04-25T15:39:12.678Z</time></trkpt><trkpt lat="41.1995091" lon="-7.9537901"><ele>755.8333333333334</ele><time>2026-04-25T15:39:13.672Z</time></trkpt><trkpt lat="41.1994852" lon="-7.9536737"><ele>754.0</ele><time>2026-04-25T15:39:14.672Z</time></trkpt><trkpt lat="41.1994571" lon="-7.9535772"><ele>754.0</ele><time>2026-04-25T15:39:15.674Z</time></trkpt><trkpt lat="41.1994312" lon="-7.9534893"><ele>754.0</ele><time>2026-04-25T15:39:16.678Z</time></trkpt><trkpt lat="41.1994152" lon="-7.9534022"><ele>754.0</ele><time>2026-04-25T15:39:17.67Z</time></trkpt><trkpt lat="41.1993924" lon="-7.953324"><ele>754.0</ele><time>2026-04-25T15:39:18.677Z</time></trkpt><trkpt lat="41.1993729" lon="-7.9531872"><ele>754.0</ele><time>2026-04-25T15:39:20.678Z</time></trkpt><trkpt lat="41.1993406" lon="-7.9530553"><ele>754.0</ele><time>2026-04-25T15:39:22.67Z</time></trkpt><trkpt lat="41.1993196" lon="-7.9529159"><ele>750.8000000000001</ele><time>2026-04-25T15:39:24.682Z</time></trkpt><trkpt lat="41.1992659" lon="-7.9527997"><ele>747.6</ele><time>2026-04-25T15:39:26.664Z</time></trkpt><trkpt lat="41.1992363" lon="-7.9526574"><ele>744.4</ele><time>2026-04-25T15:39:28.682Z</time></trkpt><trkpt lat="41.199189" lon="-7.9525173"><ele>741.2</ele><time>2026-04-25T15:39:30.671Z</time></trkpt><trkpt lat="41.1991367" lon="-7.9524086"><ele>738.0</ele><time>2026-04-25T15:39:32.677Z</time></trkpt><trkpt lat="41.1990883" lon="-7.9522645"><ele>740.8</ele><time>2026-04-25T15:39:34.689Z</time></trkpt><trkpt lat="41.1990694" lon="-7.9521808"><ele>743.5999999999999</ele><time>2026-04-25T15:39:35.68Z</time></trkpt><trkpt lat="41.1990528" lon="-7.9520995"><ele>746.4000000000001</ele><time>2026-04-25T15:39:36.675Z</time></trkpt><trkpt lat="41.1990264" lon="-7.9519599"><ele>749.2</ele><time>2026-04-25T15:39:38.673Z</time></trkpt><trkpt lat="41.1989893" lon="-7.9518304"><ele>752.0</ele><time>2026-04-25T15:39:40.676Z</time></trkpt><trkpt lat="41.1989259" lon="-7.9516819"><ele>752.0</ele><time>2026-04-25T15:39:42.676Z</time></trkpt><trkpt lat="41.1988866" lon="-7.9516024"><ele>752.0</ele><time>2026-04-25T15:39:43.669Z</time></trkpt><trkpt lat="41.1988505" lon="-7.9515157"><ele>752.0</ele><time>2026-04-25T15:39:44.673Z</time></trkpt><trkpt lat="41.1988257" lon="-7.9514198"><ele>752.0</ele><time>2026-04-25T15:39:45.671Z</time></trkpt><trkpt lat="41.1988079" lon="-7.9513236"><ele>752.0</ele><time>2026-04-25T15:39:46.674Z</time></trkpt><trkpt lat="41.1987909" lon="-7.951222"><ele>752.0</ele><time>2026-04-25T15:39:47.673Z</time></trkpt><trkpt lat="41.1987805" lon="-7.9511217"><ele>752.0</ele><time>2026-04-25T15:39:48.671Z</time></trkpt><trkpt lat="41.198774" lon="-7.9510176"><ele>752.0</ele><time>2026-04-25T15:39:49.673Z</time></trkpt><trkpt lat="41.1987696" lon="-7.9509124"><ele>752.0</ele><time>2026-04-25T15:39:50.671Z</time></trkpt><trkpt lat="41.1987689" lon="-7.9508065"><ele>752.0</ele><time>2026-04-25T15:39:51.673Z</time></trkpt><trkpt lat="41.1987751" lon="-7.9507076"><ele>752.0</ele><time>2026-04-25T15:39:52.673Z</time></trkpt><trkpt lat="41.1987786" lon="-7.9506182"><ele>752.0</ele><time>2026-04-25T15:39:53.678Z</time></trkpt><trkpt lat="41.1987796" lon="-7.9505273"><ele>752.0</ele><time>2026-04-25T15:39:54.671Z</time></trkpt><trkpt lat="41.198777" lon="-7.9504317"><ele>751.5</ele><time>2026-04-25T15:39:55.674Z</time></trkpt><trkpt lat="41.1987749" lon="-7.9503314"><ele>751.0</ele><time>2026-04-25T15:39:56.679Z</time></trkpt><trkpt lat="41.1987692" lon="-7.9502179"><ele>750.5</ele><time>2026-04-25T15:39:57.674Z</time></trkpt><trkpt lat="41.1987548" lon="-7.9501023"><ele>750.0</ele><time>2026-04-25T15:39:58.675Z</time></trkpt><trkpt lat="41.1987399" lon="-7.9499885"><ele>749.5</ele><time>2026-04-25T15:39:59.673Z</time></trkpt><trkpt lat="41.198728" lon="-7.949881"><ele>749.0</ele><time>2026-04-25T15:40:00.675Z</time></trkpt><trkpt lat="41.1987197" lon="-7.9497817"><ele>749.0</ele><time>2026-04-25T15:40:01.672Z</time></trkpt><trkpt lat="41.1987228" lon="-7.949698"><ele>749.0</ele><time>2026-04-25T15:40:02.679Z</time></trkpt><trkpt lat="41.1987893" lon="-7.9495845"><ele>749.0</ele><time>2026-04-25T15:40:04.677Z</time></trkpt><trkpt lat="41.1988561" lon="-7.9495437"><ele>749.0</ele><time>2026-04-25T15:40:05.672Z</time></trkpt><trkpt lat="41.1989412" lon="-7.9495112"><ele>749.0</ele><time>2026-04-25T15:40:06.673Z</time></trkpt><trkpt lat="41.1990281" lon="-7.9494851"><ele>749.0</ele><time>2026-04-25T15:40:07.688Z</time></trkpt><trkpt lat="41.1991105" lon="-7.9494591"><ele>744.8000000000001</ele><time>2026-04-25T15:40:08.672Z</time></trkpt><trkpt lat="41.1991984" lon="-7.9494456"><ele>740.6</ele><time>2026-04-25T15:40:09.675Z</time></trkpt><trkpt lat="41.1992935" lon="-7.949461"><ele>736.4</ele><time>2026-04-25T15:40:10.665Z</time></trkpt><trkpt lat="41.1993945" lon="-7.9494921"><ele>732.2</ele><time>2026-04-25T15:40:11.669Z</time></trkpt><trkpt lat="41.1994908" lon="-7.9495273"><ele>728.0</ele><time>2026-04-25T15:40:12.678Z</time></trkpt><trkpt lat="41.1995736" lon="-7.94955"><ele>728.0</ele><time>2026-04-25T15:40:13.683Z</time></trkpt><trkpt lat="41.1996451" lon="-7.9495626"><ele>728.0</ele><time>2026-04-25T15:40:14.678Z</time></trkpt><trkpt lat="41.1997103" lon="-7.9495711"><ele>728.0</ele><time>2026-04-25T15:40:15.673Z</time></trkpt><trkpt lat="41.1998381" lon="-7.9495643"><ele>728.0</ele><time>2026-04-25T15:40:17.673Z</time></trkpt><trkpt lat="41.1999081" lon="-7.9495459"><ele>728.0</ele><time>2026-04-25T15:40:18.676Z</time></trkpt><trkpt lat="41.1999769" lon="-7.9495175"><ele>728.0</ele><time>2026-04-25T15:40:19.676Z</time></trkpt><trkpt lat="41.200047" lon="-7.9494866"><ele>726.5999999999999</ele><time>2026-04-25T15:40:20.669Z</time></trkpt><trkpt lat="41.2001132" lon="-7.9494441"><ele>725.1999999999999</ele><time>2026-04-25T15:40:21.676Z</time></trkpt><trkpt lat="41.2001691" lon="-7.9494037"><ele>723.8</ele><time>2026-04-25T15:40:22.671Z</time></trkpt><trkpt lat="41.200276" lon="-7.9493127"><ele>722.4</ele><time>2026-04-25T15:40:24.672Z</time></trkpt><trkpt lat="41.2003847" lon="-7.949247"><ele>721.0</ele><time>2026-04-25T15:40:26.671Z</time></trkpt><trkpt lat="41.2004932" lon="-7.9492685"><ele>721.0</ele><time>2026-04-25T15:40:28.669Z</time></trkpt><trkpt lat="41.2005446" lon="-7.9493175"><ele>721.0</ele><time>2026-04-25T15:40:29.672Z</time></trkpt><trkpt lat="41.2005951" lon="-7.9493729"><ele>721.0</ele><time>2026-04-25T15:40:30.672Z</time></trkpt><trkpt lat="41.2006645" lon="-7.9494152"><ele>721.0</ele><time>2026-04-25T15:40:32.67Z</time></trkpt><trkpt lat="41.2007425" lon="-7.9493942"><ele>721.0</ele><time>2026-04-25T15:40:34.678Z</time></trkpt><trkpt lat="41.2008471" lon="-7.9493334"><ele>721.0</ele><time>2026-04-25T15:40:36.677Z</time></trkpt><trkpt lat="41.2009554" lon="-7.9493337"><ele>720.6666666666667</ele><time>2026-04-25T15:40:38.677Z</time></trkpt><trkpt lat="41.2010536" lon="-7.949432"><ele>720.3333333333334</ele><time>2026-04-25T15:40:40.669Z</time></trkpt><trkpt lat="41.2010945" lon="-7.9495311"><ele>720.0</ele><time>2026-04-25T15:40:41.672Z</time></trkpt><trkpt lat="41.2011371" lon="-7.9496128"><ele>719.6666666666666</ele><time>2026-04-25T15:40:42.684Z</time></trkpt><trkpt lat="41.2011849" lon="-7.9496885"><ele>719.3333333333333</ele><time>2026-04-25T15:40:43.669Z</time></trkpt><trkpt lat="41.2012314" lon="-7.9497724"><ele>719.0</ele><time>2026-04-25T15:40:44.67Z</time></trkpt><trkpt lat="41.2012767" lon="-7.949871"><ele>719.0</ele><time>2026-04-25T15:40:45.672Z</time></trkpt><trkpt lat="41.2013143" lon="-7.9499861"><ele>719.0</ele><time>2026-04-25T15:40:46.669Z</time></trkpt><trkpt lat="41.2013516" lon="-7.9500934"><ele>719.0</ele><time>2026-04-25T15:40:47.675Z</time></trkpt><trkpt lat="41.2013898" lon="-7.9501843"><ele>719.0</ele><time>2026-04-25T15:40:48.671Z</time></trkpt><trkpt lat="41.2014181" lon="-7.9502724"><ele>719.0</ele><time>2026-04-25T15:40:49.675Z</time></trkpt><trkpt lat="41.2014591" lon="-7.9503385"><ele>719.0</ele><time>2026-04-25T15:40:50.667Z</time></trkpt><trkpt lat="41.20152" lon="-7.9503777"><ele>718.3333333333333</ele><time>2026-04-25T15:40:51.671Z</time></trkpt><trkpt lat="41.2015907" lon="-7.9503965"><ele>717.6666666666666</ele><time>2026-04-25T15:40:52.67Z</time></trkpt><trkpt lat="41.2016691" lon="-7.9504095"><ele>717.0</ele><time>2026-04-25T15:40:53.672Z</time></trkpt><trkpt lat="41.2017466" lon="-7.9504275"><ele>716.3333333333334</ele><time>2026-04-25T15:40:54.671Z</time></trkpt><trkpt lat="41.2018159" lon="-7.9504575"><ele>715.6666666666667</ele><time>2026-04-25T15:40:55.676Z</time></trkpt><trkpt lat="41.2018766" lon="-7.9505134"><ele>715.0</ele><time>2026-04-25T15:40:56.673Z</time></trkpt><trkpt lat="41.2019313" lon="-7.9505939"><ele>715.0</ele><time>2026-04-25T15:40:57.675Z</time></trkpt><trkpt lat="41.201984" lon="-7.95068"><ele>715.0</ele><time>2026-04-25T15:40:58.673Z</time></trkpt><trkpt lat="41.2020379" lon="-7.9507533"><ele>715.0</ele><time>2026-04-25T15:40:59.675Z</time></trkpt><trkpt lat="41.2020953" lon="-7.9508036"><ele>715.0</ele><time>2026-04-25T15:41:00.673Z</time></trkpt><trkpt lat="41.2021658" lon="-7.9508284"><ele>715.0</ele><time>2026-04-25T15:41:01.67Z</time></trkpt><trkpt lat="41.2022376" lon="-7.9508297"><ele>715.0</ele><time>2026-04-25T15:41:02.678Z</time></trkpt><trkpt lat="41.2023085" lon="-7.9508219"><ele>715.0</ele><time>2026-04-25T15:41:03.672Z</time></trkpt><trkpt lat="41.2023769" lon="-7.9508162"><ele>717.5</ele><time>2026-04-25T15:41:04.676Z</time></trkpt><trkpt lat="41.2024403" lon="-7.9508139"><ele>720.0</ele><time>2026-04-25T15:41:05.671Z</time></trkpt><trkpt lat="41.2025043" lon="-7.950801"><ele>722.5</ele><time>2026-04-25T15:41:06.674Z</time></trkpt><trkpt lat="41.2025703" lon="-7.9507838"><ele>725.0</ele><time>2026-04-25T15:41:07.676Z</time></trkpt><trkpt lat="41.2026347" lon="-7.9507701"><ele>727.5</ele><time>2026-04-25T15:41:08.679Z</time></trkpt><trkpt lat="41.2027597" lon="-7.9507755"><ele>730.0</ele><time>2026-04-25T15:41:10.675Z</time></trkpt><trkpt lat="41.2028815" lon="-7.9507795"><ele>730.0</ele><time>2026-04-25T15:41:12.663Z</time></trkpt><trkpt lat="41.2030043" lon="-7.9507875"><ele>730.0</ele><time>2026-04-25T15:41:14.675Z</time></trkpt><trkpt lat="41.2031225" lon="-7.9508196"><ele>730.0</ele><time>2026-04-25T15:41:16.673Z</time></trkpt><trkpt lat="41.2032074" lon="-7.9509365"><ele>730.0</ele><time>2026-04-25T15:41:18.674Z</time></trkpt><trkpt lat="41.2032466" lon="-7.9510026"><ele>730.0</ele><time>2026-04-25T15:41:19.671Z</time></trkpt><trkpt lat="41.2033247" lon="-7.9511267"><ele>730.0</ele><time>2026-04-25T15:41:21.67Z</time></trkpt><trkpt lat="41.2034207" lon="-7.9512183"><ele>730.0</ele><time>2026-04-25T15:41:23.682Z</time></trkpt><trkpt lat="41.203479" lon="-7.9512542"><ele>730.0</ele><time>2026-04-25T15:41:24.674Z</time></trkpt><trkpt lat="41.2035493" lon="-7.9512749"><ele>730.0</ele><time>2026-04-25T15:41:25.673Z</time></trkpt><trkpt lat="41.2036247" lon="-7.9512809"><ele>730.0</ele><time>2026-04-25T15:41:26.677Z</time></trkpt><trkpt lat="41.203714" lon="-7.9512795"><ele>730.0</ele><time>2026-04-25T15:41:27.671Z</time></trkpt><trkpt lat="41.2038251" lon="-7.9512748"><ele>730.0</ele><time>2026-04-25T15:41:28.672Z</time></trkpt><trkpt lat="41.2039368" lon="-7.9512597"><ele>730.0</ele><time>2026-04-25T15:41:29.678Z</time></trkpt><trkpt lat="41.204045" lon="-7.9512513"><ele>730.0</ele><time>2026-04-25T15:41:30.671Z</time></trkpt><trkpt lat="41.2041456" lon="-7.9512568"><ele>730.0</ele><time>2026-04-25T15:41:31.671Z</time></trkpt><trkpt lat="41.2042391" lon="-7.9512575"><ele>730.0</ele><time>2026-04-25T15:41:32.671Z</time></trkpt><trkpt lat="41.2043169" lon="-7.9512465"><ele>728.8</ele><time>2026-04-25T15:41:33.673Z</time></trkpt><trkpt lat="41.2043774" lon="-7.9512159"><ele>727.6</ele><time>2026-04-25T15:41:34.671Z</time></trkpt><trkpt lat="41.2044793" lon="-7.951143"><ele>726.4000000000001</ele><time>2026-04-25T15:41:36.675Z</time></trkpt><trkpt lat="41.2045833" lon="-7.9510725"><ele>725.2</ele><time>2026-04-25T15:41:38.674Z</time></trkpt><trkpt lat="41.204694" lon="-7.9510064"><ele>724.0</ele><time>2026-04-25T15:41:40.67Z</time></trkpt><trkpt lat="41.204754" lon="-7.9509644"><ele>724.0</ele><time>2026-04-25T15:41:41.676Z</time></trkpt><trkpt lat="41.2048161" lon="-7.9509227"><ele>724.0</ele><time>2026-04-25T15:41:42.681Z</time></trkpt><trkpt lat="41.2048812" lon="-7.9508869"><ele>724.0</ele><time>2026-04-25T15:41:43.668Z</time></trkpt><trkpt lat="41.2049504" lon="-7.9508582"><ele>724.0</ele><time>2026-04-25T15:41:44.669Z</time></trkpt><trkpt lat="41.2050228" lon="-7.9508311"><ele>724.0</ele><time>2026-04-25T15:41:45.673Z</time></trkpt><trkpt lat="41.2050978" lon="-7.9508056"><ele>724.0</ele><time>2026-04-25T15:41:46.668Z</time></trkpt><trkpt lat="41.2051698" lon="-7.950786"><ele>724.0</ele><time>2026-04-25T15:41:47.675Z</time></trkpt><trkpt lat="41.2052338" lon="-7.9507726"><ele>725.5</ele><time>2026-04-25T15:41:48.674Z</time></trkpt><trkpt lat="41.2052999" lon="-7.9507632"><ele>727.0</ele><time>2026-04-25T15:41:49.671Z</time></trkpt><trkpt lat="41.2053673" lon="-7.9507591"><ele>728.5</ele><time>2026-04-25T15:41:50.67Z</time></trkpt><trkpt lat="41.2054828" lon="-7.9507839"><ele>730.0</ele><time>2026-04-25T15:41:52.673Z</time></trkpt><trkpt lat="41.205534" lon="-7.9508347"><ele>731.5</ele><time>2026-04-25T15:41:53.675Z</time></trkpt><trkpt lat="41.2055765" lon="-7.9509101"><ele>733.0</ele><time>2026-04-25T15:41:54.675Z</time></trkpt><trkpt lat="41.2056116" lon="-7.9510095"><ele>733.0</ele><time>2026-04-25T15:41:55.674Z</time></trkpt><trkpt lat="41.2056233" lon="-7.951124"><ele>733.0</ele><time>2026-04-25T15:41:56.674Z</time></trkpt><trkpt lat="41.2056266" lon="-7.9512399"><ele>733.0</ele><time>2026-04-25T15:41:57.671Z</time></trkpt><trkpt lat="41.2056328" lon="-7.9513506"><ele>733.0</ele><time>2026-04-25T15:41:58.681Z</time></trkpt><trkpt lat="41.2056511" lon="-7.9514484"><ele>733.0</ele><time>2026-04-25T15:41:59.676Z</time></trkpt><trkpt lat="41.205682" lon="-7.9515283"><ele>733.0</ele><time>2026-04-25T15:42:00.673Z</time></trkpt><trkpt lat="41.2057279" lon="-7.9515907"><ele>735.9999999999999</ele><time>2026-04-25T15:42:01.674Z</time></trkpt><trkpt lat="41.2057841" lon="-7.9516424"><ele>739.0</ele><time>2026-04-25T15:42:02.677Z</time></trkpt><trkpt lat="41.2058373" lon="-7.951695"><ele>742.0</ele><time>2026-04-25T15:42:03.673Z</time></trkpt><trkpt lat="41.205883" lon="-7.9517642"><ele>745.0</ele><time>2026-04-25T15:42:04.681Z</time></trkpt><trkpt lat="41.2059153" lon="-7.9518561"><ele>748.0</ele><time>2026-04-25T15:42:05.669Z</time></trkpt><trkpt lat="41.2059352" lon="-7.9519573"><ele>750.9999999999999</ele><time>2026-04-25T15:42:06.673Z</time></trkpt><trkpt lat="41.2059469" lon="-7.9520591"><ele>754.0</ele><time>2026-04-25T15:42:07.674Z</time></trkpt><trkpt lat="41.20596" lon="-7.9521517"><ele>754.0</ele><time>2026-04-25T15:42:08.677Z</time></trkpt><trkpt lat="41.2059865" lon="-7.9522336"><ele>754.0</ele><time>2026-04-25T15:42:09.674Z</time></trkpt><trkpt lat="41.2060338" lon="-7.9522997"><ele>754.0</ele><time>2026-04-25T15:42:10.67Z</time></trkpt><trkpt lat="41.2060978" lon="-7.9523453"><ele>754.0</ele><time>2026-04-25T15:42:11.672Z</time></trkpt><trkpt lat="41.2061725" lon="-7.9523878"><ele>754.0</ele><time>2026-04-25T15:42:12.683Z</time></trkpt><trkpt lat="41.2062483" lon="-7.952443"><ele>754.0</ele><time>2026-04-25T15:42:13.675Z</time></trkpt><trkpt lat="41.2063217" lon="-7.9525046"><ele>752.2</ele><time>2026-04-25T15:42:14.676Z</time></trkpt><trkpt lat="41.2063965" lon="-7.9525692"><ele>750.4000000000001</ele><time>2026-04-25T15:42:15.678Z</time></trkpt><trkpt lat="41.2064715" lon="-7.9526323"><ele>748.6</ele><time>2026-04-25T15:42:16.673Z</time></trkpt><trkpt lat="41.2065506" lon="-7.9526864"><ele>746.8</ele><time>2026-04-25T15:42:17.675Z</time></trkpt><trkpt lat="41.2066392" lon="-7.9527341"><ele>745.0</ele><time>2026-04-25T15:42:18.668Z</time></trkpt><trkpt lat="41.206737" lon="-7.9527704"><ele>745.0</ele><time>2026-04-25T15:42:19.67Z</time></trkpt><trkpt lat="41.2068306" lon="-7.9528074"><ele>745.0</ele><time>2026-04-25T15:42:20.671Z</time></trkpt><trkpt lat="41.2069241" lon="-7.952835"><ele>745.0</ele><time>2026-04-25T15:42:21.675Z</time></trkpt><trkpt lat="41.2070002" lon="-7.9528543"><ele>745.0</ele><time>2026-04-25T15:42:22.674Z</time></trkpt><trkpt lat="41.2071073" lon="-7.9528083"><ele>745.0</ele><time>2026-04-25T15:42:24.67Z</time></trkpt><trkpt lat="41.2071458" lon="-7.9527255"><ele>745.0</ele><time>2026-04-25T15:42:26.671Z</time></trkpt><trkpt lat="41.2071536" lon="-7.9526167"><ele>745.0</ele><time>2026-04-25T15:42:29.671Z</time></trkpt><trkpt lat="41.2072457" lon="-7.9525489"><ele>745.0</ele><time>2026-04-25T15:43:02.673Z</time></trkpt><trkpt lat="41.2073377" lon="-7.9525064"><ele>745.0</ele><time>2026-04-25T15:43:04.677Z</time></trkpt><trkpt lat="41.207437" lon="-7.9524466"><ele>745.0</ele><time>2026-04-25T15:43:06.681Z</time></trkpt><trkpt lat="41.2074926" lon="-7.9523914"><ele>748.5</ele><time>2026-04-25T15:43:07.669Z</time></trkpt><trkpt lat="41.2075631" lon="-7.9523331"><ele>752.0</ele><time>2026-04-25T15:43:08.674Z</time></trkpt><trkpt lat="41.2076315" lon="-7.9522881"><ele>755.5</ele><time>2026-04-25T15:43:09.679Z</time></trkpt><trkpt lat="41.207693" lon="-7.9522398"><ele>759.0</ele><time>2026-04-25T15:43:10.677Z</time></trkpt><trkpt lat="41.207807" lon="-7.9521421"><ele>762.5</ele><time>2026-04-25T15:43:12.676Z</time></trkpt><trkpt lat="41.2078629" lon="-7.9520964"><ele>766.0</ele><time>2026-04-25T15:43:13.673Z</time></trkpt><trkpt lat="41.2079272" lon="-7.9519606"><ele>766.0</ele><time>2026-04-25T15:43:15.67Z</time></trkpt><trkpt lat="41.2079474" lon="-7.9518813"><ele>766.0</ele><time>2026-04-25T15:43:16.667Z</time></trkpt><trkpt lat="41.2079975" lon="-7.9517544"><ele>766.0</ele><time>2026-04-25T15:43:18.681Z</time></trkpt><trkpt lat="41.2080733" lon="-7.9516382"><ele>766.0</ele><time>2026-04-25T15:43:20.676Z</time></trkpt><trkpt lat="41.2081527" lon="-7.9515246"><ele>766.0</ele><time>2026-04-25T15:43:22.676Z</time></trkpt><trkpt lat="41.208207" lon="-7.951463"><ele>769.1428571428571</ele><time>2026-04-25T15:43:23.673Z</time></trkpt><trkpt lat="41.208253" lon="-7.9513977"><ele>772.2857142857142</ele><time>2026-04-25T15:43:24.669Z</time></trkpt><trkpt lat="41.208322" lon="-7.9513579"><ele>775.4285714285714</ele><time>2026-04-25T15:43:25.671Z</time></trkpt><trkpt lat="41.2083813" lon="-7.9513233"><ele>778.5714285714286</ele><time>2026-04-25T15:43:26.67Z</time></trkpt><trkpt lat="41.2084424" lon="-7.9512719"><ele>781.7142857142858</ele><time>2026-04-25T15:43:27.669Z</time></trkpt><trkpt lat="41.2085048" lon="-7.9512389"><ele>784.8571428571429</ele><time>2026-04-25T15:43:28.678Z</time></trkpt><trkpt lat="41.2085773" lon="-7.9512008"><ele>788.0</ele><time>2026-04-25T15:43:29.675Z</time></trkpt><trkpt lat="41.2086979" lon="-7.9511393"><ele>788.0000000000001</ele><time>2026-04-25T15:43:31.677Z</time></trkpt><trkpt lat="41.2088233" lon="-7.9511174"><ele>788.0</ele><time>2026-04-25T15:43:33.674Z</time></trkpt><trkpt lat="41.2088955" lon="-7.9510925"><ele>788.0</ele><time>2026-04-25T15:43:34.676Z</time></trkpt><trkpt lat="41.2089649" lon="-7.9510648"><ele>788.0</ele><time>2026-04-25T15:43:35.671Z</time></trkpt><trkpt lat="41.2090456" lon="-7.9510552"><ele>788.0000000000001</ele><time>2026-04-25T15:43:36.673Z</time></trkpt><trkpt lat="41.2091254" lon="-7.9510509"><ele>788.0</ele><time>2026-04-25T15:43:37.677Z</time></trkpt><trkpt lat="41.2092305" lon="-7.9510843"><ele>789.6666666666667</ele><time>2026-04-25T15:43:39.673Z</time></trkpt><trkpt lat="41.2093113" lon="-7.9510796"><ele>791.3333333333334</ele><time>2026-04-25T15:43:47.676Z</time></trkpt><trkpt lat="41.2093951" lon="-7.951064"><ele>793.0</ele><time>2026-04-25T15:43:50.672Z</time></trkpt><trkpt lat="41.2094572" lon="-7.9511326"><ele>794.6666666666667</ele><time>2026-04-25T15:43:52.669Z</time></trkpt><trkpt lat="41.2095134" lon="-7.9511958"><ele>796.3333333333334</ele><time>2026-04-25T15:43:54.671Z</time></trkpt><trkpt lat="41.2096081" lon="-7.9512271"><ele>798.0</ele><time>2026-04-25T15:43:57.671Z</time></trkpt><trkpt lat="41.2097087" lon="-7.951194"><ele>798.0</ele><time>2026-04-25T15:43:59.674Z</time></trkpt><trkpt lat="41.2097703" lon="-7.9511651"><ele>798.0</ele><time>2026-04-25T15:44:00.671Z</time></trkpt><trkpt lat="41.2098374" lon="-7.9511285"><ele>798.0</ele><time>2026-04-25T15:44:01.669Z</time></trkpt><trkpt lat="41.2099425" lon="-7.9510933"><ele>798.0</ele><time>2026-04-25T15:44:03.67Z</time></trkpt><trkpt lat="41.2099949" lon="-7.9511731"><ele>798.0</ele><time>2026-04-25T15:44:05.67Z</time></trkpt><trkpt lat="41.210003" lon="-7.9513452"><ele>801.3333333333334</ele><time>2026-04-25T15:44:07.669Z</time></trkpt><trkpt lat="41.2100012" lon="-7.9514319"><ele>804.6666666666667</ele><time>2026-04-25T15:44:08.674Z</time></trkpt><trkpt lat="41.2100199" lon="-7.9515689"><ele>808.0</ele><time>2026-04-25T15:44:10.676Z</time></trkpt><trkpt lat="41.2100593" lon="-7.9516435"><ele>811.3333333333334</ele><time>2026-04-25T15:44:12.667Z</time></trkpt><trkpt lat="41.210115" lon="-7.9515482"><ele>814.6666666666667</ele><time>2026-04-25T15:44:15.669Z</time></trkpt><trkpt lat="41.2101536" lon="-7.9514768"><ele>818.0</ele><time>2026-04-25T15:44:16.67Z</time></trkpt><trkpt lat="41.2102548" lon="-7.9513546"><ele>818.0000000000001</ele><time>2026-04-25T15:44:18.668Z</time></trkpt><trkpt lat="41.2103176" lon="-7.9513011"><ele>818.0</ele><time>2026-04-25T15:44:19.672Z</time></trkpt><trkpt lat="41.2104236" lon="-7.9513179"><ele>818.0</ele><time>2026-04-25T15:44:21.674Z</time></trkpt><trkpt lat="41.2104621" lon="-7.9513863"><ele>818.0</ele><time>2026-04-25T15:44:22.672Z</time></trkpt><trkpt lat="41.2104978" lon="-7.9514639"><ele>818.0000000000001</ele><time>2026-04-25T15:44:23.677Z</time></trkpt><trkpt lat="41.2105321" lon="-7.9515388"><ele>818.0</ele><time>2026-04-25T15:44:24.668Z</time></trkpt><trkpt lat="41.2106284" lon="-7.9516161"><ele>819.6666666666667</ele><time>2026-04-25T15:44:26.669Z</time></trkpt><trkpt lat="41.2106941" lon="-7.9516056"><ele>821.3333333333334</ele><time>2026-04-25T15:44:27.674Z</time></trkpt><trkpt lat="41.2107585" lon="-7.9515861"><ele>823.0</ele><time>2026-04-25T15:44:28.669Z</time></trkpt><trkpt lat="41.2108231" lon="-7.9515661"><ele>824.6666666666667</ele><time>2026-04-25T15:44:29.674Z</time></trkpt><trkpt lat="41.210932" lon="-7.951532"><ele>826.3333333333334</ele><time>2026-04-25T15:44:31.669Z</time></trkpt><trkpt lat="41.2110054" lon="-7.9514547"><ele>828.0</ele><time>2026-04-25T15:44:33.67Z</time></trkpt><trkpt lat="41.2110708" lon="-7.9513022"><ele>828.0000000000001</ele><time>2026-04-25T15:44:35.669Z</time></trkpt><trkpt lat="41.2110979" lon="-7.9512191"><ele>828.0</ele><time>2026-04-25T15:44:36.676Z</time></trkpt><trkpt lat="41.2111232" lon="-7.951137"><ele>828.0</ele><time>2026-04-25T15:44:37.669Z</time></trkpt><trkpt lat="41.2111535" lon="-7.9510574"><ele>828.0</ele><time>2026-04-25T15:44:38.669Z</time></trkpt><trkpt lat="41.2111948" lon="-7.9509803"><ele>828.0</ele><time>2026-04-25T15:44:39.677Z</time></trkpt><trkpt lat="41.2112422" lon="-7.9509087"><ele>828.0000000000001</ele><time>2026-04-25T15:44:40.668Z</time></trkpt><trkpt lat="41.2113001" lon="-7.9508381"><ele>828.0</ele><time>2026-04-25T15:44:41.669Z</time></trkpt><trkpt lat="41.2113531" lon="-7.9507668"><ele>830.6666666666666</ele><time>2026-04-25T15:44:42.668Z</time></trkpt><trkpt lat="41.2114044" lon="-7.9506882"><ele>833.3333333333333</ele><time>2026-04-25T15:44:43.675Z</time></trkpt><trkpt lat="41.2114541" lon="-7.9506148"><ele>836.0</ele><time>2026-04-25T15:44:44.671Z</time></trkpt><trkpt lat="41.2115054" lon="-7.9505392"><ele>838.6666666666666</ele><time>2026-04-25T15:44:45.673Z</time></trkpt><trkpt lat="41.2115856" lon="-7.9504375"><ele>841.3333333333333</ele><time>2026-04-25T15:44:47.671Z</time></trkpt><trkpt lat="41.2116459" lon="-7.950363"><ele>844.0</ele><time>2026-04-25T15:44:49.669Z</time></trkpt><trkpt lat="41.2117057" lon="-7.9502733"><ele>845.4999999999999</ele><time>2026-04-25T15:44:51.673Z</time></trkpt><trkpt lat="41.2117554" lon="-7.9501598"><ele>847.0</ele><time>2026-04-25T15:44:53.672Z</time></trkpt><trkpt lat="41.2118059" lon="-7.950083"><ele>848.5</ele><time>2026-04-25T15:44:55.677Z</time></trkpt><trkpt lat="41.2118692" lon="-7.9500103"><ele>850.0</ele><time>2026-04-25T15:44:57.67Z</time></trkpt><trkpt lat="41.2119375" lon="-7.9499521"><ele>851.4999999999999</ele><time>2026-04-25T15:44:59.677Z</time></trkpt><trkpt lat="41.2120193" lon="-7.9499117"><ele>853.0</ele><time>2026-04-25T15:45:01.674Z</time></trkpt><trkpt lat="41.212085" lon="-7.9498699"><ele>857.4</ele><time>2026-04-25T15:45:04.674Z</time></trkpt><trkpt lat="41.2120304" lon="-7.9499414"><ele>861.8</ele><time>2026-04-25T15:45:22.67Z</time></trkpt><trkpt lat="41.2120957" lon="-7.9498703"><ele>866.2</ele><time>2026-04-25T15:46:06.668Z</time></trkpt><trkpt lat="41.2121398" lon="-7.9497461"><ele>870.6</ele><time>2026-04-25T15:46:09.675Z</time></trkpt><trkpt lat="41.2121698" lon="-7.9496624"><ele>875.0</ele><time>2026-04-25T15:46:11.678Z</time></trkpt><trkpt lat="41.2122236" lon="-7.9495233"><ele>875.0000000000001</ele><time>2026-04-25T15:46:14.667Z</time></trkpt><trkpt lat="41.2122747" lon="-7.9493915"><ele>875.0</ele><time>2026-04-25T15:46:16.67Z</time></trkpt><trkpt lat="41.2122724" lon="-7.9492727"><ele>875.0</ele><time>2026-04-25T15:46:18.668Z</time></trkpt><trkpt lat="41.2122425" lon="-7.9491871"><ele>875.0</ele><time>2026-04-25T15:46:20.672Z</time></trkpt><trkpt lat="41.2121932" lon="-7.9490853"><ele>875.0000000000001</ele><time>2026-04-25T15:46:23.67Z</time></trkpt><trkpt lat="41.2121763" lon="-7.9489944"><ele>875.0</ele><time>2026-04-25T15:46:26.669Z</time></trkpt><trkpt lat="41.2121467" lon="-7.9488507"><ele>878.4</ele><time>2026-04-25T15:46:28.673Z</time></trkpt><trkpt lat="41.2121171" lon="-7.9487124"><ele>881.8</ele><time>2026-04-25T15:46:30.666Z</time></trkpt><trkpt lat="41.2120564" lon="-7.9486116"><ele>885.2</ele><time>2026-04-25T15:46:32.668Z</time></trkpt><trkpt lat="41.2120067" lon="-7.9484865"><ele>888.6</ele><time>2026-04-25T15:46:34.67Z</time></trkpt><trkpt lat="41.2119371" lon="-7.9483505"><ele>892.0</ele><time>2026-04-25T15:46:36.671Z</time></trkpt><trkpt lat="41.2118887" lon="-7.9482833"><ele>892.8571428571429</ele><time>2026-04-25T15:46:37.673Z</time></trkpt><trkpt lat="41.2118378" lon="-7.9482167"><ele>893.7142857142857</ele><time>2026-04-25T15:46:38.672Z</time></trkpt><trkpt lat="41.2117807" lon="-7.9481521"><ele>894.5714285714286</ele><time>2026-04-25T15:46:39.675Z</time></trkpt><trkpt lat="41.2117225" lon="-7.9480958"><ele>895.4285714285713</ele><time>2026-04-25T15:46:40.67Z</time></trkpt><trkpt lat="41.2116668" lon="-7.9480411"><ele>896.2857142857142</ele><time>2026-04-25T15:46:41.668Z</time></trkpt><trkpt lat="41.2116112" lon="-7.9479863"><ele>897.1428571428571</ele><time>2026-04-25T15:46:42.67Z</time></trkpt><trkpt lat="41.2115595" lon="-7.9479379"><ele>898.0</ele><time>2026-04-25T15:46:43.662Z</time></trkpt><trkpt lat="41.2115081" lon="-7.9478882"><ele>899.2</ele><time>2026-04-25T15:46:44.672Z</time></trkpt><trkpt lat="41.2114126" lon="-7.9478089"><ele>900.4</ele><time>2026-04-25T15:46:46.673Z</time></trkpt><trkpt lat="41.2113299" lon="-7.9477696"><ele>901.6000000000001</ele><time>2026-04-25T15:46:48.669Z</time></trkpt><trkpt lat="41.2112406" lon="-7.9477485"><ele>902.8000000000001</ele><time>2026-04-25T15:46:50.674Z</time></trkpt><trkpt lat="41.2111646" lon="-7.9477692"><ele>904.0</ele><time>2026-04-25T15:46:52.674Z</time></trkpt><trkpt lat="41.2110899" lon="-7.9478264"><ele>903.9999999999999</ele><time>2026-04-25T15:46:54.674Z</time></trkpt><trkpt lat="41.2110012" lon="-7.9478704"><ele>904.0</ele><time>2026-04-25T15:46:57.67Z</time></trkpt><trkpt lat="41.2109393" lon="-7.947902"><ele>904.0</ele><time>2026-04-25T15:46:59.669Z</time></trkpt><trkpt lat="41.2108666" lon="-7.9479103"><ele>904.0</ele><time>2026-04-25T15:47:01.669Z</time></trkpt><trkpt lat="41.2107943" lon="-7.9479282"><ele>903.9999999999999</ele><time>2026-04-25T15:47:03.672Z</time></trkpt><trkpt lat="41.2107053" lon="-7.947897"><ele>904.0</ele><time>2026-04-25T15:47:06.676Z</time></trkpt><trkpt lat="41.2106383" lon="-7.9478451"><ele>902.8333333333333</ele><time>2026-04-25T15:47:08.67Z</time></trkpt><trkpt lat="41.2105628" lon="-7.9477915"><ele>901.6666666666666</ele><time>2026-04-25T15:47:10.68Z</time></trkpt><trkpt lat="41.2104911" lon="-7.9477376"><ele>900.5</ele><time>2026-04-25T15:47:12.666Z</time></trkpt><trkpt lat="41.2104131" lon="-7.9476891"><ele>899.3333333333333</ele><time>2026-04-25T15:47:14.676Z</time></trkpt><trkpt lat="41.2103324" lon="-7.9476465"><ele>898.1666666666666</ele><time>2026-04-25T15:47:16.671Z</time></trkpt><trkpt lat="41.2102703" lon="-7.9475908"><ele>897.0</ele><time>2026-04-25T15:47:18.668Z</time></trkpt><trkpt lat="41.2102163" lon="-7.9475276"><ele>901.4000000000001</ele><time>2026-04-25T15:47:20.666Z</time></trkpt><trkpt lat="41.2101736" lon="-7.947438"><ele>905.8000000000001</ele><time>2026-04-25T15:47:22.669Z</time></trkpt><trkpt lat="41.2101255" lon="-7.9473336"><ele>910.2</ele><time>2026-04-25T15:47:24.686Z</time></trkpt><trkpt lat="41.2100756" lon="-7.9472229"><ele>914.6</ele><time>2026-04-25T15:47:26.676Z</time></trkpt><trkpt lat="41.2100375" lon="-7.9471167"><ele>919.0</ele><time>2026-04-25T15:47:28.675Z</time></trkpt><trkpt lat="41.2100289" lon="-7.9469849"><ele>918.9999999999999</ele><time>2026-04-25T15:47:30.675Z</time></trkpt><trkpt lat="41.210041" lon="-7.9469008"><ele>919.0</ele><time>2026-04-25T15:47:31.67Z</time></trkpt><trkpt lat="41.2100653" lon="-7.9468097"><ele>919.0</ele><time>2026-04-25T15:47:32.67Z</time></trkpt><trkpt lat="41.2100937" lon="-7.9467103"><ele>919.0</ele><time>2026-04-25T15:47:33.679Z</time></trkpt><trkpt lat="41.2101159" lon="-7.94663"><ele>918.9999999999999</ele><time>2026-04-25T15:47:34.666Z</time></trkpt><trkpt lat="41.2101478" lon="-7.9464808"><ele>919.0</ele><time>2026-04-25T15:47:36.673Z</time></trkpt><trkpt lat="41.2101161" lon="-7.9462992"><ele>921.4000000000001</ele><time>2026-04-25T15:47:38.667Z</time></trkpt><trkpt lat="41.2100604" lon="-7.9461711"><ele>923.8000000000001</ele><time>2026-04-25T15:47:39.67Z</time></trkpt><trkpt lat="41.209999" lon="-7.9460311"><ele>926.1999999999999</ele><time>2026-04-25T15:47:40.666Z</time></trkpt><trkpt lat="41.2099519" lon="-7.9459076"><ele>928.5999999999999</ele><time>2026-04-25T15:47:41.67Z</time></trkpt><trkpt lat="41.2099216" lon="-7.9458141"><ele>931.0</ele><time>2026-04-25T15:47:42.67Z</time></trkpt><trkpt lat="41.2098922" lon="-7.9457305"><ele>931.8333333333333</ele><time>2026-04-25T15:47:44.675Z</time></trkpt><trkpt lat="41.2098779" lon="-7.9456273"><ele>932.6666666666666</ele><time>2026-04-25T15:47:55.671Z</time></trkpt><trkpt lat="41.2099536" lon="-7.9455213"><ele>933.5</ele><time>2026-04-25T15:47:57.666Z</time></trkpt><trkpt lat="41.21" lon="-7.9454441"><ele>934.3333333333333</ele><time>2026-04-25T15:47:58.669Z</time></trkpt><trkpt lat="41.2100449" lon="-7.945358"><ele>935.1666666666666</ele><time>2026-04-25T15:47:59.667Z</time></trkpt><trkpt lat="41.2100941" lon="-7.9452749"><ele>936.0</ele><time>2026-04-25T15:48:00.666Z</time></trkpt><trkpt lat="41.2101435" lon="-7.9451932"><ele>936.0</ele><time>2026-04-25T15:48:01.669Z</time></trkpt><trkpt lat="41.2101942" lon="-7.9451052"><ele>936.0</ele><time>2026-04-25T15:48:02.669Z</time></trkpt><trkpt lat="41.2102368" lon="-7.9450167"><ele>936.0</ele><time>2026-04-25T15:48:03.675Z</time></trkpt><trkpt lat="41.210279" lon="-7.9449255"><ele>936.0</ele><time>2026-04-25T15:48:04.668Z</time></trkpt><trkpt lat="41.2103236" lon="-7.9448362"><ele>936.0</ele><time>2026-04-25T15:48:05.665Z</time></trkpt><trkpt lat="41.2103696" lon="-7.9447437"><ele>936.0</ele><time>2026-04-25T15:48:06.671Z</time></trkpt><trkpt lat="41.2104113" lon="-7.9446516"><ele>937.5</ele><time>2026-04-25T15:48:07.671Z</time></trkpt><trkpt lat="41.2104496" lon="-7.944563"><ele>939.0</ele><time>2026-04-25T15:48:08.668Z</time></trkpt><trkpt lat="41.2104886" lon="-7.9444784"><ele>940.5</ele><time>2026-04-25T15:48:09.674Z</time></trkpt><trkpt lat="41.2105288" lon="-7.9443986"><ele>942.0</ele><time>2026-04-25T15:48:10.672Z</time></trkpt><trkpt lat="41.2105653" lon="-7.9443155"><ele>943.5</ele><time>2026-04-25T15:48:11.666Z</time></trkpt><trkpt lat="41.210603" lon="-7.9442292"><ele>945.0</ele><time>2026-04-25T15:48:12.671Z</time></trkpt><trkpt lat="41.2106425" lon="-7.9441271"><ele>943.6</ele><time>2026-04-25T15:48:13.671Z</time></trkpt><trkpt lat="41.2106877" lon="-7.9440079"><ele>942.2</ele><time>2026-04-25T15:48:14.67Z</time></trkpt><trkpt lat="41.2107396" lon="-7.9438783"><ele>940.8</ele><time>2026-04-25T15:48:15.669Z</time></trkpt><trkpt lat="41.2107945" lon="-7.9437447"><ele>939.4</ele><time>2026-04-25T15:48:16.664Z</time></trkpt><trkpt lat="41.2108565" lon="-7.9436138"><ele>938.0</ele><time>2026-04-25T15:48:17.665Z</time></trkpt><trkpt lat="41.2109177" lon="-7.943493"><ele>940.0</ele><time>2026-04-25T15:48:18.672Z</time></trkpt><trkpt lat="41.2109789" lon="-7.9433768"><ele>942.0</ele><time>2026-04-25T15:48:19.667Z</time></trkpt><trkpt lat="41.2110445" lon="-7.9432652"><ele>944.0</ele><time>2026-04-25T15:48:20.671Z</time></trkpt><trkpt lat="41.2111025" lon="-7.9431537"><ele>946.0</ele><time>2026-04-25T15:48:21.67Z</time></trkpt><trkpt lat="41.2111589" lon="-7.9430488"><ele>948.0</ele><time>2026-04-25T15:48:22.67Z</time></trkpt><trkpt lat="41.211217" lon="-7.9429559"><ele>948.0</ele><time>2026-04-25T15:48:23.676Z</time></trkpt><trkpt lat="41.2112699" lon="-7.9428583"><ele>948.0</ele><time>2026-04-25T15:48:24.68Z</time></trkpt><trkpt lat="41.2113204" lon="-7.9427573"><ele>948.0</ele><time>2026-04-25T15:48:25.67Z</time></trkpt><trkpt lat="41.2113696" lon="-7.9426653"><ele>948.0</ele><time>2026-04-25T15:48:26.668Z</time></trkpt><trkpt lat="41.2114132" lon="-7.9425766"><ele>948.0</ele><time>2026-04-25T15:48:27.67Z</time></trkpt><trkpt lat="41.211448" lon="-7.9424809"><ele>948.0</ele><time>2026-04-25T15:48:28.667Z</time></trkpt><trkpt lat="41.2114784" lon="-7.9423776"><ele>946.4</ele><time>2026-04-25T15:48:29.665Z</time></trkpt><trkpt lat="41.2115101" lon="-7.9422694"><ele>944.8</ele><time>2026-04-25T15:48:30.668Z</time></trkpt><trkpt lat="41.2115419" lon="-7.9421606"><ele>943.2</ele><time>2026-04-25T15:48:31.668Z</time></trkpt><trkpt lat="41.2115701" lon="-7.9420465"><ele>941.6</ele><time>2026-04-25T15:48:32.671Z</time></trkpt><trkpt lat="41.2115939" lon="-7.9419272"><ele>940.0</ele><time>2026-04-25T15:48:33.667Z</time></trkpt><trkpt lat="41.2116124" lon="-7.9417998"><ele>941.8333333333333</ele><time>2026-04-25T15:48:34.669Z</time></trkpt><trkpt lat="41.2116225" lon="-7.941682"><ele>943.6666666666666</ele><time>2026-04-25T15:48:35.676Z</time></trkpt><trkpt lat="41.2116262" lon="-7.9415639"><ele>945.5</ele><time>2026-04-25T15:48:36.667Z</time></trkpt><trkpt lat="41.2116079" lon="-7.9414473"><ele>947.3333333333333</ele><time>2026-04-25T15:48:37.669Z</time></trkpt><trkpt lat="41.211567" lon="-7.9413419"><ele>949.1666666666666</ele><time>2026-04-25T15:48:38.668Z</time></trkpt><trkpt lat="41.2115301" lon="-7.9412404"><ele>951.0</ele><time>2026-04-25T15:48:39.668Z</time></trkpt><trkpt lat="41.2115017" lon="-7.9411549"><ele>954.0</ele><time>2026-04-25T15:48:40.667Z</time></trkpt><trkpt lat="41.2114764" lon="-7.9410414"><ele>957.0</ele><time>2026-04-25T15:48:42.673Z</time></trkpt><trkpt lat="41.211444" lon="-7.9411174"><ele>960.0</ele><time>2026-04-25T15:50:17.668Z</time></trkpt><trkpt lat="41.2113901" lon="-7.9410499"><ele>963.0</ele><time>2026-04-25T15:50:20.677Z</time></trkpt><trkpt lat="41.2113285" lon="-7.9410028"><ele>966.0</ele><time>2026-04-25T15:50:22.664Z</time></trkpt><trkpt lat="41.211246" lon="-7.9409672"><ele>969.0</ele><time>2026-04-25T15:50:24.675Z</time></trkpt><trkpt lat="41.2111772" lon="-7.9409625"><ele>969.0</ele><time>2026-04-25T15:52:25.668Z</time></trkpt><trkpt lat="41.2110885" lon="-7.9409709"><ele>969.0</ele><time>2026-04-25T15:52:50.664Z</time></trkpt><trkpt lat="41.2110129" lon="-7.940987"><ele>969.0</ele><time>2026-04-25T15:52:52.672Z</time></trkpt><trkpt lat="41.2109448" lon="-7.9409953"><ele>969.0</ele><time>2026-04-25T15:52:54.664Z</time></trkpt><trkpt lat="41.2108791" lon="-7.9409661"><ele>969.0</ele><time>2026-04-25T15:52:56.669Z</time></trkpt><trkpt lat="41.2108071" lon="-7.9409345"><ele>969.0</ele><time>2026-04-25T15:52:58.672Z</time></trkpt><trkpt lat="41.2107324" lon="-7.9408812"><ele>971.6</ele><time>2026-04-25T15:53:00.665Z</time></trkpt><trkpt lat="41.210637" lon="-7.9408159"><ele>974.2</ele><time>2026-04-25T15:53:02.669Z</time></trkpt><trkpt lat="41.2105457" lon="-7.9407156"><ele>976.8000000000001</ele><time>2026-04-25T15:53:04.665Z</time></trkpt><trkpt lat="41.2104599" lon="-7.940622"><ele>979.4000000000001</ele><time>2026-04-25T15:53:06.667Z</time></trkpt><trkpt lat="41.2103898" lon="-7.9405285"><ele>982.0</ele><time>2026-04-25T15:53:08.669Z</time></trkpt><trkpt lat="41.2103009" lon="-7.9404137"><ele>981.9999999999999</ele><time>2026-04-25T15:53:10.668Z</time></trkpt><trkpt lat="41.210245" lon="-7.9403328"><ele>982.0</ele><time>2026-04-25T15:53:11.666Z</time></trkpt><trkpt lat="41.2101883" lon="-7.9402375"><ele>982.0</ele><time>2026-04-25T15:53:12.665Z</time></trkpt><trkpt lat="41.2101317" lon="-7.9401412"><ele>982.0</ele><time>2026-04-25T15:53:13.673Z</time></trkpt><trkpt lat="41.2100798" lon="-7.9400406"><ele>981.9999999999999</ele><time>2026-04-25T15:53:14.663Z</time></trkpt><trkpt lat="41.2100347" lon="-7.9399417"><ele>982.0</ele><time>2026-04-25T15:53:15.673Z</time></trkpt><trkpt lat="41.2100009" lon="-7.9398485"><ele>982.6666666666666</ele><time>2026-04-25T15:53:16.677Z</time></trkpt><trkpt lat="41.209969" lon="-7.9397653"><ele>983.3333333333333</ele><time>2026-04-25T15:53:17.658Z</time></trkpt><trkpt lat="41.2099399" lon="-7.9396881"><ele>984.0</ele><time>2026-04-25T15:53:18.669Z</time></trkpt><trkpt lat="41.2099065" lon="-7.939565"><ele>984.6666666666667</ele><time>2026-04-25T15:53:20.663Z</time></trkpt><trkpt lat="41.209895" lon="-7.9394754"><ele>985.3333333333334</ele><time>2026-04-25T15:53:22.663Z</time></trkpt><trkpt lat="41.209855" lon="-7.9393822"><ele>986.0</ele><time>2026-04-25T15:53:26.667Z</time></trkpt><trkpt lat="41.2098124" lon="-7.9392904"><ele>986.3333333333334</ele><time>2026-04-25T15:53:28.672Z</time></trkpt><trkpt lat="41.2097743" lon="-7.9391512"><ele>986.6666666666667</ele><time>2026-04-25T15:53:30.666Z</time></trkpt><trkpt lat="41.2097592" lon="-7.9390539"><ele>987.0</ele><time>2026-04-25T15:53:31.665Z</time></trkpt><trkpt lat="41.2097437" lon="-7.938962"><ele>987.3333333333333</ele><time>2026-04-25T15:53:32.667Z</time></trkpt><trkpt lat="41.2097313" lon="-7.9388664"><ele>987.6666666666666</ele><time>2026-04-25T15:53:33.669Z</time></trkpt><trkpt lat="41.2097238" lon="-7.9387674"><ele>988.0</ele><time>2026-04-25T15:53:34.664Z</time></trkpt><trkpt lat="41.209723" lon="-7.9386695"><ele>988.0</ele><time>2026-04-25T15:53:35.667Z</time></trkpt><trkpt lat="41.2097306" lon="-7.9385726"><ele>988.0</ele><time>2026-04-25T15:53:36.663Z</time></trkpt><trkpt lat="41.2097438" lon="-7.9384783"><ele>988.0</ele><time>2026-04-25T15:53:37.662Z</time></trkpt><trkpt lat="41.2097621" lon="-7.9383798"><ele>988.0</ele><time>2026-04-25T15:53:38.662Z</time></trkpt><trkpt lat="41.2097811" lon="-7.9382862"><ele>988.0</ele><time>2026-04-25T15:53:39.67Z</time></trkpt><trkpt lat="41.2098043" lon="-7.9381991"><ele>988.0</ele><time>2026-04-25T15:53:40.666Z</time></trkpt><trkpt lat="41.2098366" lon="-7.9381099"><ele>988.0</ele><time>2026-04-25T15:53:41.666Z</time></trkpt><trkpt lat="41.2098695" lon="-7.9380166"><ele>987.9999999999999</ele><time>2026-04-25T15:53:42.668Z</time></trkpt><trkpt lat="41.209902" lon="-7.9379174"><ele>988.0</ele><time>2026-04-25T15:53:43.668Z</time></trkpt><trkpt lat="41.2099373" lon="-7.9378128"><ele>988.0</ele><time>2026-04-25T15:53:44.669Z</time></trkpt><trkpt lat="41.2099695" lon="-7.9377082"><ele>988.0</ele><time>2026-04-25T15:53:45.665Z</time></trkpt><trkpt lat="41.2099926" lon="-7.9375984"><ele>987.9999999999999</ele><time>2026-04-25T15:53:46.67Z</time></trkpt><trkpt lat="41.2100031" lon="-7.9374916"><ele>988.0</ele><time>2026-04-25T15:53:47.671Z</time></trkpt><trkpt lat="41.2100013" lon="-7.9373875"><ele>988.9999999999999</ele><time>2026-04-25T15:53:48.664Z</time></trkpt><trkpt lat="41.2099866" lon="-7.9372867"><ele>990.0</ele><time>2026-04-25T15:53:49.662Z</time></trkpt><trkpt lat="41.2099671" lon="-7.9371844"><ele>991.0</ele><time>2026-04-25T15:53:50.668Z</time></trkpt><trkpt lat="41.2099502" lon="-7.937081"><ele>992.0</ele><time>2026-04-25T15:53:51.665Z</time></trkpt><trkpt lat="41.2099368" lon="-7.9369754"><ele>992.9999999999999</ele><time>2026-04-25T15:53:52.668Z</time></trkpt><trkpt lat="41.2099214" lon="-7.9368592"><ele>994.0</ele><time>2026-04-25T15:53:53.665Z</time></trkpt><trkpt lat="41.2099102" lon="-7.936737"><ele>994.9999999999999</ele><time>2026-04-25T15:53:54.667Z</time></trkpt><trkpt lat="41.2099084" lon="-7.9366133"><ele>996.0</ele><time>2026-04-25T15:53:55.676Z</time></trkpt><trkpt lat="41.2099168" lon="-7.9365045"><ele>997.0</ele><time>2026-04-25T15:53:56.666Z</time></trkpt><trkpt lat="41.2099424" lon="-7.9364127"><ele>998.0</ele><time>2026-04-25T15:53:57.665Z</time></trkpt><trkpt lat="41.2099889" lon="-7.9363298"><ele>998.9999999999999</ele><time>2026-04-25T15:53:58.668Z</time></trkpt><trkpt lat="41.210035" lon="-7.936247"><ele>1000.0</ele><time>2026-04-25T15:53:59.664Z</time></trkpt><trkpt lat="41.2100795" lon="-7.936172"><ele>999.9999999999999</ele><time>2026-04-25T15:54:00.668Z</time></trkpt><trkpt lat="41.2101333" lon="-7.9361105"><ele>1000.0</ele><time>2026-04-25T15:54:01.669Z</time></trkpt><trkpt lat="41.210201" lon="-7.9360646"><ele>1000.0</ele><time>2026-04-25T15:54:02.667Z</time></trkpt><trkpt lat="41.2102706" lon="-7.9360121"><ele>1000.0</ele><time>2026-04-25T15:54:03.66Z</time></trkpt><trkpt lat="41.2103343" lon="-7.9359662"><ele>999.9999999999999</ele><time>2026-04-25T15:54:04.669Z</time></trkpt><trkpt lat="41.2104105" lon="-7.9359195"><ele>1000.0</ele><time>2026-04-25T15:54:05.67Z</time></trkpt><trkpt lat="41.2104846" lon="-7.9358791"><ele>1001.1666666666666</ele><time>2026-04-25T15:54:06.677Z</time></trkpt><trkpt lat="41.2105604" lon="-7.9358528"><ele>1002.3333333333333</ele><time>2026-04-25T15:54:07.668Z</time></trkpt><trkpt lat="41.2106283" lon="-7.9358298"><ele>1003.5</ele><time>2026-04-25T15:54:08.665Z</time></trkpt><trkpt lat="41.2106924" lon="-7.9358106"><ele>1004.6666666666667</ele><time>2026-04-25T15:54:09.675Z</time></trkpt><trkpt lat="41.210749" lon="-7.9357678"><ele>1005.8333333333334</ele><time>2026-04-25T15:54:10.664Z</time></trkpt><trkpt lat="41.2108073" lon="-7.935618"><ele>1007.0</ele><time>2026-04-25T15:54:12.661Z</time></trkpt><trkpt lat="41.2108313" lon="-7.9355245"><ele>1008.1428571428571</ele><time>2026-04-25T15:54:13.668Z</time></trkpt><trkpt lat="41.2108537" lon="-7.9354311"><ele>1009.2857142857143</ele><time>2026-04-25T15:54:14.676Z</time></trkpt><trkpt lat="41.2108816" lon="-7.9353369"><ele>1010.4285714285714</ele><time>2026-04-25T15:54:15.668Z</time></trkpt><trkpt lat="41.21091" lon="-7.9352437"><ele>1011.5714285714286</ele><time>2026-04-25T15:54:16.664Z</time></trkpt><trkpt lat="41.2109378" lon="-7.9351513"><ele>1012.7142857142858</ele><time>2026-04-25T15:54:17.667Z</time></trkpt><trkpt lat="41.2109704" lon="-7.9350641"><ele>1013.8571428571429</ele><time>2026-04-25T15:54:18.662Z</time></trkpt><trkpt lat="41.2110001" lon="-7.9349764"><ele>1015.0</ele><time>2026-04-25T15:54:19.667Z</time></trkpt><trkpt lat="41.2110207" lon="-7.9348909"><ele>1017.8</ele><time>2026-04-25T15:54:20.666Z</time></trkpt><trkpt lat="41.2110734" lon="-7.9347401"><ele>1020.6</ele><time>2026-04-25T15:54:22.669Z</time></trkpt><trkpt lat="41.21116" lon="-7.9346311"><ele>1023.4000000000001</ele><time>2026-04-25T15:54:24.666Z</time></trkpt><trkpt lat="41.2112176" lon="-7.934595"><ele>1026.2</ele><time>2026-04-25T15:54:25.664Z</time></trkpt><trkpt lat="41.2113206" lon="-7.934505"><ele>1029.0</ele><time>2026-04-25T15:54:27.672Z</time></trkpt><trkpt lat="41.2113646" lon="-7.9344431"><ele>1029.0</ele><time>2026-04-25T15:54:28.667Z</time></trkpt><trkpt lat="41.2114129" lon="-7.9343756"><ele>1029.0</ele><time>2026-04-25T15:54:29.668Z</time></trkpt><trkpt lat="41.2114997" lon="-7.934254"><ele>1029.0</ele><time>2026-04-25T15:54:31.664Z</time></trkpt><trkpt lat="41.2115657" lon="-7.9342092"><ele>1029.0</ele><time>2026-04-25T15:54:32.671Z</time></trkpt><trkpt lat="41.2116482" lon="-7.9341874"><ele>1029.0</ele><time>2026-04-25T15:54:33.673Z</time></trkpt><trkpt lat="41.211731" lon="-7.9341796"><ele>1029.0</ele><time>2026-04-25T15:54:34.663Z</time></trkpt><trkpt lat="41.211813" lon="-7.9341702"><ele>1031.1666666666667</ele><time>2026-04-25T15:54:35.663Z</time></trkpt><trkpt lat="41.21189" lon="-7.9341456"><ele>1033.3333333333333</ele><time>2026-04-25T15:54:36.668Z</time></trkpt><trkpt lat="41.2119553" lon="-7.9341014"><ele>1035.5</ele><time>2026-04-25T15:54:37.664Z</time></trkpt><trkpt lat="41.2120089" lon="-7.9340501"><ele>1037.6666666666665</ele><time>2026-04-25T15:54:38.666Z</time></trkpt><trkpt lat="41.212053" lon="-7.93399"><ele>1039.8333333333333</ele><time>2026-04-25T15:54:39.668Z</time></trkpt><trkpt lat="41.2121427" lon="-7.9338689"><ele>1042.0</ele><time>2026-04-25T15:54:41.661Z</time></trkpt><trkpt lat="41.2121942" lon="-7.9338076"><ele>1042.0</ele><time>2026-04-25T15:54:42.67Z</time></trkpt><trkpt lat="41.2122536" lon="-7.9337483"><ele>1042.0</ele><time>2026-04-25T15:54:43.665Z</time></trkpt><trkpt lat="41.2123212" lon="-7.9336986"><ele>1042.0</ele><time>2026-04-25T15:54:44.67Z</time></trkpt><trkpt lat="41.2123965" lon="-7.933644"><ele>1042.0</ele><time>2026-04-25T15:54:45.668Z</time></trkpt><trkpt lat="41.2124774" lon="-7.9335978"><ele>1042.0</ele><time>2026-04-25T15:54:46.665Z</time></trkpt><trkpt lat="41.2125704" lon="-7.9335615"><ele>1042.0</ele><time>2026-04-25T15:54:47.661Z</time></trkpt><trkpt lat="41.2126725" lon="-7.9335314"><ele>1041.4</ele><time>2026-04-25T15:54:48.67Z</time></trkpt><trkpt lat="41.2127754" lon="-7.9335006"><ele>1040.8000000000002</ele><time>2026-04-25T15:54:49.663Z</time></trkpt><trkpt lat="41.2128752" lon="-7.9334653"><ele>1040.2</ele><time>2026-04-25T15:54:50.666Z</time></trkpt><trkpt lat="41.2129664" lon="-7.9334208"><ele>1039.6000000000001</ele><time>2026-04-25T15:54:51.674Z</time></trkpt><trkpt lat="41.2130492" lon="-7.9333674"><ele>1039.0</ele><time>2026-04-25T15:54:52.665Z</time></trkpt><trkpt lat="41.2131266" lon="-7.9333083"><ele>1041.1666666666665</ele><time>2026-04-25T15:54:53.669Z</time></trkpt><trkpt lat="41.2132013" lon="-7.9332549"><ele>1043.3333333333333</ele><time>2026-04-25T15:54:54.666Z</time></trkpt><trkpt lat="41.2132782" lon="-7.9332181"><ele>1045.5</ele><time>2026-04-25T15:54:55.668Z</time></trkpt><trkpt lat="41.213364" lon="-7.9331977"><ele>1047.6666666666667</ele><time>2026-04-25T15:54:56.667Z</time></trkpt><trkpt lat="41.2134535" lon="-7.9331817"><ele>1049.8333333333335</ele><time>2026-04-25T15:54:57.664Z</time></trkpt><trkpt lat="41.2135436" lon="-7.9331634"><ele>1052.0</ele><time>2026-04-25T15:54:58.664Z</time></trkpt><trkpt lat="41.2136348" lon="-7.9331395"><ele>1052.0</ele><time>2026-04-25T15:54:59.674Z</time></trkpt><trkpt lat="41.2137262" lon="-7.933116"><ele>1052.0</ele><time>2026-04-25T15:55:00.665Z</time></trkpt><trkpt lat="41.2138184" lon="-7.9330834"><ele>1052.0</ele><time>2026-04-25T15:55:01.668Z</time></trkpt><trkpt lat="41.2139023" lon="-7.9330383"><ele>1052.0</ele><time>2026-04-25T15:55:02.665Z</time></trkpt><trkpt lat="41.2139734" lon="-7.9329869"><ele>1052.0</ele><time>2026-04-25T15:55:03.666Z</time></trkpt><trkpt lat="41.2140407" lon="-7.9329332"><ele>1052.0</ele><time>2026-04-25T15:55:04.666Z</time></trkpt><trkpt lat="41.2141096" lon="-7.9328816"><ele>1051.0</ele><time>2026-04-25T15:55:05.669Z</time></trkpt><trkpt lat="41.2141776" lon="-7.9328359"><ele>1050.0</ele><time>2026-04-25T15:55:06.661Z</time></trkpt><trkpt lat="41.2142509" lon="-7.9327912"><ele>1049.0</ele><time>2026-04-25T15:55:07.668Z</time></trkpt><trkpt lat="41.2143257" lon="-7.9327489"><ele>1048.0</ele><time>2026-04-25T15:55:08.671Z</time></trkpt><trkpt lat="41.2143975" lon="-7.932708"><ele>1047.0</ele><time>2026-04-25T15:55:09.662Z</time></trkpt><trkpt lat="41.2144728" lon="-7.932664"><ele>1046.0</ele><time>2026-04-25T15:55:10.67Z</time></trkpt><trkpt lat="41.2145481" lon="-7.9326201"><ele>1046.0</ele><time>2026-04-25T15:55:11.675Z</time></trkpt><trkpt lat="41.2146214" lon="-7.9325776"><ele>1046.0</ele><time>2026-04-25T15:55:12.662Z</time></trkpt><trkpt lat="41.2146896" lon="-7.9325325"><ele>1046.0</ele><time>2026-04-25T15:55:13.663Z</time></trkpt><trkpt lat="41.2147566" lon="-7.9324917"><ele>1046.0</ele><time>2026-04-25T15:55:14.665Z</time></trkpt><trkpt lat="41.2148287" lon="-7.9324511"><ele>1046.0</ele><time>2026-04-25T15:55:15.668Z</time></trkpt><trkpt lat="41.214895" lon="-7.9324072"><ele>1046.0</ele><time>2026-04-25T15:55:16.669Z</time></trkpt><trkpt lat="41.2149522" lon="-7.932355"><ele>1047.6</ele><time>2026-04-25T15:55:17.667Z</time></trkpt><trkpt lat="41.2150026" lon="-7.9322937"><ele>1049.1999999999998</ele><time>2026-04-25T15:55:18.664Z</time></trkpt><trkpt lat="41.2150751" lon="-7.9321713"><ele>1050.8000000000002</ele><time>2026-04-25T15:55:20.665Z</time></trkpt><trkpt lat="41.2151502" lon="-7.9321134"><ele>1052.4</ele><time>2026-04-25T15:55:22.673Z</time></trkpt><trkpt lat="41.2152526" lon="-7.9321568"><ele>1054.0</ele><time>2026-04-25T15:55:24.666Z</time></trkpt><trkpt lat="41.2153733" lon="-7.9321725"><ele>1054.0</ele><time>2026-04-25T15:55:26.677Z</time></trkpt><trkpt lat="41.2154836" lon="-7.9320918"><ele>1054.0</ele><time>2026-04-25T15:55:28.668Z</time></trkpt><trkpt lat="41.2155272" lon="-7.9320163"><ele>1054.0</ele><time>2026-04-25T15:55:29.665Z</time></trkpt><trkpt lat="41.2155671" lon="-7.9319313"><ele>1054.0</ele><time>2026-04-25T15:55:30.67Z</time></trkpt><trkpt lat="41.2156129" lon="-7.931854"><ele>1054.0</ele><time>2026-04-25T15:55:31.663Z</time></trkpt><trkpt lat="41.2156648" lon="-7.9317852"><ele>1054.0</ele><time>2026-04-25T15:55:32.668Z</time></trkpt><trkpt lat="41.2157325" lon="-7.9317418"><ele>1052.5</ele><time>2026-04-25T15:55:33.664Z</time></trkpt><trkpt lat="41.2158141" lon="-7.9317392"><ele>1051.0</ele><time>2026-04-25T15:55:34.675Z</time></trkpt><trkpt lat="41.215905" lon="-7.931753"><ele>1049.5</ele><time>2026-04-25T15:55:35.668Z</time></trkpt><trkpt lat="41.2159958" lon="-7.9317625"><ele>1048.0</ele><time>2026-04-25T15:55:36.666Z</time></trkpt><trkpt lat="41.2160833" lon="-7.9317682"><ele>1046.5</ele><time>2026-04-25T15:55:37.664Z</time></trkpt><trkpt lat="41.2161705" lon="-7.9317696"><ele>1045.0</ele><time>2026-04-25T15:55:38.667Z</time></trkpt><trkpt lat="41.2162549" lon="-7.9317692"><ele>1045.0</ele><time>2026-04-25T15:55:39.667Z</time></trkpt><trkpt lat="41.216345" lon="-7.9317521"><ele>1045.0</ele><time>2026-04-25T15:55:40.666Z</time></trkpt><trkpt lat="41.216431" lon="-7.9317103"><ele>1045.0</ele><time>2026-04-25T15:55:41.663Z</time></trkpt><trkpt lat="41.2165126" lon="-7.9316548"><ele>1045.0</ele><time>2026-04-25T15:55:42.662Z</time></trkpt><trkpt lat="41.2165882" lon="-7.9315854"><ele>1045.0</ele><time>2026-04-25T15:55:43.665Z</time></trkpt><trkpt lat="41.2166558" lon="-7.93151"><ele>1046.8</ele><time>2026-04-25T15:55:44.663Z</time></trkpt><trkpt lat="41.2167203" lon="-7.9314278"><ele>1048.6</ele><time>2026-04-25T15:55:45.667Z</time></trkpt><trkpt lat="41.2167816" lon="-7.9313415"><ele>1050.4</ele><time>2026-04-25T15:55:46.673Z</time></trkpt><trkpt lat="41.2168424" lon="-7.931251"><ele>1052.2</ele><time>2026-04-25T15:55:47.663Z</time></trkpt><trkpt lat="41.2168975" lon="-7.9311567"><ele>1054.0</ele><time>2026-04-25T15:55:48.662Z</time></trkpt><trkpt lat="41.2169487" lon="-7.9310522"><ele>1054.0</ele><time>2026-04-25T15:55:49.676Z</time></trkpt><trkpt lat="41.2169908" lon="-7.9309467"><ele>1054.0</ele><time>2026-04-25T15:55:50.666Z</time></trkpt><trkpt lat="41.2170247" lon="-7.9308357"><ele>1054.0</ele><time>2026-04-25T15:55:51.666Z</time></trkpt><trkpt lat="41.2170692" lon="-7.9307278"><ele>1054.0</ele><time>2026-04-25T15:55:52.662Z</time></trkpt><trkpt lat="41.2171218" lon="-7.9306269"><ele>1054.0</ele><time>2026-04-25T15:55:53.666Z</time></trkpt><trkpt lat="41.217184" lon="-7.9305387"><ele>1054.3333333333333</ele><time>2026-04-25T15:55:54.664Z</time></trkpt><trkpt lat="41.2172564" lon="-7.9304623"><ele>1054.6666666666665</ele><time>2026-04-25T15:55:55.67Z</time></trkpt><trkpt lat="41.2173262" lon="-7.9303986"><ele>1055.0</ele><time>2026-04-25T15:55:56.663Z</time></trkpt><trkpt lat="41.2173943" lon="-7.9303379"><ele>1055.3333333333333</ele><time>2026-04-25T15:55:57.667Z</time></trkpt><trkpt lat="41.2174601" lon="-7.9302746"><ele>1055.6666666666667</ele><time>2026-04-25T15:55:58.659Z</time></trkpt><trkpt lat="41.2175365" lon="-7.9302068"><ele>1056.0</ele><time>2026-04-25T15:55:59.659Z</time></trkpt><trkpt lat="41.2176247" lon="-7.9301393"><ele>1055.0</ele><time>2026-04-25T15:56:00.671Z</time></trkpt><trkpt lat="41.2177252" lon="-7.9300816"><ele>1054.0</ele><time>2026-04-25T15:56:01.665Z</time></trkpt><trkpt lat="41.2178375" lon="-7.9300296"><ele>1053.0</ele><time>2026-04-25T15:56:02.667Z</time></trkpt><trkpt lat="41.2179467" lon="-7.9299793"><ele>1052.0</ele><time>2026-04-25T15:56:03.664Z</time></trkpt><trkpt lat="41.2180519" lon="-7.9299203"><ele>1049.25</ele><time>2026-04-25T15:56:04.667Z</time></trkpt><trkpt lat="41.2181593" lon="-7.9298646"><ele>1046.5</ele><time>2026-04-25T15:56:05.664Z</time></trkpt><trkpt lat="41.2182687" lon="-7.9298212"><ele>1043.75</ele><time>2026-04-25T15:56:06.671Z</time></trkpt><trkpt lat="41.218381" lon="-7.9297924"><ele>1041.0</ele><time>2026-04-25T15:56:07.671Z</time></trkpt><trkpt lat="41.2184932" lon="-7.929789"><ele>1041.0</ele><time>2026-04-25T15:56:08.665Z</time></trkpt><trkpt lat="41.2186059" lon="-7.9298051"><ele>1041.0</ele><time>2026-04-25T15:56:09.675Z</time></trkpt><trkpt lat="41.218713" lon="-7.92984"><ele>1041.0</ele><time>2026-04-25T15:56:10.671Z</time></trkpt><trkpt lat="41.2188114" lon="-7.9298695"><ele>1041.0</ele><time>2026-04-25T15:56:11.663Z</time></trkpt><trkpt lat="41.2189007" lon="-7.9298854"><ele>1041.0</ele><time>2026-04-25T15:56:12.667Z</time></trkpt><trkpt lat="41.2189856" lon="-7.9298866"><ele>1041.0</ele><time>2026-04-25T15:56:13.667Z</time></trkpt><trkpt lat="41.2190706" lon="-7.9298738"><ele>1041.0</ele><time>2026-04-25T15:56:14.67Z</time></trkpt><trkpt lat="41.2191558" lon="-7.9298646"><ele>1041.0</ele><time>2026-04-25T15:56:15.662Z</time></trkpt><trkpt lat="41.219239" lon="-7.9298556"><ele>1041.0</ele><time>2026-04-25T15:56:16.665Z</time></trkpt><trkpt lat="41.219307" lon="-7.9298336"><ele>1041.0</ele><time>2026-04-25T15:56:17.672Z</time></trkpt><trkpt lat="41.219415" lon="-7.9297606"><ele>1041.0</ele><time>2026-04-25T15:56:19.668Z</time></trkpt><trkpt lat="41.2194435" lon="-7.9296538"><ele>1041.0</ele><time>2026-04-25T15:56:21.668Z</time></trkpt><trkpt lat="41.2193945" lon="-7.929557"><ele>1041.0</ele><time>2026-04-25T15:56:23.663Z</time></trkpt><trkpt lat="41.2192876" lon="-7.9295152"><ele>1041.0</ele><time>2026-04-25T15:56:25.666Z</time></trkpt><trkpt lat="41.2191858" lon="-7.9294768"><ele>1041.0</ele><time>2026-04-25T15:56:27.669Z</time></trkpt><trkpt lat="41.2191217" lon="-7.929337"><ele>1041.0</ele><time>2026-04-25T15:56:29.664Z</time></trkpt><trkpt lat="41.2190953" lon="-7.929175"><ele>1042.3333333333333</ele><time>2026-04-25T15:56:31.667Z</time></trkpt><trkpt lat="41.2190808" lon="-7.9290917"><ele>1043.6666666666667</ele><time>2026-04-25T15:56:32.671Z</time></trkpt><trkpt lat="41.2190629" lon="-7.9290046"><ele>1045.0</ele><time>2026-04-25T15:56:33.669Z</time></trkpt><trkpt lat="41.219038" lon="-7.9289143"><ele>1046.3333333333335</ele><time>2026-04-25T15:56:34.666Z</time></trkpt><trkpt lat="41.2189917" lon="-7.9288162"><ele>1047.6666666666667</ele><time>2026-04-25T15:56:35.669Z</time></trkpt><trkpt lat="41.2189371" lon="-7.9287173"><ele>1049.0</ele><time>2026-04-25T15:56:36.668Z</time></trkpt><trkpt lat="41.2188931" lon="-7.9286157"><ele>1049.0</ele><time>2026-04-25T15:56:37.669Z</time></trkpt><trkpt lat="41.2188559" lon="-7.9285126"><ele>1049.0</ele><time>2026-04-25T15:56:38.673Z</time></trkpt><trkpt lat="41.2188212" lon="-7.9284191"><ele>1049.0</ele><time>2026-04-25T15:56:39.662Z</time></trkpt><trkpt lat="41.2187838" lon="-7.9283194"><ele>1049.0</ele><time>2026-04-25T15:56:40.664Z</time></trkpt><trkpt lat="41.2187646" lon="-7.9282183"><ele>1049.0</ele><time>2026-04-25T15:56:41.67Z</time></trkpt><trkpt lat="41.2187646" lon="-7.9281208"><ele>1049.0</ele><time>2026-04-25T15:56:42.667Z</time></trkpt><trkpt lat="41.2187925" lon="-7.9280343"><ele>1050.142857142857</ele><time>2026-04-25T15:56:43.672Z</time></trkpt><trkpt lat="41.2188394" lon="-7.9279626"><ele>1051.2857142857142</ele><time>2026-04-25T15:56:44.662Z</time></trkpt><trkpt lat="41.2188996" lon="-7.9279176"><ele>1052.4285714285716</ele><time>2026-04-25T15:56:45.663Z</time></trkpt><trkpt lat="41.2189679" lon="-7.9278916"><ele>1053.5714285714284</ele><time>2026-04-25T15:56:46.669Z</time></trkpt><trkpt lat="41.2190307" lon="-7.9278605"><ele>1054.7142857142858</ele><time>2026-04-25T15:56:47.667Z</time></trkpt><trkpt lat="41.2190964" lon="-7.9278188"><ele>1055.857142857143</ele><time>2026-04-25T15:56:48.663Z</time></trkpt><trkpt lat="41.2191588" lon="-7.9277695"><ele>1057.0</ele><time>2026-04-25T15:56:49.669Z</time></trkpt><trkpt lat="41.219216" lon="-7.9277144"><ele>1058.6</ele><time>2026-04-25T15:56:50.668Z</time></trkpt><trkpt lat="41.2193082" lon="-7.9276091"><ele>1060.2</ele><time>2026-04-25T15:56:52.665Z</time></trkpt><trkpt lat="41.2193955" lon="-7.927501"><ele>1061.8</ele><time>2026-04-25T15:56:54.676Z</time></trkpt><trkpt lat="41.2194872" lon="-7.9273878"><ele>1063.4</ele><time>2026-04-25T15:56:56.661Z</time></trkpt><trkpt lat="41.2195422" lon="-7.9273316"><ele>1065.0</ele><time>2026-04-25T15:56:57.675Z</time></trkpt><trkpt lat="41.2196371" lon="-7.9272354"><ele>1066.5</ele><time>2026-04-25T15:56:59.663Z</time></trkpt><trkpt lat="41.2196863" lon="-7.927177"><ele>1068.0</ele><time>2026-04-25T15:57:00.665Z</time></trkpt><trkpt lat="41.219749" lon="-7.9270658"><ele>1069.5</ele><time>2026-04-25T15:57:02.667Z</time></trkpt><trkpt lat="41.2197982" lon="-7.9269542"><ele>1071.0</ele><time>2026-04-25T15:57:04.668Z</time></trkpt><trkpt lat="41.2198702" lon="-7.926838"><ele>1072.5</ele><time>2026-04-25T15:57:06.663Z</time></trkpt><trkpt lat="41.2199157" lon="-7.926776"><ele>1074.0</ele><time>2026-04-25T15:57:07.666Z</time></trkpt><trkpt lat="41.2199731" lon="-7.9267302"><ele>1075.2857142857142</ele><time>2026-04-25T15:57:08.664Z</time></trkpt><trkpt lat="41.2200425" lon="-7.9266947"><ele>1076.5714285714284</ele><time>2026-04-25T15:57:09.667Z</time></trkpt><trkpt lat="41.2201143" lon="-7.9266647"><ele>1077.857142857143</ele><time>2026-04-25T15:57:10.673Z</time></trkpt><trkpt lat="41.2201855" lon="-7.9266433"><ele>1079.142857142857</ele><time>2026-04-25T15:57:11.674Z</time></trkpt><trkpt lat="41.2202526" lon="-7.9266258"><ele>1080.4285714285716</ele><time>2026-04-25T15:57:12.668Z</time></trkpt><trkpt lat="41.2203202" lon="-7.9266085"><ele>1081.7142857142858</ele><time>2026-04-25T15:57:13.665Z</time></trkpt><trkpt lat="41.220385" lon="-7.9265874"><ele>1083.0</ele><time>2026-04-25T15:57:14.663Z</time></trkpt><trkpt lat="41.2204461" lon="-7.9265584"><ele>1083.0</ele><time>2026-04-25T15:57:15.667Z</time></trkpt><trkpt lat="41.2205481" lon="-7.926476"><ele>1083.0</ele><time>2026-04-25T15:57:17.664Z</time></trkpt><trkpt lat="41.2206352" lon="-7.9263547"><ele>1083.0</ele><time>2026-04-25T15:57:19.675Z</time></trkpt><trkpt lat="41.2206788" lon="-7.9262843"><ele>1083.0</ele><time>2026-04-25T15:57:20.664Z</time></trkpt><trkpt lat="41.2207274" lon="-7.9262094"><ele>1083.0</ele><time>2026-04-25T15:57:21.664Z</time></trkpt><trkpt lat="41.2207835" lon="-7.9261326"><ele>1083.2857142857142</ele><time>2026-04-25T15:57:22.663Z</time></trkpt><trkpt lat="41.2208463" lon="-7.926052"><ele>1083.5714285714287</ele><time>2026-04-25T15:57:23.663Z</time></trkpt><trkpt lat="41.2209082" lon="-7.9259794"><ele>1083.857142857143</ele><time>2026-04-25T15:57:24.671Z</time></trkpt><trkpt lat="41.2209613" lon="-7.9259121"><ele>1084.142857142857</ele><time>2026-04-25T15:57:25.669Z</time></trkpt><trkpt lat="41.2210054" lon="-7.9258415"><ele>1084.4285714285716</ele><time>2026-04-25T15:57:26.662Z</time></trkpt><trkpt lat="41.2210449" lon="-7.9257662"><ele>1084.7142857142858</ele><time>2026-04-25T15:57:27.666Z</time></trkpt><trkpt lat="41.2210779" lon="-7.9256874"><ele>1085.0</ele><time>2026-04-25T15:57:28.666Z</time></trkpt><trkpt lat="41.2211072" lon="-7.9256042"><ele>1085.0</ele><time>2026-04-25T15:57:29.664Z</time></trkpt><trkpt lat="41.2211421" lon="-7.9255215"><ele>1085.0</ele><time>2026-04-25T15:57:30.662Z</time></trkpt><trkpt lat="41.2211797" lon="-7.925434"><ele>1085.0</ele><time>2026-04-25T15:57:31.665Z</time></trkpt><trkpt lat="41.2212156" lon="-7.9253394"><ele>1085.0</ele><time>2026-04-25T15:57:32.661Z</time></trkpt><trkpt lat="41.221253" lon="-7.9252456"><ele>1085.0</ele><time>2026-04-25T15:57:33.675Z</time></trkpt><trkpt lat="41.221288" lon="-7.9251505"><ele>1085.0</ele><time>2026-04-25T15:57:34.663Z</time></trkpt><trkpt lat="41.2213232" lon="-7.925049"><ele>1086.0</ele><time>2026-04-25T15:57:35.668Z</time></trkpt><trkpt lat="41.2213613" lon="-7.92495"><ele>1087.0</ele><time>2026-04-25T15:57:36.663Z</time></trkpt><trkpt lat="41.2213998" lon="-7.9248545"><ele>1088.0</ele><time>2026-04-25T15:57:37.663Z</time></trkpt><trkpt lat="41.2214397" lon="-7.9247641"><ele>1089.0</ele><time>2026-04-25T15:57:38.684Z</time></trkpt><trkpt lat="41.2214766" lon="-7.9246736"><ele>1090.0</ele><time>2026-04-25T15:57:39.663Z</time></trkpt><trkpt lat="41.2215108" lon="-7.9245841"><ele>1091.0</ele><time>2026-04-25T15:57:40.667Z</time></trkpt><trkpt lat="41.2215378" lon="-7.9244941"><ele>1088.0</ele><time>2026-04-25T15:57:41.672Z</time></trkpt><trkpt lat="41.22155" lon="-7.9244078"><ele>1085.0</ele><time>2026-04-25T15:57:42.667Z</time></trkpt><trkpt lat="41.2215458" lon="-7.9242468"><ele>1082.0</ele><time>2026-04-25T15:57:44.671Z</time></trkpt><trkpt lat="41.2215235" lon="-7.9240991"><ele>1079.0</ele><time>2026-04-25T15:57:46.665Z</time></trkpt><trkpt lat="41.2215285" lon="-7.9239657"><ele>1076.0</ele><time>2026-04-25T15:57:48.671Z</time></trkpt><trkpt lat="41.2215723" lon="-7.9238452"><ele>1076.0</ele><time>2026-04-25T15:57:50.662Z</time></trkpt><trkpt lat="41.2216231" lon="-7.9237034"><ele>1076.0</ele><time>2026-04-25T15:57:52.659Z</time></trkpt><trkpt lat="41.2216764" lon="-7.9235669"><ele>1076.0</ele><time>2026-04-25T15:57:54.659Z</time></trkpt><trkpt lat="41.2217474" lon="-7.9234497"><ele>1076.0</ele><time>2026-04-25T15:57:56.664Z</time></trkpt><trkpt lat="41.2218213" lon="-7.9233623"><ele>1076.0</ele><time>2026-04-25T15:57:58.666Z</time></trkpt><trkpt lat="41.221908" lon="-7.923298"><ele>1075.6</ele><time>2026-04-25T15:58:00.672Z</time></trkpt><trkpt lat="41.2219995" lon="-7.9232227"><ele>1075.1999999999998</ele><time>2026-04-25T15:58:02.661Z</time></trkpt><trkpt lat="41.2221071" lon="-7.9231514"><ele>1074.8000000000002</ele><time>2026-04-25T15:58:04.68Z</time></trkpt><trkpt lat="41.2221656" lon="-7.9231141"><ele>1074.4</ele><time>2026-04-25T15:58:05.665Z</time></trkpt><trkpt lat="41.2222754" lon="-7.923045"><ele>1074.0</ele><time>2026-04-25T15:58:07.672Z</time></trkpt><trkpt lat="41.2223688" lon="-7.9229635"><ele>1075.0</ele><time>2026-04-25T15:58:09.663Z</time></trkpt><trkpt lat="41.2224483" lon="-7.9228763"><ele>1076.0</ele><time>2026-04-25T15:58:11.665Z</time></trkpt><trkpt lat="41.2225184" lon="-7.9227868"><ele>1077.0</ele><time>2026-04-25T15:58:13.661Z</time></trkpt><trkpt lat="41.222579" lon="-7.9227163"><ele>1078.0</ele><time>2026-04-25T15:58:16.664Z</time></trkpt><trkpt lat="41.2226441" lon="-7.9227438"><ele>1079.0</ele><time>2026-04-25T15:58:33.663Z</time></trkpt><trkpt lat="41.2227121" lon="-7.9227172"><ele>1080.0</ele><time>2026-04-25T15:58:36.663Z</time></trkpt><trkpt lat="41.2227712" lon="-7.9226385"><ele>1080.0</ele><time>2026-04-25T15:58:39.663Z</time></trkpt><trkpt lat="41.2228298" lon="-7.9225964"><ele>1080.0</ele><time>2026-04-25T15:58:41.66Z</time></trkpt><trkpt lat="41.2228835" lon="-7.9225254"><ele>1080.0</ele><time>2026-04-25T15:58:43.675Z</time></trkpt><trkpt lat="41.2229263" lon="-7.9224462"><ele>1080.0</ele><time>2026-04-25T15:58:45.66Z</time></trkpt><trkpt lat="41.222971" lon="-7.9223641"><ele>1080.0</ele><time>2026-04-25T15:58:47.667Z</time></trkpt><trkpt lat="41.2230285" lon="-7.9222882"><ele>1080.0</ele><time>2026-04-25T15:58:49.666Z</time></trkpt><trkpt lat="41.223103" lon="-7.9221942"><ele>1086.0</ele><time>2026-04-25T15:58:51.666Z</time></trkpt><trkpt lat="41.2231776" lon="-7.9221242"><ele>1092.0</ele><time>2026-04-25T15:58:53.668Z</time></trkpt><trkpt lat="41.2232692" lon="-7.9220676"><ele>1098.0</ele><time>2026-04-25T15:58:55.664Z</time></trkpt><trkpt lat="41.2233723" lon="-7.9220322"><ele>1104.0</ele><time>2026-04-25T15:58:57.66Z</time></trkpt><trkpt lat="41.2234496" lon="-7.9219692"><ele>1110.0</ele><time>2026-04-25T15:58:59.662Z</time></trkpt><trkpt lat="41.2235172" lon="-7.9218573"><ele>1110.0</ele><time>2026-04-25T15:59:01.661Z</time></trkpt><trkpt lat="41.2235834" lon="-7.9217552"><ele>1110.0</ele><time>2026-04-25T15:59:03.662Z</time></trkpt><trkpt lat="41.2236725" lon="-7.9216594"><ele>1110.0</ele><time>2026-04-25T15:59:05.663Z</time></trkpt><trkpt lat="41.2237736" lon="-7.921581"><ele>1110.0</ele><time>2026-04-25T15:59:07.662Z</time></trkpt><trkpt lat="41.2238555" lon="-7.9215332"><ele>1110.0</ele><time>2026-04-25T15:59:08.666Z</time></trkpt><trkpt lat="41.2239346" lon="-7.9214896"><ele>1112.0</ele><time>2026-04-25T15:59:09.675Z</time></trkpt><trkpt lat="41.2240026" lon="-7.9214538"><ele>1114.0</ele><time>2026-04-25T15:59:10.669Z</time></trkpt><trkpt lat="41.2240756" lon="-7.9214389"><ele>1116.0</ele><time>2026-04-25T15:59:12.661Z</time></trkpt><trkpt lat="41.224039" lon="-7.9215274"><ele>1118.0</ele><time>2026-04-25T15:59:16.663Z</time></trkpt><trkpt lat="41.2239786" lon="-7.9215569"><ele>1120.0</ele><time>2026-04-25T15:59:18.666Z</time></trkpt><trkpt lat="41.2240328" lon="-7.9214629"><ele>1122.0</ele><time>2026-04-25T16:06:51.654Z</time></trkpt><trkpt lat="41.2241347" lon="-7.9214283"><ele>1125.0</ele><time>2026-04-25T16:06:53.669Z</time></trkpt><trkpt lat="41.2242565" lon="-7.9213847"><ele>1128.0</ele><time>2026-04-25T16:06:55.667Z</time></trkpt><trkpt lat="41.22438" lon="-7.9213453"><ele>1131.0</ele><time>2026-04-25T16:06:57.658Z</time></trkpt><trkpt lat="41.2244446" lon="-7.9213287"><ele>1134.0</ele><time>2026-04-25T16:06:58.668Z</time></trkpt><trkpt lat="41.2245083" lon="-7.9213243"><ele>1137.0</ele><time>2026-04-25T16:06:59.656Z</time></trkpt><trkpt lat="41.2245799" lon="-7.9213263"><ele>1137.0</ele><time>2026-04-25T16:07:00.656Z</time></trkpt><trkpt lat="41.2246578" lon="-7.9213302"><ele>1137.0</ele><time>2026-04-25T16:07:01.66Z</time></trkpt><trkpt lat="41.2247415" lon="-7.9213458"><ele>1137.0</ele><time>2026-04-25T16:07:02.657Z</time></trkpt><trkpt lat="41.2248281" lon="-7.9213698"><ele>1137.0</ele><time>2026-04-25T16:07:03.662Z</time></trkpt><trkpt lat="41.2249154" lon="-7.9213978"><ele>1137.0</ele><time>2026-04-25T16:07:04.66Z</time></trkpt><trkpt lat="41.2250095" lon="-7.9214205"><ele>1137.0</ele><time>2026-04-25T16:07:05.659Z</time></trkpt><trkpt lat="41.2251051" lon="-7.9214377"><ele>1138.6666666666667</ele><time>2026-04-25T16:07:06.653Z</time></trkpt><trkpt lat="41.2252033" lon="-7.9214469"><ele>1140.3333333333333</ele><time>2026-04-25T16:07:07.657Z</time></trkpt><trkpt lat="41.2252935" lon="-7.9214577"><ele>1142.0</ele><time>2026-04-25T16:07:08.663Z</time></trkpt><trkpt lat="41.2253715" lon="-7.9214532"><ele>1143.6666666666665</ele><time>2026-04-25T16:07:09.664Z</time></trkpt><trkpt lat="41.2254508" lon="-7.9214486"><ele>1145.3333333333333</ele><time>2026-04-25T16:07:10.663Z</time></trkpt><trkpt lat="41.2255411" lon="-7.9214406"><ele>1147.0</ele><time>2026-04-25T16:07:11.664Z</time></trkpt><trkpt lat="41.2256358" lon="-7.921428"><ele>1148.2</ele><time>2026-04-25T16:07:12.661Z</time></trkpt><trkpt lat="41.2257287" lon="-7.9214118"><ele>1149.4</ele><time>2026-04-25T16:07:13.658Z</time></trkpt><trkpt lat="41.2258176" lon="-7.9214094"><ele>1150.6</ele><time>2026-04-25T16:07:14.662Z</time></trkpt><trkpt lat="41.2259109" lon="-7.9214252"><ele>1151.8</ele><time>2026-04-25T16:07:15.66Z</time></trkpt><trkpt lat="41.2260041" lon="-7.9214496"><ele>1153.0</ele><time>2026-04-25T16:07:16.658Z</time></trkpt><trkpt lat="41.2261036" lon="-7.9214853"><ele>1153.0</ele><time>2026-04-25T16:07:17.663Z</time></trkpt><trkpt lat="41.2262055" lon="-7.9215296"><ele>1153.0</ele><time>2026-04-25T16:07:18.656Z</time></trkpt><trkpt lat="41.2263099" lon="-7.9215731"><ele>1153.0</ele><time>2026-04-25T16:07:19.657Z</time></trkpt><trkpt lat="41.2264172" lon="-7.9216153"><ele>1153.0</ele><time>2026-04-25T16:07:20.66Z</time></trkpt><trkpt lat="41.2265171" lon="-7.9216464"><ele>1153.0</ele><time>2026-04-25T16:07:21.658Z</time></trkpt><trkpt lat="41.226615" lon="-7.921661"><ele>1152.8333333333333</ele><time>2026-04-25T16:07:22.656Z</time></trkpt><trkpt lat="41.2267058" lon="-7.9216659"><ele>1152.6666666666665</ele><time>2026-04-25T16:07:23.661Z</time></trkpt><trkpt lat="41.2267841" lon="-7.9216678"><ele>1152.5</ele><time>2026-04-25T16:07:24.669Z</time></trkpt><trkpt lat="41.2268805" lon="-7.9216239"><ele>1152.3333333333333</ele><time>2026-04-25T16:07:26.661Z</time></trkpt><trkpt lat="41.2268456" lon="-7.9215243"><ele>1152.1666666666667</ele><time>2026-04-25T16:07:30.657Z</time></trkpt><trkpt lat="41.2268488" lon="-7.9214312"><ele>1152.0</ele><time>2026-04-25T16:07:33.66Z</time></trkpt><trkpt lat="41.2268673" lon="-7.921336"><ele>1152.0</ele><time>2026-04-25T16:07:43.662Z</time></trkpt><trkpt lat="41.2269147" lon="-7.9212677"><ele>1152.0</ele><time>2026-04-25T16:07:47.657Z</time></trkpt><trkpt lat="41.2269755" lon="-7.9211845"><ele>1152.0</ele><time>2026-04-25T16:07:50.66Z</time></trkpt><trkpt lat="41.2270203" lon="-7.9211178"><ele>1152.0</ele><time>2026-04-25T16:07:53.661Z</time></trkpt><trkpt lat="41.2270868" lon="-7.9210279"><ele>1152.0</ele><time>2026-04-25T16:07:57.658Z</time></trkpt><trkpt lat="41.2271286" lon="-7.9209427"><ele>1152.0</ele><time>2026-04-25T16:08:01.657Z</time></trkpt><trkpt lat="41.227183" lon="-7.9208664"><ele>1150.0000000000002</ele><time>2026-04-25T16:08:04.657Z</time></trkpt><trkpt lat="41.2272216" lon="-7.9207951"><ele>1148.0</ele><time>2026-04-25T16:08:06.655Z</time></trkpt><trkpt lat="41.2272474" lon="-7.9206987"><ele>1146.0</ele><time>2026-04-25T16:08:09.662Z</time></trkpt><trkpt lat="41.2272727" lon="-7.9206047"><ele>1144.0</ele><time>2026-04-25T16:08:14.665Z</time></trkpt><trkpt lat="41.2273329" lon="-7.9205285"><ele>1142.0</ele><time>2026-04-25T16:08:17.662Z</time></trkpt><trkpt lat="41.2273879" lon="-7.9205911"><ele>1140.0000000000002</ele><time>2026-04-25T16:08:20.658Z</time></trkpt><trkpt lat="41.2274506" lon="-7.9206259"><ele>1138.0</ele><time>2026-04-25T16:08:23.658Z</time></trkpt><trkpt lat="41.2275084" lon="-7.9206667"><ele>1137.8333333333333</ele><time>2026-04-25T16:09:03.655Z</time></trkpt><trkpt lat="41.2276299" lon="-7.9206705"><ele>1137.6666666666665</ele><time>2026-04-25T16:09:05.655Z</time></trkpt><trkpt lat="41.2277025" lon="-7.920639"><ele>1137.5</ele><time>2026-04-25T16:09:06.655Z</time></trkpt><trkpt lat="41.2277809" lon="-7.920595"><ele>1137.3333333333333</ele><time>2026-04-25T16:09:07.657Z</time></trkpt><trkpt lat="41.2278497" lon="-7.9205622"><ele>1137.1666666666667</ele><time>2026-04-25T16:09:08.657Z</time></trkpt><trkpt lat="41.2279129" lon="-7.9205198"><ele>1137.0</ele><time>2026-04-25T16:09:09.656Z</time></trkpt><trkpt lat="41.228025" lon="-7.9204378"><ele>1137.0</ele><time>2026-04-25T16:09:11.659Z</time></trkpt><trkpt lat="41.2280937" lon="-7.9203941"><ele>1137.0</ele><time>2026-04-25T16:09:12.659Z</time></trkpt><trkpt lat="41.2281719" lon="-7.9203651"><ele>1137.0</ele><time>2026-04-25T16:09:13.659Z</time></trkpt><trkpt lat="41.2282597" lon="-7.9203357"><ele>1137.0</ele><time>2026-04-25T16:09:14.662Z</time></trkpt><trkpt lat="41.2283458" lon="-7.9203174"><ele>1137.0</ele><time>2026-04-25T16:09:15.667Z</time></trkpt><trkpt lat="41.2284374" lon="-7.9203174"><ele>1137.0</ele><time>2026-04-25T16:09:16.656Z</time></trkpt><trkpt lat="41.2285307" lon="-7.9203242"><ele>1136.6666666666667</ele><time>2026-04-25T16:09:17.659Z</time></trkpt><trkpt lat="41.2286115" lon="-7.92032"><ele>1136.3333333333333</ele><time>2026-04-25T16:09:18.665Z</time></trkpt><trkpt lat="41.2286772" lon="-7.9202995"><ele>1136.0</ele><time>2026-04-25T16:09:19.657Z</time></trkpt><trkpt lat="41.2287413" lon="-7.920269"><ele>1135.6666666666665</ele><time>2026-04-25T16:09:20.658Z</time></trkpt><trkpt lat="41.2288379" lon="-7.9201387"><ele>1135.3333333333333</ele><time>2026-04-25T16:09:22.662Z</time></trkpt><trkpt lat="41.2288606" lon="-7.9200182"><ele>1135.0</ele><time>2026-04-25T16:09:23.661Z</time></trkpt><trkpt lat="41.228871" lon="-7.9198917"><ele>1135.0</ele><time>2026-04-25T16:09:24.659Z</time></trkpt><trkpt lat="41.2288815" lon="-7.919757"><ele>1135.0</ele><time>2026-04-25T16:09:25.655Z</time></trkpt><trkpt lat="41.2288899" lon="-7.9196271"><ele>1135.0</ele><time>2026-04-25T16:09:26.659Z</time></trkpt><trkpt lat="41.228891" lon="-7.9195221"><ele>1135.0</ele><time>2026-04-25T16:09:27.662Z</time></trkpt><trkpt lat="41.2288882" lon="-7.9194251"><ele>1135.0</ele><time>2026-04-25T16:09:28.656Z</time></trkpt><trkpt lat="41.2288984" lon="-7.9192759"><ele>1135.5</ele><time>2026-04-25T16:09:30.662Z</time></trkpt><trkpt lat="41.2289032" lon="-7.9191748"><ele>1136.0</ele><time>2026-04-25T16:09:32.652Z</time></trkpt><trkpt lat="41.2288615" lon="-7.919109"><ele>1136.5</ele><time>2026-04-25T16:09:34.656Z</time></trkpt><trkpt lat="41.2287923" lon="-7.9191228"><ele>1137.0</ele><time>2026-04-25T16:09:35.662Z</time></trkpt><trkpt lat="41.2287207" lon="-7.9191648"><ele>1137.5</ele><time>2026-04-25T16:09:36.658Z</time></trkpt><trkpt lat="41.2286417" lon="-7.9192031"><ele>1138.0</ele><time>2026-04-25T16:09:37.667Z</time></trkpt><trkpt lat="41.2285639" lon="-7.9192304"><ele>1137.5714285714287</ele><time>2026-04-25T16:09:38.657Z</time></trkpt><trkpt lat="41.22849" lon="-7.9192479"><ele>1137.142857142857</ele><time>2026-04-25T16:09:39.657Z</time></trkpt><trkpt lat="41.2284157" lon="-7.9192495"><ele>1136.7142857142858</ele><time>2026-04-25T16:09:40.661Z</time></trkpt><trkpt lat="41.2283435" lon="-7.9192409"><ele>1136.2857142857142</ele><time>2026-04-25T16:09:41.666Z</time></trkpt><trkpt lat="41.2282711" lon="-7.91924"><ele>1135.857142857143</ele><time>2026-04-25T16:09:42.663Z</time></trkpt><trkpt lat="41.2281973" lon="-7.9192467"><ele>1135.4285714285716</ele><time>2026-04-25T16:09:43.66Z</time></trkpt><trkpt lat="41.228128" lon="-7.9192652"><ele>1135.0</ele><time>2026-04-25T16:09:44.659Z</time></trkpt><trkpt lat="41.2280613" lon="-7.919288"><ele>1133.142857142857</ele><time>2026-04-25T16:09:45.655Z</time></trkpt><trkpt lat="41.2279944" lon="-7.9193081"><ele>1131.2857142857142</ele><time>2026-04-25T16:09:46.655Z</time></trkpt><trkpt lat="41.227931" lon="-7.9193214"><ele>1129.4285714285713</ele><time>2026-04-25T16:09:47.661Z</time></trkpt><trkpt lat="41.2278651" lon="-7.9193289"><ele>1127.5714285714284</ele><time>2026-04-25T16:09:48.659Z</time></trkpt><trkpt lat="41.2277957" lon="-7.9193353"><ele>1125.7142857142856</ele><time>2026-04-25T16:09:49.656Z</time></trkpt><trkpt lat="41.2277262" lon="-7.9193375"><ele>1123.857142857143</ele><time>2026-04-25T16:09:50.658Z</time></trkpt><trkpt lat="41.2276548" lon="-7.9193416"><ele>1122.0</ele><time>2026-04-25T16:09:51.659Z</time></trkpt><trkpt lat="41.2275829" lon="-7.9193432"><ele>1122.0</ele><time>2026-04-25T16:09:52.658Z</time></trkpt><trkpt lat="41.2275119" lon="-7.9193549"><ele>1122.0</ele><time>2026-04-25T16:09:53.669Z</time></trkpt><trkpt lat="41.2274426" lon="-7.9193622"><ele>1122.0</ele><time>2026-04-25T16:09:54.66Z</time></trkpt><trkpt lat="41.2273785" lon="-7.9193653"><ele>1122.0</ele><time>2026-04-25T16:09:55.655Z</time></trkpt><trkpt lat="41.227262" lon="-7.9193523"><ele>1122.0</ele><time>2026-04-25T16:09:57.662Z</time></trkpt><trkpt lat="41.2271441" lon="-7.9193042"><ele>1122.0</ele><time>2026-04-25T16:09:59.656Z</time></trkpt><trkpt lat="41.2270347" lon="-7.9192373"><ele>1118.75</ele><time>2026-04-25T16:10:01.655Z</time></trkpt><trkpt lat="41.2269726" lon="-7.9191046"><ele>1115.5</ele><time>2026-04-25T16:10:03.66Z</time></trkpt><trkpt lat="41.2269278" lon="-7.9189547"><ele>1112.25</ele><time>2026-04-25T16:10:05.657Z</time></trkpt><trkpt lat="41.226892" lon="-7.9188064"><ele>1109.0</ele><time>2026-04-25T16:10:07.659Z</time></trkpt><trkpt lat="41.2267918" lon="-7.9187143"><ele>1109.0</ele><time>2026-04-25T16:10:09.658Z</time></trkpt><trkpt lat="41.2267312" lon="-7.9186792"><ele>1109.0</ele><time>2026-04-25T16:10:10.66Z</time></trkpt><trkpt lat="41.2266755" lon="-7.9186398"><ele>1109.0</ele><time>2026-04-25T16:10:11.669Z</time></trkpt><trkpt lat="41.2265628" lon="-7.9186086"><ele>1109.0</ele><time>2026-04-25T16:10:13.661Z</time></trkpt><trkpt lat="41.226452" lon="-7.9185941"><ele>1109.0</ele><time>2026-04-25T16:10:15.659Z</time></trkpt><trkpt lat="41.2263283" lon="-7.9186048"><ele>1107.2</ele><time>2026-04-25T16:10:17.661Z</time></trkpt><trkpt lat="41.2262186" lon="-7.9186363"><ele>1105.4</ele><time>2026-04-25T16:10:19.655Z</time></trkpt><trkpt lat="41.2261071" lon="-7.9186184"><ele>1103.6</ele><time>2026-04-25T16:10:21.661Z</time></trkpt><trkpt lat="41.2259866" lon="-7.9185732"><ele>1101.8</ele><time>2026-04-25T16:10:23.654Z</time></trkpt><trkpt lat="41.2259233" lon="-7.9185434"><ele>1100.0</ele><time>2026-04-25T16:10:24.66Z</time></trkpt><trkpt lat="41.2258133" lon="-7.9184791"><ele>1099.6</ele><time>2026-04-25T16:10:26.656Z</time></trkpt><trkpt lat="41.2257236" lon="-7.918368"><ele>1099.2</ele><time>2026-04-25T16:10:28.656Z</time></trkpt><trkpt lat="41.2256865" lon="-7.9182997"><ele>1098.8</ele><time>2026-04-25T16:10:29.659Z</time></trkpt><trkpt lat="41.2256181" lon="-7.9181643"><ele>1098.4</ele><time>2026-04-25T16:10:31.66Z</time></trkpt><trkpt lat="41.2255733" lon="-7.9181013"><ele>1098.0</ele><time>2026-04-25T16:10:32.665Z</time></trkpt><trkpt lat="41.2254753" lon="-7.9179948"><ele>1095.8333333333333</ele><time>2026-04-25T16:10:34.658Z</time></trkpt><trkpt lat="41.2253899" lon="-7.9179458"><ele>1093.6666666666667</ele><time>2026-04-25T16:10:36.657Z</time></trkpt><trkpt lat="41.2252983" lon="-7.9179251"><ele>1091.5</ele><time>2026-04-25T16:10:38.654Z</time></trkpt><trkpt lat="41.2252034" lon="-7.9178693"><ele>1089.3333333333335</ele><time>2026-04-25T16:10:40.658Z</time></trkpt><trkpt lat="41.2251284" lon="-7.9178272"><ele>1087.1666666666667</ele><time>2026-04-25T16:10:42.656Z</time></trkpt><trkpt lat="41.2250789" lon="-7.9177554"><ele>1085.0</ele><time>2026-04-25T16:10:44.659Z</time></trkpt><trkpt lat="41.2250812" lon="-7.91764"><ele>1084.8</ele><time>2026-04-25T16:10:46.655Z</time></trkpt><trkpt lat="41.2251088" lon="-7.9175269"><ele>1084.6</ele><time>2026-04-25T16:10:48.657Z</time></trkpt><trkpt lat="41.225142" lon="-7.917408"><ele>1084.4</ele><time>2026-04-25T16:10:50.653Z</time></trkpt><trkpt lat="41.2251716" lon="-7.9172865"><ele>1084.2</ele><time>2026-04-25T16:10:52.657Z</time></trkpt><trkpt lat="41.2251898" lon="-7.9171453"><ele>1084.0</ele><time>2026-04-25T16:10:54.667Z</time></trkpt><trkpt lat="41.2252264" lon="-7.916983"><ele>1084.0</ele><time>2026-04-25T16:10:56.656Z</time></trkpt><trkpt lat="41.2252453" lon="-7.9168357"><ele>1084.0</ele><time>2026-04-25T16:10:58.662Z</time></trkpt><trkpt lat="41.2252116" lon="-7.9167118"><ele>1084.0</ele><time>2026-04-25T16:11:00.661Z</time></trkpt><trkpt lat="41.2251335" lon="-7.9165934"><ele>1084.0</ele><time>2026-04-25T16:11:02.66Z</time></trkpt><trkpt lat="41.2250842" lon="-7.9165344"><ele>1084.0</ele><time>2026-04-25T16:11:03.657Z</time></trkpt><trkpt lat="41.225029" lon="-7.9164811"><ele>1083.1666666666665</ele><time>2026-04-25T16:11:04.656Z</time></trkpt><trkpt lat="41.2249567" lon="-7.9164501"><ele>1082.3333333333333</ele><time>2026-04-25T16:11:05.654Z</time></trkpt><trkpt lat="41.2248749" lon="-7.916427"><ele>1081.5</ele><time>2026-04-25T16:11:06.663Z</time></trkpt><trkpt lat="41.2247941" lon="-7.9164128"><ele>1080.6666666666667</ele><time>2026-04-25T16:11:07.657Z</time></trkpt><trkpt lat="41.2247187" lon="-7.916414"><ele>1079.8333333333335</ele><time>2026-04-25T16:11:08.659Z</time></trkpt><trkpt lat="41.2246097" lon="-7.9164842"><ele>1079.0</ele><time>2026-04-25T16:11:10.66Z</time></trkpt><trkpt lat="41.2245595" lon="-7.9165534"><ele>1078.6666666666667</ele><time>2026-04-25T16:11:11.662Z</time></trkpt><trkpt lat="41.2245079" lon="-7.9166131"><ele>1078.3333333333335</ele><time>2026-04-25T16:11:12.655Z</time></trkpt><trkpt lat="41.2244566" lon="-7.9166802"><ele>1078.0</ele><time>2026-04-25T16:11:13.658Z</time></trkpt><trkpt lat="41.2244027" lon="-7.9167292"><ele>1077.6666666666667</ele><time>2026-04-25T16:11:14.679Z</time></trkpt><trkpt lat="41.2243437" lon="-7.9167694"><ele>1077.3333333333333</ele><time>2026-04-25T16:11:15.665Z</time></trkpt><trkpt lat="41.2242389" lon="-7.9168475"><ele>1077.0</ele><time>2026-04-25T16:11:17.66Z</time></trkpt><trkpt lat="41.2241701" lon="-7.9168797"><ele>1077.0</ele><time>2026-04-25T16:11:18.656Z</time></trkpt><trkpt lat="41.2241015" lon="-7.9169022"><ele>1077.0</ele><time>2026-04-25T16:11:19.659Z</time></trkpt><trkpt lat="41.2239916" lon="-7.9168782"><ele>1077.0</ele><time>2026-04-25T16:11:21.658Z</time></trkpt><trkpt lat="41.223897" lon="-7.9168399"><ele>1077.0</ele><time>2026-04-25T16:11:23.653Z</time></trkpt><trkpt lat="41.2238314" lon="-7.9168099"><ele>1077.0</ele><time>2026-04-25T16:11:25.662Z</time></trkpt><trkpt lat="41.2238002" lon="-7.9167198"><ele>1077.0</ele><time>2026-04-25T16:12:55.653Z</time></trkpt><trkpt lat="41.2237464" lon="-7.9166761"><ele>1076.0</ele><time>2026-04-25T16:12:57.652Z</time></trkpt><trkpt lat="41.2236846" lon="-7.9166416"><ele>1075.0</ele><time>2026-04-25T16:12:59.657Z</time></trkpt><trkpt lat="41.2236105" lon="-7.9166211"><ele>1074.0</ele><time>2026-04-25T16:13:01.656Z</time></trkpt><trkpt lat="41.2235178" lon="-7.9166193"><ele>1073.0</ele><time>2026-04-25T16:13:03.657Z</time></trkpt><trkpt lat="41.2234308" lon="-7.9166002"><ele>1072.0</ele><time>2026-04-25T16:13:05.663Z</time></trkpt><trkpt lat="41.223354" lon="-7.9165866"><ele>1071.0</ele><time>2026-04-25T16:13:07.658Z</time></trkpt><trkpt lat="41.2232644" lon="-7.9165832"><ele>1071.0</ele><time>2026-04-25T16:13:09.652Z</time></trkpt><trkpt lat="41.2231689" lon="-7.9165604"><ele>1071.0</ele><time>2026-04-25T16:13:11.651Z</time></trkpt><trkpt lat="41.2230738" lon="-7.9165273"><ele>1071.0</ele><time>2026-04-25T16:13:13.655Z</time></trkpt><trkpt lat="41.2229721" lon="-7.9165093"><ele>1071.0</ele><time>2026-04-25T16:13:15.658Z</time></trkpt><trkpt lat="41.2228686" lon="-7.9165104"><ele>1071.0</ele><time>2026-04-25T16:13:17.656Z</time></trkpt><trkpt lat="41.2227623" lon="-7.9165004"><ele>1068.8333333333333</ele><time>2026-04-25T16:13:19.659Z</time></trkpt><trkpt lat="41.2226624" lon="-7.9164578"><ele>1066.6666666666667</ele><time>2026-04-25T16:13:21.657Z</time></trkpt><trkpt lat="41.222583" lon="-7.9164122"><ele>1064.5</ele><time>2026-04-25T16:13:23.655Z</time></trkpt><trkpt lat="41.2224961" lon="-7.9163538"><ele>1062.3333333333335</ele><time>2026-04-25T16:13:25.655Z</time></trkpt><trkpt lat="41.2224282" lon="-7.9163057"><ele>1060.1666666666667</ele><time>2026-04-25T16:13:27.653Z</time></trkpt><trkpt lat="41.222355" lon="-7.9162624"><ele>1058.0</ele><time>2026-04-25T16:13:29.65Z</time></trkpt><trkpt lat="41.2222706" lon="-7.9162272"><ele>1053.6666666666667</ele><time>2026-04-25T16:13:31.66Z</time></trkpt><trkpt lat="41.2221795" lon="-7.9162608"><ele>1049.3333333333335</ele><time>2026-04-25T16:13:33.653Z</time></trkpt><trkpt lat="41.2220993" lon="-7.9163349"><ele>1045.0</ele><time>2026-04-25T16:13:35.662Z</time></trkpt><trkpt lat="41.222039" lon="-7.9164042"><ele>1040.6666666666667</ele><time>2026-04-25T16:13:37.651Z</time></trkpt><trkpt lat="41.2219853" lon="-7.9164568"><ele>1036.3333333333333</ele><time>2026-04-25T16:13:39.654Z</time></trkpt><trkpt lat="41.2219247" lon="-7.9165239"><ele>1032.0</ele><time>2026-04-25T16:13:41.66Z</time></trkpt><trkpt lat="41.2218491" lon="-7.916603"><ele>1032.0</ele><time>2026-04-25T16:13:43.654Z</time></trkpt><trkpt lat="41.2217799" lon="-7.9166512"><ele>1032.0</ele><time>2026-04-25T16:13:45.663Z</time></trkpt><trkpt lat="41.2216737" lon="-7.9166682"><ele>1032.0</ele><time>2026-04-25T16:13:48.657Z</time></trkpt><trkpt lat="41.2215898" lon="-7.9166863"><ele>1032.0</ele><time>2026-04-25T16:13:50.653Z</time></trkpt><trkpt lat="41.2215258" lon="-7.9166489"><ele>1032.0</ele><time>2026-04-25T16:13:53.653Z</time></trkpt><trkpt lat="41.2214389" lon="-7.9166089"><ele>1032.0</ele><time>2026-04-25T16:13:56.66Z</time></trkpt><trkpt lat="41.2213537" lon="-7.9165847"><ele>1028.0</ele><time>2026-04-25T16:13:59.664Z</time></trkpt><trkpt lat="41.2212915" lon="-7.9165412"><ele>1024.0</ele><time>2026-04-25T16:14:02.649Z</time></trkpt><trkpt lat="41.2212286" lon="-7.9164872"><ele>1020.0</ele><time>2026-04-25T16:14:05.655Z</time></trkpt><trkpt lat="41.2211545" lon="-7.9164295"><ele>1016.0</ele><time>2026-04-25T16:14:08.656Z</time></trkpt><trkpt lat="41.2210905" lon="-7.9163644"><ele>1012.0</ele><time>2026-04-25T16:14:10.657Z</time></trkpt><trkpt lat="41.2210448" lon="-7.9162592"><ele>1008.0</ele><time>2026-04-25T16:14:12.658Z</time></trkpt><trkpt lat="41.2209949" lon="-7.9162023"><ele>1008.0</ele><time>2026-04-25T16:14:13.655Z</time></trkpt><trkpt lat="41.2209335" lon="-7.9161795"><ele>1008.0</ele><time>2026-04-25T16:14:14.651Z</time></trkpt><trkpt lat="41.2208401" lon="-7.916115"><ele>1008.0</ele><time>2026-04-25T16:14:16.653Z</time></trkpt><trkpt lat="41.2207553" lon="-7.9160446"><ele>1008.0</ele><time>2026-04-25T16:14:18.655Z</time></trkpt><trkpt lat="41.2206722" lon="-7.9159764"><ele>1008.0</ele><time>2026-04-25T16:14:20.656Z</time></trkpt><trkpt lat="41.2206196" lon="-7.915929"><ele>1008.0</ele><time>2026-04-25T16:14:22.653Z</time></trkpt><trkpt lat="41.2205802" lon="-7.9158634"><ele>1003.8333333333334</ele><time>2026-04-25T16:14:25.65Z</time></trkpt><trkpt lat="41.2205473" lon="-7.9157519"><ele>999.6666666666667</ele><time>2026-04-25T16:14:28.651Z</time></trkpt><trkpt lat="41.2205472" lon="-7.915668"><ele>995.5</ele><time>2026-04-25T16:14:30.657Z</time></trkpt><trkpt lat="41.2205272" lon="-7.9155589"><ele>991.3333333333334</ele><time>2026-04-25T16:14:33.652Z</time></trkpt><trkpt lat="41.2205251" lon="-7.9154481"><ele>987.1666666666667</ele><time>2026-04-25T16:14:35.663Z</time></trkpt><trkpt lat="41.2205406" lon="-7.9153395"><ele>983.0</ele><time>2026-04-25T16:14:37.653Z</time></trkpt><trkpt lat="41.2205462" lon="-7.9152414"><ele>982.9999999999999</ele><time>2026-04-25T16:14:39.652Z</time></trkpt><trkpt lat="41.2205639" lon="-7.915136"><ele>983.0</ele><time>2026-04-25T16:14:42.655Z</time></trkpt><trkpt lat="41.2205554" lon="-7.9150379"><ele>982.9999999999999</ele><time>2026-04-25T16:14:45.651Z</time></trkpt><trkpt lat="41.2205811" lon="-7.9149608"><ele>982.9999999999999</ele><time>2026-04-25T16:14:48.653Z</time></trkpt><trkpt lat="41.2206228" lon="-7.9148851"><ele>983.0</ele><time>2026-04-25T16:14:52.656Z</time></trkpt><trkpt lat="41.2206462" lon="-7.9147996"><ele>982.9999999999999</ele><time>2026-04-25T16:14:54.662Z</time></trkpt><trkpt lat="41.2206449" lon="-7.9146956"><ele>982.9999999999999</ele><time>2026-04-25T16:14:57.652Z</time></trkpt><trkpt lat="41.2206378" lon="-7.9145745"><ele>982.1666666666667</ele><time>2026-04-25T16:15:00.655Z</time></trkpt><trkpt lat="41.2206215" lon="-7.9144747"><ele>981.3333333333334</ele><time>2026-04-25T16:15:02.655Z</time></trkpt><trkpt lat="41.2206733" lon="-7.9143765"><ele>980.5</ele><time>2026-04-25T16:15:04.653Z</time></trkpt><trkpt lat="41.2207632" lon="-7.9144038"><ele>979.6666666666667</ele><time>2026-04-25T16:15:07.652Z</time></trkpt><trkpt lat="41.2208247" lon="-7.914467"><ele>978.8333333333334</ele><time>2026-04-25T16:15:15.661Z</time></trkpt><trkpt lat="41.2208881" lon="-7.9144693"><ele>978.0</ele><time>2026-04-25T16:15:18.668Z</time></trkpt><trkpt lat="41.2209321" lon="-7.9144031"><ele>978.0</ele><time>2026-04-25T16:15:31.652Z</time></trkpt><trkpt lat="41.220962" lon="-7.9143179"><ele>978.0</ele><time>2026-04-25T16:15:34.653Z</time></trkpt><trkpt lat="41.2209753" lon="-7.9142326"><ele>978.0</ele><time>2026-04-25T16:15:36.652Z</time></trkpt><trkpt lat="41.2209978" lon="-7.9141347"><ele>978.0</ele><time>2026-04-25T16:15:39.652Z</time></trkpt><trkpt lat="41.2209824" lon="-7.9140305"><ele>978.0</ele><time>2026-04-25T16:15:43.655Z</time></trkpt><trkpt lat="41.220964" lon="-7.9139405"><ele>978.0</ele><time>2026-04-25T16:15:46.665Z</time></trkpt><trkpt lat="41.2209114" lon="-7.9138454"><ele>974.1666666666666</ele><time>2026-04-25T16:15:50.665Z</time></trkpt><trkpt lat="41.2208803" lon="-7.9137574"><ele>970.3333333333333</ele><time>2026-04-25T16:15:52.652Z</time></trkpt><trkpt lat="41.2208571" lon="-7.9136593"><ele>966.5</ele><time>2026-04-25T16:15:54.655Z</time></trkpt><trkpt lat="41.2208157" lon="-7.9135571"><ele>962.6666666666666</ele><time>2026-04-25T16:16:29.65Z</time></trkpt><trkpt lat="41.2207679" lon="-7.9134718"><ele>958.8333333333333</ele><time>2026-04-25T16:16:33.656Z</time></trkpt><trkpt lat="41.2207359" lon="-7.9133853"><ele>955.0</ele><time>2026-04-25T16:16:35.654Z</time></trkpt><trkpt lat="41.2206792" lon="-7.9132926"><ele>951.4999999999999</ele><time>2026-04-25T16:16:37.655Z</time></trkpt><trkpt lat="41.2206096" lon="-7.913213"><ele>948.0</ele><time>2026-04-25T16:16:39.652Z</time></trkpt><trkpt lat="41.2205476" lon="-7.9131279"><ele>944.5</ele><time>2026-04-25T16:16:41.653Z</time></trkpt><trkpt lat="41.2204981" lon="-7.9130401"><ele>941.0</ele><time>2026-04-25T16:16:43.653Z</time></trkpt><trkpt lat="41.2204547" lon="-7.9129199"><ele>937.4999999999999</ele><time>2026-04-25T16:16:45.658Z</time></trkpt><trkpt lat="41.2204287" lon="-7.9128274"><ele>934.0</ele><time>2026-04-25T16:16:47.654Z</time></trkpt><trkpt lat="41.2204153" lon="-7.9127399"><ele>933.9999999999999</ele><time>2026-04-25T16:16:49.656Z</time></trkpt><trkpt lat="41.2203912" lon="-7.9126284"><ele>934.0</ele><time>2026-04-25T16:16:51.654Z</time></trkpt><trkpt lat="41.2203363" lon="-7.9125249"><ele>934.0</ele><time>2026-04-25T16:16:53.656Z</time></trkpt><trkpt lat="41.2202561" lon="-7.9124699"><ele>934.0</ele><time>2026-04-25T16:16:55.652Z</time></trkpt><trkpt lat="41.2201828" lon="-7.9124403"><ele>933.9999999999999</ele><time>2026-04-25T16:16:57.653Z</time></trkpt><trkpt lat="41.220111" lon="-7.9123837"><ele>934.0</ele><time>2026-04-25T16:16:59.655Z</time></trkpt><trkpt lat="41.2200435" lon="-7.9122988"><ele>931.8000000000001</ele><time>2026-04-25T16:17:01.662Z</time></trkpt><trkpt lat="41.2199954" lon="-7.9121819"><ele>929.6000000000001</ele><time>2026-04-25T16:17:03.654Z</time></trkpt><trkpt lat="41.2199427" lon="-7.9120739"><ele>927.4</ele><time>2026-04-25T16:17:05.656Z</time></trkpt><trkpt lat="41.2198782" lon="-7.9119701"><ele>925.2</ele><time>2026-04-25T16:17:07.649Z</time></trkpt><trkpt lat="41.2198279" lon="-7.9118611"><ele>923.0</ele><time>2026-04-25T16:17:09.652Z</time></trkpt><trkpt lat="41.2197812" lon="-7.9117684"><ele>920.1428571428571</ele><time>2026-04-25T16:17:11.659Z</time></trkpt><trkpt lat="41.2197348" lon="-7.9117037"><ele>917.2857142857143</ele><time>2026-04-25T16:17:13.652Z</time></trkpt><trkpt lat="41.2196941" lon="-7.9116214"><ele>914.4285714285714</ele><time>2026-04-25T16:17:17.652Z</time></trkpt><trkpt lat="41.2196629" lon="-7.9115442"><ele>911.5714285714286</ele><time>2026-04-25T16:17:19.652Z</time></trkpt><trkpt lat="41.2196082" lon="-7.9114834"><ele>908.7142857142858</ele><time>2026-04-25T16:17:21.66Z</time></trkpt><trkpt lat="41.2195431" lon="-7.9114411"><ele>905.8571428571429</ele><time>2026-04-25T16:17:23.651Z</time></trkpt><trkpt lat="41.2194793" lon="-7.9113962"><ele>903.0</ele><time>2026-04-25T16:17:25.654Z</time></trkpt><trkpt lat="41.2194062" lon="-7.911326"><ele>903.0</ele><time>2026-04-25T16:17:28.654Z</time></trkpt><trkpt lat="41.2193383" lon="-7.911285"><ele>903.0</ele><time>2026-04-25T16:17:31.661Z</time></trkpt><trkpt lat="41.2192879" lon="-7.9112259"><ele>903.0</ele><time>2026-04-25T16:17:44.658Z</time></trkpt><trkpt lat="41.2192771" lon="-7.9111378"><ele>903.0</ele><time>2026-04-25T16:17:48.651Z</time></trkpt><trkpt lat="41.2193415" lon="-7.9110942"><ele>903.0</ele><time>2026-04-25T16:17:50.655Z</time></trkpt><trkpt lat="41.2194112" lon="-7.911013"><ele>903.0</ele><time>2026-04-25T16:17:52.65Z</time></trkpt><trkpt lat="41.2194861" lon="-7.9109254"><ele>900.8</ele><time>2026-04-25T16:17:54.652Z</time></trkpt><trkpt lat="41.2195238" lon="-7.910844"><ele>898.5999999999999</ele><time>2026-04-25T16:17:57.65Z</time></trkpt><trkpt lat="41.2194865" lon="-7.9107233"><ele>896.4000000000001</ele><time>2026-04-25T16:18:04.656Z</time></trkpt><trkpt lat="41.2194191" lon="-7.9106384"><ele>894.2</ele><time>2026-04-25T16:18:06.657Z</time></trkpt><trkpt lat="41.2193306" lon="-7.9105769"><ele>892.0</ele><time>2026-04-25T16:18:08.66Z</time></trkpt><trkpt lat="41.2192422" lon="-7.9105309"><ele>892.0</ele><time>2026-04-25T16:18:10.652Z</time></trkpt><trkpt lat="41.2191709" lon="-7.9105038"><ele>892.0</ele><time>2026-04-25T16:18:12.649Z</time></trkpt><trkpt lat="41.2191062" lon="-7.9104868"><ele>892.0</ele><time>2026-04-25T16:18:14.656Z</time></trkpt><trkpt lat="41.2190472" lon="-7.9104268"><ele>892.0</ele><time>2026-04-25T16:18:16.652Z</time></trkpt><trkpt lat="41.2189838" lon="-7.910379"><ele>892.0</ele><time>2026-04-25T16:18:18.654Z</time></trkpt><trkpt lat="41.2189229" lon="-7.9103495"><ele>892.0</ele><time>2026-04-25T16:18:20.655Z</time></trkpt><trkpt lat="41.2188578" lon="-7.9103507"><ele>892.0</ele><time>2026-04-25T16:18:22.647Z</time></trkpt><trkpt lat="41.2187838" lon="-7.9102824"><ele>890.1666666666666</ele><time>2026-04-25T16:18:25.654Z</time></trkpt><trkpt lat="41.218737" lon="-7.9102147"><ele>888.3333333333333</ele><time>2026-04-25T16:18:27.649Z</time></trkpt><trkpt lat="41.2186888" lon="-7.9101413"><ele>886.5</ele><time>2026-04-25T16:18:30.65Z</time></trkpt><trkpt lat="41.2186337" lon="-7.9100619"><ele>884.6666666666667</ele><time>2026-04-25T16:18:33.655Z</time></trkpt><trkpt lat="41.2185799" lon="-7.9099867"><ele>882.8333333333334</ele><time>2026-04-25T16:18:36.651Z</time></trkpt><trkpt lat="41.2185049" lon="-7.9099279"><ele>881.0</ele><time>2026-04-25T16:18:40.653Z</time></trkpt><trkpt lat="41.218467" lon="-7.9098597"><ele>878.5714285714286</ele><time>2026-04-25T16:18:42.654Z</time></trkpt><trkpt lat="41.2184231" lon="-7.9097777"><ele>876.1428571428572</ele><time>2026-04-25T16:18:45.651Z</time></trkpt><trkpt lat="41.2183668" lon="-7.9097397"><ele>873.7142857142858</ele><time>2026-04-25T16:18:48.656Z</time></trkpt><trkpt lat="41.218323" lon="-7.9096541"><ele>871.2857142857142</ele><time>2026-04-25T16:18:51.656Z</time></trkpt><trkpt lat="41.2182596" lon="-7.9096015"><ele>868.8571428571429</ele><time>2026-04-25T16:18:54.66Z</time></trkpt><trkpt lat="41.2182126" lon="-7.9095247"><ele>866.4285714285714</ele><time>2026-04-25T16:18:58.653Z</time></trkpt><trkpt lat="41.2182387" lon="-7.9094479"><ele>864.0</ele><time>2026-04-25T16:19:00.659Z</time></trkpt><trkpt lat="41.2182753" lon="-7.9093662"><ele>864.0</ele><time>2026-04-25T16:19:02.659Z</time></trkpt><trkpt lat="41.2183466" lon="-7.9093043"><ele>864.0</ele><time>2026-04-25T16:19:05.66Z</time></trkpt><trkpt lat="41.2184135" lon="-7.9092198"><ele>864.0</ele><time>2026-04-25T16:19:09.65Z</time></trkpt><trkpt lat="41.218382" lon="-7.9091329"><ele>864.0</ele><time>2026-04-25T16:19:13.65Z</time></trkpt><trkpt lat="41.2182996" lon="-7.9090772"><ele>864.0</ele><time>2026-04-25T16:19:15.647Z</time></trkpt><trkpt lat="41.218251" lon="-7.9090061"><ele>864.0</ele><time>2026-04-25T16:19:17.653Z</time></trkpt><trkpt lat="41.2181999" lon="-7.9089449"><ele>860.0</ele><time>2026-04-25T16:19:19.658Z</time></trkpt><trkpt lat="41.218155" lon="-7.9088541"><ele>856.0</ele><time>2026-04-25T16:19:22.65Z</time></trkpt><trkpt lat="41.2181252" lon="-7.9087656"><ele>852.0</ele><time>2026-04-25T16:19:25.654Z</time></trkpt><trkpt lat="41.2180726" lon="-7.9086595"><ele>848.0</ele><time>2026-04-25T16:19:28.65Z</time></trkpt><trkpt lat="41.2180515" lon="-7.9085505"><ele>844.0</ele><time>2026-04-25T16:19:31.649Z</time></trkpt><trkpt lat="41.2180243" lon="-7.9084547"><ele>840.0</ele><time>2026-04-25T16:19:33.651Z</time></trkpt><trkpt lat="41.2179828" lon="-7.9083475"><ele>835.8571428571429</ele><time>2026-04-25T16:19:35.653Z</time></trkpt><trkpt lat="41.2179484" lon="-7.9082714"><ele>831.7142857142858</ele><time>2026-04-25T16:19:38.658Z</time></trkpt><trkpt lat="41.2179075" lon="-7.9082067"><ele>827.5714285714286</ele><time>2026-04-25T16:19:41.658Z</time></trkpt><trkpt lat="41.2178772" lon="-7.908113"><ele>823.4285714285714</ele><time>2026-04-25T16:19:43.652Z</time></trkpt><trkpt lat="41.2178336" lon="-7.9080286"><ele>819.2857142857143</ele><time>2026-04-25T16:19:47.657Z</time></trkpt><trkpt lat="41.2178487" lon="-7.9079089"><ele>815.1428571428571</ele><time>2026-04-25T16:19:50.654Z</time></trkpt><trkpt lat="41.2178087" lon="-7.9078399"><ele>811.0</ele><time>2026-04-25T16:19:52.65Z</time></trkpt><trkpt lat="41.2177455" lon="-7.9078077"><ele>810.9999999999999</ele><time>2026-04-25T16:19:55.651Z</time></trkpt><trkpt lat="41.2176701" lon="-7.90774"><ele>811.0</ele><time>2026-04-25T16:19:58.651Z</time></trkpt><trkpt lat="41.2176166" lon="-7.9076472"><ele>811.0</ele><time>2026-04-25T16:20:01.661Z</time></trkpt><trkpt lat="41.2175351" lon="-7.9076026"><ele>811.0</ele><time>2026-04-25T16:20:04.652Z</time></trkpt><trkpt lat="41.2174753" lon="-7.9075362"><ele>810.9999999999999</ele><time>2026-04-25T16:20:06.663Z</time></trkpt><trkpt lat="41.2174182" lon="-7.9074573"><ele>811.0</ele><time>2026-04-25T16:20:08.655Z</time></trkpt><trkpt lat="41.2173528" lon="-7.9074173"><ele>808.7142857142857</ele><time>2026-04-25T16:20:10.657Z</time></trkpt><trkpt lat="41.2172898" lon="-7.9074083"><ele>806.4285714285714</ele><time>2026-04-25T16:20:12.655Z</time></trkpt><trkpt lat="41.2172155" lon="-7.9074122"><ele>804.1428571428571</ele><time>2026-04-25T16:20:14.647Z</time></trkpt><trkpt lat="41.2171495" lon="-7.9074081"><ele>801.8571428571429</ele><time>2026-04-25T16:20:16.662Z</time></trkpt><trkpt lat="41.2170609" lon="-7.9074247"><ele>799.5714285714287</ele><time>2026-04-25T16:20:19.651Z</time></trkpt><trkpt lat="41.2170289" lon="-7.9075188"><ele>797.2857142857143</ele><time>2026-04-25T16:20:21.655Z</time></trkpt><trkpt lat="41.2169709" lon="-7.907578"><ele>795.0</ele><time>2026-04-25T16:20:26.653Z</time></trkpt><trkpt lat="41.2168929" lon="-7.9075945"><ele>795.0</ele><time>2026-04-25T16:20:56.653Z</time></trkpt><trkpt lat="41.2168998" lon="-7.9077397"><ele>795.0</ele><time>2026-04-25T16:21:03.653Z</time></trkpt><trkpt lat="41.2169068" lon="-7.9078609"><ele>795.0</ele><time>2026-04-25T16:21:04.647Z</time></trkpt><trkpt lat="41.2169155" lon="-7.9079967"><ele>795.0</ele><time>2026-04-25T16:21:05.66Z</time></trkpt><trkpt lat="41.2169147" lon="-7.9080924"><ele>795.0</ele><time>2026-04-25T16:21:06.652Z</time></trkpt><trkpt lat="41.2168807" lon="-7.9082638"><ele>795.0</ele><time>2026-04-25T16:21:08.653Z</time></trkpt><trkpt lat="41.2168598" lon="-7.9083702"><ele>795.0</ele><time>2026-04-25T16:21:09.656Z</time></trkpt><trkpt lat="41.2168399" lon="-7.9084841"><ele>795.0</ele><time>2026-04-25T16:21:10.653Z</time></trkpt><trkpt lat="41.2168191" lon="-7.908601"><ele>795.0</ele><time>2026-04-25T16:21:11.651Z</time></trkpt><trkpt lat="41.2167996" lon="-7.9087219"><ele>795.0</ele><time>2026-04-25T16:21:12.648Z</time></trkpt><trkpt lat="41.2167817" lon="-7.9088271"><ele>795.0</ele><time>2026-04-25T16:21:13.65Z</time></trkpt><trkpt lat="41.2167674" lon="-7.9089213"><ele>796.5</ele><time>2026-04-25T16:21:14.659Z</time></trkpt><trkpt lat="41.2167304" lon="-7.9090598"><ele>798.0</ele><time>2026-04-25T16:21:16.653Z</time></trkpt><trkpt lat="41.2167077" lon="-7.9091632"><ele>799.5</ele><time>2026-04-25T16:21:18.65Z</time></trkpt><trkpt lat="41.2166507" lon="-7.9092052"><ele>801.0</ele><time>2026-04-25T16:21:21.648Z</time></trkpt><trkpt lat="41.2165685" lon="-7.909149"><ele>802.5</ele><time>2026-04-25T16:21:24.65Z</time></trkpt><trkpt lat="41.2164995" lon="-7.9091238"><ele>804.0</ele><time>2026-04-25T16:21:26.656Z</time></trkpt><trkpt lat="41.2164295" lon="-7.9090668"><ele>804.0</ele><time>2026-04-25T16:21:29.651Z</time></trkpt><trkpt lat="41.2163606" lon="-7.9090291"><ele>804.0</ele><time>2026-04-25T16:21:33.65Z</time></trkpt><trkpt lat="41.2163144" lon="-7.9089667"><ele>804.0</ele><time>2026-04-25T16:22:24.646Z</time></trkpt><trkpt lat="41.2163274" lon="-7.9088838"><ele>804.0</ele><time>2026-04-25T16:25:43.653Z</time></trkpt><trkpt lat="41.2163995" lon="-7.9089007"><ele>804.0</ele><time>2026-04-25T16:52:44.632Z</time></trkpt><trkpt lat="41.2164883" lon="-7.9089182"><ele>804.0</ele><time>2026-04-25T16:52:48.641Z</time></trkpt><trkpt lat="41.2165671" lon="-7.9089508"><ele>804.0</ele><time>2026-04-25T16:52:51.631Z</time></trkpt><trkpt lat="41.2166333" lon="-7.9089698"><ele>804.0</ele><time>2026-04-25T16:52:53.632Z</time></trkpt><trkpt lat="41.2167209" lon="-7.9089706"><ele>804.0</ele><time>2026-04-25T16:52:56.636Z</time></trkpt><trkpt lat="41.216784" lon="-7.9089189"><ele>804.0</ele><time>2026-04-25T16:53:00.632Z</time></trkpt><trkpt lat="41.2167893" lon="-7.9088133"><ele>804.0</ele><time>2026-04-25T16:53:03.632Z</time></trkpt><trkpt lat="41.2167885" lon="-7.90872"><ele>804.0</ele><time>2026-04-25T16:53:08.64Z</time></trkpt><trkpt lat="41.2168082" lon="-7.9086302"><ele>804.0</ele><time>2026-04-25T16:53:12.634Z</time></trkpt><trkpt lat="41.2168339" lon="-7.9085326"><ele>804.0</ele><time>2026-04-25T16:53:17.635Z</time></trkpt><trkpt lat="41.2168505" lon="-7.9084513"><ele>804.0</ele><time>2026-04-25T16:53:22.632Z</time></trkpt><trkpt lat="41.2168717" lon="-7.9083501"><ele>804.0</ele><time>2026-04-25T16:53:26.631Z</time></trkpt><trkpt lat="41.2168987" lon="-7.9082622"><ele>804.0</ele><time>2026-04-25T16:53:29.629Z</time></trkpt><trkpt lat="41.2169207" lon="-7.9081556"><ele>804.0</ele><time>2026-04-25T16:53:32.635Z</time></trkpt><trkpt lat="41.216935" lon="-7.9080634"><ele>804.0</ele><time>2026-04-25T16:53:35.637Z</time></trkpt><trkpt lat="41.2169127" lon="-7.9079559"><ele>802.2</ele><time>2026-04-25T16:53:38.629Z</time></trkpt><trkpt lat="41.216909" lon="-7.9078682"><ele>800.4000000000001</ele><time>2026-04-25T16:53:41.635Z</time></trkpt><trkpt lat="41.2169268" lon="-7.9077548"><ele>798.6</ele><time>2026-04-25T16:53:44.631Z</time></trkpt><trkpt lat="41.2169268" lon="-7.9076262"><ele>796.8</ele><time>2026-04-25T16:53:46.63Z</time></trkpt><trkpt lat="41.2169352" lon="-7.9074992"><ele>795.0</ele><time>2026-04-25T16:53:48.627Z</time></trkpt><trkpt lat="41.2169326" lon="-7.9073345"><ele>793.5</ele><time>2026-04-25T16:53:50.631Z</time></trkpt><trkpt lat="41.2169439" lon="-7.9072475"><ele>792.0</ele><time>2026-04-25T16:53:51.638Z</time></trkpt><trkpt lat="41.2169576" lon="-7.9071639"><ele>790.5</ele><time>2026-04-25T16:53:52.629Z</time></trkpt><trkpt lat="41.2169831" lon="-7.9070119"><ele>789.0</ele><time>2026-04-25T16:53:54.633Z</time></trkpt><trkpt lat="41.2170078" lon="-7.9069013"><ele>787.5</ele><time>2026-04-25T16:53:56.63Z</time></trkpt><trkpt lat="41.2170164" lon="-7.9068105"><ele>786.0</ele><time>2026-04-25T16:53:58.635Z</time></trkpt><trkpt lat="41.2169588" lon="-7.90674"><ele>786.0</ele><time>2026-04-25T16:54:01.629Z</time></trkpt><trkpt lat="41.216874" lon="-7.9067772"><ele>786.0</ele><time>2026-04-25T16:54:03.628Z</time></trkpt><trkpt lat="41.2167935" lon="-7.9068612"><ele>786.0</ele><time>2026-04-25T16:54:05.632Z</time></trkpt><trkpt lat="41.2167135" lon="-7.9069206"><ele>786.0</ele><time>2026-04-25T16:54:07.634Z</time></trkpt><trkpt lat="41.2166519" lon="-7.9069635"><ele>786.0</ele><time>2026-04-25T16:54:09.629Z</time></trkpt><trkpt lat="41.2165845" lon="-7.9069339"><ele>786.0</ele><time>2026-04-25T16:54:11.631Z</time></trkpt><trkpt lat="41.216526" lon="-7.9068525"><ele>786.0</ele><time>2026-04-25T16:54:13.642Z</time></trkpt><trkpt lat="41.2165056" lon="-7.9067732"><ele>786.0</ele><time>2026-04-25T16:54:15.632Z</time></trkpt><trkpt lat="41.2165331" lon="-7.9066785"><ele>786.0</ele><time>2026-04-25T16:54:17.63Z</time></trkpt><trkpt lat="41.2165782" lon="-7.9065526"><ele>786.0</ele><time>2026-04-25T16:54:19.64Z</time></trkpt><trkpt lat="41.2166236" lon="-7.9064378"><ele>786.0</ele><time>2026-04-25T16:54:21.63Z</time></trkpt><trkpt lat="41.216666" lon="-7.9063528"><ele>786.0</ele><time>2026-04-25T16:54:23.633Z</time></trkpt><trkpt lat="41.216679" lon="-7.9062486"><ele>784.5</ele><time>2026-04-25T16:54:25.636Z</time></trkpt><trkpt lat="41.216654" lon="-7.9061318"><ele>783.0</ele><time>2026-04-25T16:54:27.633Z</time></trkpt><trkpt lat="41.2166404" lon="-7.9060126"><ele>781.5</ele><time>2026-04-25T16:54:29.632Z</time></trkpt><trkpt lat="41.2167117" lon="-7.9059519"><ele>780.0</ele><time>2026-04-25T16:54:31.631Z</time></trkpt><trkpt lat="41.2167894" lon="-7.9059576"><ele>778.5</ele><time>2026-04-25T16:54:33.628Z</time></trkpt><trkpt lat="41.2168929" lon="-7.9059791"><ele>777.0</ele><time>2026-04-25T16:54:35.629Z</time></trkpt><trkpt lat="41.2169843" lon="-7.9059841"><ele>777.0</ele><time>2026-04-25T16:54:37.627Z</time></trkpt><trkpt lat="41.2170552" lon="-7.9059217"><ele>777.0</ele><time>2026-04-25T16:54:39.628Z</time></trkpt><trkpt lat="41.2171551" lon="-7.9058565"><ele>777.0</ele><time>2026-04-25T16:54:41.632Z</time></trkpt><trkpt lat="41.2172456" lon="-7.905806"><ele>777.0</ele><time>2026-04-25T16:54:43.629Z</time></trkpt><trkpt lat="41.2173221" lon="-7.9057285"><ele>777.0</ele><time>2026-04-25T16:54:45.632Z</time></trkpt><trkpt lat="41.2173839" lon="-7.90566"><ele>774.6666666666666</ele><time>2026-04-25T16:54:47.628Z</time></trkpt><trkpt lat="41.2174221" lon="-7.9055697"><ele>772.3333333333334</ele><time>2026-04-25T16:54:49.631Z</time></trkpt><trkpt lat="41.2174178" lon="-7.905463"><ele>770.0</ele><time>2026-04-25T16:54:51.631Z</time></trkpt><trkpt lat="41.217383" lon="-7.9053686"><ele>767.6666666666667</ele><time>2026-04-25T16:54:53.637Z</time></trkpt><trkpt lat="41.2173435" lon="-7.905263"><ele>765.3333333333334</ele><time>2026-04-25T16:54:55.63Z</time></trkpt><trkpt lat="41.2173052" lon="-7.9051307"><ele>763.0</ele><time>2026-04-25T16:54:57.636Z</time></trkpt><trkpt lat="41.2172474" lon="-7.905008"><ele>760.8333333333334</ele><time>2026-04-25T16:54:59.631Z</time></trkpt><trkpt lat="41.21721" lon="-7.9048525"><ele>758.6666666666667</ele><time>2026-04-25T16:55:01.634Z</time></trkpt><trkpt lat="41.2171931" lon="-7.9047682"><ele>756.5</ele><time>2026-04-25T16:55:02.637Z</time></trkpt><trkpt lat="41.2171603" lon="-7.9046913"><ele>754.3333333333334</ele><time>2026-04-25T16:55:03.634Z</time></trkpt><trkpt lat="41.2171244" lon="-7.9046096"><ele>752.1666666666666</ele><time>2026-04-25T16:55:04.631Z</time></trkpt><trkpt lat="41.2170886" lon="-7.904534"><ele>750.0</ele><time>2026-04-25T16:55:05.631Z</time></trkpt><trkpt lat="41.2170301" lon="-7.904465"><ele>750.0</ele><time>2026-04-25T16:55:06.627Z</time></trkpt><trkpt lat="41.2169707" lon="-7.9044214"><ele>750.0</ele><time>2026-04-25T16:55:07.625Z</time></trkpt><trkpt lat="41.2168483" lon="-7.9043394"><ele>750.0</ele><time>2026-04-25T16:55:09.633Z</time></trkpt><trkpt lat="41.2167684" lon="-7.9042937"><ele>750.0</ele><time>2026-04-25T16:55:10.63Z</time></trkpt><trkpt lat="41.2166876" lon="-7.9042462"><ele>750.0</ele><time>2026-04-25T16:55:11.632Z</time></trkpt><trkpt lat="41.2165907" lon="-7.9042044"><ele>752.2</ele><time>2026-04-25T16:55:12.636Z</time></trkpt><trkpt lat="41.2164922" lon="-7.9041651"><ele>754.4</ele><time>2026-04-25T16:55:13.633Z</time></trkpt><trkpt lat="41.2163992" lon="-7.9041134"><ele>756.5999999999999</ele><time>2026-04-25T16:55:14.632Z</time></trkpt><trkpt lat="41.2163017" lon="-7.9040632"><ele>758.8</ele><time>2026-04-25T16:55:15.63Z</time></trkpt><trkpt lat="41.2162145" lon="-7.9040233"><ele>761.0</ele><time>2026-04-25T16:55:16.632Z</time></trkpt><trkpt lat="41.2161199" lon="-7.9039991"><ele>761.0</ele><time>2026-04-25T16:55:17.635Z</time></trkpt><trkpt lat="41.2160243" lon="-7.9039679"><ele>761.0</ele><time>2026-04-25T16:55:18.628Z</time></trkpt><trkpt lat="41.215934" lon="-7.9039339"><ele>761.0</ele><time>2026-04-25T16:55:19.63Z</time></trkpt><trkpt lat="41.2158479" lon="-7.903936"><ele>761.0</ele><time>2026-04-25T16:55:20.631Z</time></trkpt><trkpt lat="41.2157569" lon="-7.9039463"><ele>761.0</ele><time>2026-04-25T16:55:21.636Z</time></trkpt><trkpt lat="41.2156666" lon="-7.9039446"><ele>762.3333333333333</ele><time>2026-04-25T16:55:22.629Z</time></trkpt><trkpt lat="41.2155845" lon="-7.9039427"><ele>763.6666666666666</ele><time>2026-04-25T16:55:23.631Z</time></trkpt><trkpt lat="41.2154987" lon="-7.9039436"><ele>765.0</ele><time>2026-04-25T16:55:24.638Z</time></trkpt><trkpt lat="41.2154298" lon="-7.9039285"><ele>766.3333333333333</ele><time>2026-04-25T16:55:25.638Z</time></trkpt><trkpt lat="41.2153503" lon="-7.9039139"><ele>767.6666666666666</ele><time>2026-04-25T16:55:26.631Z</time></trkpt><trkpt lat="41.2152586" lon="-7.9039257"><ele>769.0</ele><time>2026-04-25T16:55:27.632Z</time></trkpt><trkpt lat="41.2151855" lon="-7.9039545"><ele>768.9999999999999</ele><time>2026-04-25T16:55:28.628Z</time></trkpt><trkpt lat="41.2151052" lon="-7.9039762"><ele>769.0</ele><time>2026-04-25T16:55:29.63Z</time></trkpt><trkpt lat="41.215029" lon="-7.9039907"><ele>769.0</ele><time>2026-04-25T16:55:30.632Z</time></trkpt><trkpt lat="41.2149327" lon="-7.9040271"><ele>769.0</ele><time>2026-04-25T16:55:32.629Z</time></trkpt><trkpt lat="41.2148652" lon="-7.9040465"><ele>768.9999999999999</ele><time>2026-04-25T16:55:34.634Z</time></trkpt><trkpt lat="41.2148995" lon="-7.903968"><ele>769.0</ele><time>2026-04-25T16:55:45.628Z</time></trkpt><trkpt lat="41.2149962" lon="-7.9039574"><ele>769.0</ele><time>2026-04-25T16:55:47.628Z</time></trkpt><trkpt lat="41.2151023" lon="-7.903891"><ele>769.0</ele><time>2026-04-25T16:55:49.635Z</time></trkpt><trkpt lat="41.2151668" lon="-7.9038599"><ele>769.0</ele><time>2026-04-25T16:55:50.63Z</time></trkpt><trkpt lat="41.2152305" lon="-7.9038361"><ele>769.0</ele><time>2026-04-25T16:55:51.627Z</time></trkpt><trkpt lat="41.2153171" lon="-7.9037798"><ele>769.0</ele><time>2026-04-25T16:55:53.633Z</time></trkpt><trkpt lat="41.2154405" lon="-7.9037769"><ele>768.9999999999999</ele><time>2026-04-25T16:55:55.641Z</time></trkpt><trkpt lat="41.2155262" lon="-7.9037659"><ele>769.0</ele><time>2026-04-25T16:55:56.633Z</time></trkpt><trkpt lat="41.2156037" lon="-7.9037549"><ele>769.0</ele><time>2026-04-25T16:55:57.632Z</time></trkpt><trkpt lat="41.2156851" lon="-7.9037451"><ele>769.0</ele><time>2026-04-25T16:55:58.632Z</time></trkpt><trkpt lat="41.2157642" lon="-7.9037131"><ele>768.9999999999999</ele><time>2026-04-25T16:55:59.626Z</time></trkpt><trkpt lat="41.2158498" lon="-7.9036829"><ele>769.0</ele><time>2026-04-25T16:56:00.63Z</time></trkpt><trkpt lat="41.2159532" lon="-7.9036558"><ele>767.4000000000001</ele><time>2026-04-25T16:56:01.633Z</time></trkpt><trkpt lat="41.2160545" lon="-7.9036364"><ele>765.8</ele><time>2026-04-25T16:56:02.632Z</time></trkpt><trkpt lat="41.2161442" lon="-7.9036153"><ele>764.2</ele><time>2026-04-25T16:56:03.631Z</time></trkpt><trkpt lat="41.2162355" lon="-7.9035984"><ele>762.5999999999999</ele><time>2026-04-25T16:56:04.632Z</time></trkpt><trkpt lat="41.2163315" lon="-7.9035942"><ele>761.0</ele><time>2026-04-25T16:56:05.629Z</time></trkpt><trkpt lat="41.2164352" lon="-7.903588"><ele>762.3333333333333</ele><time>2026-04-25T16:56:06.63Z</time></trkpt><trkpt lat="41.216537" lon="-7.9035905"><ele>763.6666666666666</ele><time>2026-04-25T16:56:07.63Z</time></trkpt><trkpt lat="41.2166266" lon="-7.9035903"><ele>765.0</ele><time>2026-04-25T16:56:08.632Z</time></trkpt><trkpt lat="41.2166954" lon="-7.9036025"><ele>766.3333333333333</ele><time>2026-04-25T16:56:09.628Z</time></trkpt><trkpt lat="41.2167728" lon="-7.9036061"><ele>767.6666666666666</ele><time>2026-04-25T16:56:10.628Z</time></trkpt><trkpt lat="41.2168449" lon="-7.903609"><ele>769.0</ele><time>2026-04-25T16:56:11.63Z</time></trkpt><trkpt lat="41.2169219" lon="-7.9035944"><ele>768.9999999999999</ele><time>2026-04-25T16:56:12.631Z</time></trkpt><trkpt lat="41.216996" lon="-7.9035711"><ele>769.0</ele><time>2026-04-25T16:56:13.633Z</time></trkpt><trkpt lat="41.2170765" lon="-7.9035341"><ele>769.0</ele><time>2026-04-25T16:56:14.63Z</time></trkpt><trkpt lat="41.2171444" lon="-7.9034835"><ele>769.0</ele><time>2026-04-25T16:56:15.624Z</time></trkpt><trkpt lat="41.2172225" lon="-7.9034247"><ele>768.9999999999999</ele><time>2026-04-25T16:56:16.629Z</time></trkpt><trkpt lat="41.2172902" lon="-7.9033542"><ele>769.0</ele><time>2026-04-25T16:56:17.634Z</time></trkpt><trkpt lat="41.2173586" lon="-7.9032611"><ele>773.2</ele><time>2026-04-25T16:56:18.628Z</time></trkpt><trkpt lat="41.2174275" lon="-7.9031569"><ele>777.4000000000001</ele><time>2026-04-25T16:56:19.629Z</time></trkpt><trkpt lat="41.2174903" lon="-7.9030542"><ele>781.6</ele><time>2026-04-25T16:56:20.629Z</time></trkpt><trkpt lat="41.2175522" lon="-7.902958"><ele>785.8</ele><time>2026-04-25T16:56:21.632Z</time></trkpt><trkpt lat="41.2176302" lon="-7.9028575"><ele>790.0</ele><time>2026-04-25T16:56:22.629Z</time></trkpt><trkpt lat="41.2176942" lon="-7.9027675"><ele>789.9999999999999</ele><time>2026-04-25T16:56:23.626Z</time></trkpt><trkpt lat="41.2177543" lon="-7.9026844"><ele>790.0</ele><time>2026-04-25T16:56:24.638Z</time></trkpt><trkpt lat="41.2178281" lon="-7.9026236"><ele>790.0</ele><time>2026-04-25T16:56:25.628Z</time></trkpt><trkpt lat="41.2178929" lon="-7.9025722"><ele>790.0</ele><time>2026-04-25T16:56:26.632Z</time></trkpt><trkpt lat="41.2179671" lon="-7.9025186"><ele>789.9999999999999</ele><time>2026-04-25T16:56:27.63Z</time></trkpt><trkpt lat="41.2180502" lon="-7.9024867"><ele>790.0</ele><time>2026-04-25T16:56:28.635Z</time></trkpt><trkpt lat="41.2181447" lon="-7.9024524"><ele>792.4999999999999</ele><time>2026-04-25T16:56:29.63Z</time></trkpt><trkpt lat="41.2182256" lon="-7.902409"><ele>795.0</ele><time>2026-04-25T16:56:30.64Z</time></trkpt><trkpt lat="41.2182985" lon="-7.9023631"><ele>797.5</ele><time>2026-04-25T16:56:31.633Z</time></trkpt><trkpt lat="41.2183745" lon="-7.902309"><ele>800.0</ele><time>2026-04-25T16:56:32.631Z</time></trkpt><trkpt lat="41.2184362" lon="-7.9022325"><ele>802.4999999999999</ele><time>2026-04-25T16:56:33.626Z</time></trkpt><trkpt lat="41.2184879" lon="-7.9021404"><ele>805.0</ele><time>2026-04-25T16:56:34.633Z</time></trkpt><trkpt lat="41.2185474" lon="-7.9020405"><ele>805.0</ele><time>2026-04-25T16:56:35.634Z</time></trkpt><trkpt lat="41.2186175" lon="-7.9019294"><ele>805.0</ele><time>2026-04-25T16:56:36.635Z</time></trkpt><trkpt lat="41.2186854" lon="-7.9018102"><ele>805.0</ele><time>2026-04-25T16:56:37.63Z</time></trkpt><trkpt lat="41.2187628" lon="-7.9016882"><ele>805.0</ele><time>2026-04-25T16:56:38.629Z</time></trkpt><trkpt lat="41.2188428" lon="-7.9015657"><ele>805.0</ele><time>2026-04-25T16:56:39.634Z</time></trkpt><trkpt lat="41.2189215" lon="-7.9014314"><ele>805.0</ele><time>2026-04-25T16:56:40.63Z</time></trkpt><trkpt lat="41.2190003" lon="-7.9012915"><ele>805.0</ele><time>2026-04-25T16:56:41.63Z</time></trkpt><trkpt lat="41.2190797" lon="-7.9011495"><ele>805.0</ele><time>2026-04-25T16:56:42.631Z</time></trkpt><trkpt lat="41.219156" lon="-7.9010037"><ele>812.0</ele><time>2026-04-25T16:56:43.626Z</time></trkpt><trkpt lat="41.2192268" lon="-7.9008599"><ele>819.0</ele><time>2026-04-25T16:56:44.63Z</time></trkpt><trkpt lat="41.2192911" lon="-7.9007213"><ele>826.0</ele><time>2026-04-25T16:56:45.625Z</time></trkpt><trkpt lat="41.2193512" lon="-7.9005812"><ele>833.0</ele><time>2026-04-25T16:56:46.634Z</time></trkpt><trkpt lat="41.2194063" lon="-7.9004476"><ele>833.0000000000001</ele><time>2026-04-25T16:56:47.631Z</time></trkpt><trkpt lat="41.2194497" lon="-7.9003265"><ele>833.0</ele><time>2026-04-25T16:56:48.628Z</time></trkpt><trkpt lat="41.2194826" lon="-7.9002278"><ele>833.0</ele><time>2026-04-25T16:56:49.629Z</time></trkpt><trkpt lat="41.2195086" lon="-7.9001408"><ele>833.0</ele><time>2026-04-25T16:56:50.627Z</time></trkpt><trkpt lat="41.2195394" lon="-7.900042"><ele>833.0000000000001</ele><time>2026-04-25T16:56:52.63Z</time></trkpt><trkpt lat="41.2195823" lon="-7.8999737"><ele>833.0</ele><time>2026-04-25T16:56:56.631Z</time></trkpt><trkpt lat="41.2195331" lon="-7.8998812"><ele>835.3333333333334</ele><time>2026-04-25T16:57:00.631Z</time></trkpt><trkpt lat="41.2194981" lon="-7.8998067"><ele>837.6666666666667</ele><time>2026-04-25T16:57:01.63Z</time></trkpt><trkpt lat="41.2194319" lon="-7.8997268"><ele>840.0</ele><time>2026-04-25T16:57:02.632Z</time></trkpt><trkpt lat="41.219389" lon="-7.8996161"><ele>842.3333333333333</ele><time>2026-04-25T16:57:03.628Z</time></trkpt><trkpt lat="41.2193476" lon="-7.8994968"><ele>844.6666666666666</ele><time>2026-04-25T16:57:04.641Z</time></trkpt><trkpt lat="41.219316" lon="-7.8993748"><ele>847.0</ele><time>2026-04-25T16:57:05.624Z</time></trkpt><trkpt lat="41.2193017" lon="-7.8992411"><ele>847.0</ele><time>2026-04-25T16:57:06.631Z</time></trkpt><trkpt lat="41.2192898" lon="-7.8991041"><ele>847.0</ele><time>2026-04-25T16:57:07.635Z</time></trkpt><trkpt lat="41.2192816" lon="-7.8989607"><ele>847.0</ele><time>2026-04-25T16:57:08.634Z</time></trkpt><trkpt lat="41.2192934" lon="-7.8988447"><ele>847.0</ele><time>2026-04-25T16:57:09.632Z</time></trkpt><trkpt lat="41.2193238" lon="-7.8987296"><ele>847.0</ele><time>2026-04-25T16:57:10.628Z</time></trkpt><trkpt lat="41.2193533" lon="-7.8986239"><ele>847.0</ele><time>2026-04-25T16:57:11.63Z</time></trkpt><trkpt lat="41.2193972" lon="-7.8985231"><ele>847.0</ele><time>2026-04-25T16:57:12.629Z</time></trkpt><trkpt lat="41.2194612" lon="-7.8984282"><ele>847.0</ele><time>2026-04-25T16:57:13.634Z</time></trkpt><trkpt lat="41.2195456" lon="-7.898344"><ele>847.0</ele><time>2026-04-25T16:57:14.631Z</time></trkpt><trkpt lat="41.2196676" lon="-7.8982737"><ele>847.0</ele><time>2026-04-25T16:57:15.626Z</time></trkpt><trkpt lat="41.2198086" lon="-7.898215"><ele>842.6666666666666</ele><time>2026-04-25T16:57:16.628Z</time></trkpt><trkpt lat="41.2199871" lon="-7.8981649"><ele>838.3333333333333</ele><time>2026-04-25T16:57:17.628Z</time></trkpt><trkpt lat="41.2201702" lon="-7.8981167"><ele>834.0</ele><time>2026-04-25T16:57:18.627Z</time></trkpt><trkpt lat="41.2203459" lon="-7.8980612"><ele>834.0</ele><time>2026-04-25T16:57:19.628Z</time></trkpt><trkpt lat="41.2204996" lon="-7.8979674"><ele>834.0</ele><time>2026-04-25T16:57:20.635Z</time></trkpt><trkpt lat="41.22066" lon="-7.8978581"><ele>834.0</ele><time>2026-04-25T16:57:21.628Z</time></trkpt><trkpt lat="41.2208078" lon="-7.8977689"><ele>835.5</ele><time>2026-04-25T16:57:22.63Z</time></trkpt><trkpt lat="41.2209346" lon="-7.8976902"><ele>837.0</ele><time>2026-04-25T16:57:23.632Z</time></trkpt><trkpt lat="41.2210591" lon="-7.8976079"><ele>838.5</ele><time>2026-04-25T16:57:24.631Z</time></trkpt><trkpt lat="41.2211707" lon="-7.8975314"><ele>840.0</ele><time>2026-04-25T16:57:25.629Z</time></trkpt><trkpt lat="41.2212819" lon="-7.8974654"><ele>842.0</ele><time>2026-04-25T16:57:26.629Z</time></trkpt><trkpt lat="41.2213828" lon="-7.8974059"><ele>844.0</ele><time>2026-04-25T16:57:27.628Z</time></trkpt><trkpt lat="41.2214919" lon="-7.8973479"><ele>846.0</ele><time>2026-04-25T16:57:28.63Z</time></trkpt><trkpt lat="41.2215868" lon="-7.8972889"><ele>848.0</ele><time>2026-04-25T16:57:29.627Z</time></trkpt><trkpt lat="41.2216817" lon="-7.8972357"><ele>850.0</ele><time>2026-04-25T16:57:30.632Z</time></trkpt><trkpt lat="41.2217694" lon="-7.8971985"><ele>849.9999999999999</ele><time>2026-04-25T16:57:31.633Z</time></trkpt><trkpt lat="41.2218496" lon="-7.8971649"><ele>850.0</ele><time>2026-04-25T16:57:32.629Z</time></trkpt><trkpt lat="41.2219357" lon="-7.8971352"><ele>850.0</ele><time>2026-04-25T16:57:33.622Z</time></trkpt><trkpt lat="41.2220236" lon="-7.89712"><ele>850.0</ele><time>2026-04-25T16:57:34.631Z</time></trkpt><trkpt lat="41.2221156" lon="-7.8971186"><ele>849.9999999999999</ele><time>2026-04-25T16:57:35.642Z</time></trkpt><trkpt lat="41.2222025" lon="-7.8971065"><ele>850.0</ele><time>2026-04-25T16:57:36.631Z</time></trkpt><trkpt lat="41.2222775" lon="-7.8970782"><ele>851.3333333333333</ele><time>2026-04-25T16:57:37.637Z</time></trkpt><trkpt lat="41.2223495" lon="-7.8970387"><ele>852.6666666666666</ele><time>2026-04-25T16:57:38.632Z</time></trkpt><trkpt lat="41.2224185" lon="-7.8970014"><ele>854.0</ele><time>2026-04-25T16:57:39.626Z</time></trkpt><trkpt lat="41.2224805" lon="-7.8969674"><ele>855.3333333333333</ele><time>2026-04-25T16:57:40.623Z</time></trkpt><trkpt lat="41.2225881" lon="-7.8969162"><ele>856.6666666666666</ele><time>2026-04-25T16:57:42.632Z</time></trkpt><trkpt lat="41.2226653" lon="-7.8969015"><ele>858.0</ele><time>2026-04-25T16:57:44.629Z</time></trkpt><trkpt lat="41.2227487" lon="-7.8968929"><ele>858.0</ele><time>2026-04-25T16:57:47.636Z</time></trkpt><trkpt lat="41.2226682" lon="-7.8969182"><ele>858.0</ele><time>2026-04-25T16:59:03.631Z</time></trkpt><trkpt lat="41.2225765" lon="-7.8969291"><ele>858.0</ele><time>2026-04-25T17:00:26.628Z</time></trkpt><trkpt lat="41.2224909" lon="-7.896966"><ele>858.0</ele><time>2026-04-25T17:00:28.633Z</time></trkpt><trkpt lat="41.2223895" lon="-7.8970089"><ele>858.0</ele><time>2026-04-25T17:00:30.63Z</time></trkpt><trkpt lat="41.2222848" lon="-7.8970759"><ele>856.6666666666666</ele><time>2026-04-25T17:00:32.634Z</time></trkpt><trkpt lat="41.2221745" lon="-7.8971492"><ele>855.3333333333333</ele><time>2026-04-25T17:00:34.629Z</time></trkpt><trkpt lat="41.2221096" lon="-7.8971781"><ele>854.0</ele><time>2026-04-25T17:00:35.626Z</time></trkpt><trkpt lat="41.2220417" lon="-7.897205"><ele>852.6666666666666</ele><time>2026-04-25T17:00:36.625Z</time></trkpt><trkpt lat="41.2219776" lon="-7.8972282"><ele>851.3333333333333</ele><time>2026-04-25T17:00:37.637Z</time></trkpt><trkpt lat="41.2219127" lon="-7.8972352"><ele>850.0</ele><time>2026-04-25T17:00:38.623Z</time></trkpt><trkpt lat="41.2218434" lon="-7.8972394"><ele>849.9999999999999</ele><time>2026-04-25T17:00:39.631Z</time></trkpt><trkpt lat="41.2217677" lon="-7.8972487"><ele>850.0</ele><time>2026-04-25T17:00:40.632Z</time></trkpt><trkpt lat="41.2216922" lon="-7.8972709"><ele>850.0</ele><time>2026-04-25T17:00:41.629Z</time></trkpt><trkpt lat="41.2216187" lon="-7.8973005"><ele>850.0</ele><time>2026-04-25T17:00:42.627Z</time></trkpt><trkpt lat="41.2215354" lon="-7.8973401"><ele>849.9999999999999</ele><time>2026-04-25T17:00:43.627Z</time></trkpt><trkpt lat="41.2214594" lon="-7.897375"><ele>850.0</ele><time>2026-04-25T17:00:44.629Z</time></trkpt><trkpt lat="41.2213842" lon="-7.8974097"><ele>850.3333333333333</ele><time>2026-04-25T17:00:45.625Z</time></trkpt><trkpt lat="41.2213097" lon="-7.8974601"><ele>850.6666666666666</ele><time>2026-04-25T17:00:46.633Z</time></trkpt><trkpt lat="41.2212379" lon="-7.8975143"><ele>851.0</ele><time>2026-04-25T17:00:47.624Z</time></trkpt><trkpt lat="41.2211603" lon="-7.8975692"><ele>851.3333333333333</ele><time>2026-04-25T17:00:48.63Z</time></trkpt><trkpt lat="41.2210788" lon="-7.8976291"><ele>851.6666666666666</ele><time>2026-04-25T17:00:49.622Z</time></trkpt><trkpt lat="41.2209934" lon="-7.8976865"><ele>852.0</ele><time>2026-04-25T17:00:50.629Z</time></trkpt><trkpt lat="41.2209027" lon="-7.8977422"><ele>849.6</ele><time>2026-04-25T17:00:51.623Z</time></trkpt><trkpt lat="41.2208071" lon="-7.8977989"><ele>847.2</ele><time>2026-04-25T17:00:52.625Z</time></trkpt><trkpt lat="41.2207094" lon="-7.897854"><ele>844.8</ele><time>2026-04-25T17:00:53.626Z</time></trkpt><trkpt lat="41.2206107" lon="-7.8979053"><ele>842.4</ele><time>2026-04-25T17:00:54.631Z</time></trkpt><trkpt lat="41.2205179" lon="-7.8979618"><ele>840.0</ele><time>2026-04-25T17:00:55.629Z</time></trkpt><trkpt lat="41.2204253" lon="-7.8980183"><ele>838.8</ele><time>2026-04-25T17:00:56.624Z</time></trkpt><trkpt lat="41.2203289" lon="-7.8980695"><ele>837.6</ele><time>2026-04-25T17:00:57.625Z</time></trkpt><trkpt lat="41.2202389" lon="-7.8981218"><ele>836.4000000000001</ele><time>2026-04-25T17:00:58.625Z</time></trkpt><trkpt lat="41.2201497" lon="-7.8981734"><ele>835.2</ele><time>2026-04-25T17:00:59.629Z</time></trkpt><trkpt lat="41.220055" lon="-7.8982145"><ele>834.0</ele><time>2026-04-25T17:01:00.632Z</time></trkpt><trkpt lat="41.219956" lon="-7.8982502"><ele>834.0</ele><time>2026-04-25T17:01:01.626Z</time></trkpt><trkpt lat="41.2198589" lon="-7.8982837"><ele>834.0</ele><time>2026-04-25T17:01:02.632Z</time></trkpt><trkpt lat="41.2197741" lon="-7.8983195"><ele>834.0</ele><time>2026-04-25T17:01:03.638Z</time></trkpt><trkpt lat="41.2196886" lon="-7.8983534"><ele>834.0</ele><time>2026-04-25T17:01:04.625Z</time></trkpt><trkpt lat="41.2195965" lon="-7.898399"><ele>834.0</ele><time>2026-04-25T17:01:05.632Z</time></trkpt><trkpt lat="41.2195082" lon="-7.8984523"><ele>836.1666666666666</ele><time>2026-04-25T17:01:06.632Z</time></trkpt><trkpt lat="41.2194323" lon="-7.898503"><ele>838.3333333333333</ele><time>2026-04-25T17:01:07.624Z</time></trkpt><trkpt lat="41.2193663" lon="-7.898564"><ele>840.5</ele><time>2026-04-25T17:01:08.63Z</time></trkpt><trkpt lat="41.2193092" lon="-7.8986445"><ele>842.6666666666666</ele><time>2026-04-25T17:01:09.622Z</time></trkpt><trkpt lat="41.2192608" lon="-7.8987313"><ele>844.8333333333333</ele><time>2026-04-25T17:01:10.627Z</time></trkpt><trkpt lat="41.2192234" lon="-7.8988297"><ele>847.0</ele><time>2026-04-25T17:01:11.621Z</time></trkpt><trkpt lat="41.2192016" lon="-7.8989404"><ele>847.0</ele><time>2026-04-25T17:01:12.627Z</time></trkpt><trkpt lat="41.2192008" lon="-7.8990651"><ele>847.0</ele><time>2026-04-25T17:01:13.629Z</time></trkpt><trkpt lat="41.2192109" lon="-7.8992041"><ele>847.0</ele><time>2026-04-25T17:01:14.624Z</time></trkpt><trkpt lat="41.2192332" lon="-7.8993349"><ele>847.0</ele><time>2026-04-25T17:01:15.629Z</time></trkpt><trkpt lat="41.2192545" lon="-7.8994726"><ele>847.0</ele><time>2026-04-25T17:01:16.626Z</time></trkpt><trkpt lat="41.2192676" lon="-7.8995921"><ele>847.3333333333333</ele><time>2026-04-25T17:01:17.625Z</time></trkpt><trkpt lat="41.2192907" lon="-7.8997081"><ele>847.6666666666666</ele><time>2026-04-25T17:01:18.635Z</time></trkpt><trkpt lat="41.2193145" lon="-7.8998047"><ele>848.0</ele><time>2026-04-25T17:01:19.634Z</time></trkpt><trkpt lat="41.2193456" lon="-7.8999024"><ele>848.3333333333333</ele><time>2026-04-25T17:01:20.628Z</time></trkpt><trkpt lat="41.2193831" lon="-7.899988"><ele>848.6666666666666</ele><time>2026-04-25T17:01:21.625Z</time></trkpt><trkpt lat="41.2194238" lon="-7.9000576"><ele>849.0</ele><time>2026-04-25T17:01:22.625Z</time></trkpt><trkpt lat="41.2195035" lon="-7.9001649"><ele>846.3333333333334</ele><time>2026-04-25T17:01:24.624Z</time></trkpt><trkpt lat="41.2195027" lon="-7.9002492"><ele>843.6666666666667</ele><time>2026-04-25T17:01:26.634Z</time></trkpt><trkpt lat="41.2194403" lon="-7.9003952"><ele>841.0</ele><time>2026-04-25T17:01:28.637Z</time></trkpt><trkpt lat="41.219411" lon="-7.9004837"><ele>838.3333333333334</ele><time>2026-04-25T17:01:29.623Z</time></trkpt><trkpt lat="41.2193806" lon="-7.9005699"><ele>835.6666666666667</ele><time>2026-04-25T17:01:30.626Z</time></trkpt><trkpt lat="41.2193407" lon="-7.9006494"><ele>833.0</ele><time>2026-04-25T17:01:31.632Z</time></trkpt><trkpt lat="41.2193089" lon="-7.9007254"><ele>833.0</ele><time>2026-04-25T17:01:32.631Z</time></trkpt><trkpt lat="41.219276" lon="-7.9008046"><ele>833.0</ele><time>2026-04-25T17:01:33.626Z</time></trkpt><trkpt lat="41.2192369" lon="-7.9008869"><ele>833.0</ele><time>2026-04-25T17:01:34.624Z</time></trkpt><trkpt lat="41.2191948" lon="-7.9009702"><ele>833.0</ele><time>2026-04-25T17:01:35.624Z</time></trkpt><trkpt lat="41.2191502" lon="-7.9010528"><ele>833.0</ele><time>2026-04-25T17:01:36.626Z</time></trkpt><trkpt lat="41.219108" lon="-7.9011363"><ele>833.0</ele><time>2026-04-25T17:01:37.629Z</time></trkpt><trkpt lat="41.2190615" lon="-7.9012206"><ele>833.0</ele><time>2026-04-25T17:01:38.63Z</time></trkpt><trkpt lat="41.2190145" lon="-7.9013027"><ele>831.8333333333334</ele><time>2026-04-25T17:01:39.624Z</time></trkpt><trkpt lat="41.2189657" lon="-7.9013857"><ele>830.6666666666667</ele><time>2026-04-25T17:01:40.636Z</time></trkpt><trkpt lat="41.2189222" lon="-7.9014691"><ele>829.5</ele><time>2026-04-25T17:01:41.624Z</time></trkpt><trkpt lat="41.218875" lon="-7.901555"><ele>828.3333333333333</ele><time>2026-04-25T17:01:42.635Z</time></trkpt><trkpt lat="41.2188212" lon="-7.9016431"><ele>827.1666666666666</ele><time>2026-04-25T17:01:43.639Z</time></trkpt><trkpt lat="41.2187651" lon="-7.9017282"><ele>826.0</ele><time>2026-04-25T17:01:44.63Z</time></trkpt><trkpt lat="41.2187006" lon="-7.9018201"><ele>821.8</ele><time>2026-04-25T17:01:45.625Z</time></trkpt><trkpt lat="41.2186302" lon="-7.901915"><ele>817.5999999999999</ele><time>2026-04-25T17:01:46.624Z</time></trkpt><trkpt lat="41.2185592" lon="-7.9020076"><ele>813.4</ele><time>2026-04-25T17:01:47.634Z</time></trkpt><trkpt lat="41.2184885" lon="-7.9020975"><ele>809.2</ele><time>2026-04-25T17:01:48.628Z</time></trkpt><trkpt lat="41.2184249" lon="-7.9021889"><ele>805.0</ele><time>2026-04-25T17:01:49.631Z</time></trkpt><trkpt lat="41.218364" lon="-7.9022826"><ele>805.0</ele><time>2026-04-25T17:01:50.627Z</time></trkpt><trkpt lat="41.2182971" lon="-7.9023717"><ele>805.0</ele><time>2026-04-25T17:01:51.625Z</time></trkpt><trkpt lat="41.2182309" lon="-7.9024587"><ele>805.0</ele><time>2026-04-25T17:01:52.629Z</time></trkpt><trkpt lat="41.2181572" lon="-7.9025393"><ele>805.0</ele><time>2026-04-25T17:01:53.627Z</time></trkpt><trkpt lat="41.2180708" lon="-7.9026074"><ele>805.0</ele><time>2026-04-25T17:01:54.629Z</time></trkpt><trkpt lat="41.2179875" lon="-7.902662"><ele>802.0</ele><time>2026-04-25T17:01:55.63Z</time></trkpt><trkpt lat="41.2179038" lon="-7.902699"><ele>799.0</ele><time>2026-04-25T17:01:56.627Z</time></trkpt><trkpt lat="41.2178132" lon="-7.9027327"><ele>796.0</ele><time>2026-04-25T17:01:57.632Z</time></trkpt><trkpt lat="41.2177225" lon="-7.902768"><ele>793.0</ele><time>2026-04-25T17:01:58.621Z</time></trkpt><trkpt lat="41.2176401" lon="-7.9028207"><ele>790.0</ele><time>2026-04-25T17:01:59.624Z</time></trkpt><trkpt lat="41.2175613" lon="-7.9028862"><ele>790.0</ele><time>2026-04-25T17:02:00.623Z</time></trkpt><trkpt lat="41.2174839" lon="-7.9029741"><ele>790.0</ele><time>2026-04-25T17:02:01.624Z</time></trkpt><trkpt lat="41.2174092" lon="-7.9030664"><ele>790.0</ele><time>2026-04-25T17:02:02.625Z</time></trkpt><trkpt lat="41.2173375" lon="-7.9031595"><ele>790.0</ele><time>2026-04-25T17:02:03.634Z</time></trkpt><trkpt lat="41.2172636" lon="-7.9032432"><ele>790.0</ele><time>2026-04-25T17:02:04.625Z</time></trkpt><trkpt lat="41.2171803" lon="-7.9033259"><ele>791.8</ele><time>2026-04-25T17:02:05.624Z</time></trkpt><trkpt lat="41.2170983" lon="-7.9034116"><ele>793.6</ele><time>2026-04-25T17:02:06.632Z</time></trkpt><trkpt lat="41.2170192" lon="-7.9034965"><ele>795.4000000000001</ele><time>2026-04-25T17:02:07.632Z</time></trkpt><trkpt lat="41.2169389" lon="-7.9035804"><ele>797.2</ele><time>2026-04-25T17:02:08.623Z</time></trkpt><trkpt lat="41.2168627" lon="-7.9036483"><ele>799.0</ele><time>2026-04-25T17:02:09.628Z</time></trkpt><trkpt lat="41.2167858" lon="-7.9037043"><ele>793.9999999999999</ele><time>2026-04-25T17:02:10.626Z</time></trkpt><trkpt lat="41.2167218" lon="-7.9037588"><ele>789.0</ele><time>2026-04-25T17:02:11.625Z</time></trkpt><trkpt lat="41.2166448" lon="-7.903788"><ele>784.0</ele><time>2026-04-25T17:02:12.622Z</time></trkpt><trkpt lat="41.2165635" lon="-7.9038033"><ele>779.0</ele><time>2026-04-25T17:02:13.628Z</time></trkpt><trkpt lat="41.2164811" lon="-7.9037943"><ele>773.9999999999999</ele><time>2026-04-25T17:02:14.62Z</time></trkpt><trkpt lat="41.2163925" lon="-7.9037656"><ele>769.0</ele><time>2026-04-25T17:02:15.631Z</time></trkpt><trkpt lat="41.2162849" lon="-7.9037413"><ele>767.4000000000001</ele><time>2026-04-25T17:02:16.633Z</time></trkpt><trkpt lat="41.216181" lon="-7.9037203"><ele>765.8</ele><time>2026-04-25T17:02:17.625Z</time></trkpt><trkpt lat="41.2160688" lon="-7.9036941"><ele>764.2</ele><time>2026-04-25T17:02:18.628Z</time></trkpt><trkpt lat="41.2159544" lon="-7.903683"><ele>762.5999999999999</ele><time>2026-04-25T17:02:19.625Z</time></trkpt><trkpt lat="41.2158429" lon="-7.903663"><ele>761.0</ele><time>2026-04-25T17:02:20.629Z</time></trkpt><trkpt lat="41.2157368" lon="-7.903655"><ele>762.5999999999999</ele><time>2026-04-25T17:02:21.628Z</time></trkpt><trkpt lat="41.2156383" lon="-7.9036628"><ele>764.2</ele><time>2026-04-25T17:02:22.629Z</time></trkpt><trkpt lat="41.2155416" lon="-7.9036816"><ele>765.8</ele><time>2026-04-25T17:02:23.624Z</time></trkpt><trkpt lat="41.2154484" lon="-7.9037063"><ele>767.4000000000001</ele><time>2026-04-25T17:02:24.624Z</time></trkpt><trkpt lat="41.2153597" lon="-7.9037466"><ele>769.0</ele><time>2026-04-25T17:02:25.628Z</time></trkpt><trkpt lat="41.2152677" lon="-7.9037933"><ele>769.0</ele><time>2026-04-25T17:02:26.625Z</time></trkpt><trkpt lat="41.2151754" lon="-7.9038396"><ele>769.0</ele><time>2026-04-25T17:02:27.625Z</time></trkpt><trkpt lat="41.2150834" lon="-7.9038873"><ele>769.0</ele><time>2026-04-25T17:02:28.626Z</time></trkpt><trkpt lat="41.2149984" lon="-7.9039169"><ele>769.0</ele><time>2026-04-25T17:02:29.632Z</time></trkpt><trkpt lat="41.2149216" lon="-7.9039578"><ele>769.0</ele><time>2026-04-25T17:02:30.628Z</time></trkpt><trkpt lat="41.2148395" lon="-7.9040216"><ele>767.6</ele><time>2026-04-25T17:02:31.626Z</time></trkpt><trkpt lat="41.2147687" lon="-7.9040926"><ele>766.2</ele><time>2026-04-25T17:02:32.626Z</time></trkpt><trkpt lat="41.2146947" lon="-7.9041683"><ele>764.8000000000001</ele><time>2026-04-25T17:02:33.629Z</time></trkpt><trkpt lat="41.2146133" lon="-7.9042551"><ele>763.4000000000001</ele><time>2026-04-25T17:02:34.63Z</time></trkpt><trkpt lat="41.2145327" lon="-7.9043492"><ele>762.0</ele><time>2026-04-25T17:02:35.623Z</time></trkpt><trkpt lat="41.2144533" lon="-7.9044262"><ele>762.0</ele><time>2026-04-25T17:02:36.629Z</time></trkpt><trkpt lat="41.2143757" lon="-7.9044865"><ele>762.0</ele><time>2026-04-25T17:02:37.624Z</time></trkpt><trkpt lat="41.2142943" lon="-7.9045561"><ele>762.0</ele><time>2026-04-25T17:02:38.632Z</time></trkpt><trkpt lat="41.2142052" lon="-7.9046304"><ele>762.0</ele><time>2026-04-25T17:02:39.622Z</time></trkpt><trkpt lat="41.2141273" lon="-7.9047139"><ele>762.0</ele><time>2026-04-25T17:02:40.629Z</time></trkpt><trkpt lat="41.2140532" lon="-7.9048041"><ele>761.5</ele><time>2026-04-25T17:02:41.634Z</time></trkpt><trkpt lat="41.2139692" lon="-7.9048817"><ele>761.0</ele><time>2026-04-25T17:02:42.625Z</time></trkpt><trkpt lat="41.2138859" lon="-7.9049592"><ele>760.5</ele><time>2026-04-25T17:02:43.626Z</time></trkpt><trkpt lat="41.2138149" lon="-7.9050304"><ele>760.0</ele><time>2026-04-25T17:02:44.624Z</time></trkpt><trkpt lat="41.2137605" lon="-7.9051018"><ele>759.5</ele><time>2026-04-25T17:02:45.629Z</time></trkpt><trkpt lat="41.2137048" lon="-7.9051684"><ele>759.0</ele><time>2026-04-25T17:02:46.628Z</time></trkpt><trkpt lat="41.2136451" lon="-7.9052303"><ele>759.0</ele><time>2026-04-25T17:02:47.626Z</time></trkpt><trkpt lat="41.2135756" lon="-7.9052894"><ele>759.0</ele><time>2026-04-25T17:02:48.624Z</time></trkpt><trkpt lat="41.2135089" lon="-7.905349"><ele>759.0</ele><time>2026-04-25T17:02:49.629Z</time></trkpt><trkpt lat="41.2134398" lon="-7.9054124"><ele>759.0</ele><time>2026-04-25T17:02:50.63Z</time></trkpt><trkpt lat="41.2133667" lon="-7.9054717"><ele>759.0</ele><time>2026-04-25T17:02:51.622Z</time></trkpt><trkpt lat="41.213291" lon="-7.9055094"><ele>759.0</ele><time>2026-04-25T17:02:52.629Z</time></trkpt><trkpt lat="41.2132134" lon="-7.9055273"><ele>760.8333333333334</ele><time>2026-04-25T17:02:53.625Z</time></trkpt><trkpt lat="41.2131396" lon="-7.9055368"><ele>762.6666666666667</ele><time>2026-04-25T17:02:54.627Z</time></trkpt><trkpt lat="41.2130594" lon="-7.9055355"><ele>764.5</ele><time>2026-04-25T17:02:55.629Z</time></trkpt><trkpt lat="41.2129619" lon="-7.9055466"><ele>766.3333333333334</ele><time>2026-04-25T17:02:56.63Z</time></trkpt><trkpt lat="41.212876" lon="-7.9055769"><ele>768.1666666666667</ele><time>2026-04-25T17:02:57.633Z</time></trkpt><trkpt lat="41.2127819" lon="-7.9056249"><ele>770.0</ele><time>2026-04-25T17:02:58.627Z</time></trkpt><trkpt lat="41.2127154" lon="-7.9056831"><ele>770.0</ele><time>2026-04-25T17:02:59.622Z</time></trkpt><trkpt lat="41.2126701" lon="-7.9057529"><ele>770.0</ele><time>2026-04-25T17:03:00.63Z</time></trkpt><trkpt lat="41.2126419" lon="-7.9058288"><ele>770.0</ele><time>2026-04-25T17:03:01.623Z</time></trkpt><trkpt lat="41.2126141" lon="-7.9059084"><ele>770.0</ele><time>2026-04-25T17:03:02.63Z</time></trkpt><trkpt lat="41.2125719" lon="-7.9059736"><ele>770.0</ele><time>2026-04-25T17:03:03.63Z</time></trkpt><trkpt lat="41.2125142" lon="-7.9060384"><ele>770.0</ele><time>2026-04-25T17:03:04.632Z</time></trkpt><trkpt lat="41.2124487" lon="-7.9061037"><ele>770.0</ele><time>2026-04-25T17:03:05.629Z</time></trkpt><trkpt lat="41.2123801" lon="-7.9061523"><ele>768.1666666666667</ele><time>2026-04-25T17:03:06.626Z</time></trkpt><trkpt lat="41.2123068" lon="-7.9061875"><ele>766.3333333333334</ele><time>2026-04-25T17:03:07.629Z</time></trkpt><trkpt lat="41.212231" lon="-7.9062079"><ele>764.5</ele><time>2026-04-25T17:03:08.628Z</time></trkpt><trkpt lat="41.212158" lon="-7.9062253"><ele>762.6666666666667</ele><time>2026-04-25T17:03:09.637Z</time></trkpt><trkpt lat="41.2120951" lon="-7.9062412"><ele>760.8333333333334</ele><time>2026-04-25T17:03:10.628Z</time></trkpt><trkpt lat="41.2120295" lon="-7.9062595"><ele>759.0</ele><time>2026-04-25T17:03:11.622Z</time></trkpt><trkpt lat="41.2118962" lon="-7.9062892"><ele>759.0</ele><time>2026-04-25T17:03:13.623Z</time></trkpt><trkpt lat="41.2118085" lon="-7.9062949"><ele>759.0</ele><time>2026-04-25T17:03:14.627Z</time></trkpt><trkpt lat="41.2117199" lon="-7.9062995"><ele>759.0</ele><time>2026-04-25T17:03:15.622Z</time></trkpt><trkpt lat="41.2116351" lon="-7.9062974"><ele>759.0</ele><time>2026-04-25T17:03:16.624Z</time></trkpt><trkpt lat="41.211553" lon="-7.9062939"><ele>759.0</ele><time>2026-04-25T17:03:17.629Z</time></trkpt><trkpt lat="41.2114692" lon="-7.9062922"><ele>759.0</ele><time>2026-04-25T17:03:18.63Z</time></trkpt><trkpt lat="41.2113967" lon="-7.9062939"><ele>757.8333333333334</ele><time>2026-04-25T17:03:19.623Z</time></trkpt><trkpt lat="41.2113228" lon="-7.9062978"><ele>756.6666666666666</ele><time>2026-04-25T17:03:20.628Z</time></trkpt><trkpt lat="41.2112414" lon="-7.9063039"><ele>755.5</ele><time>2026-04-25T17:03:21.64Z</time></trkpt><trkpt lat="41.2111616" lon="-7.9063051"><ele>754.3333333333333</ele><time>2026-04-25T17:03:22.625Z</time></trkpt><trkpt lat="41.2110891" lon="-7.9063091"><ele>753.1666666666666</ele><time>2026-04-25T17:03:23.626Z</time></trkpt><trkpt lat="41.2110118" lon="-7.9063108"><ele>752.0</ele><time>2026-04-25T17:03:24.629Z</time></trkpt><trkpt lat="41.210936" lon="-7.9063185"><ele>752.0</ele><time>2026-04-25T17:03:25.629Z</time></trkpt><trkpt lat="41.2108666" lon="-7.9063215"><ele>752.0</ele><time>2026-04-25T17:03:26.644Z</time></trkpt><trkpt lat="41.2107988" lon="-7.9063294"><ele>752.0</ele><time>2026-04-25T17:03:27.631Z</time></trkpt><trkpt lat="41.2107313" lon="-7.906335"><ele>752.0</ele><time>2026-04-25T17:03:28.625Z</time></trkpt><trkpt lat="41.2106485" lon="-7.9063408"><ele>752.0</ele><time>2026-04-25T17:03:29.625Z</time></trkpt><trkpt lat="41.2105539" lon="-7.9063493"><ele>752.0</ele><time>2026-04-25T17:03:30.625Z</time></trkpt><trkpt lat="41.2104537" lon="-7.9063442"><ele>751.4000000000001</ele><time>2026-04-25T17:03:31.624Z</time></trkpt><trkpt lat="41.2103486" lon="-7.9063418"><ele>750.8000000000001</ele><time>2026-04-25T17:03:32.628Z</time></trkpt><trkpt lat="41.21025" lon="-7.9063497"><ele>750.2</ele><time>2026-04-25T17:03:33.625Z</time></trkpt><trkpt lat="41.2101487" lon="-7.9063533"><ele>749.6</ele><time>2026-04-25T17:03:34.624Z</time></trkpt><trkpt lat="41.2100498" lon="-7.9063732"><ele>749.0</ele><time>2026-04-25T17:03:35.625Z</time></trkpt><trkpt lat="41.209957" lon="-7.9063948"><ele>749.0</ele><time>2026-04-25T17:03:36.628Z</time></trkpt><trkpt lat="41.2098637" lon="-7.9064111"><ele>749.0</ele><time>2026-04-25T17:03:37.623Z</time></trkpt><trkpt lat="41.209761" lon="-7.9064231"><ele>749.0</ele><time>2026-04-25T17:03:38.635Z</time></trkpt><trkpt lat="41.2096597" lon="-7.9064274"><ele>749.0</ele><time>2026-04-25T17:03:39.628Z</time></trkpt><trkpt lat="41.2095587" lon="-7.9064219"><ele>749.0</ele><time>2026-04-25T17:03:40.625Z</time></trkpt><trkpt lat="41.2094548" lon="-7.9064119"><ele>749.4000000000001</ele><time>2026-04-25T17:03:41.626Z</time></trkpt><trkpt lat="41.2093532" lon="-7.9063932"><ele>749.8</ele><time>2026-04-25T17:03:42.628Z</time></trkpt><trkpt lat="41.2092549" lon="-7.9063732"><ele>750.2</ele><time>2026-04-25T17:03:43.631Z</time></trkpt><trkpt lat="41.2091645" lon="-7.9063549"><ele>750.5999999999999</ele><time>2026-04-25T17:03:44.625Z</time></trkpt><trkpt lat="41.2090762" lon="-7.9063407"><ele>751.0</ele><time>2026-04-25T17:03:45.623Z</time></trkpt><trkpt lat="41.2089869" lon="-7.9063334"><ele>754.0</ele><time>2026-04-25T17:03:46.635Z</time></trkpt><trkpt lat="41.2088974" lon="-7.9063404"><ele>757.0</ele><time>2026-04-25T17:03:47.629Z</time></trkpt><trkpt lat="41.2088113" lon="-7.9063662"><ele>760.0</ele><time>2026-04-25T17:03:48.629Z</time></trkpt><trkpt lat="41.2087239" lon="-7.9064037"><ele>763.0</ele><time>2026-04-25T17:03:49.623Z</time></trkpt><trkpt lat="41.2086599" lon="-7.9064515"><ele>766.0</ele><time>2026-04-25T17:03:50.629Z</time></trkpt><trkpt lat="41.2085835" lon="-7.9065574"><ele>766.0</ele><time>2026-04-25T17:03:52.629Z</time></trkpt><trkpt lat="41.2084619" lon="-7.9066474"><ele>766.0</ele><time>2026-04-25T17:03:54.625Z</time></trkpt><trkpt lat="41.2083993" lon="-7.9067076"><ele>766.0</ele><time>2026-04-25T17:03:55.624Z</time></trkpt><trkpt lat="41.208322" lon="-7.9067823"><ele>766.0</ele><time>2026-04-25T17:03:56.628Z</time></trkpt><trkpt lat="41.2082291" lon="-7.9068717"><ele>766.0</ele><time>2026-04-25T17:03:57.627Z</time></trkpt><trkpt lat="41.2081331" lon="-7.9069564"><ele>764.5999999999999</ele><time>2026-04-25T17:03:58.625Z</time></trkpt><trkpt lat="41.2080297" lon="-7.9070442"><ele>763.2</ele><time>2026-04-25T17:03:59.63Z</time></trkpt><trkpt lat="41.2079271" lon="-7.9071038"><ele>761.8</ele><time>2026-04-25T17:04:00.629Z</time></trkpt><trkpt lat="41.2078364" lon="-7.9071416"><ele>760.4000000000001</ele><time>2026-04-25T17:04:01.625Z</time></trkpt><trkpt lat="41.2077507" lon="-7.9071777"><ele>759.0</ele><time>2026-04-25T17:04:02.626Z</time></trkpt><trkpt lat="41.2076671" lon="-7.9072039"><ele>759.0</ele><time>2026-04-25T17:04:03.628Z</time></trkpt><trkpt lat="41.2075856" lon="-7.9072313"><ele>759.0</ele><time>2026-04-25T17:04:04.624Z</time></trkpt><trkpt lat="41.2075082" lon="-7.9072676"><ele>759.0</ele><time>2026-04-25T17:04:05.63Z</time></trkpt><trkpt lat="41.2074329" lon="-7.9073142"><ele>759.0</ele><time>2026-04-25T17:04:06.627Z</time></trkpt><trkpt lat="41.2073576" lon="-7.9073642"><ele>759.0</ele><time>2026-04-25T17:04:07.625Z</time></trkpt><trkpt lat="41.2072838" lon="-7.9074133"><ele>759.0</ele><time>2026-04-25T17:04:08.624Z</time></trkpt><trkpt lat="41.2072053" lon="-7.9074595"><ele>758.8333333333334</ele><time>2026-04-25T17:04:09.623Z</time></trkpt><trkpt lat="41.2071242" lon="-7.9075054"><ele>758.6666666666666</ele><time>2026-04-25T17:04:10.623Z</time></trkpt><trkpt lat="41.2070531" lon="-7.9075613"><ele>758.5</ele><time>2026-04-25T17:04:11.624Z</time></trkpt><trkpt lat="41.2069748" lon="-7.9076102"><ele>758.3333333333333</ele><time>2026-04-25T17:04:12.628Z</time></trkpt><trkpt lat="41.2068935" lon="-7.9076624"><ele>758.1666666666666</ele><time>2026-04-25T17:04:13.623Z</time></trkpt><trkpt lat="41.2068108" lon="-7.9077167"><ele>758.0</ele><time>2026-04-25T17:04:14.63Z</time></trkpt><trkpt lat="41.2067258" lon="-7.9077741"><ele>758.0</ele><time>2026-04-25T17:04:15.619Z</time></trkpt><trkpt lat="41.2066414" lon="-7.9078461"><ele>758.0</ele><time>2026-04-25T17:04:16.626Z</time></trkpt><trkpt lat="41.2065598" lon="-7.9079417"><ele>758.0</ele><time>2026-04-25T17:04:17.621Z</time></trkpt><trkpt lat="41.2064889" lon="-7.9080547"><ele>758.0</ele><time>2026-04-25T17:04:18.628Z</time></trkpt><trkpt lat="41.2064285" lon="-7.9081867"><ele>758.0</ele><time>2026-04-25T17:04:19.625Z</time></trkpt><trkpt lat="41.2063719" lon="-7.9083263"><ele>755.5999999999999</ele><time>2026-04-25T17:04:20.629Z</time></trkpt><trkpt lat="41.2063219" lon="-7.908465"><ele>753.1999999999999</ele><time>2026-04-25T17:04:21.625Z</time></trkpt><trkpt lat="41.2062806" lon="-7.9086007"><ele>750.8</ele><time>2026-04-25T17:04:22.633Z</time></trkpt><trkpt lat="41.206243" lon="-7.9087286"><ele>748.4</ele><time>2026-04-25T17:04:23.628Z</time></trkpt><trkpt lat="41.2062004" lon="-7.9088399"><ele>746.0</ele><time>2026-04-25T17:04:24.625Z</time></trkpt><trkpt lat="41.2061484" lon="-7.9089462"><ele>746.0</ele><time>2026-04-25T17:04:25.621Z</time></trkpt><trkpt lat="41.2060922" lon="-7.9090498"><ele>746.0</ele><time>2026-04-25T17:04:26.626Z</time></trkpt><trkpt lat="41.206032" lon="-7.9091355"><ele>746.0</ele><time>2026-04-25T17:04:27.623Z</time></trkpt><trkpt lat="41.2059552" lon="-7.9092003"><ele>746.0</ele><time>2026-04-25T17:04:28.626Z</time></trkpt><trkpt lat="41.205855" lon="-7.9092475"><ele>746.0</ele><time>2026-04-25T17:04:29.618Z</time></trkpt><trkpt lat="41.2057607" lon="-7.9092929"><ele>739.1666666666666</ele><time>2026-04-25T17:04:30.624Z</time></trkpt><trkpt lat="41.2056637" lon="-7.9093311"><ele>732.3333333333333</ele><time>2026-04-25T17:04:31.632Z</time></trkpt><trkpt lat="41.205575" lon="-7.9093578"><ele>725.5</ele><time>2026-04-25T17:04:32.628Z</time></trkpt><trkpt lat="41.2054895" lon="-7.9093683"><ele>718.6666666666666</ele><time>2026-04-25T17:04:33.63Z</time></trkpt><trkpt lat="41.2054098" lon="-7.9093608"><ele>711.8333333333334</ele><time>2026-04-25T17:04:34.624Z</time></trkpt><trkpt lat="41.2053395" lon="-7.9093229"><ele>705.0</ele><time>2026-04-25T17:04:35.628Z</time></trkpt><trkpt lat="41.2052825" lon="-7.9092646"><ele>710.8571428571428</ele><time>2026-04-25T17:04:36.625Z</time></trkpt><trkpt lat="41.2052368" lon="-7.9091901"><ele>716.7142857142857</ele><time>2026-04-25T17:04:37.623Z</time></trkpt><trkpt lat="41.2052004" lon="-7.9091155"><ele>722.5714285714286</ele><time>2026-04-25T17:04:38.625Z</time></trkpt><trkpt lat="41.2051724" lon="-7.9090363"><ele>728.4285714285713</ele><time>2026-04-25T17:04:39.623Z</time></trkpt><trkpt lat="41.2051405" lon="-7.9089485"><ele>734.2857142857143</ele><time>2026-04-25T17:04:40.623Z</time></trkpt><trkpt lat="41.2051078" lon="-7.908857"><ele>740.1428571428571</ele><time>2026-04-25T17:04:41.623Z</time></trkpt><trkpt lat="41.2050613" lon="-7.9087691"><ele>746.0</ele><time>2026-04-25T17:04:42.637Z</time></trkpt><trkpt lat="41.2050047" lon="-7.9087134"><ele>746.0</ele><time>2026-04-25T17:04:43.623Z</time></trkpt><trkpt lat="41.2049214" lon="-7.9086837"><ele>746.0</ele><time>2026-04-25T17:04:44.623Z</time></trkpt><trkpt lat="41.2048228" lon="-7.9086691"><ele>746.0</ele><time>2026-04-25T17:04:45.629Z</time></trkpt><trkpt lat="41.2047206" lon="-7.9086655"><ele>746.0</ele><time>2026-04-25T17:04:46.624Z</time></trkpt><trkpt lat="41.204638" lon="-7.9086974"><ele>746.0</ele><time>2026-04-25T17:04:47.627Z</time></trkpt><trkpt lat="41.2045558" lon="-7.9087432"><ele>745.6666666666666</ele><time>2026-04-25T17:04:48.627Z</time></trkpt><trkpt lat="41.204466" lon="-7.9087761"><ele>745.3333333333333</ele><time>2026-04-25T17:04:49.633Z</time></trkpt><trkpt lat="41.204391" lon="-7.9088"><ele>745.0</ele><time>2026-04-25T17:04:50.622Z</time></trkpt><trkpt lat="41.2042954" lon="-7.9088171"><ele>744.6666666666666</ele><time>2026-04-25T17:04:51.627Z</time></trkpt><trkpt lat="41.2042033" lon="-7.9088262"><ele>744.3333333333334</ele><time>2026-04-25T17:04:52.635Z</time></trkpt><trkpt lat="41.2041143" lon="-7.9088269"><ele>744.0</ele><time>2026-04-25T17:04:53.627Z</time></trkpt><trkpt lat="41.2040247" lon="-7.9088258"><ele>744.2</ele><time>2026-04-25T17:04:54.623Z</time></trkpt><trkpt lat="41.2039315" lon="-7.9088253"><ele>744.4000000000001</ele><time>2026-04-25T17:04:55.623Z</time></trkpt><trkpt lat="41.2038392" lon="-7.9088273"><ele>744.6</ele><time>2026-04-25T17:04:56.624Z</time></trkpt><trkpt lat="41.2037412" lon="-7.9088264"><ele>744.8</ele><time>2026-04-25T17:04:57.626Z</time></trkpt><trkpt lat="41.2036351" lon="-7.9088166"><ele>745.0</ele><time>2026-04-25T17:04:58.625Z</time></trkpt><trkpt lat="41.2035251" lon="-7.9088015"><ele>745.0</ele><time>2026-04-25T17:04:59.63Z</time></trkpt><trkpt lat="41.2034153" lon="-7.9087835"><ele>745.0</ele><time>2026-04-25T17:05:00.627Z</time></trkpt><trkpt lat="41.20331" lon="-7.9087578"><ele>745.0</ele><time>2026-04-25T17:05:01.623Z</time></trkpt><trkpt lat="41.2032076" lon="-7.9087265"><ele>745.0</ele><time>2026-04-25T17:05:02.634Z</time></trkpt><trkpt lat="41.2031046" lon="-7.908693"><ele>745.0</ele><time>2026-04-25T17:05:03.636Z</time></trkpt><trkpt lat="41.2030055" lon="-7.9086593"><ele>743.0</ele><time>2026-04-25T17:05:04.629Z</time></trkpt><trkpt lat="41.2029053" lon="-7.9086198"><ele>741.0</ele><time>2026-04-25T17:05:05.626Z</time></trkpt><trkpt lat="41.2028055" lon="-7.9085706"><ele>739.0</ele><time>2026-04-25T17:05:06.628Z</time></trkpt><trkpt lat="41.2027069" lon="-7.9085155"><ele>737.0</ele><time>2026-04-25T17:05:07.636Z</time></trkpt><trkpt lat="41.2026143" lon="-7.9084605"><ele>735.0</ele><time>2026-04-25T17:05:08.627Z</time></trkpt><trkpt lat="41.2025208" lon="-7.9084106"><ele>743.2</ele><time>2026-04-25T17:05:09.625Z</time></trkpt><trkpt lat="41.2024323" lon="-7.9083553"><ele>751.4</ele><time>2026-04-25T17:05:10.636Z</time></trkpt><trkpt lat="41.202353" lon="-7.908292"><ele>759.5999999999999</ele><time>2026-04-25T17:05:11.622Z</time></trkpt><trkpt lat="41.2022703" lon="-7.9082607"><ele>767.8</ele><time>2026-04-25T17:05:12.623Z</time></trkpt><trkpt lat="41.2021797" lon="-7.9082314"><ele>776.0</ele><time>2026-04-25T17:05:13.628Z</time></trkpt><trkpt lat="41.2020679" lon="-7.9082063"><ele>776.4</ele><time>2026-04-25T17:05:14.626Z</time></trkpt><trkpt lat="41.2019742" lon="-7.9081882"><ele>776.8</ele><time>2026-04-25T17:05:15.629Z</time></trkpt><trkpt lat="41.2018822" lon="-7.9081773"><ele>777.1999999999999</ele><time>2026-04-25T17:05:16.634Z</time></trkpt><trkpt lat="41.2017832" lon="-7.9081702"><ele>777.5999999999999</ele><time>2026-04-25T17:05:17.626Z</time></trkpt><trkpt lat="41.2016778" lon="-7.9081794"><ele>778.0</ele><time>2026-04-25T17:05:18.634Z</time></trkpt><trkpt lat="41.2015756" lon="-7.9081995"><ele>782.4</ele><time>2026-04-25T17:05:19.623Z</time></trkpt><trkpt lat="41.2014732" lon="-7.9082211"><ele>786.8</ele><time>2026-04-25T17:05:20.629Z</time></trkpt><trkpt lat="41.2013743" lon="-7.9082461"><ele>791.2</ele><time>2026-04-25T17:05:21.621Z</time></trkpt><trkpt lat="41.2012848" lon="-7.9082918"><ele>795.6</ele><time>2026-04-25T17:05:22.624Z</time></trkpt><trkpt lat="41.2011952" lon="-7.9083484"><ele>800.0</ele><time>2026-04-25T17:05:23.628Z</time></trkpt><trkpt lat="41.2011147" lon="-7.9083978"><ele>792.6</ele><time>2026-04-25T17:05:24.618Z</time></trkpt><trkpt lat="41.2010315" lon="-7.908452"><ele>785.2</ele><time>2026-04-25T17:05:25.624Z</time></trkpt><trkpt lat="41.2009438" lon="-7.9085057"><ele>777.8</ele><time>2026-04-25T17:05:26.624Z</time></trkpt><trkpt lat="41.2008727" lon="-7.9085681"><ele>770.4</ele><time>2026-04-25T17:05:27.626Z</time></trkpt><trkpt lat="41.2007916" lon="-7.9086297"><ele>763.0</ele><time>2026-04-25T17:05:28.628Z</time></trkpt><trkpt lat="41.200702" lon="-7.9086858"><ele>773.25</ele><time>2026-04-25T17:05:29.626Z</time></trkpt><trkpt lat="41.2006056" lon="-7.9087529"><ele>783.5</ele><time>2026-04-25T17:05:30.624Z</time></trkpt><trkpt lat="41.2005113" lon="-7.9088364"><ele>793.75</ele><time>2026-04-25T17:05:31.623Z</time></trkpt><trkpt lat="41.2004188" lon="-7.9089441"><ele>804.0</ele><time>2026-04-25T17:05:32.628Z</time></trkpt><trkpt lat="41.2003338" lon="-7.9090684"><ele>804.0</ele><time>2026-04-25T17:05:33.63Z</time></trkpt><trkpt lat="41.2002563" lon="-7.9091984"><ele>804.0</ele><time>2026-04-25T17:05:34.629Z</time></trkpt><trkpt lat="41.2001884" lon="-7.9093237"><ele>804.0</ele><time>2026-04-25T17:05:35.623Z</time></trkpt><trkpt lat="41.2001172" lon="-7.9094326"><ele>804.0</ele><time>2026-04-25T17:05:36.627Z</time></trkpt><trkpt lat="41.2000375" lon="-7.9095456"><ele>802.25</ele><time>2026-04-25T17:05:37.626Z</time></trkpt><trkpt lat="41.1999571" lon="-7.9096559"><ele>800.5</ele><time>2026-04-25T17:05:38.626Z</time></trkpt><trkpt lat="41.1998714" lon="-7.9097526"><ele>798.75</ele><time>2026-04-25T17:05:39.628Z</time></trkpt><trkpt lat="41.1997785" lon="-7.9098367"><ele>797.0</ele><time>2026-04-25T17:05:40.623Z</time></trkpt><trkpt lat="41.1996741" lon="-7.9099038"><ele>797.0</ele><time>2026-04-25T17:05:41.628Z</time></trkpt><trkpt lat="41.1995613" lon="-7.9099561"><ele>797.0</ele><time>2026-04-25T17:05:42.63Z</time></trkpt><trkpt lat="41.1994524" lon="-7.9100043"><ele>797.0</ele><time>2026-04-25T17:05:43.632Z</time></trkpt><trkpt lat="41.199349" lon="-7.9100502"><ele>797.0</ele><time>2026-04-25T17:05:44.628Z</time></trkpt><trkpt lat="41.1992446" lon="-7.9100799"><ele>796.8</ele><time>2026-04-25T17:05:45.622Z</time></trkpt><trkpt lat="41.1991381" lon="-7.9101051"><ele>796.6</ele><time>2026-04-25T17:05:46.623Z</time></trkpt><trkpt lat="41.1990304" lon="-7.9101324"><ele>796.4</ele><time>2026-04-25T17:05:47.625Z</time></trkpt><trkpt lat="41.1989214" lon="-7.9101735"><ele>796.1999999999999</ele><time>2026-04-25T17:05:48.624Z</time></trkpt><trkpt lat="41.1988123" lon="-7.9102311"><ele>796.0</ele><time>2026-04-25T17:05:49.627Z</time></trkpt><trkpt lat="41.1986973" lon="-7.9102904"><ele>796.0</ele><time>2026-04-25T17:05:50.622Z</time></trkpt><trkpt lat="41.1985876" lon="-7.910363"><ele>796.0</ele><time>2026-04-25T17:05:51.624Z</time></trkpt><trkpt lat="41.1984902" lon="-7.9104452"><ele>796.0</ele><time>2026-04-25T17:05:52.631Z</time></trkpt><trkpt lat="41.1984017" lon="-7.9105287"><ele>796.0</ele><time>2026-04-25T17:05:53.628Z</time></trkpt><trkpt lat="41.1983327" lon="-7.9106303"><ele>796.0</ele><time>2026-04-25T17:05:54.621Z</time></trkpt><trkpt lat="41.198278" lon="-7.9107534"><ele>796.0</ele><time>2026-04-25T17:05:55.624Z</time></trkpt><trkpt lat="41.1982255" lon="-7.9108918"><ele>796.0</ele><time>2026-04-25T17:05:56.626Z</time></trkpt><trkpt lat="41.1981717" lon="-7.911035"><ele>796.0</ele><time>2026-04-25T17:05:57.628Z</time></trkpt><trkpt lat="41.1981147" lon="-7.9111667"><ele>796.0</ele><time>2026-04-25T17:05:58.629Z</time></trkpt><trkpt lat="41.1980562" lon="-7.9112935"><ele>793.0</ele><time>2026-04-25T17:05:59.622Z</time></trkpt><trkpt lat="41.1979984" lon="-7.911402"><ele>790.0</ele><time>2026-04-25T17:06:00.626Z</time></trkpt><trkpt lat="41.1979375" lon="-7.9115002"><ele>787.0</ele><time>2026-04-25T17:06:01.627Z</time></trkpt><trkpt lat="41.1978692" lon="-7.9115633"><ele>784.0</ele><time>2026-04-25T17:06:02.629Z</time></trkpt><trkpt lat="41.1977716" lon="-7.9115948"><ele>781.0</ele><time>2026-04-25T17:06:03.626Z</time></trkpt><trkpt lat="41.1976721" lon="-7.9116037"><ele>781.0</ele><time>2026-04-25T17:06:04.628Z</time></trkpt><trkpt lat="41.197571" lon="-7.9116169"><ele>781.0</ele><time>2026-04-25T17:06:05.62Z</time></trkpt><trkpt lat="41.197464" lon="-7.9116296"><ele>781.0</ele><time>2026-04-25T17:06:06.621Z</time></trkpt><trkpt lat="41.1973515" lon="-7.9116443"><ele>781.0</ele><time>2026-04-25T17:06:07.635Z</time></trkpt><trkpt lat="41.197241" lon="-7.9116675"><ele>781.0</ele><time>2026-04-25T17:06:08.622Z</time></trkpt><trkpt lat="41.1971297" lon="-7.911692"><ele>777.8</ele><time>2026-04-25T17:06:09.627Z</time></trkpt><trkpt lat="41.19702" lon="-7.9117175"><ele>774.5999999999999</ele><time>2026-04-25T17:06:10.629Z</time></trkpt><trkpt lat="41.196911" lon="-7.9117484"><ele>771.4</ele><time>2026-04-25T17:06:11.626Z</time></trkpt><trkpt lat="41.196805" lon="-7.9117874"><ele>768.2</ele><time>2026-04-25T17:06:12.625Z</time></trkpt><trkpt lat="41.1967058" lon="-7.911836"><ele>765.0</ele><time>2026-04-25T17:06:13.619Z</time></trkpt><trkpt lat="41.196613" lon="-7.911893"><ele>765.0</ele><time>2026-04-25T17:06:14.625Z</time></trkpt><trkpt lat="41.196524" lon="-7.9119613"><ele>765.0</ele><time>2026-04-25T17:06:15.63Z</time></trkpt><trkpt lat="41.1964364" lon="-7.9120361"><ele>765.0</ele><time>2026-04-25T17:06:16.622Z</time></trkpt><trkpt lat="41.1963518" lon="-7.9121147"><ele>765.0</ele><time>2026-04-25T17:06:17.621Z</time></trkpt><trkpt lat="41.1962709" lon="-7.9122055"><ele>765.0</ele><time>2026-04-25T17:06:18.63Z</time></trkpt><trkpt lat="41.1961883" lon="-7.9122964"><ele>764.25</ele><time>2026-04-25T17:06:19.625Z</time></trkpt><trkpt lat="41.1961067" lon="-7.912399"><ele>763.5</ele><time>2026-04-25T17:06:20.627Z</time></trkpt><trkpt lat="41.1960193" lon="-7.9125076"><ele>762.75</ele><time>2026-04-25T17:06:21.627Z</time></trkpt><trkpt lat="41.1959399" lon="-7.9126298"><ele>762.0</ele><time>2026-04-25T17:06:22.627Z</time></trkpt><trkpt lat="41.1958629" lon="-7.9127359"><ele>762.0</ele><time>2026-04-25T17:06:23.627Z</time></trkpt><trkpt lat="41.1957808" lon="-7.9128252"><ele>762.0</ele><time>2026-04-25T17:06:24.627Z</time></trkpt><trkpt lat="41.1957009" lon="-7.9129205"><ele>762.0</ele><time>2026-04-25T17:06:25.63Z</time></trkpt><trkpt lat="41.1956084" lon="-7.9130076"><ele>762.0</ele><time>2026-04-25T17:06:26.628Z</time></trkpt><trkpt lat="41.1955075" lon="-7.9130875"><ele>762.0</ele><time>2026-04-25T17:06:27.622Z</time></trkpt><trkpt lat="41.1954075" lon="-7.913169"><ele>765.2</ele><time>2026-04-25T17:06:28.625Z</time></trkpt><trkpt lat="41.1953196" lon="-7.9132587"><ele>768.4000000000001</ele><time>2026-04-25T17:06:29.624Z</time></trkpt><trkpt lat="41.1952411" lon="-7.9133572"><ele>771.5999999999999</ele><time>2026-04-25T17:06:30.627Z</time></trkpt><trkpt lat="41.1951765" lon="-7.9134553"><ele>774.8</ele><time>2026-04-25T17:06:31.623Z</time></trkpt><trkpt lat="41.1951317" lon="-7.9135552"><ele>778.0</ele><time>2026-04-25T17:06:32.626Z</time></trkpt><trkpt lat="41.1951002" lon="-7.9136596"><ele>778.0</ele><time>2026-04-25T17:06:33.622Z</time></trkpt><trkpt lat="41.1950744" lon="-7.9137716"><ele>778.0</ele><time>2026-04-25T17:06:34.625Z</time></trkpt><trkpt lat="41.195058" lon="-7.913889"><ele>778.0</ele><time>2026-04-25T17:06:35.622Z</time></trkpt><trkpt lat="41.1950509" lon="-7.9140149"><ele>778.0</ele><time>2026-04-25T17:06:36.626Z</time></trkpt><trkpt lat="41.1950605" lon="-7.914138"><ele>778.0</ele><time>2026-04-25T17:06:37.619Z</time></trkpt><trkpt lat="41.1950799" lon="-7.9142591"><ele>775.3333333333333</ele><time>2026-04-25T17:06:38.621Z</time></trkpt><trkpt lat="41.1951032" lon="-7.9143769"><ele>772.6666666666666</ele><time>2026-04-25T17:06:39.621Z</time></trkpt><trkpt lat="41.1951286" lon="-7.9144893"><ele>770.0</ele><time>2026-04-25T17:06:40.625Z</time></trkpt><trkpt lat="41.1951528" lon="-7.9145867"><ele>767.3333333333333</ele><time>2026-04-25T17:06:41.622Z</time></trkpt><trkpt lat="41.1951766" lon="-7.9146759"><ele>764.6666666666666</ele><time>2026-04-25T17:06:42.622Z</time></trkpt><trkpt lat="41.1951943" lon="-7.9147562"><ele>762.0</ele><time>2026-04-25T17:06:43.62Z</time></trkpt><trkpt lat="41.1951916" lon="-7.9148853"><ele>762.0</ele><time>2026-04-25T17:06:45.63Z</time></trkpt><trkpt lat="41.1951321" lon="-7.9150118"><ele>762.0</ele><time>2026-04-25T17:06:47.628Z</time></trkpt><trkpt lat="41.1950747" lon="-7.9150616"><ele>762.0</ele><time>2026-04-25T17:06:48.625Z</time></trkpt><trkpt lat="41.1950074" lon="-7.9151007"><ele>762.0</ele><time>2026-04-25T17:06:49.62Z</time></trkpt><trkpt lat="41.1949398" lon="-7.9151367"><ele>762.0</ele><time>2026-04-25T17:06:50.621Z</time></trkpt><trkpt lat="41.1948751" lon="-7.915171"><ele>762.0</ele><time>2026-04-25T17:06:51.621Z</time></trkpt><trkpt lat="41.1948099" lon="-7.9152007"><ele>757.1428571428571</ele><time>2026-04-25T17:06:52.626Z</time></trkpt><trkpt lat="41.1947392" lon="-7.9152326"><ele>752.2857142857143</ele><time>2026-04-25T17:06:53.626Z</time></trkpt><trkpt lat="41.1946723" lon="-7.9152728"><ele>747.4285714285714</ele><time>2026-04-25T17:06:54.626Z</time></trkpt><trkpt lat="41.1946005" lon="-7.9153175"><ele>742.5714285714286</ele><time>2026-04-25T17:06:55.621Z</time></trkpt><trkpt lat="41.1945282" lon="-7.9153623"><ele>737.7142857142858</ele><time>2026-04-25T17:06:56.627Z</time></trkpt><trkpt lat="41.1944588" lon="-7.9154045"><ele>732.8571428571429</ele><time>2026-04-25T17:06:57.633Z</time></trkpt><trkpt lat="41.1943974" lon="-7.9154348"><ele>728.0</ele><time>2026-04-25T17:06:58.627Z</time></trkpt><trkpt lat="41.1942825" lon="-7.9154763"><ele>728.0</ele><time>2026-04-25T17:07:00.63Z</time></trkpt><trkpt lat="41.1941716" lon="-7.9154705"><ele>728.0</ele><time>2026-04-25T17:07:02.625Z</time></trkpt><trkpt lat="41.1940512" lon="-7.915426"><ele>728.0</ele><time>2026-04-25T17:07:04.621Z</time></trkpt><trkpt lat="41.193987" lon="-7.9153774"><ele>728.0</ele><time>2026-04-25T17:07:05.622Z</time></trkpt><trkpt lat="41.193925" lon="-7.9153089"><ele>728.0</ele><time>2026-04-25T17:07:06.626Z</time></trkpt><trkpt lat="41.1938615" lon="-7.9152222"><ele>728.4</ele><time>2026-04-25T17:07:07.63Z</time></trkpt><trkpt lat="41.1937994" lon="-7.9151291"><ele>728.8</ele><time>2026-04-25T17:07:08.62Z</time></trkpt><trkpt lat="41.1937341" lon="-7.9150245"><ele>729.2</ele><time>2026-04-25T17:07:09.623Z</time></trkpt><trkpt lat="41.19366" lon="-7.9149184"><ele>729.6</ele><time>2026-04-25T17:07:10.627Z</time></trkpt><trkpt lat="41.1935785" lon="-7.9148161"><ele>730.0</ele><time>2026-04-25T17:07:11.626Z</time></trkpt><trkpt lat="41.193491" lon="-7.9147316"><ele>730.0</ele><time>2026-04-25T17:07:12.628Z</time></trkpt><trkpt lat="41.1933987" lon="-7.9146659"><ele>730.0</ele><time>2026-04-25T17:07:13.626Z</time></trkpt><trkpt lat="41.1933022" lon="-7.9146196"><ele>730.0</ele><time>2026-04-25T17:07:14.629Z</time></trkpt><trkpt lat="41.193207" lon="-7.9145863"><ele>730.0</ele><time>2026-04-25T17:07:15.623Z</time></trkpt><trkpt lat="41.1931089" lon="-7.9145648"><ele>730.0</ele><time>2026-04-25T17:07:16.63Z</time></trkpt><trkpt lat="41.1930169" lon="-7.9145476"><ele>726.5</ele><time>2026-04-25T17:07:17.627Z</time></trkpt><trkpt lat="41.1929338" lon="-7.9145249"><ele>723.0</ele><time>2026-04-25T17:07:18.624Z</time></trkpt><trkpt lat="41.1928461" lon="-7.9145096"><ele>719.5</ele><time>2026-04-25T17:07:19.628Z</time></trkpt><trkpt lat="41.1927656" lon="-7.9145103"><ele>716.0</ele><time>2026-04-25T17:07:20.625Z</time></trkpt><trkpt lat="41.1926839" lon="-7.9145119"><ele>712.5</ele><time>2026-04-25T17:07:21.626Z</time></trkpt><trkpt lat="41.1925964" lon="-7.9145152"><ele>709.0</ele><time>2026-04-25T17:07:22.624Z</time></trkpt><trkpt lat="41.1925091" lon="-7.9145132"><ele>709.0</ele><time>2026-04-25T17:07:23.628Z</time></trkpt><trkpt lat="41.1924312" lon="-7.9145027"><ele>709.0</ele><time>2026-04-25T17:07:24.621Z</time></trkpt><trkpt lat="41.1923462" lon="-7.914492"><ele>709.0</ele><time>2026-04-25T17:07:25.628Z</time></trkpt><trkpt lat="41.192258" lon="-7.914481"><ele>709.0</ele><time>2026-04-25T17:07:26.633Z</time></trkpt><trkpt lat="41.1921632" lon="-7.9144823"><ele>709.0</ele><time>2026-04-25T17:07:27.625Z</time></trkpt><trkpt lat="41.192072" lon="-7.9144999"><ele>709.0</ele><time>2026-04-25T17:07:28.626Z</time></trkpt><trkpt lat="41.1919914" lon="-7.9145218"><ele>706.6666666666667</ele><time>2026-04-25T17:07:29.625Z</time></trkpt><trkpt lat="41.1919227" lon="-7.9145444"><ele>704.3333333333334</ele><time>2026-04-25T17:07:30.627Z</time></trkpt><trkpt lat="41.1918065" lon="-7.9145616"><ele>702.0</ele><time>2026-04-25T17:07:32.625Z</time></trkpt><trkpt lat="41.1916959" lon="-7.9145613"><ele>699.6666666666666</ele><time>2026-04-25T17:07:34.632Z</time></trkpt><trkpt lat="41.1916276" lon="-7.9145592"><ele>697.3333333333333</ele><time>2026-04-25T17:07:35.623Z</time></trkpt><trkpt lat="41.1915579" lon="-7.9145551"><ele>695.0</ele><time>2026-04-25T17:07:36.627Z</time></trkpt><trkpt lat="41.1914848" lon="-7.9145518"><ele>693.8333333333333</ele><time>2026-04-25T17:07:37.628Z</time></trkpt><trkpt lat="41.1914104" lon="-7.9145517"><ele>692.6666666666666</ele><time>2026-04-25T17:07:38.629Z</time></trkpt><trkpt lat="41.1913352" lon="-7.9145535"><ele>691.5</ele><time>2026-04-25T17:07:39.623Z</time></trkpt><trkpt lat="41.1912571" lon="-7.9145559"><ele>690.3333333333334</ele><time>2026-04-25T17:07:40.629Z</time></trkpt><trkpt lat="41.1911754" lon="-7.9145651"><ele>689.1666666666667</ele><time>2026-04-25T17:07:41.627Z</time></trkpt><trkpt lat="41.1910961" lon="-7.9145811"><ele>688.0</ele><time>2026-04-25T17:07:42.629Z</time></trkpt><trkpt lat="41.191009" lon="-7.9145854"><ele>688.0</ele><time>2026-04-25T17:07:43.621Z</time></trkpt><trkpt lat="41.1909102" lon="-7.9146008"><ele>688.0</ele><time>2026-04-25T17:07:44.623Z</time></trkpt><trkpt lat="41.1908304" lon="-7.9146208"><ele>688.0</ele><time>2026-04-25T17:07:45.623Z</time></trkpt><trkpt lat="41.1907548" lon="-7.9146465"><ele>688.0</ele><time>2026-04-25T17:07:46.631Z</time></trkpt><trkpt lat="41.190677" lon="-7.9146614"><ele>688.0</ele><time>2026-04-25T17:07:47.627Z</time></trkpt><trkpt lat="41.1905944" lon="-7.9146653"><ele>688.0</ele><time>2026-04-25T17:07:48.625Z</time></trkpt><trkpt lat="41.1905093" lon="-7.9146668"><ele>686.8333333333334</ele><time>2026-04-25T17:07:49.626Z</time></trkpt><trkpt lat="41.1904237" lon="-7.9146733"><ele>685.6666666666667</ele><time>2026-04-25T17:07:50.622Z</time></trkpt><trkpt lat="41.1903408" lon="-7.9146859"><ele>684.5</ele><time>2026-04-25T17:07:51.626Z</time></trkpt><trkpt lat="41.190254" lon="-7.9146962"><ele>683.3333333333334</ele><time>2026-04-25T17:07:52.626Z</time></trkpt><trkpt lat="41.1901643" lon="-7.9147122"><ele>682.1666666666666</ele><time>2026-04-25T17:07:53.625Z</time></trkpt><trkpt lat="41.1900791" lon="-7.9147236"><ele>681.0</ele><time>2026-04-25T17:07:54.625Z</time></trkpt><trkpt lat="41.1899926" lon="-7.9147371"><ele>681.0</ele><time>2026-04-25T17:07:55.639Z</time></trkpt><trkpt lat="41.1899027" lon="-7.9147395"><ele>681.0</ele><time>2026-04-25T17:07:56.621Z</time></trkpt><trkpt lat="41.1898151" lon="-7.9147342"><ele>681.0</ele><time>2026-04-25T17:07:57.627Z</time></trkpt><trkpt lat="41.1897295" lon="-7.9147277"><ele>681.0</ele><time>2026-04-25T17:07:58.631Z</time></trkpt><trkpt lat="41.1896434" lon="-7.9147156"><ele>681.0</ele><time>2026-04-25T17:07:59.625Z</time></trkpt><trkpt lat="41.189557" lon="-7.9147008"><ele>681.0</ele><time>2026-04-25T17:08:00.628Z</time></trkpt><trkpt lat="41.1894604" lon="-7.9146914"><ele>678.5</ele><time>2026-04-25T17:08:01.621Z</time></trkpt><trkpt lat="41.189373" lon="-7.9146919"><ele>676.0</ele><time>2026-04-25T17:08:02.627Z</time></trkpt><trkpt lat="41.1892997" lon="-7.9147098"><ele>673.5</ele><time>2026-04-25T17:08:03.626Z</time></trkpt><trkpt lat="41.189228" lon="-7.9147253"><ele>671.0</ele><time>2026-04-25T17:08:04.624Z</time></trkpt><trkpt lat="41.189157" lon="-7.9147349"><ele>668.5</ele><time>2026-04-25T17:08:05.624Z</time></trkpt><trkpt lat="41.189074" lon="-7.9147415"><ele>666.0</ele><time>2026-04-25T17:08:06.629Z</time></trkpt><trkpt lat="41.1889888" lon="-7.9147524"><ele>665.1999999999999</ele><time>2026-04-25T17:08:07.62Z</time></trkpt><trkpt lat="41.1889009" lon="-7.9147691"><ele>664.4</ele><time>2026-04-25T17:08:08.628Z</time></trkpt><trkpt lat="41.1888243" lon="-7.9147882"><ele>663.6</ele><time>2026-04-25T17:08:09.624Z</time></trkpt><trkpt lat="41.1887342" lon="-7.9148268"><ele>662.8</ele><time>2026-04-25T17:08:10.623Z</time></trkpt><trkpt lat="41.188646" lon="-7.914868"><ele>662.0</ele><time>2026-04-25T17:08:11.625Z</time></trkpt><trkpt lat="41.1885512" lon="-7.9149174"><ele>662.0</ele><time>2026-04-25T17:08:12.624Z</time></trkpt><trkpt lat="41.1884606" lon="-7.9149641"><ele>662.0</ele><time>2026-04-25T17:08:13.619Z</time></trkpt><trkpt lat="41.1883684" lon="-7.915013"><ele>662.0</ele><time>2026-04-25T17:08:14.621Z</time></trkpt><trkpt lat="41.1882725" lon="-7.9150584"><ele>662.0</ele><time>2026-04-25T17:08:15.626Z</time></trkpt><trkpt lat="41.1881763" lon="-7.9151029"><ele>662.0</ele><time>2026-04-25T17:08:16.625Z</time></trkpt><trkpt lat="41.1880796" lon="-7.9151402"><ele>655.6</ele><time>2026-04-25T17:08:17.625Z</time></trkpt><trkpt lat="41.1879801" lon="-7.9151816"><ele>649.2</ele><time>2026-04-25T17:08:18.632Z</time></trkpt><trkpt lat="41.1878868" lon="-7.9152302"><ele>642.8</ele><time>2026-04-25T17:08:19.622Z</time></trkpt><trkpt lat="41.1877927" lon="-7.9152807"><ele>636.4</ele><time>2026-04-25T17:08:20.623Z</time></trkpt><trkpt lat="41.1877004" lon="-7.9153169"><ele>630.0</ele><time>2026-04-25T17:08:21.619Z</time></trkpt><trkpt lat="41.1876014" lon="-7.9153388"><ele>630.0</ele><time>2026-04-25T17:08:22.626Z</time></trkpt><trkpt lat="41.1875037" lon="-7.9153605"><ele>630.0</ele><time>2026-04-25T17:08:23.627Z</time></trkpt><trkpt lat="41.1874097" lon="-7.9153832"><ele>630.0</ele><time>2026-04-25T17:08:24.625Z</time></trkpt><trkpt lat="41.1873136" lon="-7.9154108"><ele>630.0</ele><time>2026-04-25T17:08:25.626Z</time></trkpt><trkpt lat="41.1872173" lon="-7.915425"><ele>630.0</ele><time>2026-04-25T17:08:26.627Z</time></trkpt><trkpt lat="41.1871258" lon="-7.91545"><ele>627.8</ele><time>2026-04-25T17:08:27.624Z</time></trkpt><trkpt lat="41.187045" lon="-7.9154661"><ele>625.6</ele><time>2026-04-25T17:08:28.62Z</time></trkpt><trkpt lat="41.1869767" lon="-7.9154819"><ele>623.4</ele><time>2026-04-25T17:08:29.627Z</time></trkpt><trkpt lat="41.1868553" lon="-7.9154697"><ele>621.2</ele><time>2026-04-25T17:08:31.62Z</time></trkpt><trkpt lat="41.1867328" lon="-7.9154217"><ele>619.0</ele><time>2026-04-25T17:08:33.623Z</time></trkpt><trkpt lat="41.1866731" lon="-7.9153776"><ele>619.0</ele><time>2026-04-25T17:08:34.621Z</time></trkpt><trkpt lat="41.1866237" lon="-7.9153227"><ele>619.0</ele><time>2026-04-25T17:08:35.62Z</time></trkpt><trkpt lat="41.186574" lon="-7.9151862"><ele>619.0</ele><time>2026-04-25T17:08:37.625Z</time></trkpt><trkpt lat="41.1865618" lon="-7.9151017"><ele>619.0</ele><time>2026-04-25T17:08:38.623Z</time></trkpt><trkpt lat="41.1865588" lon="-7.9150067"><ele>619.0</ele><time>2026-04-25T17:08:39.625Z</time></trkpt><trkpt lat="41.1865553" lon="-7.9149012"><ele>619.0</ele><time>2026-04-25T17:08:40.625Z</time></trkpt><trkpt lat="41.1865585" lon="-7.9147891"><ele>621.3333333333334</ele><time>2026-04-25T17:08:41.625Z</time></trkpt><trkpt lat="41.1865464" lon="-7.9146723"><ele>623.6666666666667</ele><time>2026-04-25T17:08:42.617Z</time></trkpt><trkpt lat="41.1865372" lon="-7.9145495"><ele>626.0</ele><time>2026-04-25T17:08:43.621Z</time></trkpt><trkpt lat="41.1865118" lon="-7.9144419"><ele>628.3333333333334</ele><time>2026-04-25T17:08:44.627Z</time></trkpt><trkpt lat="41.1864731" lon="-7.9143418"><ele>630.6666666666666</ele><time>2026-04-25T17:08:45.624Z</time></trkpt><trkpt lat="41.1864198" lon="-7.9142405"><ele>633.0</ele><time>2026-04-25T17:08:46.621Z</time></trkpt><trkpt lat="41.1863594" lon="-7.9141402"><ele>627.0</ele><time>2026-04-25T17:08:47.626Z</time></trkpt><trkpt lat="41.1862983" lon="-7.9140396"><ele>621.0</ele><time>2026-04-25T17:08:48.622Z</time></trkpt><trkpt lat="41.1862381" lon="-7.9139377"><ele>615.0</ele><time>2026-04-25T17:08:49.62Z</time></trkpt><trkpt lat="41.1861773" lon="-7.9138344"><ele>609.0</ele><time>2026-04-25T17:08:50.621Z</time></trkpt><trkpt lat="41.1861139" lon="-7.9137268"><ele>603.0</ele><time>2026-04-25T17:08:51.624Z</time></trkpt><trkpt lat="41.1860389" lon="-7.9136228"><ele>603.0</ele><time>2026-04-25T17:08:52.623Z</time></trkpt><trkpt lat="41.1859637" lon="-7.9135251"><ele>603.0</ele><time>2026-04-25T17:08:53.622Z</time></trkpt><trkpt lat="41.185884" lon="-7.9134438"><ele>603.0</ele><time>2026-04-25T17:08:54.621Z</time></trkpt><trkpt lat="41.1858024" lon="-7.9133714"><ele>603.0</ele><time>2026-04-25T17:08:55.63Z</time></trkpt><trkpt lat="41.1857209" lon="-7.9132996"><ele>603.0</ele><time>2026-04-25T17:08:56.623Z</time></trkpt><trkpt lat="41.1856352" lon="-7.9132236"><ele>600.0</ele><time>2026-04-25T17:08:57.625Z</time></trkpt><trkpt lat="41.185551" lon="-7.9131561"><ele>597.0</ele><time>2026-04-25T17:08:58.63Z</time></trkpt><trkpt lat="41.1854726" lon="-7.9130788"><ele>594.0</ele><time>2026-04-25T17:08:59.627Z</time></trkpt><trkpt lat="41.1853948" lon="-7.913"><ele>591.0</ele><time>2026-04-25T17:09:00.623Z</time></trkpt><trkpt lat="41.1853145" lon="-7.9129247"><ele>588.0</ele><time>2026-04-25T17:09:01.625Z</time></trkpt><trkpt lat="41.1852325" lon="-7.9128495"><ele>588.0</ele><time>2026-04-25T17:09:02.619Z</time></trkpt><trkpt lat="41.1851433" lon="-7.9127814"><ele>588.0</ele><time>2026-04-25T17:09:03.623Z</time></trkpt><trkpt lat="41.1850502" lon="-7.9127254"><ele>588.0</ele><time>2026-04-25T17:09:04.63Z</time></trkpt><trkpt lat="41.1849521" lon="-7.9126812"><ele>588.0</ele><time>2026-04-25T17:09:05.628Z</time></trkpt><trkpt lat="41.1848488" lon="-7.9126573"><ele>588.0</ele><time>2026-04-25T17:09:06.62Z</time></trkpt><trkpt lat="41.1847427" lon="-7.9126439"><ele>588.0</ele><time>2026-04-25T17:09:07.623Z</time></trkpt><trkpt lat="41.1846418" lon="-7.9126309"><ele>588.0</ele><time>2026-04-25T17:09:08.628Z</time></trkpt><trkpt lat="41.1845432" lon="-7.9126137"><ele>588.0</ele><time>2026-04-25T17:09:09.635Z</time></trkpt><trkpt lat="41.1844561" lon="-7.9125999"><ele>588.0</ele><time>2026-04-25T17:09:10.62Z</time></trkpt><trkpt lat="41.1843765" lon="-7.9125806"><ele>588.0</ele><time>2026-04-25T17:09:11.62Z</time></trkpt><trkpt lat="41.1843062" lon="-7.9125479"><ele>588.0</ele><time>2026-04-25T17:09:12.622Z</time></trkpt><trkpt lat="41.1842376" lon="-7.9125057"><ele>588.0</ele><time>2026-04-25T17:09:13.62Z</time></trkpt><trkpt lat="41.1841686" lon="-7.9124493"><ele>588.0</ele><time>2026-04-25T17:09:14.624Z</time></trkpt><trkpt lat="41.1841161" lon="-7.9123739"><ele>588.0</ele><time>2026-04-25T17:09:15.618Z</time></trkpt><trkpt lat="41.1840726" lon="-7.912292"><ele>588.0</ele><time>2026-04-25T17:09:16.62Z</time></trkpt><trkpt lat="41.1840454" lon="-7.9121939"><ele>588.0</ele><time>2026-04-25T17:09:17.627Z</time></trkpt><trkpt lat="41.184028" lon="-7.9120996"><ele>588.0</ele><time>2026-04-25T17:09:18.62Z</time></trkpt><trkpt lat="41.1840117" lon="-7.9120109"><ele>588.0</ele><time>2026-04-25T17:09:19.626Z</time></trkpt><trkpt lat="41.1840064" lon="-7.9118586"><ele>588.0</ele><time>2026-04-25T17:09:21.622Z</time></trkpt><trkpt lat="41.1840301" lon="-7.9117724"><ele>588.0</ele><time>2026-04-25T17:09:22.62Z</time></trkpt><trkpt lat="41.1840652" lon="-7.9116931"><ele>588.0</ele><time>2026-04-25T17:09:23.623Z</time></trkpt><trkpt lat="41.1841036" lon="-7.9116128"><ele>588.0</ele><time>2026-04-25T17:09:24.621Z</time></trkpt><trkpt lat="41.184145" lon="-7.9115309"><ele>588.0</ele><time>2026-04-25T17:09:25.627Z</time></trkpt><trkpt lat="41.184179" lon="-7.9114474"><ele>587.0</ele><time>2026-04-25T17:09:26.629Z</time></trkpt><trkpt lat="41.1842146" lon="-7.9113701"><ele>586.0</ele><time>2026-04-25T17:09:27.624Z</time></trkpt><trkpt lat="41.184249" lon="-7.9112945"><ele>585.0</ele><time>2026-04-25T17:09:28.619Z</time></trkpt><trkpt lat="41.1842774" lon="-7.9112135"><ele>584.0</ele><time>2026-04-25T17:09:29.624Z</time></trkpt><trkpt lat="41.1843116" lon="-7.9111263"><ele>583.0</ele><time>2026-04-25T17:09:30.62Z</time></trkpt><trkpt lat="41.1843416" lon="-7.9110351"><ele>582.0</ele><time>2026-04-25T17:09:31.622Z</time></trkpt><trkpt lat="41.1843694" lon="-7.9109465"><ele>581.0</ele><time>2026-04-25T17:09:32.629Z</time></trkpt><trkpt lat="41.1843987" lon="-7.9108635"><ele>579.1666666666666</ele><time>2026-04-25T17:09:33.624Z</time></trkpt><trkpt lat="41.1844277" lon="-7.9107792"><ele>577.3333333333333</ele><time>2026-04-25T17:09:34.623Z</time></trkpt><trkpt lat="41.1844659" lon="-7.9106482"><ele>575.5</ele><time>2026-04-25T17:09:36.627Z</time></trkpt><trkpt lat="41.1844511" lon="-7.9105503"><ele>573.6666666666666</ele><time>2026-04-25T17:09:38.626Z</time></trkpt><trkpt lat="41.1843616" lon="-7.9105637"><ele>571.8333333333334</ele><time>2026-04-25T17:09:41.623Z</time></trkpt><trkpt lat="41.1843005" lon="-7.9106813"><ele>570.0</ele><time>2026-04-25T17:09:43.62Z</time></trkpt><trkpt lat="41.1842566" lon="-7.9107651"><ele>570.0</ele><time>2026-04-25T17:09:44.622Z</time></trkpt><trkpt lat="41.1842035" lon="-7.9108571"><ele>570.0</ele><time>2026-04-25T17:09:45.621Z</time></trkpt><trkpt lat="41.1841469" lon="-7.9109522"><ele>570.0</ele><time>2026-04-25T17:09:46.618Z</time></trkpt><trkpt lat="41.1840879" lon="-7.9110513"><ele>570.0</ele><time>2026-04-25T17:09:47.62Z</time></trkpt><trkpt lat="41.1840237" lon="-7.9111539"><ele>570.0</ele><time>2026-04-25T17:09:48.628Z</time></trkpt><trkpt lat="41.1839459" lon="-7.9112609"><ele>568.2</ele><time>2026-04-25T17:09:49.623Z</time></trkpt><trkpt lat="41.1838637" lon="-7.9113651"><ele>566.4</ele><time>2026-04-25T17:09:50.625Z</time></trkpt><trkpt lat="41.1837835" lon="-7.9114625"><ele>564.6</ele><time>2026-04-25T17:09:51.622Z</time></trkpt><trkpt lat="41.1837016" lon="-7.9115587"><ele>562.8</ele><time>2026-04-25T17:09:52.619Z</time></trkpt><trkpt lat="41.1836141" lon="-7.911645"><ele>561.0</ele><time>2026-04-25T17:09:53.618Z</time></trkpt><trkpt lat="41.1835249" lon="-7.9117418"><ele>561.0</ele><time>2026-04-25T17:09:54.622Z</time></trkpt><trkpt lat="41.1834374" lon="-7.9118307"><ele>561.0</ele><time>2026-04-25T17:09:55.621Z</time></trkpt><trkpt lat="41.1833506" lon="-7.9119177"><ele>561.0</ele><time>2026-04-25T17:09:56.619Z</time></trkpt><trkpt lat="41.1832626" lon="-7.911997"><ele>561.0</ele><time>2026-04-25T17:09:57.625Z</time></trkpt><trkpt lat="41.1831767" lon="-7.9120649"><ele>561.0</ele><time>2026-04-25T17:09:58.624Z</time></trkpt><trkpt lat="41.1830975" lon="-7.912125"><ele>556.5</ele><time>2026-04-25T17:09:59.621Z</time></trkpt><trkpt lat="41.1830152" lon="-7.9121859"><ele>552.0</ele><time>2026-04-25T17:10:00.62Z</time></trkpt><trkpt lat="41.1829392" lon="-7.9122504"><ele>547.5</ele><time>2026-04-25T17:10:01.62Z</time></trkpt><trkpt lat="41.182884" lon="-7.9123244"><ele>543.0</ele><time>2026-04-25T17:10:02.627Z</time></trkpt><trkpt lat="41.1828439" lon="-7.9123979"><ele>538.5</ele><time>2026-04-25T17:10:03.624Z</time></trkpt><trkpt lat="41.1828039" lon="-7.9125357"><ele>534.0</ele><time>2026-04-25T17:10:05.62Z</time></trkpt><trkpt lat="41.1827937" lon="-7.9126625"><ele>531.8333333333334</ele><time>2026-04-25T17:10:07.628Z</time></trkpt><trkpt lat="41.1828168" lon="-7.9127406"><ele>529.6666666666666</ele><time>2026-04-25T17:10:10.625Z</time></trkpt><trkpt lat="41.1827833" lon="-7.912814"><ele>527.5</ele><time>2026-04-25T17:10:34.63Z</time></trkpt><trkpt lat="41.1827437" lon="-7.9128844"><ele>525.3333333333333</ele><time>2026-04-25T17:10:38.62Z</time></trkpt><trkpt lat="41.182672" lon="-7.9129429"><ele>523.1666666666666</ele><time>2026-04-25T17:10:42.625Z</time></trkpt><trkpt lat="41.1826138" lon="-7.9130469"><ele>521.0</ele><time>2026-04-25T17:10:44.622Z</time></trkpt><trkpt lat="41.1825509" lon="-7.9131603"><ele>521.0</ele><time>2026-04-25T17:10:46.625Z</time></trkpt><trkpt lat="41.1824989" lon="-7.9132242"><ele>521.0</ele><time>2026-04-25T17:10:48.622Z</time></trkpt><trkpt lat="41.1824325" lon="-7.9132943"><ele>521.0</ele><time>2026-04-25T17:10:51.624Z</time></trkpt><trkpt lat="41.1823892" lon="-7.9133952"><ele>521.0</ele><time>2026-04-25T17:10:54.623Z</time></trkpt><trkpt lat="41.1823541" lon="-7.9134838"><ele>521.0</ele><time>2026-04-25T17:10:58.618Z</time></trkpt><trkpt lat="41.1822959" lon="-7.9134465"><ele>521.0</ele><time>2026-04-25T17:11:14.628Z</time></trkpt><trkpt lat="41.1822412" lon="-7.9134044"><ele>521.0</ele><time>2026-04-25T17:11:18.624Z</time></trkpt><trkpt lat="41.182174" lon="-7.9133442"><ele>516.2</ele><time>2026-04-25T17:11:21.623Z</time></trkpt><trkpt lat="41.1821156" lon="-7.9132422"><ele>511.40000000000003</ele><time>2026-04-25T17:11:24.628Z</time></trkpt><trkpt lat="41.1820451" lon="-7.9131497"><ele>506.6</ele><time>2026-04-25T17:11:26.619Z</time></trkpt><trkpt lat="41.1819836" lon="-7.9130656"><ele>501.8</ele><time>2026-04-25T17:11:28.627Z</time></trkpt><trkpt lat="41.1819311" lon="-7.9129619"><ele>497.0</ele><time>2026-04-25T17:11:30.625Z</time></trkpt><trkpt lat="41.1819069" lon="-7.9127895"><ele>496.99999999999994</ele><time>2026-04-25T17:11:32.625Z</time></trkpt><trkpt lat="41.1818908" lon="-7.9126929"><ele>497.0</ele><time>2026-04-25T17:11:33.616Z</time></trkpt><trkpt lat="41.1818827" lon="-7.9126021"><ele>497.0</ele><time>2026-04-25T17:11:34.617Z</time></trkpt><trkpt lat="41.1818586" lon="-7.9124404"><ele>497.0</ele><time>2026-04-25T17:11:36.623Z</time></trkpt><trkpt lat="41.1818462" lon="-7.9123533"><ele>496.99999999999994</ele><time>2026-04-25T17:11:37.626Z</time></trkpt><trkpt lat="41.1818322" lon="-7.9122538"><ele>497.0</ele><time>2026-04-25T17:11:38.634Z</time></trkpt><trkpt lat="41.1818105" lon="-7.9121469"><ele>497.16666666666663</ele><time>2026-04-25T17:11:39.625Z</time></trkpt><trkpt lat="41.1817853" lon="-7.9120355"><ele>497.3333333333333</ele><time>2026-04-25T17:11:40.62Z</time></trkpt><trkpt lat="41.1817593" lon="-7.9119316"><ele>497.5</ele><time>2026-04-25T17:11:41.621Z</time></trkpt><trkpt lat="41.1817319" lon="-7.9118392"><ele>497.66666666666663</ele><time>2026-04-25T17:11:42.622Z</time></trkpt><trkpt lat="41.181711" lon="-7.911752"><ele>497.8333333333333</ele><time>2026-04-25T17:11:43.62Z</time></trkpt><trkpt lat="41.1817384" lon="-7.9115999"><ele>498.0</ele><time>2026-04-25T17:11:45.622Z</time></trkpt><trkpt lat="41.1817789" lon="-7.9115315"><ele>496.6666666666667</ele><time>2026-04-25T17:11:46.633Z</time></trkpt><trkpt lat="41.1818291" lon="-7.9114745"><ele>495.33333333333337</ele><time>2026-04-25T17:11:47.621Z</time></trkpt><trkpt lat="41.181887" lon="-7.911427"><ele>494.0</ele><time>2026-04-25T17:11:48.622Z</time></trkpt><trkpt lat="41.1819419" lon="-7.9113766"><ele>492.6666666666667</ele><time>2026-04-25T17:11:49.621Z</time></trkpt><trkpt lat="41.1820417" lon="-7.9112845"><ele>491.33333333333337</ele><time>2026-04-25T17:11:51.62Z</time></trkpt><trkpt lat="41.1820987" lon="-7.9112461"><ele>490.0</ele><time>2026-04-25T17:11:52.624Z</time></trkpt><trkpt lat="41.182161" lon="-7.9112083"><ele>490.00000000000006</ele><time>2026-04-25T17:11:53.62Z</time></trkpt><trkpt lat="41.1822264" lon="-7.9111585"><ele>490.0</ele><time>2026-04-25T17:11:54.622Z</time></trkpt><trkpt lat="41.1822923" lon="-7.9111061"><ele>490.0</ele><time>2026-04-25T17:11:55.622Z</time></trkpt><trkpt lat="41.1823595" lon="-7.9110578"><ele>490.0</ele><time>2026-04-25T17:11:56.628Z</time></trkpt><trkpt lat="41.1824254" lon="-7.9110128"><ele>490.00000000000006</ele><time>2026-04-25T17:11:57.623Z</time></trkpt><trkpt lat="41.1824934" lon="-7.9109785"><ele>490.0</ele><time>2026-04-25T17:11:58.629Z</time></trkpt><trkpt lat="41.1825749" lon="-7.9109585"><ele>491.50000000000006</ele><time>2026-04-25T17:11:59.623Z</time></trkpt><trkpt lat="41.1826635" lon="-7.9109448"><ele>493.0</ele><time>2026-04-25T17:12:00.62Z</time></trkpt><trkpt lat="41.1827509" lon="-7.9109257"><ele>494.5</ele><time>2026-04-25T17:12:01.62Z</time></trkpt><trkpt lat="41.1828253" lon="-7.9108948"><ele>496.0</ele><time>2026-04-25T17:12:02.625Z</time></trkpt><trkpt lat="41.182892" lon="-7.9108539"><ele>497.50000000000006</ele><time>2026-04-25T17:12:03.626Z</time></trkpt><trkpt lat="41.1829491" lon="-7.9108012"><ele>499.0</ele><time>2026-04-25T17:12:04.627Z</time></trkpt><trkpt lat="41.1829863" lon="-7.9107246"><ele>499.0</ele><time>2026-04-25T17:12:05.621Z</time></trkpt><trkpt lat="41.18299" lon="-7.9106207"><ele>499.0</ele><time>2026-04-25T17:12:06.618Z</time></trkpt><trkpt lat="41.1829489" lon="-7.9105099"><ele>499.0</ele><time>2026-04-25T17:12:07.619Z</time></trkpt><trkpt lat="41.1828909" lon="-7.9103917"><ele>499.0</ele><time>2026-04-25T17:12:08.617Z</time></trkpt><trkpt lat="41.1828246" lon="-7.9102905"><ele>499.0</ele><time>2026-04-25T17:12:09.621Z</time></trkpt><trkpt lat="41.1827653" lon="-7.9101922"><ele>499.0</ele><time>2026-04-25T17:12:10.622Z</time></trkpt><trkpt lat="41.1827148" lon="-7.9100822"><ele>499.0</ele><time>2026-04-25T17:12:11.623Z</time></trkpt><trkpt lat="41.1826677" lon="-7.9099699"><ele>499.0</ele><time>2026-04-25T17:12:12.62Z</time></trkpt><trkpt lat="41.1826249" lon="-7.9098613"><ele>499.0</ele><time>2026-04-25T17:12:13.623Z</time></trkpt><trkpt lat="41.1825818" lon="-7.9097464"><ele>499.0</ele><time>2026-04-25T17:12:14.623Z</time></trkpt><trkpt lat="41.1825356" lon="-7.9096252"><ele>497.5</ele><time>2026-04-25T17:12:15.618Z</time></trkpt><trkpt lat="41.1824805" lon="-7.9095038"><ele>496.0</ele><time>2026-04-25T17:12:16.628Z</time></trkpt><trkpt lat="41.1824077" lon="-7.9093723"><ele>494.5</ele><time>2026-04-25T17:12:17.619Z</time></trkpt><trkpt lat="41.1823253" lon="-7.9092387"><ele>493.0</ele><time>2026-04-25T17:12:18.624Z</time></trkpt><trkpt lat="41.1822334" lon="-7.9091108"><ele>486.75</ele><time>2026-04-25T17:12:19.621Z</time></trkpt><trkpt lat="41.182135" lon="-7.9089887"><ele>480.5</ele><time>2026-04-25T17:12:20.618Z</time></trkpt><trkpt lat="41.1820347" lon="-7.9088757"><ele>474.25</ele><time>2026-04-25T17:12:21.62Z</time></trkpt><trkpt lat="41.1819363" lon="-7.9087686"><ele>468.0</ele><time>2026-04-25T17:12:22.617Z</time></trkpt><trkpt lat="41.1818434" lon="-7.9086589"><ele>468.0</ele><time>2026-04-25T17:12:23.619Z</time></trkpt><trkpt lat="41.1817448" lon="-7.9085522"><ele>468.0</ele><time>2026-04-25T17:12:24.622Z</time></trkpt><trkpt lat="41.1816526" lon="-7.908457"><ele>468.0</ele><time>2026-04-25T17:12:25.617Z</time></trkpt><trkpt lat="41.1815678" lon="-7.9083707"><ele>468.0</ele><time>2026-04-25T17:12:26.625Z</time></trkpt><trkpt lat="41.1814921" lon="-7.9082863"><ele>464.59999999999997</ele><time>2026-04-25T17:12:27.62Z</time></trkpt><trkpt lat="41.1814021" lon="-7.9082025"><ele>461.19999999999993</ele><time>2026-04-25T17:12:28.619Z</time></trkpt><trkpt lat="41.1813143" lon="-7.9081224"><ele>457.8</ele><time>2026-04-25T17:12:29.624Z</time></trkpt><trkpt lat="41.1812378" lon="-7.9080304"><ele>454.4</ele><time>2026-04-25T17:12:30.625Z</time></trkpt><trkpt lat="41.1811629" lon="-7.9079424"><ele>451.0</ele><time>2026-04-25T17:12:31.621Z</time></trkpt><trkpt lat="41.1810835" lon="-7.9078416"><ele>451.0</ele><time>2026-04-25T17:12:32.619Z</time></trkpt><trkpt lat="41.1809942" lon="-7.9077703"><ele>451.0</ele><time>2026-04-25T17:12:33.619Z</time></trkpt><trkpt lat="41.1809065" lon="-7.9077039"><ele>451.0</ele><time>2026-04-25T17:12:34.619Z</time></trkpt><trkpt lat="41.1808212" lon="-7.9076411"><ele>451.0</ele><time>2026-04-25T17:12:35.617Z</time></trkpt><trkpt lat="41.1807479" lon="-7.9075726"><ele>451.0</ele><time>2026-04-25T17:12:36.626Z</time></trkpt><trkpt lat="41.1806854" lon="-7.9074917"><ele>445.6</ele><time>2026-04-25T17:12:37.618Z</time></trkpt><trkpt lat="41.1806355" lon="-7.9074044"><ele>440.20000000000005</ele><time>2026-04-25T17:12:38.619Z</time></trkpt><trkpt lat="41.1805892" lon="-7.9072996"><ele>434.79999999999995</ele><time>2026-04-25T17:12:39.625Z</time></trkpt><trkpt lat="41.1805585" lon="-7.90718"><ele>429.4</ele><time>2026-04-25T17:12:40.62Z</time></trkpt><trkpt lat="41.18056" lon="-7.9070534"><ele>424.0</ele><time>2026-04-25T17:12:41.622Z</time></trkpt><trkpt lat="41.1805961" lon="-7.9069307"><ele>424.00000000000006</ele><time>2026-04-25T17:12:42.619Z</time></trkpt><trkpt lat="41.1806578" lon="-7.9068267"><ele>424.0</ele><time>2026-04-25T17:12:43.623Z</time></trkpt><trkpt lat="41.1807254" lon="-7.9067361"><ele>424.0</ele><time>2026-04-25T17:12:44.627Z</time></trkpt><trkpt lat="41.1807872" lon="-7.9066677"><ele>424.0</ele><time>2026-04-25T17:12:45.629Z</time></trkpt><trkpt lat="41.1808417" lon="-7.9066141"><ele>424.00000000000006</ele><time>2026-04-25T17:12:46.621Z</time></trkpt><trkpt lat="41.1809145" lon="-7.9065507"><ele>424.0</ele><time>2026-04-25T17:12:48.624Z</time></trkpt><trkpt lat="41.1808604" lon="-7.9066153"><ele>424.00000000000006</ele><time>2026-04-25T17:12:58.62Z</time></trkpt><trkpt lat="41.1808014" lon="-7.9066454"><ele>424.0</ele><time>2026-04-25T17:13:08.624Z</time></trkpt><trkpt lat="41.1807053" lon="-7.906745"><ele>424.0</ele><time>2026-04-25T17:13:10.619Z</time></trkpt><trkpt lat="41.1806351" lon="-7.9068071"><ele>424.0</ele><time>2026-04-25T17:13:11.616Z</time></trkpt><trkpt lat="41.180565" lon="-7.9068783"><ele>424.00000000000006</ele><time>2026-04-25T17:13:12.618Z</time></trkpt><trkpt lat="41.1805004" lon="-7.906957"><ele>424.0</ele><time>2026-04-25T17:13:13.622Z</time></trkpt><trkpt lat="41.1804489" lon="-7.9070222"><ele>424.0</ele><time>2026-04-25T17:13:14.621Z</time></trkpt><trkpt lat="41.1803991" lon="-7.9071273"><ele>424.0</ele><time>2026-04-25T17:13:15.619Z</time></trkpt><trkpt lat="41.1803808" lon="-7.9072468"><ele>424.0</ele><time>2026-04-25T17:13:16.62Z</time></trkpt><trkpt lat="41.1803703" lon="-7.9073675"><ele>424.0</ele><time>2026-04-25T17:13:17.621Z</time></trkpt><trkpt lat="41.1803683" lon="-7.9074862"><ele>424.0</ele><time>2026-04-25T17:13:18.624Z</time></trkpt><trkpt lat="41.1803776" lon="-7.9076032"><ele>422.50000000000006</ele><time>2026-04-25T17:13:19.623Z</time></trkpt><trkpt lat="41.1803987" lon="-7.9077136"><ele>421.0</ele><time>2026-04-25T17:13:20.626Z</time></trkpt><trkpt lat="41.1804349" lon="-7.9078177"><ele>419.5</ele><time>2026-04-25T17:13:21.618Z</time></trkpt><trkpt lat="41.1804832" lon="-7.907919"><ele>418.0</ele><time>2026-04-25T17:13:22.618Z</time></trkpt><trkpt lat="41.1805274" lon="-7.9080273"><ele>416.50000000000006</ele><time>2026-04-25T17:13:23.624Z</time></trkpt><trkpt lat="41.1805737" lon="-7.9081325"><ele>415.0</ele><time>2026-04-25T17:13:24.629Z</time></trkpt><trkpt lat="41.1806162" lon="-7.9082383"><ele>415.0</ele><time>2026-04-25T17:13:25.622Z</time></trkpt><trkpt lat="41.1806604" lon="-7.9083391"><ele>415.0</ele><time>2026-04-25T17:13:26.617Z</time></trkpt><trkpt lat="41.1807019" lon="-7.9084458"><ele>415.0</ele><time>2026-04-25T17:13:27.621Z</time></trkpt><trkpt lat="41.1807446" lon="-7.9085471"><ele>415.0</ele><time>2026-04-25T17:13:28.623Z</time></trkpt><trkpt lat="41.1807949" lon="-7.9086574"><ele>415.0</ele><time>2026-04-25T17:13:29.619Z</time></trkpt><trkpt lat="41.180843" lon="-7.9087636"><ele>419.0</ele><time>2026-04-25T17:13:30.618Z</time></trkpt><trkpt lat="41.1809008" lon="-7.9088495"><ele>423.0</ele><time>2026-04-25T17:13:31.62Z</time></trkpt><trkpt lat="41.1809612" lon="-7.9089359"><ele>427.0</ele><time>2026-04-25T17:13:32.617Z</time></trkpt><trkpt lat="41.1810197" lon="-7.9090271"><ele>431.0</ele><time>2026-04-25T17:13:33.621Z</time></trkpt><trkpt lat="41.1810757" lon="-7.9091304"><ele>435.0</ele><time>2026-04-25T17:13:34.63Z</time></trkpt><trkpt lat="41.1811347" lon="-7.9092306"><ele>432.4</ele><time>2026-04-25T17:13:35.62Z</time></trkpt><trkpt lat="41.1811949" lon="-7.9093321"><ele>429.8</ele><time>2026-04-25T17:13:36.621Z</time></trkpt><trkpt lat="41.1812513" lon="-7.9094382"><ele>427.20000000000005</ele><time>2026-04-25T17:13:37.622Z</time></trkpt><trkpt lat="41.1813085" lon="-7.9095384"><ele>424.6</ele><time>2026-04-25T17:13:38.618Z</time></trkpt><trkpt lat="41.1813643" lon="-7.9096396"><ele>422.0</ele><time>2026-04-25T17:13:39.625Z</time></trkpt><trkpt lat="41.1814107" lon="-7.9097406"><ele>422.0</ele><time>2026-04-25T17:13:40.626Z</time></trkpt><trkpt lat="41.1814588" lon="-7.9098433"><ele>422.0</ele><time>2026-04-25T17:13:41.625Z</time></trkpt><trkpt lat="41.1814992" lon="-7.9099546"><ele>422.0</ele><time>2026-04-25T17:13:42.62Z</time></trkpt><trkpt lat="41.1815167" lon="-7.9100786"><ele>422.0</ele><time>2026-04-25T17:13:43.619Z</time></trkpt><trkpt lat="41.1815114" lon="-7.9102015"><ele>422.0</ele><time>2026-04-25T17:13:44.622Z</time></trkpt><trkpt lat="41.1815076" lon="-7.9103207"><ele>423.99999999999994</ele><time>2026-04-25T17:13:45.621Z</time></trkpt><trkpt lat="41.1814967" lon="-7.910424"><ele>426.0</ele><time>2026-04-25T17:13:46.618Z</time></trkpt><trkpt lat="41.1814516" lon="-7.9105164"><ele>428.0</ele><time>2026-04-25T17:13:47.628Z</time></trkpt><trkpt lat="41.1813903" lon="-7.9105842"><ele>430.0</ele><time>2026-04-25T17:13:48.62Z</time></trkpt><trkpt lat="41.1813324" lon="-7.9106387"><ele>431.99999999999994</ele><time>2026-04-25T17:13:49.619Z</time></trkpt><trkpt lat="41.1812645" lon="-7.9106903"><ele>434.0</ele><time>2026-04-25T17:13:50.624Z</time></trkpt><trkpt lat="41.1811893" lon="-7.9107585"><ele>433.99999999999994</ele><time>2026-04-25T17:13:51.623Z</time></trkpt><trkpt lat="41.1811086" lon="-7.9108176"><ele>434.0</ele><time>2026-04-25T17:13:52.619Z</time></trkpt><trkpt lat="41.1810415" lon="-7.9108834"><ele>434.0</ele><time>2026-04-25T17:13:53.617Z</time></trkpt><trkpt lat="41.1810002" lon="-7.9109542"><ele>434.0</ele><time>2026-04-25T17:13:54.621Z</time></trkpt><trkpt lat="41.1809347" lon="-7.9109708"><ele>433.99999999999994</ele><time>2026-04-25T17:13:56.627Z</time></trkpt><trkpt lat="41.1809201" lon="-7.9108301"><ele>434.0</ele><time>2026-04-25T17:14:02.62Z</time></trkpt><trkpt lat="41.1809443" lon="-7.9106684"><ele>434.0</ele><time>2026-04-25T17:14:04.626Z</time></trkpt><trkpt lat="41.180962" lon="-7.9105269"><ele>434.0</ele><time>2026-04-25T17:14:06.62Z</time></trkpt><trkpt lat="41.1809175" lon="-7.9104594"><ele>434.0</ele><time>2026-04-25T17:14:08.62Z</time></trkpt><trkpt lat="41.1808223" lon="-7.910444"><ele>434.0</ele><time>2026-04-25T17:14:10.628Z</time></trkpt><trkpt lat="41.1807027" lon="-7.9104678"><ele>434.0</ele><time>2026-04-25T17:14:12.62Z</time></trkpt><trkpt lat="41.1806358" lon="-7.910481"><ele>427.0</ele><time>2026-04-25T17:14:13.62Z</time></trkpt><trkpt lat="41.1805456" lon="-7.9105052"><ele>420.0</ele><time>2026-04-25T17:14:14.616Z</time></trkpt><trkpt lat="41.1804749" lon="-7.9105505"><ele>413.0</ele><time>2026-04-25T17:14:15.624Z</time></trkpt><trkpt lat="41.1804017" lon="-7.9106114"><ele>406.0</ele><time>2026-04-25T17:14:16.62Z</time></trkpt><trkpt lat="41.1803311" lon="-7.9106971"><ele>399.0</ele><time>2026-04-25T17:14:17.614Z</time></trkpt><trkpt lat="41.1802627" lon="-7.9107939"><ele>399.0</ele><time>2026-04-25T17:14:18.623Z</time></trkpt><trkpt lat="41.1801981" lon="-7.9108779"><ele>399.0</ele><time>2026-04-25T17:14:19.618Z</time></trkpt><trkpt lat="41.1801382" lon="-7.9109519"><ele>399.0</ele><time>2026-04-25T17:14:20.616Z</time></trkpt><trkpt lat="41.1800764" lon="-7.9110204"><ele>399.0</ele><time>2026-04-25T17:14:21.631Z</time></trkpt><trkpt lat="41.1800121" lon="-7.9110943"><ele>399.0</ele><time>2026-04-25T17:14:22.616Z</time></trkpt><trkpt lat="41.1799548" lon="-7.9111638"><ele>399.0</ele><time>2026-04-25T17:14:23.62Z</time></trkpt><trkpt lat="41.1799097" lon="-7.9112313"><ele>397.4</ele><time>2026-04-25T17:14:24.625Z</time></trkpt><trkpt lat="41.179873" lon="-7.9113027"><ele>395.79999999999995</ele><time>2026-04-25T17:14:25.622Z</time></trkpt><trkpt lat="41.1798336" lon="-7.9114522"><ele>394.20000000000005</ele><time>2026-04-25T17:14:27.621Z</time></trkpt><trkpt lat="41.1798002" lon="-7.9116073"><ele>392.6</ele><time>2026-04-25T17:14:29.624Z</time></trkpt><trkpt lat="41.1797696" lon="-7.9117205"><ele>391.0</ele><time>2026-04-25T17:14:31.621Z</time></trkpt><trkpt lat="41.1796946" lon="-7.9117941"><ele>391.0</ele><time>2026-04-25T17:14:33.62Z</time></trkpt><trkpt lat="41.1795862" lon="-7.9118263"><ele>391.0</ele><time>2026-04-25T17:14:35.623Z</time></trkpt><trkpt lat="41.1794754" lon="-7.9118294"><ele>391.0</ele><time>2026-04-25T17:14:37.616Z</time></trkpt><trkpt lat="41.1793787" lon="-7.9117887"><ele>391.0</ele><time>2026-04-25T17:14:39.616Z</time></trkpt><trkpt lat="41.1792995" lon="-7.9117333"><ele>391.0</ele><time>2026-04-25T17:14:41.624Z</time></trkpt><trkpt lat="41.179231" lon="-7.9116998"><ele>391.00000000000006</ele><time>2026-04-25T17:14:43.62Z</time></trkpt><trkpt lat="41.1791609" lon="-7.9117134"><ele>391.0</ele><time>2026-04-25T17:14:45.625Z</time></trkpt><trkpt lat="41.1791008" lon="-7.911817"><ele>391.0</ele><time>2026-04-25T17:14:47.624Z</time></trkpt><trkpt lat="41.1790635" lon="-7.9118948"><ele>391.0</ele><time>2026-04-25T17:14:48.62Z</time></trkpt><trkpt lat="41.1790229" lon="-7.9119806"><ele>391.00000000000006</ele><time>2026-04-25T17:14:49.618Z</time></trkpt><trkpt lat="41.1789825" lon="-7.9120651"><ele>391.0</ele><time>2026-04-25T17:14:50.622Z</time></trkpt><trkpt lat="41.1789478" lon="-7.9121466"><ele>387.6</ele><time>2026-04-25T17:14:51.616Z</time></trkpt><trkpt lat="41.1789242" lon="-7.912225"><ele>384.20000000000005</ele><time>2026-04-25T17:14:52.622Z</time></trkpt><trkpt lat="41.178887" lon="-7.9123729"><ele>380.79999999999995</ele><time>2026-04-25T17:14:54.617Z</time></trkpt><trkpt lat="41.1788607" lon="-7.9125083"><ele>377.4</ele><time>2026-04-25T17:14:56.623Z</time></trkpt><trkpt lat="41.178834" lon="-7.9126492"><ele>374.0</ele><time>2026-04-25T17:14:58.618Z</time></trkpt><trkpt lat="41.1787879" lon="-7.9127717"><ele>374.0</ele><time>2026-04-25T17:15:00.617Z</time></trkpt><trkpt lat="41.1787134" lon="-7.9128662"><ele>374.0</ele><time>2026-04-25T17:15:02.616Z</time></trkpt><trkpt lat="41.1786221" lon="-7.9129615"><ele>374.0</ele><time>2026-04-25T17:15:04.623Z</time></trkpt><trkpt lat="41.1785667" lon="-7.913003"><ele>374.0</ele><time>2026-04-25T17:15:05.617Z</time></trkpt><trkpt lat="41.1785002" lon="-7.9130417"><ele>374.0</ele><time>2026-04-25T17:15:06.617Z</time></trkpt><trkpt lat="41.1784246" lon="-7.9130844"><ele>374.0</ele><time>2026-04-25T17:15:07.618Z</time></trkpt><trkpt lat="41.178345" lon="-7.9131147"><ele>374.0</ele><time>2026-04-25T17:15:08.617Z</time></trkpt><trkpt lat="41.1782402" lon="-7.9131434"><ele>374.0</ele><time>2026-04-25T17:15:09.622Z</time></trkpt><trkpt lat="41.1781405" lon="-7.9131595"><ele>374.0</ele><time>2026-04-25T17:15:10.621Z</time></trkpt><trkpt lat="41.1780433" lon="-7.9131645"><ele>374.0</ele><time>2026-04-25T17:15:11.618Z</time></trkpt><trkpt lat="41.1779553" lon="-7.9131497"><ele>374.0</ele><time>2026-04-25T17:15:12.618Z</time></trkpt><trkpt lat="41.1778629" lon="-7.9131254"><ele>370.4</ele><time>2026-04-25T17:15:13.62Z</time></trkpt><trkpt lat="41.1777592" lon="-7.9130916"><ele>366.79999999999995</ele><time>2026-04-25T17:15:14.617Z</time></trkpt><trkpt lat="41.177649" lon="-7.9130396"><ele>363.20000000000005</ele><time>2026-04-25T17:15:15.625Z</time></trkpt><trkpt lat="41.1775509" lon="-7.9129893"><ele>359.6</ele><time>2026-04-25T17:15:16.617Z</time></trkpt><trkpt lat="41.177455" lon="-7.9129232"><ele>356.0</ele><time>2026-04-25T17:15:17.623Z</time></trkpt><trkpt lat="41.1773504" lon="-7.9128352"><ele>355.25</ele><time>2026-04-25T17:15:18.619Z</time></trkpt><trkpt lat="41.1772497" lon="-7.9127357"><ele>354.5</ele><time>2026-04-25T17:15:19.616Z</time></trkpt><trkpt lat="41.17715" lon="-7.9126274"><ele>353.75</ele><time>2026-04-25T17:15:20.617Z</time></trkpt><trkpt lat="41.1770511" lon="-7.9125164"><ele>353.0</ele><time>2026-04-25T17:15:21.618Z</time></trkpt><trkpt lat="41.1769467" lon="-7.9124098"><ele>352.25</ele><time>2026-04-25T17:15:22.617Z</time></trkpt><trkpt lat="41.1768436" lon="-7.9122998"><ele>351.5</ele><time>2026-04-25T17:15:23.622Z</time></trkpt><trkpt lat="41.1767421" lon="-7.9122045"><ele>350.75</ele><time>2026-04-25T17:15:24.621Z</time></trkpt><trkpt lat="41.176644" lon="-7.9121039"><ele>350.0</ele><time>2026-04-25T17:15:25.619Z</time></trkpt><trkpt lat="41.176544" lon="-7.911992"><ele>357.0</ele><time>2026-04-25T17:15:26.629Z</time></trkpt><trkpt lat="41.1764609" lon="-7.9118899"><ele>364.0</ele><time>2026-04-25T17:15:27.621Z</time></trkpt><trkpt lat="41.1764032" lon="-7.9117681"><ele>371.0</ele><time>2026-04-25T17:15:28.618Z</time></trkpt><trkpt lat="41.1763861" lon="-7.911644"><ele>378.0</ele><time>2026-04-25T17:15:29.618Z</time></trkpt><trkpt lat="41.1764004" lon="-7.9115233"><ele>385.0</ele><time>2026-04-25T17:15:30.616Z</time></trkpt><trkpt lat="41.1764237" lon="-7.9114272"><ele>385.6</ele><time>2026-04-25T17:15:31.616Z</time></trkpt><trkpt lat="41.1764821" lon="-7.9113179"><ele>386.2</ele><time>2026-04-25T17:15:33.618Z</time></trkpt><trkpt lat="41.1765539" lon="-7.9112176"><ele>386.79999999999995</ele><time>2026-04-25T17:15:35.628Z</time></trkpt><trkpt lat="41.1766174" lon="-7.9110966"><ele>387.4</ele><time>2026-04-25T17:15:37.617Z</time></trkpt><trkpt lat="41.1766647" lon="-7.9109631"><ele>388.0</ele><time>2026-04-25T17:15:39.613Z</time></trkpt><trkpt lat="41.1766784" lon="-7.9108265"><ele>383.83333333333337</ele><time>2026-04-25T17:15:41.623Z</time></trkpt><trkpt lat="41.1766504" lon="-7.9106666"><ele>379.6666666666667</ele><time>2026-04-25T17:15:43.624Z</time></trkpt><trkpt lat="41.1766225" lon="-7.9105691"><ele>375.5</ele><time>2026-04-25T17:15:44.619Z</time></trkpt><trkpt lat="41.1765994" lon="-7.9104699"><ele>371.33333333333337</ele><time>2026-04-25T17:15:45.616Z</time></trkpt><trkpt lat="41.1765815" lon="-7.9103669"><ele>367.1666666666667</ele><time>2026-04-25T17:15:46.616Z</time></trkpt><trkpt lat="41.1765768" lon="-7.9102638"><ele>363.0</ele><time>2026-04-25T17:15:47.619Z</time></trkpt><trkpt lat="41.1765854" lon="-7.9101635"><ele>363.6666666666667</ele><time>2026-04-25T17:15:48.625Z</time></trkpt><trkpt lat="41.1765955" lon="-7.9100725"><ele>364.3333333333333</ele><time>2026-04-25T17:15:49.616Z</time></trkpt><trkpt lat="41.1766076" lon="-7.9099903"><ele>365.0</ele><time>2026-04-25T17:15:50.618Z</time></trkpt><trkpt lat="41.176626" lon="-7.9098646"><ele>365.66666666666663</ele><time>2026-04-25T17:15:52.617Z</time></trkpt><trkpt lat="41.1765596" lon="-7.9097992"><ele>366.3333333333333</ele><time>2026-04-25T17:16:02.618Z</time></trkpt><trkpt lat="41.1764837" lon="-7.9098017"><ele>367.0</ele><time>2026-04-25T17:16:04.617Z</time></trkpt><trkpt lat="41.1763966" lon="-7.9098336"><ele>372.0</ele><time>2026-04-25T17:16:06.615Z</time></trkpt><trkpt lat="41.1762943" lon="-7.909871"><ele>377.0</ele><time>2026-04-25T17:16:08.614Z</time></trkpt><trkpt lat="41.1761931" lon="-7.9098848"><ele>382.0</ele><time>2026-04-25T17:16:10.621Z</time></trkpt><trkpt lat="41.1761093" lon="-7.9099179"><ele>387.0</ele><time>2026-04-25T17:16:12.615Z</time></trkpt><trkpt lat="41.1760454" lon="-7.9099481"><ele>392.00000000000006</ele><time>2026-04-25T17:16:14.623Z</time></trkpt><trkpt lat="41.1759826" lon="-7.9099644"><ele>397.0</ele><time>2026-04-25T17:16:16.623Z</time></trkpt><trkpt lat="41.1758977" lon="-7.9099516"><ele>397.00000000000006</ele><time>2026-04-25T17:16:18.618Z</time></trkpt><trkpt lat="41.1758144" lon="-7.9099398"><ele>397.0</ele><time>2026-04-25T17:16:20.615Z</time></trkpt><trkpt lat="41.1757498" lon="-7.909922"><ele>397.0</ele><time>2026-04-25T17:16:22.621Z</time></trkpt><trkpt lat="41.1756893" lon="-7.9098745"><ele>397.0</ele><time>2026-04-25T17:16:24.616Z</time></trkpt><trkpt lat="41.1756099" lon="-7.9097941"><ele>397.00000000000006</ele><time>2026-04-25T17:16:26.617Z</time></trkpt><trkpt lat="41.1755397" lon="-7.9097582"><ele>397.0</ele><time>2026-04-25T17:16:28.617Z</time></trkpt><trkpt lat="41.1754635" lon="-7.9097111"><ele>400.83333333333337</ele><time>2026-04-25T17:16:30.618Z</time></trkpt><trkpt lat="41.175379" lon="-7.9096473"><ele>404.6666666666667</ele><time>2026-04-25T17:16:33.62Z</time></trkpt><trkpt lat="41.1753007" lon="-7.9095928"><ele>408.5</ele><time>2026-04-25T17:16:35.613Z</time></trkpt><trkpt lat="41.1752472" lon="-7.9095383"><ele>412.33333333333337</ele><time>2026-04-25T17:16:37.613Z</time></trkpt><trkpt lat="41.1751658" lon="-7.9095121"><ele>416.1666666666667</ele><time>2026-04-25T17:16:40.622Z</time></trkpt><trkpt lat="41.1750889" lon="-7.9094776"><ele>420.0</ele><time>2026-04-25T17:16:43.618Z</time></trkpt><trkpt lat="41.1750355" lon="-7.909431"><ele>420.0</ele><time>2026-04-25T17:16:45.613Z</time></trkpt><trkpt lat="41.1749814" lon="-7.9093854"><ele>420.0</ele><time>2026-04-25T17:16:47.623Z</time></trkpt><trkpt lat="41.1748944" lon="-7.9093753"><ele>420.0</ele><time>2026-04-25T17:16:50.624Z</time></trkpt><trkpt lat="41.1748008" lon="-7.9093659"><ele>420.0</ele><time>2026-04-25T17:16:52.615Z</time></trkpt><trkpt lat="41.1747189" lon="-7.9093449"><ele>420.0</ele><time>2026-04-25T17:16:54.616Z</time></trkpt><trkpt lat="41.1746183" lon="-7.9093343"><ele>420.0</ele><time>2026-04-25T17:16:56.613Z</time></trkpt><trkpt lat="41.1745543" lon="-7.9093328"><ele>423.8</ele><time>2026-04-25T17:16:58.612Z</time></trkpt><trkpt lat="41.1744773" lon="-7.9093685"><ele>427.6</ele><time>2026-04-25T17:17:00.625Z</time></trkpt><trkpt lat="41.1744255" lon="-7.9094225"><ele>431.4</ele><time>2026-04-25T17:17:02.616Z</time></trkpt><trkpt lat="41.1743562" lon="-7.9094866"><ele>435.2</ele><time>2026-04-25T17:17:05.62Z</time></trkpt><trkpt lat="41.1742987" lon="-7.9095947"><ele>439.0</ele><time>2026-04-25T17:17:07.612Z</time></trkpt><trkpt lat="41.1742254" lon="-7.9097223"><ele>439.00000000000006</ele><time>2026-04-25T17:17:09.612Z</time></trkpt><trkpt lat="41.1741454" lon="-7.909782"><ele>439.0</ele><time>2026-04-25T17:17:11.619Z</time></trkpt><trkpt lat="41.1740655" lon="-7.9097991"><ele>439.0</ele><time>2026-04-25T17:17:13.613Z</time></trkpt><trkpt lat="41.1739954" lon="-7.9097664"><ele>439.0</ele><time>2026-04-25T17:17:15.61Z</time></trkpt><trkpt lat="41.1739366" lon="-7.9096949"><ele>439.00000000000006</ele><time>2026-04-25T17:17:18.614Z</time></trkpt><trkpt lat="41.1738789" lon="-7.9097475"><ele>439.0</ele><time>2026-04-25T17:17:24.613Z</time></trkpt><trkpt lat="41.1738271" lon="-7.9099628"><ele>444.2</ele><time>2026-04-25T17:17:27.321Z</time></trkpt><trkpt lat="41.1738348" lon="-7.9100787"><ele>449.4</ele><time>2026-04-25T17:17:28.324Z</time></trkpt><trkpt lat="41.1738506" lon="-7.9102191"><ele>454.6</ele><time>2026-04-25T17:17:29.313Z</time></trkpt><trkpt lat="41.1738685" lon="-7.9103501"><ele>459.8</ele><time>2026-04-25T17:17:30.309Z</time></trkpt><trkpt lat="41.1738834" lon="-7.9104337"><ele>465.0</ele><time>2026-04-25T17:17:31.223Z</time></trkpt><trkpt lat="41.1738932" lon="-7.9105702"><ele>465.0</ele><time>2026-04-25T17:17:33.011Z</time></trkpt><trkpt lat="41.1738301" lon="-7.910554"><ele>465.0</ele><time>2026-04-25T17:18:31.62Z</time></trkpt><trkpt lat="41.1738959" lon="-7.9105212"><ele>465.0</ele><time>2026-04-25T17:19:03.615Z</time></trkpt><trkpt lat="41.1738478" lon="-7.9104214"><ele>465.0</ele><time>2026-04-25T17:19:39.622Z</time></trkpt><trkpt lat="41.1738162" lon="-7.9102965"><ele>465.0</ele><time>2026-04-25T17:19:41.615Z</time></trkpt><trkpt lat="41.173785" lon="-7.9101497"><ele>465.0</ele><time>2026-04-25T17:19:43.622Z</time></trkpt><trkpt lat="41.1737423" lon="-7.9100184"><ele>463.0</ele><time>2026-04-25T17:19:45.612Z</time></trkpt><trkpt lat="41.1736929" lon="-7.9099416"><ele>461.0</ele><time>2026-04-25T17:19:46.623Z</time></trkpt><trkpt lat="41.1736317" lon="-7.9098604"><ele>459.0</ele><time>2026-04-25T17:19:47.621Z</time></trkpt><trkpt lat="41.1735616" lon="-7.9097864"><ele>457.0</ele><time>2026-04-25T17:19:48.618Z</time></trkpt><trkpt lat="41.1734849" lon="-7.9097113"><ele>455.0</ele><time>2026-04-25T17:19:49.615Z</time></trkpt><trkpt lat="41.1733862" lon="-7.9096445"><ele>455.0</ele><time>2026-04-25T17:19:50.617Z</time></trkpt><trkpt lat="41.173263" lon="-7.9095895"><ele>455.0</ele><time>2026-04-25T17:19:51.612Z</time></trkpt><trkpt lat="41.173129" lon="-7.9095267"><ele>455.0</ele><time>2026-04-25T17:19:52.612Z</time></trkpt><trkpt lat="41.1730076" lon="-7.909451"><ele>455.0</ele><time>2026-04-25T17:19:53.617Z</time></trkpt><trkpt lat="41.1728982" lon="-7.9093759"><ele>458.49999999999994</ele><time>2026-04-25T17:19:54.615Z</time></trkpt><trkpt lat="41.172804" lon="-7.9093002"><ele>462.0</ele><time>2026-04-25T17:19:55.619Z</time></trkpt><trkpt lat="41.1727221" lon="-7.9092143"><ele>465.5</ele><time>2026-04-25T17:19:56.609Z</time></trkpt><trkpt lat="41.1726755" lon="-7.9091214"><ele>469.0</ele><time>2026-04-25T17:19:57.611Z</time></trkpt><trkpt lat="41.1726682" lon="-7.909024"><ele>472.49999999999994</ele><time>2026-04-25T17:19:58.623Z</time></trkpt><trkpt lat="41.1726891" lon="-7.9089287"><ele>476.0</ele><time>2026-04-25T17:19:59.613Z</time></trkpt><trkpt lat="41.1727654" lon="-7.9088517"><ele>476.0</ele><time>2026-04-25T17:20:00.62Z</time></trkpt><trkpt lat="41.1728285" lon="-7.9087224"><ele>476.0</ele><time>2026-04-25T17:20:01.616Z</time></trkpt><trkpt lat="41.1728641" lon="-7.9085842"><ele>476.0</ele><time>2026-04-25T17:20:02.612Z</time></trkpt><trkpt lat="41.172907" lon="-7.9084602"><ele>476.0</ele><time>2026-04-25T17:20:03.614Z</time></trkpt><trkpt lat="41.1729488" lon="-7.9083252"><ele>476.0</ele><time>2026-04-25T17:20:04.613Z</time></trkpt><trkpt lat="41.1729891" lon="-7.9082063"><ele>475.25</ele><time>2026-04-25T17:20:05.614Z</time></trkpt><trkpt lat="41.1730353" lon="-7.9080748"><ele>474.5</ele><time>2026-04-25T17:20:06.618Z</time></trkpt><trkpt lat="41.1730744" lon="-7.9079374"><ele>473.75</ele><time>2026-04-25T17:20:07.621Z</time></trkpt><trkpt lat="41.1731061" lon="-7.9078018"><ele>473.0</ele><time>2026-04-25T17:20:08.612Z</time></trkpt><trkpt lat="41.1731092" lon="-7.9076348"><ele>472.5</ele><time>2026-04-25T17:20:09.609Z</time></trkpt><trkpt lat="41.1730942" lon="-7.9074551"><ele>472.0</ele><time>2026-04-25T17:20:10.611Z</time></trkpt><trkpt lat="41.1730515" lon="-7.9072758"><ele>471.5</ele><time>2026-04-25T17:20:11.609Z</time></trkpt><trkpt lat="41.1729982" lon="-7.9071396"><ele>471.0</ele><time>2026-04-25T17:20:12.614Z</time></trkpt><trkpt lat="41.1729336" lon="-7.9070433"><ele>471.0</ele><time>2026-04-25T17:20:13.609Z</time></trkpt><trkpt lat="41.1728602" lon="-7.9069537"><ele>471.0</ele><time>2026-04-25T17:20:14.61Z</time></trkpt><trkpt lat="41.1727863" lon="-7.9068532"><ele>471.0</ele><time>2026-04-25T17:20:15.614Z</time></trkpt><trkpt lat="41.1727207" lon="-7.9067383"><ele>471.0</ele><time>2026-04-25T17:20:16.614Z</time></trkpt><trkpt lat="41.1726574" lon="-7.9066365"><ele>471.0</ele><time>2026-04-25T17:20:17.612Z</time></trkpt><trkpt lat="41.1725818" lon="-7.906562"><ele>471.0</ele><time>2026-04-25T17:20:18.612Z</time></trkpt><trkpt lat="41.1724857" lon="-7.9065307"><ele>471.0</ele><time>2026-04-25T17:20:19.614Z</time></trkpt><trkpt lat="41.1723912" lon="-7.9065629"><ele>471.0</ele><time>2026-04-25T17:20:20.617Z</time></trkpt><trkpt lat="41.1723071" lon="-7.906623"><ele>471.0</ele><time>2026-04-25T17:20:21.615Z</time></trkpt><trkpt lat="41.172236" lon="-7.9066787"><ele>471.0</ele><time>2026-04-25T17:20:22.628Z</time></trkpt><trkpt lat="41.1721696" lon="-7.9067179"><ele>471.0</ele><time>2026-04-25T17:20:23.611Z</time></trkpt><trkpt lat="41.1721021" lon="-7.9067535"><ele>471.0</ele><time>2026-04-25T17:20:24.613Z</time></trkpt><trkpt lat="41.1720381" lon="-7.9067828"><ele>471.0</ele><time>2026-04-25T17:20:25.623Z</time></trkpt><trkpt lat="41.1719402" lon="-7.9067847"><ele>471.0</ele><time>2026-04-25T17:20:26.615Z</time></trkpt><trkpt lat="41.1718234" lon="-7.9067688"><ele>471.0</ele><time>2026-04-25T17:20:27.615Z</time></trkpt><trkpt lat="41.1717013" lon="-7.9067544"><ele>471.0</ele><time>2026-04-25T17:20:28.615Z</time></trkpt><trkpt lat="41.1715923" lon="-7.9067159"><ele>475.5</ele><time>2026-04-25T17:20:29.613Z</time></trkpt><trkpt lat="41.1714833" lon="-7.906637"><ele>480.0</ele><time>2026-04-25T17:20:30.611Z</time></trkpt><trkpt lat="41.1713759" lon="-7.9065435"><ele>484.5</ele><time>2026-04-25T17:20:31.62Z</time></trkpt><trkpt lat="41.1712695" lon="-7.9064465"><ele>489.0</ele><time>2026-04-25T17:20:32.618Z</time></trkpt><trkpt lat="41.1711699" lon="-7.9063438"><ele>489.0</ele><time>2026-04-25T17:20:33.62Z</time></trkpt><trkpt lat="41.171067" lon="-7.9062347"><ele>489.0</ele><time>2026-04-25T17:20:34.62Z</time></trkpt><trkpt lat="41.1709677" lon="-7.9061166"><ele>489.0</ele><time>2026-04-25T17:20:35.623Z</time></trkpt><trkpt lat="41.1708807" lon="-7.9059887"><ele>489.0</ele><time>2026-04-25T17:20:36.621Z</time></trkpt><trkpt lat="41.170808" lon="-7.9058598"><ele>490.5</ele><time>2026-04-25T17:20:37.618Z</time></trkpt><trkpt lat="41.1707534" lon="-7.9057209"><ele>492.0</ele><time>2026-04-25T17:20:38.614Z</time></trkpt><trkpt lat="41.1707094" lon="-7.9055643"><ele>493.5</ele><time>2026-04-25T17:20:39.619Z</time></trkpt><trkpt lat="41.170662" lon="-7.9054063"><ele>495.0</ele><time>2026-04-25T17:20:40.616Z</time></trkpt><trkpt lat="41.1706155" lon="-7.90525"><ele>495.0</ele><time>2026-04-25T17:20:41.621Z</time></trkpt><trkpt lat="41.1705703" lon="-7.9050889"><ele>495.0</ele><time>2026-04-25T17:20:42.615Z</time></trkpt><trkpt lat="41.1705189" lon="-7.9049307"><ele>495.0</ele><time>2026-04-25T17:20:43.616Z</time></trkpt><trkpt lat="41.1704711" lon="-7.9047719"><ele>495.0</ele><time>2026-04-25T17:20:44.614Z</time></trkpt><trkpt lat="41.1704316" lon="-7.9046107"><ele>491.0</ele><time>2026-04-25T17:20:45.62Z</time></trkpt><trkpt lat="41.1703978" lon="-7.904453"><ele>487.0</ele><time>2026-04-25T17:20:46.616Z</time></trkpt><trkpt lat="41.1703696" lon="-7.9043006"><ele>483.0</ele><time>2026-04-25T17:20:47.616Z</time></trkpt><trkpt lat="41.1703429" lon="-7.9041444"><ele>479.0</ele><time>2026-04-25T17:20:48.618Z</time></trkpt><trkpt lat="41.1703038" lon="-7.9039867"><ele>476.6</ele><time>2026-04-25T17:20:49.62Z</time></trkpt><trkpt lat="41.1702628" lon="-7.9038427"><ele>474.2</ele><time>2026-04-25T17:20:50.62Z</time></trkpt><trkpt lat="41.1702213" lon="-7.9037147"><ele>471.80000000000007</ele><time>2026-04-25T17:20:51.614Z</time></trkpt><trkpt lat="41.1701731" lon="-7.9035934"><ele>469.40000000000003</ele><time>2026-04-25T17:20:52.614Z</time></trkpt><trkpt lat="41.1701147" lon="-7.9034985"><ele>467.0</ele><time>2026-04-25T17:20:53.614Z</time></trkpt><trkpt lat="41.1700537" lon="-7.9034265"><ele>467.0</ele><time>2026-04-25T17:20:54.62Z</time></trkpt><trkpt lat="41.1699829" lon="-7.9034033"><ele>467.00000000000006</ele><time>2026-04-25T17:20:55.618Z</time></trkpt><trkpt lat="41.1699091" lon="-7.9034287"><ele>467.00000000000006</ele><time>2026-04-25T17:20:56.625Z</time></trkpt><trkpt lat="41.1698334" lon="-7.9035049"><ele>467.0</ele><time>2026-04-25T17:20:57.618Z</time></trkpt><trkpt lat="41.1697689" lon="-7.9036139"><ele>467.0</ele><time>2026-04-25T17:20:58.614Z</time></trkpt><trkpt lat="41.1697163" lon="-7.9037381"><ele>463.40000000000003</ele><time>2026-04-25T17:20:59.612Z</time></trkpt><trkpt lat="41.169669" lon="-7.9038482"><ele>459.80000000000007</ele><time>2026-04-25T17:21:00.621Z</time></trkpt><trkpt lat="41.1696012" lon="-7.9039414"><ele>456.2</ele><time>2026-04-25T17:21:01.621Z</time></trkpt><trkpt lat="41.1695346" lon="-7.9040408"><ele>452.6</ele><time>2026-04-25T17:21:02.615Z</time></trkpt><trkpt lat="41.1694608" lon="-7.9041122"><ele>449.0</ele><time>2026-04-25T17:21:03.617Z</time></trkpt><trkpt lat="41.1693768" lon="-7.9041791"><ele>452.3333333333333</ele><time>2026-04-25T17:21:04.615Z</time></trkpt><trkpt lat="41.1692956" lon="-7.9042617"><ele>455.66666666666663</ele><time>2026-04-25T17:21:05.617Z</time></trkpt><trkpt lat="41.1692268" lon="-7.9043492"><ele>459.0</ele><time>2026-04-25T17:21:06.612Z</time></trkpt><trkpt lat="41.1691755" lon="-7.9044335"><ele>462.33333333333337</ele><time>2026-04-25T17:21:07.622Z</time></trkpt><trkpt lat="41.1691271" lon="-7.9045154"><ele>465.6666666666667</ele><time>2026-04-25T17:21:08.617Z</time></trkpt><trkpt lat="41.1690742" lon="-7.904594"><ele>469.0</ele><time>2026-04-25T17:21:09.613Z</time></trkpt><trkpt lat="41.1690176" lon="-7.9046566"><ele>469.83333333333337</ele><time>2026-04-25T17:21:10.617Z</time></trkpt><trkpt lat="41.168957" lon="-7.9047167"><ele>470.6666666666667</ele><time>2026-04-25T17:21:11.616Z</time></trkpt><trkpt lat="41.1688957" lon="-7.9047693"><ele>471.5</ele><time>2026-04-25T17:21:12.621Z</time></trkpt><trkpt lat="41.1688105" lon="-7.9047059"><ele>472.33333333333337</ele><time>2026-04-25T17:21:14.619Z</time></trkpt><trkpt lat="41.1687655" lon="-7.904634"><ele>473.1666666666667</ele><time>2026-04-25T17:21:15.625Z</time></trkpt><trkpt lat="41.1687031" lon="-7.9045631"><ele>474.0</ele><time>2026-04-25T17:21:16.616Z</time></trkpt><trkpt lat="41.1686467" lon="-7.9045035"><ele>474.0</ele><time>2026-04-25T17:21:17.616Z</time></trkpt><trkpt lat="41.168574" lon="-7.9044378"><ele>474.0</ele><time>2026-04-25T17:21:18.619Z</time></trkpt><trkpt lat="41.1684886" lon="-7.9044087"><ele>474.0</ele><time>2026-04-25T17:21:19.619Z</time></trkpt><trkpt lat="41.1683806" lon="-7.9044024"><ele>474.0</ele><time>2026-04-25T17:21:20.616Z</time></trkpt><trkpt lat="41.1682668" lon="-7.9043985"><ele>474.0</ele><time>2026-04-25T17:21:21.625Z</time></trkpt><trkpt lat="41.1681459" lon="-7.9043937"><ele>475.79999999999995</ele><time>2026-04-25T17:21:22.621Z</time></trkpt><trkpt lat="41.1680386" lon="-7.9043867"><ele>477.59999999999997</ele><time>2026-04-25T17:21:23.619Z</time></trkpt><trkpt lat="41.1679458" lon="-7.9043979"><ele>479.4</ele><time>2026-04-25T17:21:24.615Z</time></trkpt><trkpt lat="41.1678524" lon="-7.904386"><ele>481.2</ele><time>2026-04-25T17:21:25.619Z</time></trkpt><trkpt lat="41.1677478" lon="-7.9043717"><ele>483.0</ele><time>2026-04-25T17:21:26.619Z</time></trkpt><trkpt lat="41.1676495" lon="-7.9043489"><ele>483.0</ele><time>2026-04-25T17:21:27.616Z</time></trkpt><trkpt lat="41.1675573" lon="-7.9043308"><ele>482.99999999999994</ele><time>2026-04-25T17:21:28.624Z</time></trkpt><trkpt lat="41.1674487" lon="-7.9043235"><ele>482.99999999999994</ele><time>2026-04-25T17:21:29.616Z</time></trkpt><trkpt lat="41.167354" lon="-7.9043041"><ele>483.0</ele><time>2026-04-25T17:21:30.624Z</time></trkpt><trkpt lat="41.1672674" lon="-7.9042638"><ele>483.0</ele><time>2026-04-25T17:21:31.623Z</time></trkpt><trkpt lat="41.1672093" lon="-7.9042052"><ele>478.0</ele><time>2026-04-25T17:21:32.621Z</time></trkpt><trkpt lat="41.167149" lon="-7.9041318"><ele>472.99999999999994</ele><time>2026-04-25T17:21:33.622Z</time></trkpt><trkpt lat="41.1670763" lon="-7.9040563"><ele>467.99999999999994</ele><time>2026-04-25T17:21:34.618Z</time></trkpt><trkpt lat="41.1669974" lon="-7.903987"><ele>463.0</ele><time>2026-04-25T17:21:35.627Z</time></trkpt><trkpt lat="41.1669172" lon="-7.9039213"><ele>458.0</ele><time>2026-04-25T17:21:36.617Z</time></trkpt><trkpt lat="41.1668393" lon="-7.9038642"><ele>458.0</ele><time>2026-04-25T17:21:37.612Z</time></trkpt><trkpt lat="41.1667502" lon="-7.9038251"><ele>457.99999999999994</ele><time>2026-04-25T17:21:38.621Z</time></trkpt><trkpt lat="41.1666742" lon="-7.9037675"><ele>457.99999999999994</ele><time>2026-04-25T17:21:39.619Z</time></trkpt><trkpt lat="41.1666313" lon="-7.9036921"><ele>458.0</ele><time>2026-04-25T17:21:40.62Z</time></trkpt><trkpt lat="41.1665526" lon="-7.9035651"><ele>458.0</ele><time>2026-04-25T17:21:42.618Z</time></trkpt><trkpt lat="41.1664651" lon="-7.9034611"><ele>453.79999999999995</ele><time>2026-04-25T17:21:44.613Z</time></trkpt><trkpt lat="41.1663652" lon="-7.9034096"><ele>449.59999999999997</ele><time>2026-04-25T17:21:46.619Z</time></trkpt><trkpt lat="41.1662572" lon="-7.9033542"><ele>445.40000000000003</ele><time>2026-04-25T17:21:48.612Z</time></trkpt><trkpt lat="41.166158" lon="-7.9033019"><ele>441.20000000000005</ele><time>2026-04-25T17:21:50.624Z</time></trkpt><trkpt lat="41.1660504" lon="-7.9032688"><ele>437.0</ele><time>2026-04-25T17:21:52.614Z</time></trkpt><trkpt lat="41.1659317" lon="-7.9032892"><ele>437.0</ele><time>2026-04-25T17:21:54.613Z</time></trkpt><trkpt lat="41.1658706" lon="-7.9033181"><ele>437.00000000000006</ele><time>2026-04-25T17:21:55.613Z</time></trkpt><trkpt lat="41.1657569" lon="-7.9033798"><ele>437.00000000000006</ele><time>2026-04-25T17:21:57.634Z</time></trkpt><trkpt lat="41.1656648" lon="-7.9034172"><ele>437.0</ele><time>2026-04-25T17:21:59.613Z</time></trkpt><trkpt lat="41.1655861" lon="-7.9034504"><ele>437.0</ele><time>2026-04-25T17:22:01.617Z</time></trkpt><trkpt lat="41.1654636" lon="-7.9034623"><ele>436.4285714285714</ele><time>2026-04-25T17:22:03.623Z</time></trkpt><trkpt lat="41.1653877" lon="-7.9034456"><ele>435.8571428571429</ele><time>2026-04-25T17:22:04.613Z</time></trkpt><trkpt lat="41.1653153" lon="-7.903426"><ele>435.2857142857143</ele><time>2026-04-25T17:22:05.613Z</time></trkpt><trkpt lat="41.1652522" lon="-7.9034044"><ele>434.71428571428567</ele><time>2026-04-25T17:22:06.619Z</time></trkpt><trkpt lat="41.1651745" lon="-7.9033953"><ele>434.1428571428571</ele><time>2026-04-25T17:22:07.624Z</time></trkpt><trkpt lat="41.1650963" lon="-7.9033823"><ele>433.57142857142856</ele><time>2026-04-25T17:22:08.621Z</time></trkpt><trkpt lat="41.1650306" lon="-7.9033742"><ele>433.0</ele><time>2026-04-25T17:22:09.61Z</time></trkpt><trkpt lat="41.1649602" lon="-7.9033683"><ele>435.0</ele><time>2026-04-25T17:22:10.613Z</time></trkpt><trkpt lat="41.1648619" lon="-7.9033621"><ele>436.99999999999994</ele><time>2026-04-25T17:22:11.616Z</time></trkpt><trkpt lat="41.1647708" lon="-7.9033557"><ele>438.99999999999994</ele><time>2026-04-25T17:22:12.611Z</time></trkpt><trkpt lat="41.1646775" lon="-7.9033485"><ele>441.0</ele><time>2026-04-25T17:22:13.616Z</time></trkpt><trkpt lat="41.1645824" lon="-7.9033255"><ele>443.0</ele><time>2026-04-25T17:22:14.619Z</time></trkpt><trkpt lat="41.1645005" lon="-7.9033022"><ele>442.99999999999994</ele><time>2026-04-25T17:22:15.612Z</time></trkpt><trkpt lat="41.1644327" lon="-7.9032744"><ele>443.0</ele><time>2026-04-25T17:22:16.615Z</time></trkpt><trkpt lat="41.1643529" lon="-7.9032502"><ele>443.0</ele><time>2026-04-25T17:22:17.615Z</time></trkpt><trkpt lat="41.1642805" lon="-7.9032351"><ele>443.0</ele><time>2026-04-25T17:22:18.621Z</time></trkpt><trkpt lat="41.1641645" lon="-7.9032553"><ele>442.99999999999994</ele><time>2026-04-25T17:22:20.618Z</time></trkpt><trkpt lat="41.1640945" lon="-7.9032587"><ele>443.0</ele><time>2026-04-25T17:22:21.617Z</time></trkpt><trkpt lat="41.1640192" lon="-7.9032468"><ele>445.3333333333333</ele><time>2026-04-25T17:22:22.622Z</time></trkpt><trkpt lat="41.1639335" lon="-7.9032402"><ele>447.66666666666663</ele><time>2026-04-25T17:22:23.62Z</time></trkpt><trkpt lat="41.1638516" lon="-7.9032167"><ele>450.0</ele><time>2026-04-25T17:22:24.614Z</time></trkpt><trkpt lat="41.1637689" lon="-7.903185"><ele>452.33333333333337</ele><time>2026-04-25T17:22:25.618Z</time></trkpt><trkpt lat="41.1636865" lon="-7.9031555"><ele>454.6666666666667</ele><time>2026-04-25T17:22:26.62Z</time></trkpt><trkpt lat="41.163595" lon="-7.9031273"><ele>457.0</ele><time>2026-04-25T17:22:27.614Z</time></trkpt><trkpt lat="41.1634911" lon="-7.9031014"><ele>457.0</ele><time>2026-04-25T17:22:28.612Z</time></trkpt><trkpt lat="41.1633889" lon="-7.9030747"><ele>457.00000000000006</ele><time>2026-04-25T17:22:29.619Z</time></trkpt><trkpt lat="41.1632884" lon="-7.9030471"><ele>457.00000000000006</ele><time>2026-04-25T17:22:30.617Z</time></trkpt><trkpt lat="41.1631813" lon="-7.9030305"><ele>457.0</ele><time>2026-04-25T17:22:31.614Z</time></trkpt><trkpt lat="41.1630822" lon="-7.9030284"><ele>457.0</ele><time>2026-04-25T17:22:32.616Z</time></trkpt><trkpt lat="41.162976" lon="-7.9030324"><ele>456.75</ele><time>2026-04-25T17:22:33.62Z</time></trkpt><trkpt lat="41.1628655" lon="-7.903043"><ele>456.5</ele><time>2026-04-25T17:22:34.62Z</time></trkpt><trkpt lat="41.1627441" lon="-7.9030726"><ele>456.25</ele><time>2026-04-25T17:22:35.618Z</time></trkpt><trkpt lat="41.1626218" lon="-7.9031183"><ele>456.0</ele><time>2026-04-25T17:22:36.609Z</time></trkpt><trkpt lat="41.1625037" lon="-7.9031743"><ele>456.0</ele><time>2026-04-25T17:22:37.612Z</time></trkpt><trkpt lat="41.1623714" lon="-7.9032553"><ele>456.0</ele><time>2026-04-25T17:22:38.616Z</time></trkpt><trkpt lat="41.1622427" lon="-7.9033218"><ele>456.0</ele><time>2026-04-25T17:22:39.614Z</time></trkpt><trkpt lat="41.1621062" lon="-7.9034019"><ele>456.0</ele><time>2026-04-25T17:22:40.623Z</time></trkpt><trkpt lat="41.1619564" lon="-7.9034908"><ele>454.66666666666663</ele><time>2026-04-25T17:22:41.615Z</time></trkpt><trkpt lat="41.161797" lon="-7.9035759"><ele>453.3333333333333</ele><time>2026-04-25T17:22:42.613Z</time></trkpt><trkpt lat="41.1616319" lon="-7.9036536"><ele>452.0</ele><time>2026-04-25T17:22:43.617Z</time></trkpt><trkpt lat="41.1614943" lon="-7.9037425"><ele>452.0</ele><time>2026-04-25T17:22:44.617Z</time></trkpt><trkpt lat="41.1613799" lon="-7.9038162"><ele>452.0</ele><time>2026-04-25T17:22:45.616Z</time></trkpt><trkpt lat="41.1612642" lon="-7.9039006"><ele>452.0</ele><time>2026-04-25T17:22:46.624Z</time></trkpt><trkpt lat="41.1611538" lon="-7.9039956"><ele>452.0</ele><time>2026-04-25T17:22:47.612Z</time></trkpt><trkpt lat="41.1610642" lon="-7.9041244"><ele>453.25</ele><time>2026-04-25T17:22:48.619Z</time></trkpt><trkpt lat="41.1610029" lon="-7.904265"><ele>454.5</ele><time>2026-04-25T17:22:49.625Z</time></trkpt><trkpt lat="41.160954" lon="-7.9043976"><ele>455.75</ele><time>2026-04-25T17:22:50.619Z</time></trkpt><trkpt lat="41.1609197" lon="-7.9045313"><ele>457.0</ele><time>2026-04-25T17:22:51.614Z</time></trkpt><trkpt lat="41.1608979" lon="-7.904675"><ele>457.00000000000006</ele><time>2026-04-25T17:22:52.623Z</time></trkpt><trkpt lat="41.1608812" lon="-7.9048107"><ele>457.0</ele><time>2026-04-25T17:22:53.62Z</time></trkpt><trkpt lat="41.1608678" lon="-7.9049091"><ele>457.0</ele><time>2026-04-25T17:22:54.612Z</time></trkpt><trkpt lat="41.1608663" lon="-7.9050157"><ele>457.0</ele><time>2026-04-25T17:22:56.617Z</time></trkpt><trkpt lat="41.1609002" lon="-7.9051066"><ele>457.00000000000006</ele><time>2026-04-25T17:22:59.613Z</time></trkpt><trkpt lat="41.1609759" lon="-7.9050702"><ele>457.0</ele><time>2026-04-25T17:23:04.617Z</time></trkpt><trkpt lat="41.1610804" lon="-7.9050385"><ele>457.00000000000006</ele><time>2026-04-25T17:23:06.613Z</time></trkpt><trkpt lat="41.1611504" lon="-7.9050354"><ele>457.0</ele><time>2026-04-25T17:23:07.618Z</time></trkpt><trkpt lat="41.16123" lon="-7.9050236"><ele>457.0</ele><time>2026-04-25T17:23:08.621Z</time></trkpt><trkpt lat="41.1613027" lon="-7.905018"><ele>457.0</ele><time>2026-04-25T17:23:09.618Z</time></trkpt><trkpt lat="41.1613725" lon="-7.9050065"><ele>457.00000000000006</ele><time>2026-04-25T17:23:10.624Z</time></trkpt><trkpt lat="41.1614407" lon="-7.9049955"><ele>457.0</ele><time>2026-04-25T17:23:11.618Z</time></trkpt><trkpt lat="41.1615748" lon="-7.9049865"><ele>462.00000000000006</ele><time>2026-04-25T17:23:13.618Z</time></trkpt><trkpt lat="41.1616564" lon="-7.9049806"><ele>467.0</ele><time>2026-04-25T17:23:14.618Z</time></trkpt><trkpt lat="41.1617205" lon="-7.9049881"><ele>472.0</ele><time>2026-04-25T17:23:15.625Z</time></trkpt><trkpt lat="41.1617924" lon="-7.9049929"><ele>477.0</ele><time>2026-04-25T17:23:16.618Z</time></trkpt><trkpt lat="41.1619005" lon="-7.9050183"><ele>482.00000000000006</ele><time>2026-04-25T17:23:18.624Z</time></trkpt><trkpt lat="41.1620059" lon="-7.9050215"><ele>487.0</ele><time>2026-04-25T17:23:20.614Z</time></trkpt><trkpt lat="41.1620988" lon="-7.9050272"><ele>487.0</ele><time>2026-04-25T17:23:22.614Z</time></trkpt><trkpt lat="41.1622075" lon="-7.9050141"><ele>487.00000000000006</ele><time>2026-04-25T17:23:24.612Z</time></trkpt><trkpt lat="41.1623362" lon="-7.9050398"><ele>487.00000000000006</ele><time>2026-04-25T17:23:26.621Z</time></trkpt><trkpt lat="41.1624381" lon="-7.9050688"><ele>487.0</ele><time>2026-04-25T17:23:28.619Z</time></trkpt><trkpt lat="41.1625266" lon="-7.905076"><ele>487.0</ele><time>2026-04-25T17:23:31.621Z</time></trkpt><trkpt lat="41.1626031" lon="-7.9050929"><ele>487.0</ele><time>2026-04-25T17:24:34.615Z</time></trkpt><trkpt lat="41.1625448" lon="-7.9051277"><ele>487.0</ele><time>2026-04-25T17:25:29.619Z</time></trkpt><trkpt lat="41.1625874" lon="-7.9051737"><ele>487.0</ele><time>2026-04-25T17:31:36.496Z</time></trkpt><trkpt lat="41.1625227" lon="-7.9051249"><ele>487.0</ele><time>2026-04-25T17:32:10.606Z</time></trkpt><trkpt lat="41.1624259" lon="-7.9050932"><ele>487.0</ele><time>2026-04-25T17:32:13.615Z</time></trkpt><trkpt lat="41.1623629" lon="-7.9050656"><ele>487.0</ele><time>2026-04-25T17:32:16.615Z</time></trkpt><trkpt lat="41.16228" lon="-7.9050402"><ele>487.0</ele><time>2026-04-25T17:32:20.608Z</time></trkpt><trkpt lat="41.1622065" lon="-7.9050158"><ele>487.0</ele><time>2026-04-25T17:32:23.61Z</time></trkpt><trkpt lat="41.1621301" lon="-7.9049859"><ele>487.0</ele><time>2026-04-25T17:32:27.611Z</time></trkpt><trkpt lat="41.1620673" lon="-7.9050063"><ele>487.0</ele><time>2026-04-25T17:32:32.609Z</time></trkpt><trkpt lat="41.1619818" lon="-7.9049982"><ele>487.0</ele><time>2026-04-25T17:32:36.612Z</time></trkpt><trkpt lat="41.1619162" lon="-7.9050303"><ele>487.0</ele><time>2026-04-25T17:32:39.61Z</time></trkpt><trkpt lat="41.1618516" lon="-7.9050332"><ele>487.0</ele><time>2026-04-25T17:32:41.617Z</time></trkpt><trkpt lat="41.1617799" lon="-7.9050305"><ele>487.0</ele><time>2026-04-25T17:32:43.618Z</time></trkpt><trkpt lat="41.1616948" lon="-7.9050321"><ele>487.00000000000006</ele><time>2026-04-25T17:32:46.616Z</time></trkpt><trkpt lat="41.1616156" lon="-7.90502"><ele>487.0</ele><time>2026-04-25T17:32:49.614Z</time></trkpt><trkpt lat="41.1615247" lon="-7.9049987"><ele>487.0</ele><time>2026-04-25T17:32:52.612Z</time></trkpt><trkpt lat="41.1614615" lon="-7.9049762"><ele>487.0</ele><time>2026-04-25T17:32:54.612Z</time></trkpt><trkpt lat="41.1613897" lon="-7.9049845"><ele>487.00000000000006</ele><time>2026-04-25T17:32:56.609Z</time></trkpt><trkpt lat="41.1613196" lon="-7.9049733"><ele>487.0</ele><time>2026-04-25T17:32:58.614Z</time></trkpt><trkpt lat="41.1612351" lon="-7.9049788"><ele>482.00000000000006</ele><time>2026-04-25T17:33:01.612Z</time></trkpt><trkpt lat="41.1611529" lon="-7.9050027"><ele>477.0</ele><time>2026-04-25T17:33:04.617Z</time></trkpt><trkpt lat="41.1610768" lon="-7.9050023"><ele>472.0</ele><time>2026-04-25T17:33:07.605Z</time></trkpt><trkpt lat="41.1610082" lon="-7.9050102"><ele>467.0</ele><time>2026-04-25T17:33:12.619Z</time></trkpt><trkpt lat="41.1609285" lon="-7.905021"><ele>462.00000000000006</ele><time>2026-04-25T17:33:17.609Z</time></trkpt><trkpt lat="41.1609093" lon="-7.9049121"><ele>457.0</ele><time>2026-04-25T17:34:03.602Z</time></trkpt><trkpt lat="41.1609176" lon="-7.9047605"><ele>457.0</ele><time>2026-04-25T17:34:05.608Z</time></trkpt><trkpt lat="41.1609356" lon="-7.9046322"><ele>457.00000000000006</ele><time>2026-04-25T17:34:06.619Z</time></trkpt><trkpt lat="41.1609443" lon="-7.9045053"><ele>457.00000000000006</ele><time>2026-04-25T17:34:07.613Z</time></trkpt><trkpt lat="41.1609751" lon="-7.9043709"><ele>457.0</ele><time>2026-04-25T17:34:08.611Z</time></trkpt><trkpt lat="41.1610118" lon="-7.9042387"><ele>457.0</ele><time>2026-04-25T17:34:09.617Z</time></trkpt><trkpt lat="41.1610593" lon="-7.9041474"><ele>456.0</ele><time>2026-04-25T17:34:10.616Z</time></trkpt><trkpt lat="41.1611129" lon="-7.9040401"><ele>455.00000000000006</ele><time>2026-04-25T17:34:11.612Z</time></trkpt><trkpt lat="41.1611745" lon="-7.9039556"><ele>454.00000000000006</ele><time>2026-04-25T17:34:12.611Z</time></trkpt><trkpt lat="41.1612498" lon="-7.9038733"><ele>453.0</ele><time>2026-04-25T17:34:13.617Z</time></trkpt><trkpt lat="41.1613292" lon="-7.9037997"><ele>452.0</ele><time>2026-04-25T17:34:14.615Z</time></trkpt><trkpt lat="41.1614085" lon="-7.9037345"><ele>452.0</ele><time>2026-04-25T17:34:15.611Z</time></trkpt><trkpt lat="41.1614922" lon="-7.9036718"><ele>452.00000000000006</ele><time>2026-04-25T17:34:16.605Z</time></trkpt><trkpt lat="41.161578" lon="-7.9036292"><ele>452.00000000000006</ele><time>2026-04-25T17:34:17.616Z</time></trkpt><trkpt lat="41.1616476" lon="-7.9035774"><ele>452.0</ele><time>2026-04-25T17:34:18.61Z</time></trkpt><trkpt lat="41.1617175" lon="-7.9035307"><ele>452.0</ele><time>2026-04-25T17:34:19.611Z</time></trkpt><trkpt lat="41.1618259" lon="-7.9034914"><ele>450.3333333333333</ele><time>2026-04-25T17:34:21.611Z</time></trkpt><trkpt lat="41.1618838" lon="-7.9034545"><ele>448.66666666666663</ele><time>2026-04-25T17:34:22.622Z</time></trkpt><trkpt lat="41.161946" lon="-7.9034239"><ele>447.0</ele><time>2026-04-25T17:34:23.616Z</time></trkpt><trkpt lat="41.1620698" lon="-7.9033742"><ele>445.33333333333337</ele><time>2026-04-25T17:34:25.613Z</time></trkpt><trkpt lat="41.1621431" lon="-7.9033532"><ele>443.6666666666667</ele><time>2026-04-25T17:34:26.61Z</time></trkpt><trkpt lat="41.1622202" lon="-7.9033155"><ele>442.0</ele><time>2026-04-25T17:34:27.613Z</time></trkpt><trkpt lat="41.1622942" lon="-7.9032828"><ele>444.33333333333337</ele><time>2026-04-25T17:34:28.616Z</time></trkpt><trkpt lat="41.1623685" lon="-7.9032515"><ele>446.6666666666667</ele><time>2026-04-25T17:34:29.611Z</time></trkpt><trkpt lat="41.1624491" lon="-7.9032178"><ele>449.0</ele><time>2026-04-25T17:34:30.63Z</time></trkpt><trkpt lat="41.1625223" lon="-7.9031892"><ele>451.33333333333337</ele><time>2026-04-25T17:34:31.621Z</time></trkpt><trkpt lat="41.1626041" lon="-7.9031477"><ele>453.6666666666667</ele><time>2026-04-25T17:34:32.61Z</time></trkpt><trkpt lat="41.1626865" lon="-7.9031019"><ele>456.0</ele><time>2026-04-25T17:34:33.618Z</time></trkpt><trkpt lat="41.1627698" lon="-7.9030666"><ele>456.0</ele><time>2026-04-25T17:34:34.616Z</time></trkpt><trkpt lat="41.1628555" lon="-7.9030349"><ele>456.0</ele><time>2026-04-25T17:34:35.611Z</time></trkpt><trkpt lat="41.1629413" lon="-7.9030201"><ele>456.0</ele><time>2026-04-25T17:34:36.615Z</time></trkpt><trkpt lat="41.1630277" lon="-7.9030083"><ele>456.0</ele><time>2026-04-25T17:34:37.612Z</time></trkpt><trkpt lat="41.1631202" lon="-7.9029953"><ele>456.0</ele><time>2026-04-25T17:34:38.621Z</time></trkpt><trkpt lat="41.1632187" lon="-7.9029876"><ele>456.20000000000005</ele><time>2026-04-25T17:34:39.618Z</time></trkpt><trkpt lat="41.1633166" lon="-7.9029763"><ele>456.40000000000003</ele><time>2026-04-25T17:34:40.61Z</time></trkpt><trkpt lat="41.1634213" lon="-7.9029709"><ele>456.6</ele><time>2026-04-25T17:34:41.621Z</time></trkpt><trkpt lat="41.1635285" lon="-7.9029871"><ele>456.8</ele><time>2026-04-25T17:34:42.618Z</time></trkpt><trkpt lat="41.1636402" lon="-7.9030031"><ele>457.0</ele><time>2026-04-25T17:34:43.611Z</time></trkpt><trkpt lat="41.1637367" lon="-7.9030506"><ele>457.0</ele><time>2026-04-25T17:34:44.613Z</time></trkpt><trkpt lat="41.1638538" lon="-7.9031082"><ele>457.00000000000006</ele><time>2026-04-25T17:34:45.61Z</time></trkpt><trkpt lat="41.1639621" lon="-7.9031698"><ele>457.00000000000006</ele><time>2026-04-25T17:34:46.611Z</time></trkpt><trkpt lat="41.1640693" lon="-7.9032028"><ele>457.0</ele><time>2026-04-25T17:34:47.611Z</time></trkpt><trkpt lat="41.1641607" lon="-7.9032133"><ele>457.0</ele><time>2026-04-25T17:34:48.607Z</time></trkpt><trkpt lat="41.1642359" lon="-7.9032105"><ele>454.20000000000005</ele><time>2026-04-25T17:34:49.614Z</time></trkpt><trkpt lat="41.1642986" lon="-7.903188"><ele>451.40000000000003</ele><time>2026-04-25T17:34:50.606Z</time></trkpt><trkpt lat="41.164369" lon="-7.9031473"><ele>448.59999999999997</ele><time>2026-04-25T17:34:51.613Z</time></trkpt><trkpt lat="41.164401" lon="-7.9030599"><ele>445.79999999999995</ele><time>2026-04-25T17:34:52.619Z</time></trkpt><trkpt lat="41.1643366" lon="-7.9028737"><ele>443.0</ele><time>2026-04-25T17:34:54.619Z</time></trkpt><trkpt lat="41.1642464" lon="-7.9027897"><ele>443.0</ele><time>2026-04-25T17:34:55.615Z</time></trkpt><trkpt lat="41.1641258" lon="-7.9026992"><ele>443.0</ele><time>2026-04-25T17:34:56.618Z</time></trkpt><trkpt lat="41.163999" lon="-7.9026293"><ele>443.0</ele><time>2026-04-25T17:34:57.609Z</time></trkpt><trkpt lat="41.1638888" lon="-7.902562"><ele>443.0</ele><time>2026-04-25T17:34:58.616Z</time></trkpt><trkpt lat="41.16378" lon="-7.9024925"><ele>439.59999999999997</ele><time>2026-04-25T17:34:59.616Z</time></trkpt><trkpt lat="41.163683" lon="-7.9024455"><ele>436.19999999999993</ele><time>2026-04-25T17:35:00.615Z</time></trkpt><trkpt lat="41.1635929" lon="-7.9023957"><ele>432.8</ele><time>2026-04-25T17:35:01.63Z</time></trkpt><trkpt lat="41.1635109" lon="-7.9023506"><ele>429.4</ele><time>2026-04-25T17:35:02.609Z</time></trkpt><trkpt lat="41.1634308" lon="-7.9022948"><ele>426.0</ele><time>2026-04-25T17:35:03.617Z</time></trkpt><trkpt lat="41.1633496" lon="-7.9022365"><ele>426.0</ele><time>2026-04-25T17:35:04.618Z</time></trkpt><trkpt lat="41.163276" lon="-7.9021664"><ele>426.0</ele><time>2026-04-25T17:35:05.61Z</time></trkpt><trkpt lat="41.1632112" lon="-7.9020252"><ele>426.0</ele><time>2026-04-25T17:35:07.613Z</time></trkpt><trkpt lat="41.1631874" lon="-7.9019311"><ele>426.0</ele><time>2026-04-25T17:35:08.617Z</time></trkpt><trkpt lat="41.1631563" lon="-7.9018451"><ele>426.0</ele><time>2026-04-25T17:35:09.609Z</time></trkpt><trkpt lat="41.163126" lon="-7.9017673"><ele>426.0</ele><time>2026-04-25T17:35:10.61Z</time></trkpt><trkpt lat="41.1630373" lon="-7.9016469"><ele>421.8333333333333</ele><time>2026-04-25T17:35:12.609Z</time></trkpt><trkpt lat="41.162983" lon="-7.9015843"><ele>417.66666666666663</ele><time>2026-04-25T17:35:13.609Z</time></trkpt><trkpt lat="41.1629248" lon="-7.9015276"><ele>413.5</ele><time>2026-04-25T17:35:14.613Z</time></trkpt><trkpt lat="41.1628777" lon="-7.9014556"><ele>409.3333333333333</ele><time>2026-04-25T17:35:15.619Z</time></trkpt><trkpt lat="41.1628373" lon="-7.9013444"><ele>405.16666666666663</ele><time>2026-04-25T17:35:16.609Z</time></trkpt><trkpt lat="41.1628279" lon="-7.901222"><ele>401.0</ele><time>2026-04-25T17:35:17.614Z</time></trkpt><trkpt lat="41.1628412" lon="-7.9010914"><ele>401.0</ele><time>2026-04-25T17:35:18.613Z</time></trkpt><trkpt lat="41.1628637" lon="-7.9009564"><ele>401.0</ele><time>2026-04-25T17:35:19.616Z</time></trkpt><trkpt lat="41.1628944" lon="-7.9008192"><ele>401.0</ele><time>2026-04-25T17:35:20.61Z</time></trkpt><trkpt lat="41.1629258" lon="-7.9006876"><ele>401.0</ele><time>2026-04-25T17:35:21.615Z</time></trkpt><trkpt lat="41.1629494" lon="-7.9005641"><ele>401.0</ele><time>2026-04-25T17:35:22.605Z</time></trkpt><trkpt lat="41.1629761" lon="-7.9004444"><ele>398.8</ele><time>2026-04-25T17:35:23.612Z</time></trkpt><trkpt lat="41.1629994" lon="-7.9003133"><ele>396.6</ele><time>2026-04-25T17:35:24.612Z</time></trkpt><trkpt lat="41.1630132" lon="-7.9001986"><ele>394.4</ele><time>2026-04-25T17:35:25.607Z</time></trkpt><trkpt lat="41.1630038" lon="-7.9000878"><ele>392.2</ele><time>2026-04-25T17:35:26.607Z</time></trkpt><trkpt lat="41.1629659" lon="-7.8999712"><ele>390.0</ele><time>2026-04-25T17:35:27.615Z</time></trkpt><trkpt lat="41.1629308" lon="-7.8998481"><ele>389.2</ele><time>2026-04-25T17:35:28.605Z</time></trkpt><trkpt lat="41.1628842" lon="-7.8997366"><ele>388.4</ele><time>2026-04-25T17:35:29.611Z</time></trkpt><trkpt lat="41.1628374" lon="-7.8996163"><ele>387.6</ele><time>2026-04-25T17:35:30.619Z</time></trkpt><trkpt lat="41.1627967" lon="-7.8994953"><ele>386.8</ele><time>2026-04-25T17:35:31.613Z</time></trkpt><trkpt lat="41.1627442" lon="-7.8993903"><ele>386.0</ele><time>2026-04-25T17:35:32.613Z</time></trkpt><trkpt lat="41.1626937" lon="-7.8992763"><ele>385.99999999999994</ele><time>2026-04-25T17:35:33.61Z</time></trkpt><trkpt lat="41.1626543" lon="-7.899165"><ele>386.0</ele><time>2026-04-25T17:35:34.62Z</time></trkpt><trkpt lat="41.1626339" lon="-7.8990541"><ele>386.0</ele><time>2026-04-25T17:35:35.615Z</time></trkpt><trkpt lat="41.1626236" lon="-7.8989453"><ele>386.0</ele><time>2026-04-25T17:35:36.615Z</time></trkpt><trkpt lat="41.1626231" lon="-7.8988262"><ele>385.99999999999994</ele><time>2026-04-25T17:35:37.61Z</time></trkpt><trkpt lat="41.1626252" lon="-7.8986952"><ele>386.0</ele><time>2026-04-25T17:35:38.614Z</time></trkpt><trkpt lat="41.1626513" lon="-7.8985658"><ele>386.0</ele><time>2026-04-25T17:35:39.609Z</time></trkpt><trkpt lat="41.1626812" lon="-7.8984501"><ele>386.0</ele><time>2026-04-25T17:35:40.609Z</time></trkpt><trkpt lat="41.1627197" lon="-7.8983242"><ele>386.0</ele><time>2026-04-25T17:35:41.61Z</time></trkpt><trkpt lat="41.1627499" lon="-7.8981958"><ele>386.0</ele><time>2026-04-25T17:35:42.61Z</time></trkpt><trkpt lat="41.1627741" lon="-7.8980625"><ele>386.0</ele><time>2026-04-25T17:35:43.611Z</time></trkpt><trkpt lat="41.1627954" lon="-7.8979364"><ele>384.6</ele><time>2026-04-25T17:35:44.613Z</time></trkpt><trkpt lat="41.1627992" lon="-7.8977988"><ele>383.20000000000005</ele><time>2026-04-25T17:35:45.613Z</time></trkpt><trkpt lat="41.1627747" lon="-7.8976565"><ele>381.79999999999995</ele><time>2026-04-25T17:35:46.618Z</time></trkpt><trkpt lat="41.162724" lon="-7.8975228"><ele>380.4</ele><time>2026-04-25T17:35:47.611Z</time></trkpt><trkpt lat="41.1626694" lon="-7.8973982"><ele>379.0</ele><time>2026-04-25T17:35:48.616Z</time></trkpt><trkpt lat="41.1626236" lon="-7.8972719"><ele>378.0</ele><time>2026-04-25T17:35:49.609Z</time></trkpt><trkpt lat="41.1626005" lon="-7.8971354"><ele>377.0</ele><time>2026-04-25T17:35:50.605Z</time></trkpt><trkpt lat="41.1626088" lon="-7.8970142"><ele>376.0</ele><time>2026-04-25T17:35:51.608Z</time></trkpt><trkpt lat="41.1626435" lon="-7.896938"><ele>375.0</ele><time>2026-04-25T17:35:52.61Z</time></trkpt><trkpt lat="41.1627165" lon="-7.8969056"><ele>374.0</ele><time>2026-04-25T17:35:53.616Z</time></trkpt><trkpt lat="41.1628092" lon="-7.8969128"><ele>373.0</ele><time>2026-04-25T17:35:54.61Z</time></trkpt><trkpt lat="41.162905" lon="-7.8969241"><ele>373.0</ele><time>2026-04-25T17:35:55.608Z</time></trkpt><trkpt lat="41.1630055" lon="-7.8969249"><ele>373.0</ele><time>2026-04-25T17:35:56.615Z</time></trkpt><trkpt lat="41.1631088" lon="-7.8969207"><ele>373.0</ele><time>2026-04-25T17:35:57.609Z</time></trkpt><trkpt lat="41.163211" lon="-7.8969085"><ele>373.0</ele><time>2026-04-25T17:35:58.609Z</time></trkpt><trkpt lat="41.1633299" lon="-7.8969138"><ele>373.0</ele><time>2026-04-25T17:35:59.618Z</time></trkpt><trkpt lat="41.1634319" lon="-7.896946"><ele>374.2</ele><time>2026-04-25T17:36:00.61Z</time></trkpt><trkpt lat="41.1635268" lon="-7.8969915"><ele>375.4</ele><time>2026-04-25T17:36:01.608Z</time></trkpt><trkpt lat="41.1636198" lon="-7.897051"><ele>376.59999999999997</ele><time>2026-04-25T17:36:02.615Z</time></trkpt><trkpt lat="41.1636941" lon="-7.8971281"><ele>377.79999999999995</ele><time>2026-04-25T17:36:03.617Z</time></trkpt><trkpt lat="41.1637402" lon="-7.8972313"><ele>379.0</ele><time>2026-04-25T17:36:04.611Z</time></trkpt><trkpt lat="41.1637769" lon="-7.8973433"><ele>379.0</ele><time>2026-04-25T17:36:05.608Z</time></trkpt><trkpt lat="41.1637954" lon="-7.8974611"><ele>379.0</ele><time>2026-04-25T17:36:06.616Z</time></trkpt><trkpt lat="41.1638133" lon="-7.8975581"><ele>379.0</ele><time>2026-04-25T17:36:07.616Z</time></trkpt><trkpt lat="41.1638223" lon="-7.8976482"><ele>379.0</ele><time>2026-04-25T17:36:08.612Z</time></trkpt><trkpt lat="41.1638755" lon="-7.8975846"><ele>379.0</ele><time>2026-04-25T17:36:18.628Z</time></trkpt><trkpt lat="41.1639231" lon="-7.8975081"><ele>379.0</ele><time>2026-04-25T17:36:20.614Z</time></trkpt><trkpt lat="41.163974" lon="-7.897391"><ele>379.0</ele><time>2026-04-25T17:36:22.618Z</time></trkpt><trkpt lat="41.1640202" lon="-7.8972414"><ele>379.0</ele><time>2026-04-25T17:36:24.612Z</time></trkpt><trkpt lat="41.1640475" lon="-7.8970815"><ele>379.0</ele><time>2026-04-25T17:36:26.616Z</time></trkpt><trkpt lat="41.1640612" lon="-7.8969076"><ele>379.0</ele><time>2026-04-25T17:36:28.615Z</time></trkpt><trkpt lat="41.1640544" lon="-7.8968123"><ele>379.0</ele><time>2026-04-25T17:36:29.606Z</time></trkpt><trkpt lat="41.1640508" lon="-7.8967162"><ele>376.0</ele><time>2026-04-25T17:36:30.614Z</time></trkpt><trkpt lat="41.1640186" lon="-7.8965665"><ele>373.0</ele><time>2026-04-25T17:36:32.614Z</time></trkpt><trkpt lat="41.1640001" lon="-7.8964721"><ele>370.0</ele><time>2026-04-25T17:36:34.606Z</time></trkpt><trkpt lat="41.1640604" lon="-7.896572"><ele>367.0</ele><time>2026-04-25T17:36:43.619Z</time></trkpt><trkpt lat="41.1640864" lon="-7.8966644"><ele>364.0</ele><time>2026-04-25T17:36:44.616Z</time></trkpt><trkpt lat="41.1641218" lon="-7.896768"><ele>361.0</ele><time>2026-04-25T17:36:45.609Z</time></trkpt><trkpt lat="41.1641672" lon="-7.8968784"><ele>359.20000000000005</ele><time>2026-04-25T17:36:46.618Z</time></trkpt><trkpt lat="41.1642116" lon="-7.8969847"><ele>357.40000000000003</ele><time>2026-04-25T17:36:47.602Z</time></trkpt><trkpt lat="41.1642666" lon="-7.8970574"><ele>355.6</ele><time>2026-04-25T17:36:48.606Z</time></trkpt><trkpt lat="41.1642739" lon="-7.8972476"><ele>353.8</ele><time>2026-04-25T17:36:50.608Z</time></trkpt><trkpt lat="41.1642844" lon="-7.8973847"><ele>352.0</ele><time>2026-04-25T17:36:52.602Z</time></trkpt><trkpt lat="41.1643003" lon="-7.8974673"><ele>354.8</ele><time>2026-04-25T17:36:53.61Z</time></trkpt><trkpt lat="41.1643318" lon="-7.8976054"><ele>357.6</ele><time>2026-04-25T17:36:55.61Z</time></trkpt><trkpt lat="41.1644065" lon="-7.8977183"><ele>360.40000000000003</ele><time>2026-04-25T17:36:57.614Z</time></trkpt><trkpt lat="41.1644987" lon="-7.8977792"><ele>363.20000000000005</ele><time>2026-04-25T17:36:59.609Z</time></trkpt><trkpt lat="41.1646" lon="-7.8977707"><ele>366.0</ele><time>2026-04-25T17:37:01.607Z</time></trkpt><trkpt lat="41.1646725" lon="-7.8977522"><ele>366.0</ele><time>2026-04-25T17:37:03.608Z</time></trkpt><trkpt lat="41.1647539" lon="-7.8977281"><ele>366.0</ele><time>2026-04-25T17:37:06.622Z</time></trkpt><trkpt lat="41.1648375" lon="-7.8976936"><ele>366.0</ele><time>2026-04-25T17:37:11.616Z</time></trkpt><trkpt lat="41.1648798" lon="-7.8976077"><ele>351.0</ele><time>2026-04-25T17:37:23.603Z</time></trkpt></trkseg></trk></gpx>